GFSMA_prec_precacc_018.txt.gz
Total_Precipitation_Accumulation
0.00 0.00 0.00 0.00 0.00 0.00 0.00 0.00 0.00 0.00 0.00 0.00 0.00 0.00 0.00 0.00 0.00 0.00 0.00 0.00 0.00 0.00 0.00 0.00 0.00 0.00 0.00 0.00 0.00 0.00 0.00 0.00 0.00 0.00 0.00 0.00 0.00 0.00 0.00 0.00 0.00 0.00 0.00
0.00 0.00 0.00 0.00 0.00 0.00 0.00 0.00 0.00 0.00 0.00 0.00 0.00 0.00 0.00 0.00 0.00 0.00 0.00 0.00 0.00 0.00 0.00 0.00 0.00 0.00 0.00 0.00 0.00 0.00 0.00 0.00 0.00 0.00 0.00 0.00 0.00 0.00 0.00 0.00 0.00 0.00 0.00
0.00 0.00 0.00 0.00 0.00 0.00 0.00 0.00 0.00 0.00 0.00 0.00 0.00 0.00 0.00 0.00 0.00 0.00 0.00 0.00 0.00 0.00 0.00 0.00 0.00 0.00 0.00 0.00 0.00 0.00 0.00 0.00 0.00 0.00 0.00 0.00 0.00 0.00 0.00 0.00 0.00 0.00 0.00
0.00 0.00 0.00 0.00 0.00 0.00 0.00 0.00 0.00 0.00 0.00 0.00 0.00 0.00 0.00 0.00 0.00 0.00 0.00 0.00 0.00 0.00 0.00 0.00 0.00 0.00 0.00 0.00 0.00 0.00 0.00 0.00 0.00 0.00 0.00 0.00 0.00 0.00 0.00 0.00 0.00 0.00 0.00
0.00 0.00 0.00 0.00 0.00 0.00 0.00 0.00 0.00 0.00 0.00 0.00 0.00 0.00 0.00 0.00 0.00 0.00 0.00 0.00 0.00 0.00 0.00 0.00 0.00 0.00 0.00 0.00 0.00 0.00 0.00 0.00 0.00 0.00 0.00 0.00 0.00 0.00 0.00 0.00 0.00 0.00 0.00
0.00 0.00 0.00 0.00 0.00 0.00 0.00 0.00 0.00 0.00 0.00 0.00 0.00 0.00 0.00 0.00 0.00 0.00 0.00 0.00 0.00 0.00 0.00 0.00 0.00 0.00 0.00 0.00 0.00 0.00 0.00 0.00 0.00 0.00 0.00 0.00 0.00 0.00 0.00 0.00 0.00 0.00 0.00
0.00 0.00 0.00 0.00 0.00 0.00 0.00 0.00 0.00 0.00 0.00 0.00 0.00 0.00 0.00 0.00 0.00 0.00 0.00 0.00 0.00 0.00 0.00 0.00 0.00 0.00 0.00 0.00 0.00 0.00 0.00 0.00 0.00 0.00 0.00 0.00 0.00 0.00 0.00 0.00 0.00 0.00 0.00
0.00 0.00 0.00 0.00 0.00 0.00 0.00 0.00 0.00 0.00 0.00 0.00 0.00 0.00 0.00 0.00 0.00 0.00 0.00 0.00 0.00 0.00 0.00 0.00 0.00 0.00 0.00 0.00 0.00 0.00 0.00 0.00 0.00 0.00 0.00 0.00 0.00 0.00 0.00 0.00 0.00 0.00 0.00
0.00 0.00 0.00 0.00 0.00 0.00 0.00 0.00 0.00 0.00 0.00 0.00 0.00 0.00 0.00 0.00 0.00 0.00 0.00 0.00 0.00 0.00 0.00 0.00 0.00 0.00 0.00 0.00 0.00 0.00 0.00 0.00 0.00 0.00 0.00 0.00 0.00 0.00 0.00 0.00 0.00 0.00 0.00
0.00 0.00 0.00 0.00 0.00 0.00 0.00 0.00 0.00 0.00 0.00 0.00 0.00 0.00 0.00 0.00 0.00 0.00 0.00 0.00 0.00 0.00 0.00 0.00 0.00 0.00 0.00 0.00 0.00 0.00 0.00 0.00 0.00 0.00 0.00 0.00 0.00 0.00 0.00 0.00 0.00 0.00 0.00
0.00 0.00 0.00 0.00 0.00 0.00 0.00 0.00 0.00 0.00 0.00 0.00 0.00 0.00 0.00 0.00 0.00 0.00 0.00 0.00 0.00 0.00 0.00 0.00 0.00 0.00 0.00 0.00 0.00 0.00 0.00 0.00 0.00 0.00 0.00 0.00 0.00 0.00 0.00 0.00 0.00 0.01 0.02
0.01 0.00 0.00 0.00 0.00 0.00 0.00 0.00 0.00 0.00 0.00 0.00 0.00 0.00 0.00 0.00 0.00 0.00 0.00 0.00 0.00 0.00 0.00 0.00 0.00 0.00 0.00 0.00 0.00 0.00 0.00 0.00 0.00 0.00 0.00 0.00 0.00 0.00 0.00 0.01 0.03 0.05 0.06
0.02 0.02 0.01 0.01 0.01 0.00 0.00 0.00 0.00 0.00 0.00 0.00 0.00 0.00 0.00 0.00 0.00 0.00 0.00 0.00 0.00 0.00 0.00 0.00 0.00 0.00 0.00 0.00 0.00 0.00 0.00 0.00 0.00 0.00 0.00 0.00 0.00 0.00 0.00 0.01 0.03 0.05 0.06
0.03 0.02 0.01 0.01 0.01 0.00 0.00 0.00 0.00 0.00 0.00 0.00 0.00 0.00 0.00 0.00 0.00 0.00 0.00 0.00 0.00 0.00 0.00 0.00 0.00 0.00 0.00 0.00 0.00 0.00 0.00 0.00 0.00 0.00 0.00 0.00 0.00 0.00 0.00 0.01 0.02 0.02 0.03
0.04 0.04 0.02 0.01 0.01 0.00 0.00 0.00 0.00 0.00 0.00 0.00 0.00 0.00 0.00 0.00 0.00 0.00 0.00 0.00 0.00 0.00 0.00 0.00 0.00 0.00 0.00 0.00 0.00 0.00 0.00 0.00 0.00 0.00 0.00 0.00 0.00 0.00 0.00 0.01 0.01 0.01 0.01
0.04 0.02 0.01 0.01 0.01 0.00 0.00 0.00 0.00 0.00 0.00 0.00 0.00 0.00 0.00 0.00 0.00 0.00 0.00 0.00 0.00 0.00 0.00 0.00 0.00 0.00 0.00 0.00 0.00 0.00 0.00 0.00 0.00 0.00 0.01 0.01 0.00 0.00 0.00 0.00 0.00 0.01 0.03
0.03 0.02 0.02 0.01 0.01 0.00 0.00 0.00 0.00 0.00 0.00 0.00 0.00 0.00 0.00 0.00 0.00 0.00 0.00 0.00 0.00 0.00 0.00 0.00 0.00 0.00 0.00 0.00 0.00 0.00 0.00 0.00 0.00 0.00 0.00 0.00 0.00 0.00 0.00 0.01 0.01 0.04 0.05
0.02 0.02 0.02 0.02 0.02 0.03 0.02 0.00 0.00 0.00 0.00 0.00 0.00 0.00 0.00 0.00 0.00 0.00 0.00 0.00 0.00 0.00 0.00 0.00 0.00 0.00 0.00 0.00 0.00 0.00 0.00 0.00 0.00 0.00 0.00 0.00 0.00 0.00 0.00 0.01 0.03 0.04 0.05
0.02 0.02 0.02 0.01 0.00 0.00 0.00 0.00 0.00 0.00 0.00 0.00 0.00 0.00 0.00 0.00 0.00 0.00 0.00 0.00 0.00 0.00 0.00 0.00 0.00 0.00 0.00 0.01 0.01 0.00 0.00 0.00 0.00 0.00 0.00 0.00 0.00 0.00 0.00 0.01 0.01 0.02 0.01
0.02 0.02 0.01 0.02 0.03 0.02 0.00 0.00 0.00 0.00 0.00 0.00 0.00 0.00 0.00 0.00 0.00 0.00 0.00 0.00 0.00 0.00 0.00 0.00 0.03 0.04 0.04 0.01 0.00 0.00 0.00 0.00 0.00 0.00 0.00 0.00 0.00 0.00 0.00 0.00 0.00 0.00 0.00
0.01 0.00 0.01 0.01 0.01 0.01 0.00 0.00 0.00 0.00 0.00 0.00 0.00 0.00 0.00 0.00 0.00 0.00 0.00 0.00 0.00 0.02 0.06 0.12 0.10 0.05 0.01 0.00 0.00 0.00 0.00 0.00 0.00 0.00 0.00 0.00 0.00 0.00 0.00 0.00 0.00 0.00 0.00
0.06 0.05 0.04 0.05 0.03 0.01 0.00 0.00 0.00 0.00 0.00 0.00 0.00 0.00 0.00 0.00 0.00 0.00 0.00 0.00 0.02 0.12 0.13 0.09 0.05 0.01 0.00 0.00 0.00 0.01 0.03 0.04 0.03 0.00 0.00 0.00 0.00 0.00 0.00 0.00 0.00 0.00 0.00
0.05 0.12 0.09 0.02 0.00 0.00 0.00 0.00 0.00 0.00 0.00 0.00 0.00 0.00 0.00 0.00 0.00 0.00 0.00 0.02 0.09 0.05 0.03 0.02 0.01 0.00 0.00 0.01 0.05 0.08 0.06 0.06 0.02 0.00 0.01 0.00 0.00 0.00 0.00 0.00 0.00 0.00 0.00
0.08 0.04 0.02 0.01 0.00 0.00 0.00 0.00 0.00 0.00 0.00 0.00 0.00 0.00 0.00 0.00 0.00 0.01 0.03 0.08 0.03 0.00 0.00 0.00 0.00 0.00 0.02 0.02 0.06 0.09 0.02 0.02 0.01 0.00 0.00 0.01 0.00 0.00 0.00 0.00 0.00 0.00 0.00
0.16 0.10 0.06 0.01 0.00 0.00 0.00 0.00 0.00 0.00 0.00 0.00 0.00 0.00 0.00 0.00 0.00 0.02 0.04 0.02 0.00 0.00 0.00 0.00 0.01 0.01 0.01 0.00 0.00 0.01 0.02 0.04 0.03 0.00 0.00 0.00 0.00 0.00 0.00 0.00 0.00 0.00 0.00
0.03 0.01 0.00 0.00 0.00 0.00 0.00 0.00 0.00 0.00 0.00 0.00 0.00 0.00 0.00 0.01 0.01 0.04 0.03 0.00 0.00 0.00 0.03 0.02 0.00 0.00 0.00 0.00 0.00 0.00 0.01 0.12 0.07 0.08 0.00 0.09 0.04 0.03 0.12 0.01 0.00 0.00 0.00

GFSMA_prec_precacc_021.txt.gz
Total_Precipitation_Accumulation
0.00 0.00 0.00 0.00 0.00 0.00 0.00 0.00 0.00 0.00 0.00 0.00 0.00 0.00 0.00 0.00 0.00 0.00 0.00 0.00 0.00 0.00 0.00 0.00 0.00 0.00 0.00 0.00 0.00 0.00 0.00 0.00 0.00 0.00 0.00 0.00 0.00 0.00 0.00 0.00 0.00 0.00 0.00
0.00 0.00 0.00 0.00 0.00 0.00 0.00 0.00 0.00 0.00 0.00 0.00 0.00 0.00 0.00 0.00 0.00 0.00 0.00 0.00 0.00 0.00 0.00 0.00 0.00 0.00 0.00 0.00 0.00 0.00 0.00 0.00 0.00 0.00 0.00 0.00 0.00 0.00 0.00 0.00 0.00 0.00 0.00
0.00 0.00 0.00 0.00 0.00 0.00 0.00 0.00 0.00 0.00 0.00 0.00 0.00 0.00 0.00 0.00 0.00 0.00 0.00 0.00 0.00 0.00 0.00 0.00 0.00 0.00 0.00 0.00 0.00 0.00 0.00 0.00 0.00 0.00 0.00 0.00 0.00 0.00 0.00 0.00 0.00 0.00 0.00
0.00 0.00 0.00 0.00 0.00 0.00 0.00 0.00 0.00 0.00 0.00 0.00 0.00 0.00 0.00 0.00 0.00 0.00 0.00 0.00 0.00 0.00 0.00 0.00 0.00 0.00 0.00 0.00 0.00 0.00 0.00 0.00 0.00 0.00 0.00 0.00 0.00 0.00 0.00 0.00 0.00 0.00 0.00
0.00 0.00 0.00 0.00 0.00 0.00 0.00 0.00 0.00 0.00 0.00 0.00 0.00 0.00 0.00 0.00 0.00 0.00 0.00 0.00 0.00 0.00 0.00 0.00 0.00 0.00 0.00 0.00 0.00 0.00 0.00 0.00 0.00 0.00 0.00 0.00 0.00 0.00 0.00 0.00 0.00 0.00 0.00
0.00 0.00 0.00 0.00 0.00 0.00 0.00 0.00 0.00 0.00 0.00 0.00 0.00 0.00 0.00 0.00 0.00 0.00 0.00 0.00 0.00 0.00 0.00 0.00 0.00 0.00 0.00 0.00 0.00 0.00 0.00 0.00 0.00 0.00 0.00 0.00 0.00 0.00 0.00 0.00 0.00 0.00 0.00
0.00 0.00 0.00 0.00 0.00 0.00 0.00 0.00 0.00 0.00 0.00 0.00 0.00 0.00 0.00 0.00 0.00 0.00 0.00 0.00 0.00 0.00 0.00 0.00 0.00 0.00 0.00 0.00 0.00 0.00 0.00 0.00 0.00 0.00 0.00 0.00 0.00 0.00 0.00 0.00 0.00 0.00 0.00
0.00 0.00 0.00 0.00 0.00 0.00 0.00 0.00 0.00 0.00 0.00 0.00 0.00 0.00 0.00 0.00 0.00 0.00 0.00 0.00 0.00 0.00 0.00 0.00 0.00 0.00 0.00 0.00 0.00 0.00 0.00 0.00 0.00 0.00 0.00 0.00 0.00 0.00 0.00 0.00 0.00 0.00 0.00
0.01 0.00 0.00 0.00 0.00 0.00 0.00 0.00 0.00 0.00 0.00 0.00 0.00 0.00 0.00 0.00 0.00 0.00 0.00 0.00 0.00 0.00 0.00 0.00 0.00 0.00 0.00 0.00 0.00 0.00 0.00 0.00 0.00 0.00 0.00 0.00 0.00 0.00 0.00 0.00 0.00 0.00 0.00
0.03 0.00 0.00 0.00 0.00 0.00 0.00 0.00 0.00 0.00 0.00 0.00 0.00 0.00 0.00 0.00 0.00 0.00 0.00 0.00 0.00 0.00 0.00 0.00 0.00 0.00 0.00 0.00 0.00 0.00 0.00 0.00 0.00 0.00 0.00 0.00 0.00 0.00 0.00 0.00 0.00 0.00 0.00
0.06 0.04 0.01 0.01 0.01 0.01 0.00 0.00 0.00 0.00 0.00 0.00 0.00 0.00 0.00 0.00 0.00 0.00 0.00 0.00 0.00 0.00 0.00 0.00 0.00 0.00 0.00 0.00 0.00 0.00 0.00 0.00 0.00 0.00 0.00 0.00 0.00 0.00 0.00 0.00 0.00 0.01 0.02
0.04 0.03 0.03 0.01 0.01 0.01 0.01 0.00 0.00 0.00 0.00 0.00 0.00 0.00 0.00 0.00 0.00 0.00 0.00 0.00 0.00 0.00 0.00 0.00 0.00 0.00 0.00 0.00 0.00 0.00 0.00 0.00 0.00 0.00 0.00 0.00 0.00 0.00 0.00 0.01 0.03 0.05 0.06
0.04 0.04 0.04 0.03 0.02 0.01 0.01 0.00 0.00 0.00 0.00 0.00 0.00 0.00 0.00 0.00 0.00 0.00 0.00 0.00 0.00 0.00 0.00 0.00 0.00 0.00 0.00 0.00 0.00 0.00 0.00 0.00 0.00 0.00 0.00 0.00 0.00 0.00 0.00 0.01 0.03 0.05 0.06
0.06 0.06 0.04 0.03 0.02 0.02 0.01 0.00 0.00 0.00 0.00 0.00 0.00 0.00 0.00 0.00 0.00 0.00 0.00 0.00 0.00 0.00 0.00 0.00 0.00 0.00 0.00 0.00 0.00 0.00 0.00 0.00 0.00 0.00 0.00 0.00 0.00 0.00 0.00 0.01 0.02 0.02 0.03
0.06 0.06 0.04 0.03 0.02 0.02 0.01 0.01 0.00 0.00 0.00 0.00 0.00 0.00 0.00 0.00 0.00 0.00 0.00 0.00 0.00 0.00 0.00 0.00 0.00 0.00 0.00 0.00 0.00 0.00 0.00 0.00 0.00 0.00 0.00 0.00 0.00 0.00 0.00 0.01 0.01 0.01 0.01
0.06 0.04 0.02 0.02 0.02 0.01 0.01 0.00 0.00 0.00 0.00 0.00 0.00 0.00 0.00 0.00 0.00 0.00 0.00 0.00 0.00 0.00 0.00 0.00 0.00 0.00 0.00 0.00 0.00 0.00 0.00 0.00 0.00 0.00 0.01 0.01 0.00 0.00 0.00 0.00 0.00 0.01 0.03
0.05 0.04 0.03 0.02 0.01 0.01 0.01 0.00 0.00 0.00 0.00 0.00 0.00 0.00 0.00 0.00 0.00 0.00 0.00 0.00 0.00 0.00 0.00 0.00 0.00 0.00 0.00 0.00 0.00 0.00 0.00 0.00 0.00 0.00 0.00 0.00 0.00 0.00 0.00 0.01 0.01 0.04 0.05
0.04 0.03 0.03 0.02 0.02 0.04 0.04 0.04 0.04 0.04 0.03 0.01 0.00 0.00 0.00 0.00 0.00 0.00 0.00 0.00 0.00 0.00 0.00 0.00 0.00 0.00 0.00 0.00 0.00 0.00 0.00 0.00 0.00 0.00 0.00 0.00 0.00 0.00 0.00 0.01 0.03 0.05 0.05
0.05 0.03 0.02 0.01 0.01 0.01 0.02 0.04 0.03 0.03 0.01 0.00 0.00 0.00 0.00 0.00 0.00 0.00 0.00 0.00 0.00 0.00 0.00 0.00 0.00 0.00 0.00 0.01 0.01 0.00 0.00 0.00 0.00 0.00 0.00 0.00 0.00 0.00 0.00 0.01 0.01 0.02 0.01
0.04 0.02 0.01 0.02 0.03 0.05 0.07 0.08 0.06 0.03 0.00 0.00 0.00 0.00 0.00 0.00 0.00 0.00 0.00 0.00 0.00 0.00 0.00 0.00 0.03 0.04 0.04 0.01 0.00 0.00 0.00 0.00 0.00 0.00 0.00 0.00 0.00 0.00 0.00 0.00 0.00 0.00 0.00
0.02 0.01 0.02 0.03 0.04 0.04 0.07 0.07 0.03 0.01 0.00 0.00 0.00 0.00 0.00 0.00 0.00 0.00 0.00 0.00 0.00 0.02 0.06 0.12 0.10 0.05 0.01 0.00 0.00 0.00 0.00 0.00 0.00 0.00 0.00 0.00 0.00 0.00 0.00 0.00 0.00 0.00 0.00
0.06 0.05 0.05 0.07 0.09 0.10 0.10 0.06 0.02 0.01 0.01 0.01 0.00 0.00 0.00 0.00 0.00 0.00 0.00 0.00 0.02 0.12 0.13 0.09 0.05 0.01 0.00 0.00 0.00 0.01 0.03 0.05 0.04 0.00 0.00 0.00 0.00 0.00 0.00 0.00 0.00 0.00 0.00
0.06 0.15 0.16 0.10 0.06 0.04 0.04 0.03 0.01 0.01 0.01 0.01 0.00 0.00 0.00 0.00 0.00 0.00 0.00 0.02 0.09 0.05 0.03 0.02 0.01 0.00 0.00 0.01 0.05 0.08 0.06 0.07 0.03 0.00 0.01 0.00 0.00 0.00 0.00 0.00 0.00 0.00 0.00
0.11 0.09 0.12 0.17 0.19 0.17 0.12 0.05 0.02 0.01 0.00 0.00 0.00 0.00 0.00 0.00 0.00 0.01 0.03 0.08 0.03 0.00 0.00 0.00 0.00 0.00 0.02 0.02 0.06 0.11 0.03 0.02 0.01 0.00 0.00 0.01 0.00 0.00 0.00 0.00 0.00 0.00 0.00
0.41 0.39 0.31 0.25 0.16 0.09 0.03 0.01 0.01 0.01 0.00 0.00 0.00 0.00 0.00 0.00 0.00 0.02 0.04 0.02 0.00 0.00 0.00 0.00 0.01 0.01 0.01 0.00 0.00 0.01 0.02 0.04 0.03 0.00 0.00 0.00 0.00 0.00 0.00 0.00 0.00 0.00 0.00
0.34 0.24 0.19 0.09 0.02 0.01 0.00 0.00 0.00 0.00 0.00 0.00 0.00 0.00 0.00 0.01 0.01 0.04 0.03 0.00 0.00 0.00 0.03 0.02 0.00 0.00 0.00 0.00 0.00 0.00 0.01 0.12 0.08 0.09 0.00 0.09 0.04 0.03 0.12 0.01 0.00 0.00 0.00

GFSMA_prec_precacc_027.txt.gz
Total_Precipitation_Accumulation
0.00 0.00 0.00 0.00 0.00 0.00 0.00 0.00 0.00 0.00 0.00 0.00 0.00 0.00 0.00 0.00 0.00 0.00 0.00 0.00 0.00 0.00 0.00 0.00 0.00 0.00 0.00 0.00 0.00 0.00 0.00 0.00 0.00 0.00 0.00 0.00 0.00 0.00 0.00 0.00 0.00 0.00 0.00
0.00 0.00 0.00 0.00 0.00 0.00 0.00 0.00 0.00 0.00 0.00 0.00 0.00 0.00 0.00 0.00 0.00 0.00 0.00 0.00 0.00 0.00 0.00 0.00 0.00 0.00 0.00 0.00 0.00 0.00 0.00 0.00 0.00 0.00 0.00 0.00 0.00 0.00 0.00 0.00 0.00 0.00 0.00
0.00 0.00 0.00 0.00 0.00 0.00 0.00 0.00 0.00 0.00 0.00 0.00 0.00 0.00 0.00 0.00 0.00 0.00 0.00 0.00 0.00 0.00 0.00 0.00 0.00 0.00 0.00 0.00 0.00 0.00 0.00 0.00 0.00 0.00 0.00 0.00 0.00 0.00 0.00 0.00 0.00 0.00 0.00
0.00 0.00 0.00 0.00 0.00 0.00 0.00 0.00 0.00 0.00 0.00 0.00 0.00 0.00 0.00 0.00 0.00 0.00 0.00 0.00 0.00 0.00 0.00 0.00 0.00 0.00 0.00 0.00 0.00 0.00 0.00 0.00 0.00 0.00 0.00 0.00 0.00 0.00 0.00 0.00 0.00 0.00 0.00
0.00 0.00 0.00 0.00 0.00 0.00 0.00 0.00 0.00 0.00 0.00 0.00 0.00 0.00 0.00 0.00 0.00 0.00 0.00 0.00 0.00 0.00 0.00 0.00 0.00 0.00 0.00 0.00 0.00 0.00 0.00 0.00 0.00 0.00 0.00 0.00 0.00 0.00 0.00 0.00 0.00 0.00 0.00
0.03 0.00 0.00 0.00 0.00 0.00 0.00 0.00 0.00 0.00 0.00 0.00 0.00 0.00 0.00 0.00 0.00 0.00 0.00 0.00 0.00 0.00 0.00 0.00 0.00 0.00 0.00 0.00 0.00 0.00 0.00 0.00 0.00 0.00 0.00 0.00 0.00 0.00 0.00 0.00 0.00 0.00 0.00
0.05 0.03 0.02 0.00 0.00 0.00 0.00 0.00 0.00 0.00 0.00 0.00 0.00 0.00 0.00 0.00 0.00 0.00 0.00 0.00 0.00 0.00 0.00 0.00 0.00 0.00 0.00 0.00 0.00 0.00 0.00 0.00 0.00 0.00 0.00 0.00 0.00 0.00 0.00 0.00 0.00 0.00 0.00
0.05 0.04 0.05 0.02 0.01 0.00 0.00 0.00 0.00 0.00 0.00 0.00 0.00 0.00 0.00 0.00 0.00 0.00 0.00 0.00 0.00 0.00 0.00 0.00 0.00 0.00 0.00 0.00 0.00 0.00 0.00 0.00 0.00 0.00 0.00 0.00 0.00 0.00 0.00 0.00 0.00 0.00 0.00
0.05 0.07 0.16 0.11 0.01 0.00 0.00 0.00 0.00 0.00 0.00 0.00 0.00 0.00 0.00 0.00 0.00 0.00 0.00 0.00 0.00 0.00 0.00 0.00 0.00 0.00 0.00 0.00 0.00 0.00 0.00 0.00 0.00 0.00 0.00 0.00 0.00 0.00 0.00 0.00 0.00 0.00 0.00
0.14 0.10 0.15 0.16 0.06 0.01 0.01 0.00 0.00 0.00 0.00 0.00 0.00 0.00 0.00 0.00 0.00 0.00 0.00 0.00 0.00 0.00 0.00 0.00 0.00 0.00 0.00 0.00 0.00 0.00 0.00 0.00 0.00 0.00 0.00 0.00 0.00 0.00 0.00 0.00 0.00 0.00 0.00
0.19 0.17 0.14 0.14 0.12 0.04 0.04 0.01 0.00 0.00 0.00 0.00 0.00 0.00 0.00 0.00 0.00 0.00 0.00 0.00 0.00 0.00 0.00 0.00 0.00 0.00 0.00 0.00 0.00 0.00 0.00 0.00 0.00 0.00 0.00 0.00 0.00 0.00 0.00 0.00 0.00 0.01 0.02
0.13 0.12 0.11 0.11 0.15 0.13 0.09 0.06 0.03 0.02 0.01 0.00 0.00 0.00 0.00 0.00 0.00 0.00 0.00 0.00 0.00 0.00 0.00 0.00 0.00 0.00 0.00 0.00 0.00 0.00 0.00 0.00 0.00 0.00 0.00 0.00 0.00 0.00 0.00 0.01 0.03 0.05 0.06
0.07 0.07 0.12 0.11 0.11 0.12 0.11 0.09 0.07 0.04 0.03 0.02 0.01 0.00 0.00 0.00 0.00 0.00 0.00 0.00 0.00 0.00 0.00 0.00 0.00 0.00 0.00 0.00 0.00 0.00 0.00 0.00 0.00 0.00 0.00 0.00 0.00 0.00 0.00 0.01 0.03 0.05 0.06
0.11 0.14 0.14 0.15 0.14 0.12 0.09 0.07 0.05 0.04 0.02 0.01 0.00 0.00 0.00 0.00 0.00 0.00 0.00 0.00 0.00 0.00 0.00 0.00 0.00 0.00 0.00 0.00 0.00 0.00 0.00 0.00 0.00 0.00 0.00 0.00 0.00 0.00 0.00 0.01 0.02 0.02 0.03
0.11 0.15 0.14 0.14 0.14 0.14 0.11 0.07 0.06 0.04 0.02 0.01 0.00 0.00 0.00 0.00 0.01 0.01 0.01 0.00 0.00 0.00 0.00 0.00 0.00 0.00 0.00 0.00 0.00 0.00 0.00 0.00 0.00 0.00 0.00 0.00 0.00 0.00 0.00 0.01 0.01 0.01 0.01
0.10 0.09 0.09 0.11 0.13 0.13 0.10 0.08 0.05 0.02 0.01 0.02 0.02 0.02 0.02 0.02 0.01 0.00 0.00 0.00 0.00 0.00 0.00 0.00 0.00 0.00 0.00 0.00 0.00 0.00 0.00 0.00 0.00 0.00 0.01 0.01 0.00 0.00 0.00 0.00 0.00 0.01 0.03
0.07 0.07 0.08 0.08 0.09 0.08 0.07 0.06 0.06 0.02 0.01 0.01 0.01 0.01 0.02 0.01 0.01 0.02 0.02 0.01 0.01 0.00 0.00 0.00 0.00 0.00 0.00 0.00 0.00 0.00 0.00 0.00 0.00 0.00 0.00 0.00 0.00 0.00 0.00 0.01 0.01 0.04 0.06
0.05 0.05 0.05 0.04 0.04 0.06 0.08 0.07 0.07 0.06 0.05 0.05 0.06 0.07 0.07 0.06 0.04 0.02 0.01 0.01 0.01 0.01 0.01 0.01 0.00 0.00 0.00 0.00 0.00 0.00 0.00 0.00 0.00 0.00 0.00 0.00 0.00 0.00 0.00 0.01 0.03 0.05 0.06
0.06 0.05 0.04 0.03 0.02 0.02 0.03 0.04 0.05 0.07 0.10 0.13 0.15 0.14 0.08 0.05 0.03 0.02 0.01 0.02 0.04 0.05 0.03 0.01 0.00 0.00 0.00 0.01 0.01 0.00 0.00 0.00 0.00 0.00 0.00 0.00 0.00 0.00 0.01 0.01 0.02 0.02 0.01
0.05 0.04 0.05 0.05 0.06 0.06 0.07 0.09 0.08 0.07 0.06 0.05 0.04 0.04 0.05 0.06 0.07 0.09 0.12 0.12 0.08 0.04 0.02 0.01 0.03 0.04 0.04 0.01 0.00 0.00 0.00 0.00 0.00 0.00 0.00 0.00 0.00 0.00 0.00 0.00 0.00 0.00 0.00
0.04 0.04 0.08 0.14 0.16 0.16 0.19 0.18 0.17 0.16 0.17 0.18 0.17 0.17 0.19 0.16 0.15 0.14 0.10 0.06 0.04 0.03 0.07 0.12 0.10 0.05 0.01 0.00 0.00 0.00 0.00 0.00 0.00 0.00 0.00 0.00 0.00 0.00 0.00 0.00 0.00 0.00 0.00
0.10 0.09 0.12 0.14 0.16 0.20 0.32 0.27 0.21 0.22 0.23 0.21 0.17 0.16 0.15 0.13 0.09 0.07 0.05 0.04 0.04 0.13 0.13 0.09 0.05 0.01 0.00 0.00 0.00 0.01 0.03 0.05 0.05 0.00 0.00 0.00 0.00 0.00 0.00 0.00 0.00 0.00 0.00
0.13 0.22 0.23 0.18 0.15 0.13 0.22 0.17 0.16 0.17 0.19 0.19 0.16 0.12 0.09 0.06 0.04 0.04 0.02 0.03 0.09 0.05 0.03 0.02 0.01 0.00 0.00 0.01 0.05 0.08 0.07 0.07 0.03 0.00 0.01 0.00 0.00 0.00 0.00 0.00 0.00 0.00 0.00
0.28 0.23 0.26 0.34 0.40 0.41 0.37 0.30 0.23 0.16 0.13 0.11 0.10 0.08 0.04 0.02 0.00 0.01 0.03 0.08 0.03 0.00 0.00 0.00 0.00 0.00 0.02 0.02 0.06 0.12 0.05 0.02 0.01 0.00 0.00 0.01 0.00 0.00 0.00 0.00 0.00 0.00 0.00
0.67 0.75 0.58 0.47 0.47 0.43 0.31 0.21 0.14 0.11 0.09 0.07 0.04 0.01 0.00 0.00 0.00 0.02 0.04 0.02 0.00 0.00 0.00 0.00 0.01 0.01 0.01 0.01 0.00 0.01 0.02 0.04 0.03 0.00 0.00 0.00 0.00 0.00 0.00 0.00 0.00 0.00 0.00
0.65 0.58 0.52 0.40 0.27 0.17 0.12 0.08 0.05 0.04 0.02 0.01 0.00 0.00 0.00 0.01 0.01 0.04 0.03 0.00 0.00 0.00 0.03 0.02 0.00 0.00 0.00 0.00 0.00 0.00 0.01 0.12 0.09 0.10 0.00 0.10 0.04 0.03 0.14 0.01 0.00 0.00 0.00

GFSMA_prec_precacc_030.txt.gz
Total_Precipitation_Accumulation
0.00 0.00 0.00 0.01 0.01 0.00 0.00 0.00 0.00 0.00 0.00 0.00 0.00 0.00 0.00 0.00 0.00 0.00 0.00 0.00 0.00 0.00 0.00 0.00 0.00 0.00 0.00 0.00 0.00 0.00 0.00 0.00 0.00 0.00 0.00 0.00 0.00 0.00 0.00 0.00 0.00 0.00 0.00
0.00 0.00 0.00 0.00 0.00 0.00 0.00 0.00 0.00 0.00 0.00 0.00 0.00 0.00 0.00 0.00 0.00 0.00 0.00 0.00 0.00 0.00 0.00 0.00 0.00 0.00 0.00 0.00 0.00 0.00 0.00 0.00 0.00 0.00 0.00 0.00 0.00 0.00 0.00 0.00 0.00 0.00 0.00
0.00 0.00 0.00 0.00 0.00 0.00 0.00 0.00 0.00 0.00 0.00 0.00 0.00 0.00 0.00 0.00 0.00 0.00 0.00 0.00 0.00 0.00 0.00 0.00 0.00 0.00 0.00 0.00 0.00 0.00 0.00 0.00 0.00 0.00 0.00 0.00 0.00 0.00 0.00 0.00 0.00 0.00 0.00
0.00 0.00 0.00 0.00 0.00 0.00 0.00 0.00 0.00 0.00 0.00 0.00 0.00 0.00 0.00 0.00 0.00 0.00 0.00 0.00 0.00 0.00 0.00 0.00 0.00 0.00 0.00 0.00 0.00 0.00 0.00 0.00 0.00 0.00 0.00 0.00 0.00 0.00 0.00 0.00 0.00 0.00 0.00
0.01 0.00 0.00 0.00 0.00 0.00 0.00 0.00 0.00 0.00 0.00 0.00 0.00 0.00 0.00 0.00 0.00 0.00 0.00 0.00 0.00 0.00 0.00 0.00 0.00 0.00 0.00 0.00 0.00 0.00 0.00 0.00 0.00 0.00 0.00 0.00 0.00 0.00 0.00 0.00 0.00 0.00 0.00
0.07 0.04 0.01 0.00 0.00 0.00 0.00 0.00 0.00 0.00 0.00 0.00 0.00 0.00 0.00 0.00 0.00 0.00 0.00 0.00 0.00 0.00 0.00 0.00 0.00 0.00 0.00 0.00 0.00 0.00 0.00 0.00 0.00 0.00 0.00 0.00 0.00 0.00 0.00 0.00 0.00 0.00 0.00
0.08 0.07 0.07 0.03 0.00 0.00 0.00 0.00 0.00 0.00 0.00 0.00 0.00 0.00 0.00 0.00 0.00 0.00 0.00 0.00 0.00 0.00 0.00 0.00 0.00 0.00 0.00 0.00 0.00 0.00 0.00 0.00 0.00 0.00 0.00 0.00 0.00 0.00 0.00 0.00 0.00 0.00 0.00
0.05 0.08 0.09 0.06 0.02 0.00 0.00 0.00 0.00 0.00 0.00 0.00 0.00 0.00 0.00 0.00 0.00 0.00 0.00 0.00 0.00 0.00 0.00 0.00 0.00 0.00 0.00 0.00 0.00 0.00 0.00 0.00 0.00 0.00 0.00 0.00 0.00 0.00 0.00 0.00 0.00 0.00 0.00
0.06 0.09 0.21 0.15 0.04 0.01 0.00 0.00 0.00 0.00 0.00 0.00 0.00 0.00 0.00 0.00 0.00 0.00 0.00 0.00 0.00 0.00 0.00 0.00 0.00 0.00 0.00 0.00 0.00 0.00 0.00 0.00 0.00 0.00 0.00 0.00 0.00 0.00 0.00 0.00 0.00 0.00 0.00
0.19 0.15 0.18 0.18 0.11 0.03 0.03 0.01 0.00 0.00 0.00 0.00 0.00 0.00 0.00 0.00 0.00 0.00 0.00 0.00 0.00 0.00 0.00 0.00 0.00 0.00 0.00 0.00 0.00 0.00 0.00 0.00 0.00 0.00 0.00 0.00 0.00 0.00 0.00 0.00 0.00 0.00 0.00
0.21 0.21 0.19 0.19 0.16 0.06 0.06 0.05 0.02 0.00 0.00 0.00 0.00 0.00 0.00 0.00 0.00 0.00 0.00 0.00 0.00 0.00 0.00 0.00 0.00 0.00 0.00 0.00 0.00 0.00 0.00 0.00 0.00 0.00 0.00 0.00 0.00 0.00 0.00 0.00 0.00 0.01 0.02
0.14 0.15 0.15 0.15 0.19 0.18 0.12 0.09 0.09 0.05 0.02 0.00 0.00 0.00 0.00 0.00 0.00 0.00 0.00 0.00 0.00 0.00 0.00 0.00 0.00 0.00 0.00 0.00 0.00 0.00 0.00 0.00 0.00 0.00 0.00 0.00 0.00 0.00 0.00 0.01 0.03 0.05 0.06
0.07 0.08 0.13 0.14 0.15 0.18 0.19 0.16 0.13 0.10 0.07 0.04 0.03 0.02 0.01 0.00 0.00 0.00 0.00 0.00 0.00 0.00 0.00 0.00 0.00 0.00 0.00 0.00 0.00 0.00 0.00 0.00 0.00 0.00 0.00 0.00 0.00 0.00 0.00 0.01 0.03 0.05 0.06
0.11 0.15 0.15 0.16 0.17 0.18 0.17 0.16 0.14 0.11 0.08 0.06 0.04 0.02 0.01 0.01 0.00 0.00 0.00 0.00 0.00 0.00 0.00 0.00 0.00 0.00 0.00 0.00 0.00 0.00 0.00 0.00 0.00 0.00 0.00 0.00 0.00 0.00 0.00 0.01 0.02 0.02 0.03
0.12 0.15 0.14 0.15 0.16 0.17 0.17 0.17 0.16 0.13 0.09 0.05 0.03 0.01 0.01 0.01 0.01 0.01 0.01 0.00 0.01 0.00 0.00 0.00 0.00 0.00 0.00 0.00 0.00 0.00 0.00 0.00 0.00 0.00 0.00 0.00 0.00 0.00 0.00 0.01 0.01 0.01 0.01
0.10 0.10 0.10 0.12 0.14 0.15 0.14 0.13 0.12 0.09 0.08 0.06 0.05 0.05 0.05 0.03 0.01 0.01 0.00 0.00 0.00 0.00 0.00 0.00 0.00 0.00 0.00 0.00 0.00 0.00 0.00 0.00 0.00 0.00 0.01 0.01 0.00 0.00 0.00 0.00 0.00 0.01 0.03
0.07 0.07 0.08 0.09 0.09 0.09 0.09 0.09 0.10 0.17 0.24 0.30 0.31 0.30 0.17 0.05 0.02 0.03 0.03 0.04 0.04 0.03 0.04 0.02 0.01 0.01 0.02 0.02 0.01 0.00 0.00 0.00 0.00 0.00 0.00 0.00 0.00 0.00 0.01 0.01 0.02 0.04 0.06
0.05 0.05 0.05 0.04 0.04 0.06 0.08 0.09 0.08 0.08 0.09 0.14 0.20 0.24 0.24 0.13 0.10 0.10 0.10 0.10 0.10 0.08 0.08 0.07 0.05 0.06 0.06 0.04 0.03 0.01 0.00 0.00 0.00 0.00 0.00 0.00 0.00 0.00 0.00 0.01 0.03 0.05 0.06
0.06 0.05 0.04 0.03 0.02 0.02 0.03 0.05 0.07 0.09 0.13 0.20 0.24 0.24 0.24 0.20 0.16 0.10 0.07 0.09 0.13 0.14 0.14 0.10 0.05 0.02 0.03 0.04 0.04 0.02 0.00 0.00 0.00 0.00 0.00 0.00 0.00 0.00 0.01 0.01 0.02 0.02 0.01
0.05 0.04 0.05 0.05 0.06 0.06 0.07 0.09 0.08 0.07 0.06 0.06 0.06 0.07 0.08 0.11 0.13 0.16 0.21 0.24 0.20 0.13 0.08 0.05 0.06 0.06 0.05 0.02 0.00 0.00 0.00 0.00 0.00 0.00 0.00 0.00 0.00 0.00 0.00 0.00 0.00 0.00 0.00
0.04 0.04 0.08 0.14 0.16 0.16 0.19 0.18 0.17 0.17 0.17 0.20 0.21 0.24 0.28 0.33 0.36 0.34 0.25 0.16 0.09 0.07 0.10 0.15 0.12 0.05 0.01 0.00 0.00 0.00 0.00 0.00 0.00 0.00 0.00 0.00 0.00 0.00 0.00 0.00 0.00 0.00 0.00
0.10 0.10 0.12 0.14 0.17 0.20 0.33 0.28 0.24 0.25 0.27 0.27 0.29 0.31 0.31 0.28 0.20 0.12 0.07 0.05 0.06 0.15 0.14 0.09 0.05 0.01 0.00 0.00 0.00 0.01 0.03 0.05 0.05 0.00 0.00 0.00 0.00 0.00 0.00 0.00 0.00 0.00 0.00
0.14 0.23 0.24 0.19 0.15 0.14 0.25 0.21 0.20 0.19 0.22 0.23 0.20 0.16 0.12 0.08 0.06 0.05 0.03 0.03 0.09 0.05 0.03 0.02 0.01 0.00 0.00 0.01 0.06 0.08 0.07 0.08 0.03 0.00 0.01 0.00 0.00 0.00 0.00 0.00 0.00 0.00 0.00
0.28 0.24 0.27 0.37 0.44 0.49 0.47 0.33 0.26 0.18 0.14 0.12 0.10 0.09 0.05 0.02 0.01 0.01 0.03 0.08 0.03 0.00 0.00 0.00 0.00 0.00 0.02 0.03 0.07 0.13 0.05 0.02 0.01 0.00 0.00 0.01 0.00 0.00 0.00 0.00 0.00 0.00 0.00
0.67 0.77 0.63 0.55 0.65 0.71 0.54 0.39 0.22 0.15 0.12 0.08 0.05 0.01 0.00 0.00 0.00 0.02 0.04 0.02 0.00 0.00 0.00 0.00 0.01 0.01 0.01 0.01 0.00 0.01 0.02 0.04 0.03 0.00 0.00 0.00 0.00 0.00 0.00 0.00 0.00 0.00 0.00
0.68 0.66 0.69 0.56 0.49 0.40 0.25 0.16 0.08 0.05 0.02 0.01 0.00 0.00 0.00 0.01 0.01 0.04 0.03 0.01 0.00 0.00 0.03 0.02 0.00 0.00 0.00 0.00 0.00 0.00 0.01 0.12 0.09 0.10 0.00 0.10 0.04 0.03 0.14 0.01 0.00 0.00 0.00

GFSMA_prec_precacc_033.txt.gz
Total_Precipitation_Accumulation
0.00 0.00 0.01 0.02 0.01 0.00 0.00 0.00 0.00 0.00 0.00 0.00 0.00 0.00 0.00 0.00 0.00 0.00 0.00 0.00 0.00 0.00 0.00 0.00 0.00 0.00 0.00 0.00 0.00 0.00 0.00 0.00 0.00 0.00 0.00 0.00 0.00 0.00 0.00 0.00 0.00 0.00 0.00
0.00 0.00 0.00 0.00 0.01 0.00 0.00 0.00 0.00 0.00 0.00 0.00 0.00 0.00 0.00 0.00 0.00 0.00 0.00 0.00 0.00 0.00 0.00 0.00 0.00 0.00 0.00 0.00 0.00 0.00 0.00 0.00 0.00 0.00 0.00 0.00 0.00 0.00 0.00 0.00 0.00 0.00 0.00
0.00 0.00 0.00 0.00 0.00 0.00 0.00 0.00 0.00 0.00 0.00 0.00 0.00 0.00 0.00 0.00 0.00 0.00 0.00 0.00 0.00 0.00 0.00 0.00 0.00 0.00 0.00 0.00 0.00 0.00 0.00 0.00 0.00 0.00 0.00 0.00 0.00 0.00 0.00 0.00 0.00 0.00 0.00
0.00 0.00 0.00 0.00 0.00 0.00 0.00 0.00 0.00 0.00 0.00 0.00 0.00 0.00 0.00 0.00 0.00 0.00 0.00 0.00 0.00 0.00 0.00 0.00 0.00 0.00 0.00 0.00 0.00 0.00 0.00 0.00 0.00 0.00 0.00 0.00 0.00 0.00 0.00 0.00 0.00 0.00 0.00
0.01 0.01 0.00 0.00 0.00 0.00 0.00 0.00 0.00 0.00 0.00 0.00 0.00 0.00 0.00 0.00 0.00 0.00 0.00 0.00 0.00 0.00 0.00 0.00 0.00 0.00 0.00 0.00 0.00 0.00 0.00 0.00 0.00 0.00 0.00 0.00 0.00 0.00 0.00 0.00 0.00 0.00 0.00
0.07 0.05 0.01 0.00 0.00 0.00 0.00 0.00 0.00 0.00 0.00 0.00 0.00 0.00 0.00 0.00 0.00 0.00 0.00 0.00 0.00 0.00 0.00 0.00 0.00 0.00 0.00 0.00 0.00 0.00 0.00 0.00 0.00 0.00 0.00 0.00 0.00 0.00 0.00 0.00 0.00 0.00 0.00
0.08 0.07 0.08 0.03 0.00 0.00 0.00 0.00 0.00 0.00 0.00 0.00 0.00 0.00 0.00 0.00 0.00 0.00 0.00 0.00 0.00 0.00 0.00 0.00 0.00 0.00 0.00 0.00 0.00 0.00 0.00 0.00 0.00 0.00 0.00 0.00 0.00 0.00 0.00 0.00 0.00 0.00 0.00
0.05 0.08 0.09 0.06 0.02 0.00 0.00 0.00 0.00 0.00 0.00 0.00 0.00 0.00 0.00 0.00 0.00 0.00 0.00 0.00 0.00 0.00 0.00 0.00 0.00 0.00 0.00 0.00 0.00 0.00 0.00 0.00 0.00 0.00 0.00 0.00 0.00 0.00 0.00 0.00 0.00 0.00 0.00
0.06 0.10 0.21 0.16 0.05 0.02 0.02 0.01 0.00 0.00 0.00 0.00 0.00 0.00 0.00 0.00 0.00 0.00 0.00 0.00 0.00 0.00 0.00 0.00 0.00 0.00 0.00 0.00 0.00 0.00 0.00 0.00 0.00 0.00 0.00 0.00 0.00 0.00 0.00 0.00 0.00 0.00 0.00
0.20 0.18 0.23 0.24 0.14 0.06 0.07 0.03 0.01 0.02 0.00 0.00 0.00 0.00 0.00 0.00 0.00 0.00 0.00 0.00 0.00 0.00 0.00 0.00 0.00 0.00 0.00 0.00 0.00 0.00 0.00 0.00 0.00 0.00 0.00 0.00 0.00 0.00 0.00 0.00 0.00 0.00 0.00
0.21 0.22 0.22 0.21 0.20 0.11 0.15 0.11 0.05 0.03 0.02 0.01 0.01 0.00 0.00 0.00 0.00 0.00 0.00 0.00 0.00 0.00 0.00 0.00 0.00 0.00 0.00 0.00 0.00 0.00 0.00 0.00 0.00 0.00 0.00 0.00 0.00 0.00 0.00 0.00 0.00 0.01 0.02
0.14 0.15 0.17 0.16 0.22 0.23 0.18 0.15 0.14 0.10 0.07 0.03 0.01 0.00 0.00 0.00 0.00 0.00 0.00 0.00 0.00 0.00 0.00 0.00 0.00 0.00 0.00 0.00 0.00 0.00 0.00 0.00 0.00 0.00 0.00 0.00 0.00 0.00 0.00 0.01 0.03 0.05 0.06
0.07 0.08 0.14 0.15 0.16 0.20 0.21 0.21 0.18 0.15 0.14 0.10 0.06 0.04 0.02 0.01 0.01 0.00 0.00 0.00 0.00 0.00 0.00 0.00 0.00 0.00 0.00 0.00 0.00 0.00 0.00 0.00 0.00 0.00 0.00 0.00 0.00 0.00 0.00 0.01 0.03 0.05 0.06
0.11 0.15 0.15 0.17 0.18 0.19 0.19 0.19 0.18 0.16 0.15 0.13 0.11 0.08 0.06 0.04 0.04 0.04 0.03 0.01 0.01 0.01 0.00 0.00 0.00 0.00 0.00 0.00 0.00 0.00 0.00 0.00 0.00 0.00 0.00 0.00 0.00 0.00 0.00 0.01 0.02 0.02 0.03
0.12 0.15 0.14 0.15 0.17 0.18 0.19 0.20 0.20 0.18 0.16 0.13 0.11 0.08 0.05 0.03 0.02 0.03 0.04 0.05 0.09 0.09 0.03 0.00 0.00 0.00 0.00 0.00 0.00 0.00 0.00 0.00 0.00 0.00 0.00 0.00 0.00 0.00 0.00 0.01 0.01 0.01 0.01
0.10 0.10 0.10 0.12 0.15 0.16 0.16 0.16 0.16 0.14 0.14 0.13 0.12 0.11 0.12 0.10 0.08 0.07 0.07 0.08 0.07 0.06 0.03 0.01 0.01 0.01 0.01 0.01 0.00 0.00 0.00 0.00 0.00 0.00 0.01 0.01 0.00 0.00 0.00 0.00 0.00 0.01 0.03
0.07 0.07 0.08 0.09 0.09 0.09 0.09 0.11 0.14 0.22 0.30 0.35 0.37 0.35 0.34 0.32 0.33 0.37 0.37 0.37 0.30 0.19 0.16 0.11 0.07 0.07 0.08 0.09 0.06 0.03 0.01 0.00 0.00 0.00 0.00 0.00 0.00 0.00 0.01 0.01 0.02 0.04 0.06
0.05 0.05 0.05 0.04 0.04 0.06 0.09 0.10 0.10 0.12 0.15 0.19 0.24 0.29 0.32 0.33 0.33 0.30 0.28 0.23 0.21 0.20 0.21 0.19 0.17 0.16 0.13 0.08 0.04 0.02 0.01 0.00 0.00 0.00 0.00 0.00 0.00 0.00 0.00 0.01 0.03 0.05 0.06
0.06 0.05 0.04 0.03 0.02 0.02 0.03 0.05 0.08 0.12 0.16 0.24 0.28 0.29 0.30 0.30 0.32 0.31 0.32 0.34 0.33 0.33 0.29 0.20 0.11 0.05 0.04 0.04 0.04 0.02 0.00 0.00 0.00 0.00 0.00 0.00 0.00 0.00 0.01 0.01 0.02 0.02 0.01
0.05 0.04 0.05 0.05 0.06 0.06 0.07 0.09 0.08 0.08 0.07 0.06 0.07 0.09 0.14 0.19 0.26 0.33 0.38 0.40 0.30 0.19 0.14 0.11 0.09 0.07 0.05 0.02 0.00 0.00 0.00 0.00 0.00 0.00 0.00 0.00 0.00 0.00 0.00 0.00 0.00 0.00 0.00
0.04 0.04 0.08 0.14 0.16 0.16 0.19 0.18 0.17 0.17 0.18 0.21 0.23 0.26 0.30 0.35 0.39 0.38 0.31 0.23 0.16 0.13 0.14 0.17 0.12 0.05 0.01 0.00 0.00 0.00 0.00 0.00 0.00 0.00 0.00 0.00 0.00 0.00 0.00 0.00 0.00 0.00 0.00
0.10 0.10 0.13 0.14 0.17 0.21 0.33 0.29 0.24 0.26 0.27 0.28 0.30 0.33 0.34 0.33 0.26 0.19 0.14 0.10 0.09 0.16 0.15 0.09 0.05 0.01 0.00 0.00 0.00 0.01 0.03 0.05 0.05 0.00 0.00 0.00 0.00 0.00 0.00 0.00 0.00 0.00 0.00
0.15 0.24 0.24 0.19 0.16 0.15 0.25 0.21 0.21 0.20 0.22 0.25 0.24 0.20 0.15 0.10 0.07 0.05 0.03 0.04 0.09 0.06 0.03 0.02 0.01 0.00 0.00 0.01 0.06 0.08 0.07 0.08 0.03 0.00 0.01 0.00 0.00 0.00 0.00 0.00 0.00 0.00 0.00
0.29 0.25 0.27 0.37 0.45 0.51 0.48 0.35 0.27 0.20 0.18 0.15 0.13 0.11 0.07 0.03 0.01 0.01 0.03 0.08 0.03 0.00 0.00 0.00 0.00 0.00 0.02 0.03 0.07 0.13 0.05 0.02 0.01 0.00 0.00 0.01 0.00 0.00 0.00 0.00 0.00 0.00 0.00
0.68 0.77 0.64 0.55 0.66 0.73 0.59 0.47 0.30 0.20 0.15 0.11 0.06 0.02 0.00 0.00 0.00 0.02 0.04 0.02 0.00 0.00 0.00 0.00 0.01 0.01 0.01 0.01 0.00 0.01 0.02 0.04 0.03 0.00 0.00 0.00 0.00 0.00 0.00 0.00 0.00 0.00 0.00
0.68 0.66 0.70 0.57 0.52 0.48 0.34 0.27 0.19 0.12 0.05 0.01 0.00 0.00 0.00 0.01 0.01 0.04 0.03 0.01 0.00 0.00 0.03 0.02 0.00 0.00 0.00 0.00 0.00 0.00 0.01 0.12 0.09 0.11 0.00 0.10 0.04 0.03 0.15 0.01 0.00 0.00 0.00

GFSMA_prec_precacc_036.txt.gz
Total_Precipitation_Accumulation
0.00 0.00 0.01 0.02 0.01 0.00 0.00 0.00 0.00 0.00 0.00 0.00 0.00 0.00 0.00 0.00 0.00 0.00 0.00 0.00 0.00 0.00 0.00 0.00 0.00 0.00 0.00 0.00 0.00 0.00 0.00 0.00 0.00 0.00 0.00 0.00 0.00 0.00 0.00 0.00 0.00 0.00 0.00
0.00 0.00 0.00 0.01 0.01 0.00 0.00 0.00 0.00 0.00 0.00 0.00 0.00 0.00 0.00 0.00 0.00 0.00 0.00 0.00 0.00 0.00 0.00 0.00 0.00 0.00 0.00 0.00 0.00 0.00 0.00 0.00 0.00 0.00 0.00 0.00 0.00 0.00 0.00 0.00 0.00 0.00 0.00
0.00 0.00 0.00 0.00 0.00 0.00 0.00 0.00 0.00 0.00 0.00 0.00 0.00 0.00 0.00 0.00 0.00 0.00 0.00 0.00 0.00 0.00 0.00 0.00 0.00 0.00 0.00 0.00 0.00 0.00 0.00 0.00 0.00 0.00 0.00 0.00 0.00 0.00 0.00 0.00 0.00 0.00 0.00
0.00 0.00 0.00 0.00 0.00 0.00 0.00 0.00 0.00 0.00 0.00 0.00 0.00 0.00 0.00 0.00 0.00 0.00 0.00 0.00 0.00 0.00 0.00 0.00 0.00 0.00 0.00 0.00 0.00 0.00 0.00 0.00 0.00 0.00 0.00 0.00 0.00 0.00 0.00 0.00 0.00 0.00 0.00
0.01 0.01 0.00 0.00 0.00 0.00 0.00 0.00 0.00 0.00 0.00 0.00 0.00 0.00 0.00 0.00 0.00 0.00 0.00 0.00 0.00 0.00 0.00 0.00 0.00 0.00 0.00 0.00 0.00 0.00 0.00 0.00 0.00 0.00 0.00 0.00 0.00 0.00 0.00 0.00 0.00 0.00 0.00
0.09 0.06 0.02 0.00 0.00 0.00 0.00 0.00 0.00 0.00 0.00 0.00 0.00 0.00 0.00 0.00 0.00 0.00 0.00 0.00 0.00 0.00 0.00 0.00 0.00 0.00 0.00 0.00 0.00 0.00 0.00 0.00 0.00 0.00 0.00 0.00 0.00 0.00 0.00 0.00 0.00 0.00 0.00
0.09 0.10 0.09 0.06 0.00 0.00 0.00 0.00 0.00 0.00 0.00 0.00 0.00 0.00 0.00 0.00 0.00 0.00 0.00 0.00 0.00 0.00 0.00 0.00 0.00 0.00 0.00 0.00 0.00 0.00 0.00 0.00 0.00 0.00 0.00 0.00 0.00 0.00 0.00 0.00 0.00 0.00 0.00
0.06 0.08 0.10 0.11 0.06 0.01 0.01 0.01 0.00 0.00 0.00 0.00 0.00 0.00 0.00 0.00 0.00 0.00 0.00 0.00 0.00 0.00 0.00 0.00 0.00 0.00 0.00 0.00 0.00 0.00 0.00 0.00 0.00 0.00 0.00 0.00 0.00 0.00 0.00 0.00 0.00 0.00 0.00
0.11 0.13 0.25 0.19 0.08 0.05 0.04 0.08 0.03 0.01 0.01 0.00 0.00 0.00 0.00 0.00 0.00 0.00 0.00 0.00 0.00 0.00 0.00 0.00 0.00 0.00 0.00 0.00 0.00 0.00 0.00 0.00 0.00 0.00 0.00 0.00 0.00 0.00 0.00 0.00 0.00 0.00 0.00
0.21 0.21 0.28 0.29 0.18 0.09 0.10 0.12 0.10 0.04 0.01 0.01 0.01 0.00 0.00 0.00 0.00 0.00 0.00 0.00 0.00 0.00 0.00 0.00 0.00 0.00 0.00 0.00 0.00 0.00 0.00 0.00 0.00 0.00 0.00 0.00 0.00 0.00 0.00 0.00 0.00 0.00 0.00
0.21 0.22 0.22 0.22 0.23 0.14 0.18 0.18 0.12 0.06 0.05 0.03 0.03 0.03 0.01 0.00 0.00 0.00 0.00 0.00 0.00 0.00 0.00 0.00 0.00 0.00 0.00 0.00 0.00 0.00 0.00 0.00 0.00 0.00 0.00 0.00 0.00 0.00 0.00 0.00 0.00 0.01 0.02
0.15 0.16 0.17 0.16 0.24 0.26 0.21 0.19 0.21 0.15 0.10 0.06 0.04 0.03 0.03 0.02 0.01 0.01 0.00 0.00 0.00 0.00 0.00 0.00 0.00 0.00 0.00 0.00 0.00 0.00 0.00 0.00 0.00 0.00 0.00 0.00 0.00 0.00 0.00 0.01 0.03 0.05 0.06
0.08 0.08 0.14 0.16 0.17 0.21 0.24 0.25 0.23 0.19 0.16 0.13 0.10 0.08 0.07 0.05 0.03 0.03 0.01 0.00 0.00 0.00 0.00 0.00 0.00 0.00 0.00 0.00 0.00 0.00 0.00 0.00 0.00 0.00 0.00 0.00 0.00 0.00 0.00 0.01 0.03 0.05 0.06
0.11 0.15 0.15 0.17 0.19 0.20 0.21 0.21 0.22 0.20 0.18 0.17 0.16 0.14 0.11 0.10 0.09 0.09 0.07 0.06 0.06 0.04 0.03 0.04 0.02 0.01 0.01 0.00 0.00 0.01 0.01 0.00 0.00 0.00 0.00 0.00 0.00 0.00 0.00 0.01 0.02 0.02 0.03
0.12 0.15 0.15 0.15 0.18 0.20 0.21 0.22 0.22 0.20 0.19 0.18 0.16 0.15 0.10 0.09 0.10 0.09 0.09 0.11 0.16 0.19 0.15 0.09 0.08 0.07 0.06 0.04 0.03 0.03 0.02 0.01 0.00 0.00 0.00 0.00 0.00 0.00 0.00 0.01 0.01 0.01 0.01
0.10 0.10 0.10 0.12 0.15 0.18 0.19 0.20 0.20 0.18 0.20 0.20 0.18 0.18 0.19 0.18 0.14 0.12 0.11 0.14 0.19 0.27 0.33 0.28 0.25 0.21 0.17 0.15 0.10 0.06 0.02 0.02 0.01 0.00 0.01 0.01 0.00 0.00 0.00 0.00 0.00 0.01 0.03
0.07 0.07 0.08 0.09 0.09 0.09 0.10 0.13 0.17 0.27 0.36 0.41 0.44 0.43 0.42 0.38 0.39 0.46 0.53 0.63 0.71 0.71 0.72 0.59 0.44 0.36 0.28 0.22 0.16 0.08 0.02 0.01 0.00 0.01 0.00 0.00 0.00 0.00 0.01 0.01 0.02 0.04 0.06
0.05 0.05 0.05 0.04 0.04 0.06 0.09 0.10 0.11 0.13 0.17 0.23 0.29 0.35 0.38 0.38 0.37 0.35 0.36 0.41 0.50 0.56 0.59 0.53 0.44 0.38 0.28 0.17 0.09 0.03 0.01 0.00 0.00 0.00 0.00 0.00 0.00 0.00 0.00 0.01 0.03 0.05 0.06
0.06 0.05 0.04 0.03 0.02 0.02 0.03 0.05 0.08 0.12 0.17 0.25 0.29 0.31 0.34 0.35 0.38 0.38 0.40 0.45 0.50 0.54 0.51 0.40 0.30 0.16 0.09 0.07 0.06 0.02 0.00 0.00 0.00 0.00 0.00 0.00 0.00 0.00 0.01 0.01 0.02 0.02 0.01
0.05 0.04 0.05 0.05 0.06 0.06 0.07 0.09 0.08 0.08 0.07 0.07 0.08 0.10 0.16 0.25 0.36 0.50 0.62 0.54 0.41 0.28 0.19 0.13 0.11 0.09 0.07 0.02 0.01 0.00 0.00 0.00 0.00 0.00 0.00 0.00 0.00 0.00 0.00 0.00 0.00 0.00 0.00
0.04 0.04 0.08 0.14 0.16 0.16 0.19 0.18 0.17 0.17 0.18 0.21 0.23 0.27 0.31 0.38 0.42 0.40 0.32 0.24 0.16 0.13 0.15 0.17 0.13 0.06 0.01 0.00 0.00 0.00 0.00 0.00 0.00 0.00 0.00 0.00 0.00 0.00 0.00 0.00 0.00 0.00 0.00
0.10 0.10 0.13 0.14 0.17 0.21 0.34 0.29 0.25 0.26 0.28 0.28 0.30 0.33 0.36 0.38 0.29 0.22 0.15 0.10 0.09 0.16 0.15 0.09 0.05 0.01 0.00 0.00 0.00 0.01 0.03 0.05 0.05 0.00 0.00 0.00 0.00 0.00 0.00 0.00 0.00 0.00 0.00
0.15 0.24 0.25 0.20 0.16 0.15 0.27 0.22 0.21 0.20 0.23 0.25 0.25 0.21 0.16 0.12 0.08 0.06 0.04 0.04 0.09 0.06 0.04 0.02 0.01 0.00 0.00 0.01 0.06 0.08 0.07 0.08 0.03 0.00 0.01 0.00 0.00 0.00 0.00 0.00 0.00 0.00 0.00
0.29 0.25 0.27 0.37 0.45 0.53 0.50 0.35 0.28 0.20 0.19 0.16 0.15 0.12 0.07 0.04 0.02 0.02 0.03 0.08 0.03 0.00 0.00 0.00 0.00 0.00 0.02 0.03 0.07 0.13 0.05 0.02 0.01 0.00 0.00 0.01 0.00 0.00 0.00 0.00 0.00 0.00 0.00
0.68 0.77 0.64 0.55 0.66 0.74 0.60 0.47 0.30 0.22 0.18 0.13 0.07 0.02 0.00 0.00 0.01 0.02 0.04 0.02 0.00 0.00 0.00 0.00 0.01 0.01 0.01 0.01 0.00 0.01 0.02 0.04 0.03 0.00 0.00 0.00 0.00 0.00 0.00 0.00 0.00 0.00 0.00
0.68 0.66 0.70 0.57 0.52 0.48 0.34 0.27 0.19 0.12 0.06 0.01 0.00 0.00 0.00 0.01 0.01 0.04 0.03 0.01 0.00 0.00 0.03 0.02 0.00 0.00 0.00 0.00 0.00 0.00 0.01 0.12 0.09 0.11 0.00 0.10 0.04 0.03 0.15 0.01 0.00 0.00 0.00

GFSMA_prec_precacc_039.txt.gz
Total_Precipitation_Accumulation
0.00 0.00 0.01 0.02 0.01 0.00 0.00 0.00 0.00 0.00 0.00 0.00 0.00 0.00 0.00 0.00 0.00 0.00 0.00 0.00 0.00 0.00 0.00 0.00 0.00 0.00 0.00 0.00 0.00 0.00 0.00 0.00 0.00 0.00 0.00 0.00 0.00 0.00 0.00 0.00 0.00 0.00 0.00
0.00 0.00 0.00 0.01 0.01 0.00 0.00 0.00 0.00 0.00 0.00 0.00 0.00 0.00 0.00 0.00 0.00 0.00 0.00 0.00 0.00 0.00 0.00 0.00 0.00 0.00 0.00 0.00 0.00 0.00 0.00 0.00 0.00 0.00 0.00 0.00 0.00 0.00 0.00 0.00 0.00 0.00 0.00
0.00 0.00 0.00 0.00 0.00 0.00 0.00 0.00 0.00 0.00 0.00 0.00 0.00 0.00 0.00 0.00 0.00 0.00 0.00 0.00 0.00 0.00 0.00 0.00 0.00 0.00 0.00 0.00 0.00 0.00 0.00 0.00 0.00 0.00 0.00 0.00 0.00 0.00 0.00 0.00 0.00 0.00 0.00
0.00 0.00 0.00 0.00 0.00 0.00 0.00 0.00 0.00 0.00 0.00 0.00 0.00 0.00 0.00 0.00 0.00 0.00 0.00 0.00 0.00 0.00 0.00 0.00 0.00 0.00 0.00 0.00 0.00 0.00 0.00 0.00 0.00 0.00 0.00 0.00 0.00 0.00 0.00 0.00 0.00 0.00 0.00
0.01 0.01 0.00 0.00 0.00 0.00 0.00 0.00 0.00 0.00 0.00 0.00 0.00 0.00 0.00 0.00 0.00 0.00 0.00 0.00 0.00 0.00 0.00 0.00 0.00 0.00 0.00 0.00 0.00 0.00 0.00 0.00 0.00 0.00 0.00 0.00 0.00 0.00 0.00 0.00 0.00 0.00 0.00
0.10 0.07 0.02 0.00 0.00 0.00 0.00 0.00 0.00 0.00 0.00 0.00 0.00 0.00 0.00 0.00 0.00 0.00 0.00 0.00 0.00 0.00 0.00 0.00 0.00 0.00 0.00 0.00 0.00 0.00 0.00 0.00 0.00 0.00 0.00 0.00 0.00 0.00 0.00 0.00 0.00 0.00 0.00
0.10 0.15 0.14 0.09 0.01 0.00 0.00 0.01 0.02 0.00 0.00 0.00 0.00 0.00 0.00 0.00 0.00 0.00 0.00 0.00 0.00 0.00 0.00 0.00 0.00 0.00 0.00 0.00 0.00 0.00 0.00 0.00 0.00 0.00 0.00 0.00 0.00 0.00 0.00 0.00 0.00 0.00 0.00
0.10 0.11 0.15 0.16 0.12 0.03 0.03 0.09 0.05 0.02 0.01 0.01 0.01 0.00 0.00 0.00 0.00 0.00 0.00 0.00 0.00 0.00 0.00 0.00 0.00 0.00 0.00 0.00 0.00 0.00 0.00 0.00 0.00 0.00 0.00 0.00 0.00 0.00 0.00 0.00 0.00 0.00 0.00
0.13 0.17 0.31 0.24 0.13 0.12 0.10 0.14 0.11 0.10 0.04 0.02 0.00 0.01 0.00 0.00 0.00 0.00 0.00 0.00 0.00 0.00 0.00 0.00 0.00 0.00 0.00 0.00 0.00 0.00 0.00 0.00 0.00 0.00 0.00 0.00 0.00 0.00 0.00 0.00 0.00 0.00 0.00
0.21 0.21 0.31 0.35 0.26 0.14 0.13 0.15 0.17 0.12 0.08 0.05 0.03 0.02 0.02 0.00 0.00 0.00 0.00 0.00 0.00 0.00 0.00 0.00 0.00 0.00 0.00 0.00 0.00 0.00 0.00 0.00 0.00 0.00 0.00 0.00 0.00 0.00 0.00 0.00 0.00 0.00 0.00
0.21 0.22 0.22 0.23 0.25 0.19 0.24 0.23 0.18 0.14 0.11 0.07 0.07 0.06 0.04 0.02 0.00 0.00 0.01 0.01 0.00 0.00 0.00 0.00 0.00 0.00 0.00 0.00 0.00 0.00 0.00 0.00 0.00 0.00 0.00 0.00 0.00 0.00 0.00 0.00 0.00 0.01 0.02
0.15 0.16 0.18 0.18 0.25 0.28 0.27 0.28 0.29 0.23 0.19 0.13 0.08 0.08 0.08 0.07 0.05 0.03 0.02 0.02 0.02 0.01 0.00 0.00 0.00 0.00 0.00 0.00 0.00 0.00 0.00 0.00 0.00 0.00 0.00 0.00 0.00 0.00 0.00 0.01 0.03 0.05 0.06
0.08 0.09 0.16 0.18 0.18 0.22 0.26 0.31 0.30 0.27 0.27 0.23 0.18 0.15 0.14 0.13 0.08 0.07 0.04 0.03 0.02 0.01 0.01 0.02 0.01 0.00 0.00 0.00 0.00 0.00 0.00 0.00 0.00 0.00 0.01 0.01 0.01 0.00 0.00 0.01 0.03 0.05 0.06
0.11 0.15 0.15 0.17 0.19 0.21 0.21 0.22 0.24 0.23 0.23 0.23 0.23 0.21 0.19 0.17 0.15 0.15 0.15 0.12 0.10 0.06 0.05 0.06 0.04 0.02 0.01 0.01 0.03 0.04 0.04 0.03 0.04 0.05 0.04 0.02 0.00 0.00 0.00 0.01 0.02 0.02 0.03
0.12 0.15 0.15 0.15 0.18 0.20 0.22 0.24 0.23 0.22 0.22 0.22 0.21 0.19 0.14 0.11 0.14 0.14 0.14 0.16 0.22 0.29 0.28 0.26 0.27 0.24 0.17 0.16 0.17 0.15 0.17 0.22 0.21 0.17 0.13 0.08 0.05 0.03 0.01 0.01 0.01 0.01 0.01
0.10 0.10 0.10 0.12 0.15 0.18 0.19 0.20 0.22 0.19 0.22 0.22 0.23 0.26 0.27 0.24 0.21 0.17 0.15 0.16 0.23 0.42 0.59 0.60 0.59 0.55 0.51 0.46 0.43 0.40 0.35 0.29 0.20 0.14 0.08 0.04 0.01 0.00 0.00 0.00 0.00 0.01 0.03
0.07 0.07 0.08 0.09 0.09 0.09 0.10 0.13 0.17 0.27 0.36 0.42 0.46 0.47 0.48 0.45 0.47 0.53 0.59 0.67 0.77 0.85 0.94 0.87 0.75 0.68 0.64 0.57 0.50 0.35 0.21 0.13 0.08 0.05 0.02 0.00 0.00 0.00 0.01 0.01 0.02 0.04 0.06
0.05 0.05 0.05 0.04 0.04 0.06 0.09 0.10 0.11 0.13 0.17 0.23 0.29 0.35 0.40 0.40 0.41 0.41 0.45 0.49 0.59 0.70 0.78 0.76 0.71 0.63 0.49 0.32 0.17 0.08 0.03 0.02 0.01 0.00 0.00 0.00 0.00 0.00 0.00 0.01 0.03 0.05 0.06
0.06 0.05 0.04 0.03 0.02 0.02 0.03 0.05 0.08 0.12 0.17 0.25 0.29 0.31 0.34 0.36 0.39 0.39 0.42 0.49 0.56 0.61 0.59 0.49 0.36 0.23 0.15 0.10 0.08 0.04 0.01 0.00 0.00 0.00 0.00 0.00 0.00 0.00 0.01 0.01 0.02 0.02 0.01
0.05 0.04 0.05 0.05 0.06 0.06 0.07 0.09 0.08 0.08 0.07 0.07 0.08 0.11 0.17 0.26 0.36 0.51 0.68 0.77 0.67 0.50 0.37 0.24 0.17 0.12 0.08 0.03 0.01 0.00 0.00 0.00 0.00 0.00 0.00 0.00 0.00 0.00 0.00 0.00 0.00 0.00 0.00
0.04 0.04 0.08 0.14 0.16 0.16 0.19 0.18 0.17 0.17 0.18 0.21 0.23 0.27 0.32 0.39 0.43 0.41 0.34 0.27 0.21 0.17 0.17 0.19 0.14 0.06 0.02 0.00 0.00 0.00 0.00 0.00 0.00 0.00 0.00 0.00 0.00 0.00 0.00 0.00 0.00 0.00 0.00
0.10 0.10 0.13 0.14 0.17 0.21 0.34 0.29 0.25 0.26 0.28 0.29 0.31 0.33 0.36 0.39 0.32 0.25 0.17 0.12 0.10 0.17 0.16 0.10 0.06 0.02 0.00 0.00 0.00 0.01 0.03 0.05 0.05 0.00 0.00 0.00 0.00 0.00 0.00 0.00 0.00 0.00 0.00
0.15 0.24 0.25 0.20 0.16 0.15 0.27 0.22 0.21 0.20 0.23 0.25 0.25 0.22 0.18 0.16 0.12 0.08 0.07 0.06 0.11 0.07 0.04 0.02 0.01 0.00 0.00 0.01 0.06 0.08 0.07 0.08 0.03 0.00 0.01 0.00 0.00 0.00 0.00 0.00 0.00 0.00 0.00
0.29 0.25 0.27 0.37 0.45 0.53 0.50 0.36 0.28 0.20 0.19 0.17 0.15 0.13 0.09 0.04 0.02 0.02 0.04 0.09 0.04 0.01 0.00 0.00 0.00 0.00 0.02 0.03 0.07 0.13 0.05 0.02 0.01 0.00 0.00 0.01 0.00 0.00 0.00 0.00 0.00 0.00 0.00
0.68 0.77 0.64 0.55 0.66 0.74 0.61 0.47 0.30 0.22 0.18 0.13 0.07 0.02 0.00 0.00 0.01 0.02 0.04 0.02 0.00 0.00 0.00 0.00 0.01 0.01 0.01 0.01 0.00 0.01 0.02 0.04 0.03 0.00 0.00 0.00 0.00 0.00 0.00 0.00 0.00 0.00 0.00
0.68 0.66 0.70 0.57 0.52 0.48 0.34 0.27 0.19 0.12 0.06 0.01 0.00 0.00 0.00 0.01 0.01 0.04 0.03 0.01 0.00 0.00 0.03 0.02 0.00 0.00 0.00 0.00 0.00 0.00 0.01 0.12 0.09 0.11 0.00 0.10 0.04 0.03 0.15 0.01 0.00 0.00 0.00

GFSMA_prec_precacc_042.txt.gz
Total_Precipitation_Accumulation
0.00 0.00 0.01 0.02 0.01 0.00 0.00 0.00 0.00 0.00 0.00 0.00 0.00 0.00 0.00 0.00 0.00 0.00 0.00 0.00 0.00 0.00 0.00 0.00 0.00 0.00 0.00 0.00 0.00 0.00 0.00 0.00 0.00 0.00 0.00 0.00 0.00 0.00 0.00 0.00 0.00 0.00 0.00
0.00 0.00 0.00 0.01 0.01 0.00 0.00 0.00 0.00 0.00 0.00 0.00 0.00 0.00 0.00 0.00 0.00 0.00 0.00 0.00 0.00 0.00 0.00 0.00 0.00 0.00 0.00 0.00 0.00 0.00 0.00 0.00 0.00 0.00 0.00 0.00 0.00 0.00 0.00 0.00 0.00 0.00 0.00
0.00 0.00 0.00 0.00 0.00 0.00 0.00 0.00 0.00 0.00 0.00 0.00 0.00 0.00 0.00 0.00 0.00 0.00 0.00 0.00 0.00 0.00 0.00 0.00 0.00 0.00 0.00 0.00 0.00 0.00 0.00 0.00 0.00 0.00 0.00 0.00 0.00 0.00 0.00 0.00 0.00 0.00 0.00
0.00 0.00 0.00 0.00 0.00 0.00 0.00 0.00 0.00 0.00 0.00 0.00 0.00 0.00 0.00 0.00 0.00 0.00 0.00 0.00 0.00 0.00 0.00 0.00 0.00 0.00 0.00 0.00 0.00 0.00 0.00 0.00 0.00 0.00 0.00 0.00 0.00 0.00 0.00 0.00 0.00 0.00 0.00
0.01 0.01 0.00 0.00 0.00 0.00 0.00 0.00 0.00 0.00 0.00 0.00 0.00 0.00 0.00 0.00 0.00 0.00 0.00 0.00 0.00 0.00 0.00 0.00 0.00 0.00 0.00 0.00 0.00 0.00 0.00 0.00 0.00 0.00 0.00 0.00 0.00 0.00 0.00 0.00 0.00 0.00 0.00
0.12 0.08 0.02 0.01 0.00 0.00 0.00 0.00 0.00 0.01 0.00 0.00 0.00 0.00 0.00 0.00 0.00 0.00 0.00 0.00 0.00 0.00 0.00 0.00 0.00 0.00 0.00 0.00 0.00 0.00 0.00 0.00 0.00 0.00 0.00 0.00 0.00 0.00 0.00 0.00 0.00 0.00 0.00
0.16 0.20 0.16 0.10 0.01 0.00 0.00 0.02 0.03 0.06 0.05 0.06 0.05 0.00 0.00 0.00 0.00 0.00 0.00 0.00 0.00 0.00 0.00 0.00 0.00 0.00 0.00 0.00 0.00 0.00 0.00 0.00 0.00 0.00 0.00 0.00 0.00 0.00 0.00 0.00 0.00 0.00 0.00
0.12 0.15 0.17 0.17 0.15 0.06 0.06 0.12 0.13 0.12 0.07 0.07 0.08 0.02 0.00 0.00 0.00 0.00 0.00 0.00 0.00 0.00 0.00 0.00 0.00 0.00 0.00 0.00 0.00 0.00 0.00 0.00 0.00 0.00 0.00 0.00 0.00 0.00 0.00 0.00 0.00 0.00 0.00
0.13 0.18 0.32 0.25 0.14 0.14 0.12 0.17 0.18 0.18 0.11 0.08 0.05 0.04 0.00 0.00 0.00 0.00 0.00 0.00 0.00 0.00 0.00 0.00 0.00 0.00 0.00 0.00 0.00 0.00 0.00 0.00 0.00 0.00 0.00 0.00 0.00 0.00 0.00 0.00 0.00 0.00 0.00
0.21 0.21 0.31 0.35 0.27 0.15 0.14 0.15 0.20 0.18 0.14 0.10 0.09 0.05 0.05 0.02 0.01 0.00 0.00 0.00 0.00 0.00 0.00 0.00 0.00 0.00 0.00 0.00 0.00 0.00 0.00 0.00 0.00 0.00 0.00 0.00 0.00 0.00 0.00 0.00 0.00 0.00 0.00
0.21 0.22 0.23 0.23 0.26 0.21 0.25 0.24 0.20 0.17 0.17 0.15 0.13 0.12 0.09 0.06 0.03 0.02 0.01 0.03 0.02 0.01 0.01 0.00 0.00 0.00 0.00 0.00 0.00 0.00 0.00 0.00 0.00 0.00 0.00 0.00 0.00 0.00 0.00 0.00 0.00 0.01 0.02
0.15 0.16 0.18 0.19 0.26 0.31 0.30 0.30 0.33 0.29 0.24 0.19 0.15 0.15 0.15 0.16 0.13 0.09 0.10 0.10 0.09 0.03 0.01 0.00 0.00 0.00 0.01 0.02 0.04 0.03 0.01 0.00 0.00 0.00 0.00 0.00 0.00 0.01 0.01 0.01 0.03 0.05 0.06
0.08 0.09 0.16 0.18 0.19 0.23 0.27 0.32 0.30 0.29 0.30 0.26 0.21 0.18 0.20 0.22 0.23 0.23 0.20 0.17 0.13 0.09 0.07 0.05 0.04 0.04 0.04 0.04 0.04 0.03 0.02 0.01 0.00 0.00 0.01 0.02 0.04 0.04 0.05 0.06 0.07 0.07 0.06
0.11 0.15 0.15 0.17 0.19 0.21 0.21 0.23 0.24 0.24 0.24 0.24 0.25 0.22 0.21 0.20 0.24 0.26 0.27 0.24 0.20 0.13 0.11 0.11 0.06 0.05 0.06 0.09 0.15 0.17 0.15 0.16 0.15 0.13 0.12 0.12 0.12 0.11 0.10 0.09 0.08 0.06 0.04
0.12 0.15 0.15 0.15 0.18 0.20 0.22 0.24 0.24 0.22 0.22 0.23 0.21 0.19 0.14 0.12 0.15 0.16 0.17 0.20 0.31 0.38 0.32 0.27 0.28 0.27 0.24 0.24 0.30 0.32 0.38 0.46 0.48 0.47 0.43 0.37 0.31 0.24 0.17 0.12 0.08 0.04 0.02
0.10 0.10 0.10 0.12 0.15 0.18 0.19 0.20 0.22 0.19 0.22 0.22 0.23 0.26 0.27 0.25 0.22 0.21 0.22 0.27 0.34 0.55 0.73 0.66 0.62 0.61 0.59 0.57 0.56 0.52 0.57 0.56 0.46 0.36 0.29 0.24 0.18 0.12 0.08 0.04 0.02 0.01 0.03
0.07 0.07 0.08 0.09 0.09 0.09 0.10 0.13 0.17 0.27 0.36 0.42 0.46 0.47 0.48 0.45 0.48 0.54 0.62 0.74 0.87 0.98 1.08 0.96 0.79 0.73 0.70 0.67 0.62 0.48 0.33 0.22 0.16 0.16 0.13 0.10 0.06 0.03 0.02 0.01 0.02 0.04 0.06
0.05 0.05 0.05 0.04 0.04 0.06 0.09 0.10 0.11 0.13 0.17 0.23 0.29 0.35 0.40 0.41 0.41 0.42 0.46 0.56 0.72 0.90 1.04 1.00 0.84 0.74 0.62 0.45 0.30 0.17 0.11 0.09 0.05 0.05 0.05 0.02 0.01 0.00 0.00 0.01 0.03 0.05 0.06
0.06 0.05 0.04 0.03 0.02 0.02 0.03 0.05 0.08 0.12 0.17 0.25 0.29 0.31 0.34 0.36 0.39 0.39 0.43 0.49 0.58 0.65 0.65 0.55 0.43 0.34 0.29 0.23 0.19 0.13 0.08 0.04 0.01 0.01 0.00 0.00 0.00 0.00 0.01 0.01 0.02 0.02 0.01
0.05 0.04 0.05 0.05 0.06 0.06 0.07 0.09 0.08 0.08 0.07 0.07 0.08 0.11 0.17 0.26 0.37 0.51 0.69 0.77 0.68 0.51 0.41 0.32 0.27 0.20 0.16 0.10 0.06 0.04 0.02 0.01 0.00 0.00 0.00 0.00 0.00 0.00 0.00 0.00 0.00 0.00 0.00
0.04 0.04 0.08 0.14 0.16 0.16 0.19 0.18 0.17 0.17 0.18 0.21 0.23 0.27 0.32 0.39 0.43 0.41 0.34 0.28 0.23 0.18 0.17 0.20 0.17 0.11 0.05 0.02 0.01 0.01 0.01 0.00 0.00 0.00 0.00 0.00 0.00 0.00 0.00 0.00 0.00 0.00 0.00
0.10 0.10 0.13 0.14 0.17 0.21 0.34 0.29 0.25 0.26 0.28 0.29 0.31 0.33 0.36 0.40 0.32 0.27 0.20 0.13 0.10 0.17 0.16 0.11 0.07 0.02 0.00 0.00 0.00 0.01 0.03 0.05 0.05 0.00 0.00 0.00 0.00 0.00 0.00 0.00 0.00 0.00 0.00
0.15 0.24 0.25 0.20 0.16 0.15 0.27 0.22 0.21 0.20 0.23 0.25 0.25 0.22 0.19 0.17 0.13 0.10 0.08 0.07 0.12 0.08 0.05 0.02 0.01 0.00 0.00 0.01 0.06 0.08 0.07 0.08 0.03 0.00 0.01 0.00 0.00 0.00 0.00 0.00 0.00 0.00 0.00
0.29 0.25 0.27 0.37 0.45 0.53 0.50 0.36 0.28 0.20 0.19 0.17 0.15 0.13 0.09 0.04 0.02 0.02 0.04 0.09 0.04 0.01 0.00 0.00 0.00 0.00 0.02 0.03 0.07 0.13 0.05 0.02 0.01 0.00 0.00 0.01 0.00 0.00 0.00 0.00 0.00 0.00 0.00
0.68 0.77 0.64 0.55 0.66 0.74 0.61 0.47 0.30 0.22 0.18 0.13 0.07 0.02 0.00 0.00 0.01 0.02 0.04 0.02 0.00 0.00 0.00 0.00 0.01 0.01 0.01 0.01 0.00 0.01 0.02 0.04 0.03 0.00 0.00 0.00 0.00 0.00 0.00 0.00 0.00 0.00 0.00
0.68 0.66 0.70 0.57 0.52 0.48 0.34 0.27 0.19 0.12 0.06 0.01 0.00 0.00 0.00 0.01 0.01 0.04 0.03 0.01 0.00 0.00 0.03 0.02 0.00 0.00 0.00 0.00 0.00 0.00 0.01 0.12 0.09 0.11 0.00 0.10 0.04 0.03 0.15 0.01 0.00 0.00 0.00

GFSMA_prec_precacc_045.txt.gz
Total_Precipitation_Accumulation
0.00 0.00 0.01 0.02 0.01 0.00 0.00 0.00 0.00 0.00 0.00 0.00 0.00 0.00 0.00 0.00 0.00 0.00 0.00 0.00 0.00 0.00 0.00 0.00 0.00 0.00 0.00 0.00 0.00 0.00 0.00 0.00 0.00 0.00 0.00 0.00 0.00 0.00 0.00 0.00 0.00 0.00 0.00
0.00 0.00 0.00 0.01 0.01 0.00 0.00 0.00 0.00 0.00 0.00 0.00 0.00 0.00 0.00 0.00 0.00 0.00 0.00 0.00 0.00 0.00 0.00 0.00 0.00 0.00 0.00 0.00 0.00 0.00 0.00 0.00 0.00 0.00 0.00 0.00 0.00 0.00 0.00 0.00 0.00 0.00 0.00
0.00 0.00 0.00 0.00 0.00 0.00 0.00 0.00 0.00 0.00 0.00 0.00 0.00 0.00 0.00 0.00 0.00 0.00 0.00 0.00 0.00 0.00 0.00 0.00 0.00 0.00 0.00 0.00 0.00 0.00 0.00 0.00 0.00 0.00 0.00 0.00 0.00 0.00 0.00 0.00 0.00 0.00 0.00
0.00 0.00 0.00 0.00 0.00 0.00 0.00 0.00 0.00 0.00 0.00 0.00 0.00 0.00 0.00 0.00 0.00 0.00 0.00 0.00 0.00 0.00 0.00 0.00 0.00 0.00 0.00 0.00 0.00 0.00 0.00 0.00 0.00 0.00 0.00 0.00 0.00 0.00 0.00 0.00 0.00 0.00 0.00
0.01 0.01 0.00 0.00 0.00 0.00 0.00 0.00 0.00 0.00 0.00 0.00 0.00 0.00 0.00 0.00 0.00 0.00 0.00 0.00 0.00 0.00 0.00 0.00 0.00 0.00 0.00 0.00 0.00 0.00 0.00 0.00 0.00 0.00 0.00 0.00 0.00 0.00 0.00 0.00 0.00 0.00 0.00
0.12 0.08 0.02 0.01 0.00 0.00 0.00 0.00 0.00 0.01 0.00 0.00 0.01 0.00 0.00 0.00 0.00 0.00 0.00 0.00 0.00 0.00 0.00 0.00 0.00 0.00 0.00 0.00 0.00 0.00 0.00 0.00 0.00 0.00 0.00 0.00 0.00 0.00 0.00 0.00 0.00 0.00 0.00
0.19 0.21 0.16 0.10 0.02 0.00 0.01 0.03 0.06 0.12 0.12 0.14 0.12 0.01 0.00 0.00 0.00 0.00 0.00 0.00 0.00 0.00 0.00 0.00 0.00 0.00 0.00 0.00 0.00 0.00 0.00 0.00 0.00 0.00 0.00 0.00 0.00 0.00 0.00 0.00 0.00 0.00 0.00
0.14 0.17 0.19 0.20 0.16 0.07 0.06 0.13 0.15 0.15 0.10 0.16 0.16 0.04 0.00 0.00 0.00 0.00 0.00 0.00 0.00 0.00 0.00 0.00 0.00 0.00 0.00 0.00 0.00 0.00 0.00 0.00 0.00 0.00 0.00 0.00 0.00 0.00 0.00 0.00 0.00 0.00 0.00
0.14 0.19 0.32 0.25 0.14 0.14 0.12 0.18 0.18 0.19 0.15 0.13 0.11 0.08 0.01 0.00 0.00 0.00 0.00 0.00 0.00 0.00 0.00 0.01 0.01 0.00 0.00 0.00 0.00 0.00 0.00 0.00 0.00 0.00 0.00 0.00 0.00 0.00 0.00 0.00 0.00 0.00 0.00
0.21 0.21 0.31 0.35 0.27 0.15 0.14 0.15 0.20 0.19 0.15 0.11 0.11 0.08 0.08 0.02 0.01 0.00 0.01 0.01 0.01 0.00 0.01 0.01 0.01 0.00 0.00 0.00 0.00 0.00 0.00 0.00 0.00 0.00 0.00 0.00 0.00 0.00 0.00 0.00 0.00 0.00 0.00
0.21 0.22 0.23 0.23 0.26 0.21 0.25 0.24 0.20 0.17 0.17 0.17 0.14 0.14 0.13 0.11 0.05 0.04 0.05 0.05 0.04 0.03 0.02 0.01 0.01 0.01 0.01 0.01 0.01 0.02 0.03 0.03 0.02 0.01 0.00 0.00 0.00 0.00 0.00 0.00 0.00 0.01 0.02
0.15 0.16 0.18 0.19 0.26 0.31 0.31 0.31 0.33 0.30 0.25 0.19 0.16 0.17 0.17 0.18 0.15 0.12 0.14 0.11 0.11 0.10 0.08 0.07 0.05 0.04 0.03 0.04 0.07 0.10 0.13 0.13 0.14 0.13 0.10 0.04 0.01 0.01 0.01 0.02 0.04 0.07 0.08
0.08 0.09 0.16 0.18 0.19 0.24 0.27 0.32 0.30 0.29 0.30 0.26 0.21 0.18 0.20 0.23 0.23 0.24 0.21 0.18 0.14 0.10 0.08 0.07 0.06 0.06 0.06 0.07 0.10 0.16 0.17 0.19 0.15 0.11 0.09 0.11 0.13 0.09 0.07 0.08 0.13 0.15 0.15
0.11 0.15 0.15 0.17 0.19 0.21 0.21 0.23 0.24 0.24 0.24 0.24 0.25 0.22 0.21 0.20 0.24 0.27 0.28 0.26 0.22 0.13 0.11 0.14 0.13 0.13 0.14 0.16 0.22 0.27 0.24 0.27 0.29 0.29 0.26 0.23 0.23 0.22 0.19 0.19 0.19 0.19 0.17
0.12 0.15 0.15 0.15 0.18 0.20 0.22 0.24 0.24 0.22 0.22 0.23 0.22 0.20 0.14 0.12 0.15 0.16 0.17 0.21 0.35 0.41 0.32 0.28 0.29 0.29 0.28 0.34 0.42 0.44 0.45 0.52 0.56 0.54 0.52 0.48 0.44 0.37 0.28 0.23 0.20 0.17 0.14
0.10 0.10 0.10 0.12 0.15 0.18 0.19 0.20 0.22 0.19 0.22 0.22 0.23 0.27 0.28 0.26 0.22 0.22 0.23 0.28 0.35 0.56 0.73 0.68 0.65 0.64 0.63 0.63 0.64 0.61 0.62 0.63 0.50 0.42 0.37 0.33 0.28 0.21 0.16 0.13 0.09 0.08 0.08
0.07 0.07 0.08 0.09 0.09 0.09 0.10 0.13 0.17 0.27 0.36 0.42 0.46 0.47 0.48 0.45 0.48 0.54 0.63 0.75 0.88 0.99 1.09 1.00 0.90 0.84 0.80 0.77 0.71 0.55 0.39 0.27 0.20 0.23 0.21 0.17 0.11 0.09 0.07 0.05 0.04 0.05 0.06
0.05 0.05 0.05 0.04 0.04 0.06 0.09 0.10 0.11 0.13 0.17 0.23 0.29 0.35 0.40 0.41 0.42 0.42 0.47 0.56 0.72 0.90 1.05 1.03 0.94 0.85 0.73 0.59 0.42 0.27 0.19 0.16 0.13 0.15 0.12 0.07 0.05 0.03 0.01 0.02 0.03 0.05 0.06
0.06 0.05 0.04 0.03 0.02 0.02 0.03 0.05 0.08 0.12 0.17 0.25 0.29 0.31 0.34 0.36 0.39 0.39 0.43 0.49 0.58 0.65 0.66 0.55 0.44 0.38 0.35 0.33 0.34 0.29 0.22 0.13 0.06 0.05 0.02 0.01 0.01 0.00 0.01 0.01 0.02 0.02 0.01
0.05 0.04 0.05 0.05 0.06 0.06 0.07 0.09 0.08 0.08 0.07 0.07 0.08 0.11 0.17 0.26 0.37 0.51 0.69 0.77 0.68 0.52 0.41 0.32 0.27 0.21 0.17 0.12 0.09 0.07 0.05 0.03 0.01 0.00 0.00 0.00 0.00 0.00 0.00 0.00 0.00 0.00 0.00
0.04 0.04 0.08 0.14 0.16 0.16 0.19 0.18 0.17 0.17 0.18 0.21 0.23 0.27 0.32 0.39 0.44 0.41 0.34 0.28 0.24 0.21 0.18 0.20 0.17 0.11 0.06 0.03 0.03 0.02 0.02 0.01 0.00 0.00 0.00 0.00 0.00 0.00 0.00 0.00 0.00 0.00 0.00
0.10 0.10 0.13 0.14 0.17 0.21 0.35 0.29 0.25 0.26 0.28 0.29 0.31 0.33 0.36 0.40 0.33 0.28 0.20 0.14 0.10 0.17 0.16 0.11 0.07 0.03 0.00 0.00 0.00 0.01 0.03 0.05 0.05 0.00 0.00 0.00 0.00 0.00 0.00 0.00 0.00 0.00 0.00
0.15 0.24 0.25 0.20 0.16 0.15 0.27 0.22 0.21 0.20 0.23 0.25 0.25 0.22 0.19 0.17 0.13 0.10 0.09 0.07 0.12 0.09 0.05 0.02 0.01 0.00 0.00 0.01 0.06 0.08 0.07 0.08 0.03 0.00 0.01 0.00 0.00 0.00 0.00 0.00 0.00 0.00 0.00
0.29 0.25 0.27 0.37 0.45 0.53 0.50 0.36 0.28 0.20 0.19 0.17 0.15 0.13 0.09 0.04 0.02 0.02 0.04 0.09 0.04 0.01 0.00 0.00 0.00 0.00 0.02 0.03 0.07 0.13 0.05 0.02 0.01 0.00 0.00 0.01 0.00 0.00 0.00 0.00 0.00 0.00 0.00
0.68 0.77 0.64 0.55 0.66 0.74 0.61 0.47 0.30 0.22 0.18 0.13 0.07 0.02 0.00 0.00 0.01 0.02 0.04 0.02 0.00 0.00 0.00 0.00 0.01 0.01 0.01 0.01 0.00 0.01 0.02 0.04 0.03 0.00 0.00 0.00 0.00 0.00 0.00 0.00 0.00 0.00 0.00
0.68 0.66 0.70 0.57 0.52 0.48 0.34 0.27 0.19 0.12 0.06 0.01 0.00 0.00 0.00 0.01 0.01 0.04 0.03 0.01 0.00 0.00 0.03 0.02 0.00 0.00 0.00 0.00 0.00 0.00 0.01 0.12 0.09 0.11 0.00 0.10 0.04 0.03 0.15 0.01 0.00 0.00 0.00

GFSMA_prec_precacc_048.txt.gz
Total_Precipitation_Accumulation
0.00 0.00 0.01 0.02 0.01 0.00 0.00 0.00 0.00 0.00 0.00 0.00 0.00 0.00 0.00 0.00 0.00 0.00 0.00 0.00 0.00 0.00 0.00 0.00 0.00 0.00 0.00 0.00 0.00 0.00 0.00 0.00 0.00 0.00 0.00 0.00 0.00 0.00 0.00 0.00 0.00 0.00 0.00
0.00 0.00 0.00 0.01 0.01 0.00 0.00 0.00 0.00 0.00 0.00 0.00 0.00 0.00 0.00 0.00 0.00 0.00 0.00 0.00 0.00 0.00 0.00 0.00 0.00 0.00 0.00 0.00 0.00 0.00 0.00 0.00 0.00 0.00 0.00 0.00 0.00 0.00 0.00 0.00 0.00 0.00 0.00
0.00 0.00 0.00 0.00 0.00 0.00 0.00 0.00 0.00 0.00 0.00 0.00 0.00 0.00 0.00 0.00 0.00 0.00 0.00 0.00 0.00 0.00 0.00 0.00 0.00 0.00 0.00 0.00 0.00 0.00 0.00 0.00 0.00 0.00 0.00 0.00 0.00 0.00 0.00 0.00 0.00 0.00 0.00
0.00 0.00 0.00 0.00 0.00 0.00 0.00 0.00 0.00 0.00 0.00 0.00 0.00 0.00 0.00 0.00 0.00 0.00 0.00 0.00 0.00 0.00 0.00 0.00 0.00 0.00 0.00 0.00 0.00 0.00 0.00 0.00 0.00 0.00 0.00 0.00 0.00 0.00 0.00 0.00 0.00 0.00 0.00
0.01 0.01 0.00 0.00 0.00 0.00 0.00 0.00 0.00 0.00 0.00 0.00 0.00 0.00 0.00 0.00 0.00 0.00 0.00 0.00 0.00 0.00 0.00 0.00 0.00 0.00 0.00 0.00 0.00 0.00 0.00 0.00 0.00 0.00 0.00 0.00 0.00 0.00 0.00 0.00 0.00 0.00 0.00
0.12 0.08 0.02 0.01 0.00 0.00 0.00 0.00 0.00 0.01 0.00 0.01 0.01 0.00 0.01 0.01 0.00 0.00 0.00 0.01 0.00 0.00 0.00 0.00 0.00 0.00 0.00 0.00 0.00 0.00 0.00 0.00 0.00 0.00 0.00 0.00 0.00 0.00 0.00 0.00 0.00 0.00 0.00
0.19 0.22 0.17 0.10 0.02 0.00 0.01 0.03 0.06 0.12 0.14 0.18 0.15 0.01 0.01 0.00 0.00 0.00 0.00 0.00 0.00 0.00 0.00 0.00 0.00 0.00 0.00 0.00 0.00 0.00 0.00 0.00 0.00 0.00 0.00 0.00 0.00 0.00 0.00 0.00 0.00 0.00 0.00
0.14 0.17 0.19 0.20 0.16 0.07 0.06 0.13 0.15 0.15 0.10 0.17 0.17 0.05 0.00 0.00 0.00 0.00 0.00 0.00 0.00 0.00 0.00 0.00 0.00 0.00 0.00 0.00 0.00 0.00 0.00 0.00 0.00 0.00 0.00 0.00 0.00 0.00 0.00 0.00 0.00 0.00 0.00
0.14 0.20 0.33 0.25 0.14 0.14 0.12 0.18 0.18 0.20 0.15 0.13 0.11 0.10 0.01 0.00 0.00 0.00 0.00 0.00 0.00 0.00 0.00 0.01 0.01 0.00 0.00 0.00 0.00 0.00 0.00 0.00 0.00 0.00 0.01 0.00 0.00 0.00 0.00 0.00 0.00 0.00 0.00
0.21 0.21 0.31 0.35 0.27 0.15 0.14 0.15 0.20 0.19 0.16 0.12 0.12 0.08 0.08 0.03 0.02 0.01 0.01 0.01 0.01 0.00 0.01 0.01 0.01 0.00 0.00 0.00 0.01 0.01 0.01 0.00 0.00 0.00 0.01 0.01 0.01 0.00 0.00 0.00 0.00 0.00 0.01
0.21 0.22 0.23 0.23 0.26 0.21 0.25 0.25 0.20 0.17 0.18 0.18 0.15 0.15 0.13 0.11 0.06 0.05 0.06 0.05 0.04 0.03 0.02 0.01 0.01 0.01 0.01 0.02 0.03 0.05 0.08 0.07 0.08 0.06 0.04 0.05 0.10 0.12 0.06 0.03 0.01 0.02 0.02
0.15 0.16 0.18 0.19 0.26 0.31 0.31 0.31 0.34 0.30 0.26 0.21 0.16 0.17 0.18 0.18 0.15 0.12 0.14 0.11 0.11 0.10 0.08 0.07 0.05 0.04 0.03 0.05 0.11 0.17 0.22 0.22 0.27 0.29 0.25 0.21 0.19 0.20 0.18 0.15 0.11 0.09 0.09
0.08 0.09 0.16 0.18 0.19 0.24 0.27 0.32 0.31 0.30 0.31 0.27 0.21 0.18 0.21 0.23 0.24 0.24 0.21 0.18 0.14 0.10 0.08 0.07 0.06 0.06 0.06 0.07 0.11 0.21 0.26 0.29 0.29 0.30 0.31 0.32 0.32 0.28 0.23 0.23 0.27 0.28 0.24
0.11 0.15 0.15 0.17 0.19 0.21 0.21 0.23 0.24 0.24 0.24 0.24 0.25 0.23 0.21 0.21 0.25 0.27 0.29 0.26 0.22 0.14 0.11 0.14 0.13 0.13 0.14 0.16 0.22 0.29 0.30 0.37 0.41 0.48 0.51 0.47 0.39 0.30 0.24 0.23 0.23 0.24 0.26
0.12 0.15 0.15 0.15 0.18 0.20 0.22 0.24 0.24 0.22 0.22 0.23 0.22 0.20 0.15 0.13 0.16 0.16 0.18 0.22 0.36 0.42 0.33 0.28 0.29 0.29 0.28 0.34 0.42 0.46 0.50 0.63 0.75 0.77 0.74 0.68 0.59 0.45 0.33 0.28 0.25 0.23 0.20
0.10 0.10 0.10 0.12 0.15 0.18 0.19 0.20 0.22 0.19 0.22 0.22 0.23 0.27 0.28 0.26 0.22 0.22 0.23 0.28 0.36 0.56 0.73 0.68 0.65 0.64 0.63 0.63 0.66 0.64 0.71 0.79 0.72 0.63 0.56 0.48 0.39 0.28 0.22 0.17 0.13 0.12 0.12
0.07 0.07 0.08 0.09 0.09 0.09 0.10 0.13 0.17 0.27 0.36 0.42 0.46 0.47 0.48 0.45 0.48 0.54 0.63 0.75 0.88 0.99 1.09 1.00 0.90 0.84 0.80 0.78 0.74 0.61 0.49 0.39 0.35 0.36 0.31 0.27 0.19 0.16 0.13 0.09 0.09 0.08 0.08
0.05 0.05 0.05 0.04 0.04 0.06 0.09 0.10 0.11 0.13 0.17 0.23 0.29 0.35 0.40 0.41 0.42 0.42 0.47 0.56 0.72 0.90 1.05 1.03 0.94 0.85 0.73 0.59 0.44 0.31 0.26 0.25 0.23 0.25 0.20 0.13 0.12 0.10 0.07 0.07 0.07 0.07 0.07
0.06 0.05 0.04 0.03 0.02 0.02 0.03 0.05 0.08 0.12 0.17 0.25 0.29 0.31 0.34 0.36 0.39 0.39 0.43 0.49 0.58 0.65 0.66 0.55 0.44 0.38 0.35 0.33 0.34 0.31 0.26 0.19 0.14 0.13 0.10 0.07 0.06 0.04 0.03 0.03 0.03 0.02 0.02
0.05 0.04 0.05 0.05 0.06 0.06 0.07 0.09 0.08 0.08 0.07 0.07 0.08 0.11 0.17 0.26 0.37 0.51 0.69 0.77 0.68 0.52 0.41 0.32 0.27 0.21 0.17 0.12 0.09 0.08 0.07 0.04 0.02 0.01 0.00 0.00 0.00 0.00 0.00 0.00 0.00 0.00 0.00
0.04 0.04 0.08 0.14 0.16 0.16 0.19 0.18 0.17 0.17 0.18 0.21 0.23 0.27 0.32 0.39 0.44 0.41 0.34 0.28 0.24 0.21 0.18 0.20 0.17 0.11 0.06 0.03 0.03 0.02 0.02 0.01 0.00 0.00 0.00 0.00 0.00 0.00 0.00 0.00 0.00 0.00 0.00
0.10 0.10 0.13 0.14 0.17 0.21 0.35 0.30 0.25 0.26 0.28 0.29 0.31 0.33 0.36 0.40 0.33 0.29 0.21 0.14 0.11 0.17 0.16 0.11 0.07 0.03 0.00 0.00 0.00 0.01 0.03 0.05 0.05 0.00 0.00 0.00 0.00 0.00 0.00 0.00 0.00 0.00 0.00
0.15 0.24 0.25 0.20 0.16 0.15 0.27 0.22 0.21 0.20 0.23 0.25 0.25 0.22 0.19 0.17 0.13 0.10 0.09 0.07 0.12 0.09 0.05 0.02 0.01 0.00 0.00 0.01 0.06 0.08 0.07 0.08 0.03 0.00 0.01 0.00 0.00 0.00 0.00 0.00 0.00 0.00 0.00
0.29 0.25 0.27 0.37 0.45 0.53 0.50 0.36 0.28 0.20 0.19 0.17 0.15 0.13 0.09 0.04 0.02 0.02 0.04 0.09 0.04 0.01 0.00 0.00 0.00 0.00 0.02 0.03 0.07 0.13 0.05 0.02 0.01 0.00 0.00 0.01 0.00 0.00 0.00 0.00 0.00 0.00 0.00
0.68 0.77 0.64 0.55 0.66 0.74 0.61 0.47 0.30 0.22 0.18 0.13 0.07 0.02 0.00 0.00 0.01 0.02 0.04 0.02 0.00 0.00 0.00 0.00 0.01 0.01 0.01 0.01 0.00 0.01 0.02 0.04 0.03 0.00 0.00 0.00 0.00 0.00 0.00 0.00 0.00 0.00 0.00
0.68 0.66 0.70 0.57 0.52 0.48 0.34 0.27 0.19 0.12 0.06 0.01 0.00 0.00 0.00 0.01 0.01 0.04 0.03 0.01 0.00 0.00 0.03 0.02 0.00 0.00 0.00 0.00 0.00 0.00 0.01 0.12 0.09 0.11 0.00 0.10 0.04 0.03 0.15 0.01 0.00 0.00 0.00

GFSMA_prec_precacc_051.txt.gz
Total_Precipitation_Accumulation
0.00 0.00 0.01 0.02 0.01 0.00 0.00 0.00 0.00 0.00 0.00 0.00 0.00 0.00 0.00 0.00 0.00 0.00 0.00 0.00 0.00 0.00 0.00 0.00 0.00 0.00 0.00 0.00 0.00 0.00 0.00 0.00 0.00 0.00 0.00 0.00 0.00 0.00 0.00 0.00 0.00 0.00 0.00
0.00 0.00 0.00 0.01 0.01 0.00 0.00 0.00 0.00 0.00 0.00 0.00 0.00 0.00 0.00 0.00 0.00 0.00 0.00 0.00 0.00 0.00 0.00 0.00 0.00 0.00 0.00 0.00 0.00 0.00 0.00 0.00 0.00 0.00 0.00 0.00 0.00 0.00 0.00 0.00 0.00 0.00 0.00
0.00 0.00 0.00 0.00 0.00 0.00 0.00 0.00 0.00 0.00 0.00 0.00 0.00 0.00 0.00 0.00 0.00 0.00 0.00 0.00 0.00 0.00 0.00 0.00 0.00 0.00 0.00 0.00 0.00 0.00 0.00 0.00 0.00 0.00 0.00 0.00 0.00 0.00 0.00 0.00 0.00 0.00 0.00
0.00 0.00 0.00 0.00 0.00 0.00 0.00 0.00 0.00 0.00 0.00 0.00 0.00 0.00 0.00 0.00 0.00 0.00 0.00 0.00 0.00 0.00 0.00 0.00 0.00 0.00 0.00 0.00 0.00 0.00 0.00 0.00 0.00 0.00 0.00 0.00 0.00 0.00 0.00 0.00 0.00 0.00 0.00
0.01 0.01 0.00 0.00 0.00 0.00 0.00 0.00 0.00 0.00 0.00 0.00 0.00 0.00 0.01 0.01 0.00 0.00 0.00 0.02 0.00 0.00 0.00 0.00 0.00 0.00 0.00 0.00 0.00 0.00 0.00 0.00 0.00 0.00 0.00 0.00 0.00 0.00 0.00 0.00 0.00 0.00 0.00
0.12 0.08 0.02 0.01 0.00 0.00 0.00 0.00 0.00 0.01 0.00 0.01 0.01 0.00 0.02 0.01 0.00 0.00 0.01 0.01 0.01 0.00 0.00 0.00 0.00 0.00 0.00 0.00 0.00 0.00 0.00 0.00 0.00 0.00 0.00 0.00 0.00 0.00 0.00 0.00 0.00 0.00 0.00
0.19 0.22 0.17 0.10 0.02 0.00 0.01 0.03 0.06 0.12 0.14 0.18 0.15 0.01 0.01 0.00 0.00 0.00 0.00 0.00 0.00 0.00 0.00 0.00 0.00 0.00 0.00 0.00 0.00 0.00 0.00 0.00 0.01 0.01 0.00 0.00 0.00 0.00 0.00 0.00 0.00 0.00 0.00
0.14 0.17 0.19 0.20 0.16 0.07 0.06 0.13 0.15 0.15 0.10 0.17 0.17 0.05 0.00 0.00 0.00 0.00 0.00 0.00 0.00 0.00 0.00 0.00 0.00 0.00 0.00 0.00 0.00 0.00 0.00 0.00 0.02 0.04 0.03 0.00 0.00 0.00 0.00 0.00 0.00 0.00 0.00
0.14 0.20 0.33 0.25 0.14 0.14 0.12 0.18 0.19 0.20 0.16 0.13 0.11 0.10 0.02 0.00 0.00 0.00 0.00 0.00 0.00 0.00 0.00 0.01 0.01 0.00 0.00 0.00 0.00 0.00 0.01 0.02 0.01 0.03 0.09 0.08 0.02 0.00 0.00 0.00 0.00 0.00 0.00
0.21 0.21 0.31 0.35 0.27 0.15 0.14 0.15 0.20 0.19 0.16 0.12 0.12 0.08 0.08 0.03 0.03 0.01 0.01 0.01 0.01 0.00 0.01 0.01 0.01 0.00 0.00 0.00 0.01 0.02 0.03 0.04 0.06 0.08 0.10 0.19 0.31 0.17 0.08 0.06 0.05 0.01 0.01
0.21 0.22 0.23 0.23 0.26 0.21 0.25 0.25 0.20 0.17 0.18 0.18 0.15 0.15 0.13 0.11 0.06 0.05 0.06 0.05 0.04 0.03 0.02 0.01 0.01 0.01 0.01 0.02 0.03 0.05 0.08 0.07 0.09 0.13 0.14 0.13 0.16 0.29 0.38 0.30 0.19 0.12 0.10
0.15 0.16 0.18 0.19 0.26 0.31 0.31 0.31 0.34 0.30 0.27 0.22 0.17 0.17 0.18 0.18 0.15 0.12 0.14 0.11 0.11 0.10 0.08 0.07 0.05 0.04 0.03 0.05 0.11 0.17 0.22 0.23 0.29 0.36 0.39 0.33 0.27 0.29 0.42 0.46 0.29 0.24 0.19
0.08 0.09 0.16 0.18 0.19 0.24 0.27 0.32 0.31 0.30 0.31 0.27 0.22 0.19 0.21 0.23 0.24 0.25 0.22 0.18 0.14 0.10 0.08 0.07 0.06 0.06 0.06 0.07 0.11 0.21 0.26 0.29 0.30 0.34 0.43 0.48 0.49 0.45 0.41 0.47 0.48 0.39 0.33
0.11 0.15 0.15 0.17 0.19 0.21 0.21 0.23 0.24 0.24 0.24 0.24 0.26 0.23 0.21 0.21 0.25 0.28 0.29 0.27 0.22 0.14 0.11 0.14 0.13 0.13 0.14 0.16 0.22 0.29 0.30 0.37 0.42 0.53 0.63 0.68 0.68 0.57 0.43 0.39 0.36 0.33 0.33
0.12 0.15 0.15 0.15 0.18 0.20 0.22 0.24 0.24 0.22 0.22 0.23 0.22 0.20 0.15 0.13 0.16 0.16 0.18 0.22 0.36 0.42 0.33 0.28 0.29 0.29 0.28 0.34 0.42 0.46 0.50 0.63 0.76 0.84 0.86 0.84 0.73 0.62 0.49 0.39 0.36 0.29 0.25
0.10 0.10 0.10 0.12 0.15 0.18 0.19 0.20 0.22 0.19 0.22 0.22 0.23 0.27 0.28 0.26 0.22 0.22 0.23 0.28 0.36 0.56 0.73 0.68 0.65 0.64 0.63 0.63 0.66 0.64 0.71 0.80 0.74 0.70 0.70 0.56 0.50 0.42 0.34 0.27 0.22 0.18 0.16
0.07 0.07 0.08 0.09 0.09 0.09 0.10 0.13 0.17 0.27 0.36 0.42 0.46 0.47 0.48 0.45 0.48 0.54 0.63 0.75 0.88 0.99 1.09 1.00 0.90 0.84 0.80 0.78 0.74 0.61 0.50 0.40 0.38 0.43 0.36 0.31 0.24 0.20 0.17 0.14 0.12 0.12 0.12
0.05 0.05 0.05 0.04 0.04 0.06 0.09 0.10 0.11 0.13 0.17 0.23 0.29 0.35 0.40 0.41 0.42 0.42 0.47 0.56 0.72 0.90 1.05 1.03 0.94 0.85 0.73 0.59 0.44 0.31 0.26 0.25 0.23 0.27 0.22 0.14 0.12 0.12 0.12 0.13 0.13 0.11 0.11
0.06 0.05 0.04 0.03 0.02 0.02 0.03 0.05 0.08 0.12 0.17 0.25 0.29 0.31 0.34 0.36 0.39 0.39 0.43 0.49 0.58 0.65 0.66 0.55 0.44 0.38 0.35 0.33 0.34 0.31 0.26 0.19 0.14 0.14 0.10 0.08 0.08 0.08 0.08 0.07 0.06 0.05 0.05
0.05 0.04 0.05 0.05 0.06 0.06 0.07 0.09 0.08 0.08 0.07 0.07 0.08 0.11 0.17 0.26 0.37 0.51 0.69 0.77 0.68 0.52 0.41 0.32 0.27 0.21 0.17 0.12 0.09 0.08 0.07 0.04 0.02 0.01 0.00 0.00 0.00 0.00 0.00 0.00 0.00 0.00 0.00
0.04 0.04 0.08 0.14 0.16 0.16 0.19 0.18 0.17 0.17 0.18 0.21 0.23 0.27 0.32 0.40 0.44 0.41 0.34 0.28 0.24 0.21 0.18 0.20 0.17 0.11 0.06 0.03 0.03 0.02 0.02 0.01 0.00 0.00 0.00 0.00 0.00 0.00 0.00 0.00 0.00 0.00 0.00
0.10 0.10 0.13 0.14 0.17 0.21 0.35 0.30 0.25 0.26 0.28 0.29 0.31 0.33 0.36 0.40 0.33 0.30 0.22 0.14 0.11 0.17 0.16 0.11 0.07 0.03 0.00 0.00 0.00 0.01 0.03 0.05 0.05 0.00 0.00 0.00 0.00 0.00 0.00 0.00 0.00 0.00 0.00
0.15 0.24 0.25 0.20 0.16 0.15 0.27 0.22 0.21 0.20 0.23 0.25 0.25 0.22 0.19 0.17 0.13 0.10 0.09 0.07 0.12 0.09 0.05 0.02 0.01 0.00 0.00 0.01 0.06 0.08 0.07 0.08 0.03 0.00 0.01 0.00 0.00 0.00 0.00 0.00 0.00 0.00 0.00
0.29 0.25 0.27 0.37 0.45 0.53 0.50 0.36 0.28 0.20 0.19 0.17 0.15 0.13 0.09 0.04 0.02 0.02 0.04 0.09 0.04 0.01 0.00 0.00 0.00 0.00 0.02 0.03 0.07 0.13 0.05 0.02 0.01 0.00 0.00 0.01 0.00 0.00 0.00 0.00 0.00 0.00 0.00
0.68 0.77 0.64 0.55 0.66 0.74 0.61 0.47 0.30 0.22 0.18 0.13 0.07 0.02 0.00 0.00 0.01 0.02 0.04 0.02 0.00 0.00 0.00 0.00 0.01 0.01 0.01 0.01 0.00 0.01 0.02 0.04 0.03 0.00 0.00 0.00 0.00 0.00 0.00 0.00 0.00 0.00 0.00
0.68 0.66 0.70 0.57 0.52 0.48 0.34 0.27 0.19 0.12 0.06 0.01 0.00 0.00 0.00 0.01 0.01 0.04 0.03 0.01 0.00 0.00 0.03 0.02 0.00 0.00 0.00 0.00 0.00 0.00 0.01 0.12 0.09 0.11 0.00 0.10 0.04 0.03 0.15 0.01 0.00 0.00 0.00

GFSMA_prec_precacc_054.txt.gz
Total_Precipitation_Accumulation
0.00 0.00 0.01 0.02 0.01 0.00 0.00 0.00 0.00 0.00 0.00 0.00 0.00 0.00 0.00 0.00 0.00 0.00 0.00 0.00 0.00 0.00 0.00 0.00 0.00 0.00 0.00 0.00 0.00 0.00 0.00 0.00 0.00 0.00 0.00 0.00 0.00 0.00 0.00 0.00 0.00 0.00 0.00
0.00 0.00 0.00 0.01 0.01 0.00 0.00 0.00 0.00 0.00 0.00 0.00 0.00 0.00 0.00 0.00 0.00 0.00 0.00 0.00 0.00 0.00 0.00 0.00 0.00 0.00 0.00 0.00 0.00 0.00 0.00 0.00 0.00 0.00 0.00 0.00 0.00 0.00 0.00 0.00 0.00 0.00 0.00
0.00 0.00 0.00 0.00 0.00 0.00 0.00 0.00 0.00 0.00 0.00 0.00 0.00 0.00 0.00 0.00 0.00 0.00 0.00 0.00 0.00 0.00 0.00 0.00 0.00 0.00 0.00 0.00 0.00 0.00 0.00 0.00 0.00 0.00 0.00 0.00 0.00 0.00 0.00 0.00 0.00 0.00 0.00
0.00 0.00 0.00 0.00 0.00 0.00 0.00 0.00 0.00 0.00 0.00 0.00 0.00 0.00 0.00 0.00 0.00 0.00 0.00 0.00 0.00 0.00 0.00 0.00 0.00 0.00 0.00 0.00 0.01 0.00 0.00 0.00 0.00 0.00 0.00 0.00 0.00 0.00 0.00 0.00 0.00 0.00 0.00
0.01 0.01 0.00 0.00 0.00 0.00 0.00 0.00 0.00 0.00 0.00 0.00 0.00 0.00 0.01 0.01 0.00 0.00 0.00 0.02 0.01 0.00 0.00 0.00 0.00 0.00 0.00 0.00 0.00 0.00 0.01 0.01 0.00 0.00 0.00 0.00 0.00 0.00 0.00 0.00 0.00 0.00 0.00
0.12 0.08 0.02 0.01 0.00 0.00 0.00 0.00 0.01 0.01 0.00 0.01 0.01 0.00 0.02 0.01 0.00 0.00 0.01 0.01 0.01 0.01 0.00 0.00 0.00 0.00 0.00 0.00 0.00 0.00 0.00 0.02 0.01 0.00 0.00 0.00 0.00 0.00 0.00 0.00 0.00 0.00 0.00
0.19 0.22 0.17 0.10 0.02 0.00 0.01 0.03 0.06 0.12 0.14 0.18 0.15 0.01 0.01 0.00 0.00 0.00 0.00 0.00 0.00 0.00 0.00 0.00 0.00 0.00 0.00 0.00 0.00 0.00 0.00 0.01 0.04 0.05 0.01 0.00 0.00 0.00 0.00 0.00 0.00 0.00 0.00
0.14 0.17 0.19 0.20 0.16 0.07 0.07 0.13 0.15 0.15 0.10 0.17 0.17 0.05 0.00 0.00 0.00 0.00 0.00 0.00 0.00 0.00 0.00 0.00 0.00 0.00 0.00 0.00 0.00 0.00 0.01 0.01 0.03 0.12 0.16 0.07 0.02 0.00 0.00 0.00 0.00 0.00 0.01
0.14 0.20 0.33 0.25 0.14 0.14 0.12 0.19 0.19 0.21 0.17 0.13 0.11 0.10 0.02 0.00 0.00 0.00 0.00 0.00 0.00 0.00 0.00 0.01 0.01 0.00 0.00 0.00 0.00 0.00 0.01 0.02 0.02 0.05 0.19 0.38 0.42 0.22 0.09 0.03 0.02 0.01 0.01
0.21 0.21 0.31 0.35 0.27 0.15 0.14 0.15 0.20 0.19 0.16 0.12 0.12 0.08 0.08 0.03 0.03 0.01 0.01 0.01 0.01 0.00 0.01 0.01 0.01 0.00 0.00 0.00 0.01 0.02 0.03 0.04 0.06 0.10 0.14 0.28 0.58 0.61 0.36 0.16 0.10 0.07 0.04
0.21 0.22 0.23 0.23 0.26 0.21 0.25 0.25 0.20 0.17 0.18 0.18 0.15 0.15 0.13 0.11 0.06 0.06 0.06 0.05 0.04 0.03 0.02 0.01 0.01 0.01 0.01 0.02 0.03 0.05 0.08 0.07 0.09 0.13 0.17 0.20 0.30 0.47 0.63 0.58 0.39 0.26 0.15
0.15 0.16 0.18 0.19 0.26 0.31 0.31 0.31 0.34 0.30 0.27 0.23 0.18 0.17 0.18 0.18 0.15 0.12 0.14 0.11 0.11 0.10 0.08 0.07 0.05 0.04 0.03 0.05 0.11 0.17 0.22 0.23 0.29 0.36 0.41 0.41 0.39 0.41 0.47 0.51 0.47 0.45 0.34
0.08 0.09 0.16 0.18 0.19 0.24 0.27 0.32 0.31 0.31 0.31 0.28 0.23 0.20 0.22 0.24 0.24 0.25 0.22 0.18 0.14 0.10 0.08 0.07 0.06 0.06 0.06 0.07 0.11 0.21 0.26 0.29 0.30 0.34 0.44 0.54 0.61 0.55 0.46 0.51 0.64 0.66 0.61
0.11 0.15 0.15 0.17 0.19 0.21 0.21 0.23 0.24 0.24 0.24 0.25 0.26 0.24 0.22 0.21 0.25 0.28 0.29 0.27 0.23 0.14 0.11 0.14 0.13 0.13 0.14 0.16 0.22 0.29 0.30 0.37 0.43 0.53 0.64 0.73 0.79 0.76 0.62 0.47 0.51 0.53 0.47
0.12 0.15 0.15 0.15 0.18 0.20 0.22 0.24 0.24 0.22 0.22 0.23 0.22 0.20 0.15 0.13 0.16 0.16 0.18 0.22 0.36 0.42 0.33 0.28 0.29 0.29 0.28 0.34 0.42 0.46 0.50 0.64 0.77 0.84 0.86 0.89 0.76 0.78 0.64 0.48 0.45 0.38 0.35
0.10 0.10 0.10 0.12 0.15 0.18 0.19 0.20 0.22 0.19 0.22 0.22 0.23 0.27 0.28 0.26 0.22 0.22 0.23 0.28 0.36 0.56 0.73 0.68 0.65 0.64 0.63 0.63 0.66 0.64 0.71 0.80 0.74 0.72 0.75 0.59 0.51 0.44 0.37 0.30 0.27 0.27 0.27
0.07 0.07 0.08 0.09 0.09 0.09 0.10 0.13 0.17 0.27 0.36 0.42 0.46 0.47 0.48 0.45 0.48 0.54 0.63 0.75 0.88 0.99 1.09 1.00 0.90 0.84 0.80 0.78 0.74 0.61 0.50 0.40 0.38 0.44 0.37 0.33 0.26 0.21 0.19 0.16 0.15 0.14 0.14
0.05 0.05 0.05 0.04 0.04 0.06 0.09 0.10 0.11 0.13 0.17 0.23 0.29 0.35 0.40 0.41 0.42 0.42 0.47 0.56 0.72 0.90 1.05 1.03 0.94 0.85 0.73 0.59 0.44 0.31 0.26 0.25 0.23 0.27 0.22 0.14 0.12 0.12 0.12 0.13 0.13 0.12 0.11
0.06 0.05 0.04 0.03 0.02 0.02 0.03 0.05 0.08 0.12 0.17 0.25 0.29 0.31 0.34 0.36 0.39 0.39 0.43 0.49 0.58 0.65 0.66 0.55 0.44 0.38 0.35 0.33 0.34 0.31 0.26 0.19 0.14 0.14 0.10 0.08 0.08 0.08 0.08 0.07 0.06 0.06 0.06
0.05 0.04 0.05 0.05 0.06 0.06 0.07 0.09 0.08 0.08 0.07 0.07 0.08 0.11 0.17 0.26 0.37 0.51 0.69 0.77 0.68 0.52 0.41 0.32 0.27 0.21 0.17 0.12 0.09 0.08 0.07 0.04 0.02 0.01 0.00 0.00 0.00 0.00 0.00 0.00 0.00 0.00 0.00
0.04 0.04 0.08 0.14 0.16 0.16 0.19 0.18 0.17 0.17 0.18 0.21 0.23 0.27 0.32 0.40 0.44 0.42 0.34 0.28 0.24 0.21 0.18 0.20 0.17 0.11 0.06 0.03 0.03 0.02 0.02 0.01 0.00 0.00 0.00 0.00 0.00 0.00 0.00 0.00 0.00 0.00 0.00
0.10 0.10 0.13 0.14 0.17 0.21 0.36 0.30 0.25 0.26 0.28 0.29 0.31 0.33 0.36 0.40 0.33 0.30 0.22 0.14 0.11 0.17 0.16 0.11 0.07 0.03 0.00 0.00 0.00 0.01 0.03 0.05 0.05 0.00 0.00 0.00 0.00 0.00 0.00 0.00 0.00 0.00 0.00
0.15 0.24 0.25 0.20 0.16 0.15 0.28 0.22 0.21 0.20 0.23 0.25 0.25 0.22 0.19 0.17 0.13 0.10 0.09 0.07 0.12 0.09 0.05 0.02 0.01 0.00 0.00 0.01 0.06 0.08 0.07 0.08 0.03 0.00 0.01 0.00 0.00 0.00 0.00 0.00 0.00 0.00 0.00
0.29 0.25 0.27 0.37 0.45 0.53 0.50 0.36 0.28 0.20 0.19 0.17 0.15 0.13 0.09 0.04 0.02 0.02 0.04 0.09 0.04 0.01 0.00 0.00 0.00 0.00 0.02 0.03 0.07 0.13 0.05 0.02 0.01 0.00 0.00 0.01 0.00 0.00 0.00 0.00 0.00 0.00 0.00
0.68 0.77 0.64 0.55 0.66 0.74 0.61 0.47 0.30 0.22 0.18 0.13 0.07 0.02 0.00 0.00 0.01 0.02 0.04 0.02 0.00 0.00 0.00 0.00 0.01 0.01 0.01 0.01 0.00 0.01 0.02 0.04 0.03 0.00 0.00 0.00 0.00 0.00 0.00 0.00 0.00 0.00 0.00
0.68 0.66 0.70 0.57 0.52 0.48 0.34 0.27 0.19 0.12 0.06 0.01 0.00 0.00 0.00 0.01 0.01 0.04 0.03 0.01 0.00 0.00 0.03 0.02 0.00 0.00 0.00 0.00 0.00 0.00 0.01 0.12 0.09 0.11 0.00 0.10 0.04 0.03 0.15 0.01 0.00 0.00 0.00

GFSMA_prec_precacc_057.txt.gz
Total_Precipitation_Accumulation
0.00 0.00 0.01 0.02 0.01 0.00 0.00 0.00 0.00 0.00 0.00 0.00 0.00 0.00 0.00 0.00 0.00 0.00 0.00 0.00 0.00 0.00 0.00 0.00 0.00 0.00 0.00 0.00 0.00 0.00 0.00 0.00 0.00 0.00 0.00 0.00 0.00 0.00 0.00 0.00 0.00 0.00 0.00
0.00 0.00 0.00 0.01 0.01 0.00 0.00 0.00 0.00 0.00 0.00 0.00 0.00 0.00 0.00 0.00 0.00 0.00 0.00 0.00 0.00 0.00 0.00 0.00 0.00 0.00 0.00 0.00 0.00 0.00 0.00 0.00 0.00 0.00 0.00 0.00 0.00 0.00 0.00 0.00 0.00 0.00 0.00
0.00 0.00 0.00 0.00 0.00 0.00 0.00 0.00 0.00 0.00 0.00 0.00 0.00 0.00 0.00 0.00 0.00 0.00 0.00 0.00 0.00 0.00 0.00 0.00 0.00 0.00 0.00 0.00 0.01 0.00 0.00 0.00 0.00 0.00 0.00 0.00 0.00 0.00 0.00 0.00 0.00 0.00 0.00
0.00 0.00 0.00 0.00 0.00 0.00 0.00 0.00 0.00 0.00 0.00 0.00 0.00 0.00 0.00 0.00 0.00 0.00 0.00 0.00 0.00 0.00 0.00 0.00 0.00 0.00 0.00 0.00 0.01 0.03 0.02 0.00 0.00 0.00 0.00 0.00 0.00 0.00 0.00 0.00 0.00 0.00 0.00
0.01 0.01 0.00 0.00 0.00 0.00 0.00 0.00 0.00 0.00 0.00 0.00 0.00 0.00 0.01 0.01 0.00 0.00 0.00 0.02 0.01 0.00 0.00 0.00 0.00 0.00 0.00 0.00 0.00 0.01 0.03 0.03 0.00 0.00 0.00 0.00 0.00 0.00 0.00 0.00 0.00 0.00 0.00
0.12 0.08 0.02 0.01 0.01 0.00 0.00 0.01 0.01 0.03 0.01 0.01 0.02 0.00 0.02 0.01 0.00 0.00 0.01 0.01 0.01 0.01 0.00 0.00 0.00 0.00 0.00 0.00 0.00 0.00 0.01 0.05 0.06 0.03 0.00 0.00 0.00 0.00 0.00 0.00 0.00 0.00 0.00
0.19 0.22 0.17 0.10 0.02 0.01 0.01 0.04 0.07 0.12 0.14 0.18 0.15 0.01 0.01 0.00 0.00 0.00 0.00 0.00 0.00 0.00 0.00 0.00 0.00 0.00 0.00 0.00 0.00 0.00 0.02 0.04 0.07 0.13 0.09 0.03 0.00 0.00 0.00 0.00 0.00 0.00 0.00
0.14 0.17 0.19 0.20 0.17 0.07 0.07 0.14 0.16 0.16 0.11 0.17 0.18 0.05 0.00 0.00 0.00 0.00 0.00 0.00 0.00 0.00 0.00 0.00 0.00 0.00 0.00 0.00 0.00 0.00 0.01 0.03 0.07 0.18 0.28 0.19 0.15 0.13 0.07 0.03 0.01 0.00 0.01
0.14 0.20 0.33 0.25 0.14 0.15 0.13 0.20 0.21 0.23 0.19 0.14 0.12 0.10 0.02 0.00 0.00 0.00 0.00 0.00 0.00 0.00 0.00 0.01 0.01 0.00 0.00 0.00 0.00 0.00 0.01 0.02 0.02 0.06 0.21 0.45 0.57 0.52 0.30 0.13 0.04 0.02 0.02
0.21 0.21 0.31 0.35 0.27 0.15 0.14 0.15 0.20 0.19 0.16 0.12 0.12 0.08 0.08 0.03 0.03 0.02 0.01 0.01 0.01 0.00 0.01 0.01 0.01 0.00 0.00 0.00 0.01 0.02 0.03 0.04 0.06 0.10 0.14 0.30 0.66 0.69 0.44 0.21 0.12 0.09 0.08
0.21 0.22 0.23 0.23 0.26 0.21 0.25 0.25 0.20 0.17 0.18 0.18 0.15 0.15 0.13 0.12 0.06 0.06 0.06 0.05 0.04 0.03 0.02 0.01 0.01 0.01 0.01 0.02 0.03 0.05 0.08 0.07 0.09 0.13 0.17 0.20 0.35 0.61 0.80 0.69 0.44 0.31 0.23
0.15 0.16 0.18 0.19 0.26 0.31 0.31 0.31 0.34 0.30 0.27 0.23 0.18 0.18 0.18 0.18 0.15 0.12 0.14 0.11 0.11 0.10 0.08 0.07 0.05 0.04 0.03 0.05 0.11 0.17 0.22 0.23 0.29 0.36 0.41 0.41 0.43 0.51 0.61 0.60 0.58 0.56 0.48
0.08 0.09 0.16 0.18 0.19 0.24 0.27 0.32 0.31 0.31 0.31 0.29 0.23 0.21 0.23 0.25 0.25 0.26 0.22 0.18 0.14 0.10 0.08 0.07 0.06 0.06 0.06 0.07 0.11 0.21 0.26 0.29 0.30 0.34 0.44 0.54 0.62 0.57 0.57 0.80 1.20 0.93 0.75
0.11 0.15 0.15 0.17 0.19 0.21 0.21 0.23 0.24 0.25 0.25 0.26 0.27 0.25 0.23 0.23 0.27 0.29 0.30 0.27 0.23 0.14 0.11 0.14 0.13 0.13 0.14 0.16 0.22 0.29 0.30 0.37 0.43 0.53 0.64 0.73 0.80 0.76 0.70 0.77 0.80 0.61 0.54
0.12 0.15 0.15 0.15 0.18 0.20 0.22 0.24 0.24 0.22 0.22 0.23 0.22 0.20 0.15 0.13 0.16 0.16 0.18 0.22 0.36 0.42 0.33 0.28 0.29 0.29 0.28 0.34 0.42 0.46 0.50 0.64 0.78 0.85 0.87 0.91 0.77 0.78 0.66 0.55 0.54 0.39 0.38
0.10 0.10 0.10 0.12 0.15 0.18 0.19 0.20 0.22 0.19 0.22 0.22 0.23 0.27 0.28 0.26 0.22 0.22 0.23 0.28 0.36 0.56 0.74 0.68 0.65 0.64 0.63 0.63 0.66 0.64 0.71 0.80 0.75 0.74 0.76 0.61 0.52 0.45 0.38 0.33 0.31 0.30 0.30
0.07 0.07 0.08 0.09 0.09 0.09 0.10 0.13 0.17 0.27 0.36 0.42 0.46 0.47 0.48 0.45 0.48 0.54 0.63 0.75 0.88 0.99 1.09 1.00 0.90 0.84 0.80 0.78 0.74 0.61 0.50 0.40 0.38 0.44 0.38 0.33 0.27 0.21 0.19 0.16 0.15 0.15 0.15
0.05 0.05 0.05 0.04 0.04 0.06 0.09 0.10 0.11 0.13 0.17 0.23 0.29 0.35 0.40 0.41 0.42 0.42 0.47 0.56 0.72 0.90 1.05 1.03 0.94 0.85 0.73 0.59 0.44 0.31 0.26 0.25 0.23 0.27 0.22 0.14 0.12 0.12 0.12 0.13 0.13 0.12 0.11
0.06 0.05 0.04 0.03 0.02 0.02 0.03 0.05 0.08 0.12 0.17 0.25 0.29 0.31 0.34 0.36 0.39 0.39 0.43 0.49 0.58 0.65 0.66 0.55 0.44 0.38 0.35 0.33 0.34 0.31 0.26 0.19 0.14 0.14 0.10 0.08 0.08 0.08 0.08 0.07 0.06 0.06 0.06
0.05 0.04 0.05 0.05 0.06 0.06 0.07 0.09 0.08 0.08 0.07 0.07 0.08 0.11 0.17 0.26 0.37 0.51 0.69 0.77 0.68 0.52 0.41 0.32 0.27 0.21 0.17 0.12 0.09 0.08 0.07 0.04 0.02 0.01 0.00 0.00 0.00 0.00 0.00 0.00 0.00 0.00 0.00
0.04 0.04 0.08 0.14 0.16 0.16 0.19 0.18 0.17 0.17 0.18 0.21 0.23 0.27 0.32 0.40 0.44 0.42 0.34 0.28 0.24 0.21 0.18 0.20 0.17 0.11 0.06 0.03 0.03 0.02 0.02 0.01 0.00 0.00 0.00 0.00 0.00 0.00 0.00 0.00 0.00 0.00 0.00
0.10 0.10 0.13 0.14 0.17 0.21 0.36 0.30 0.25 0.26 0.28 0.29 0.31 0.33 0.36 0.40 0.34 0.30 0.22 0.14 0.11 0.17 0.16 0.11 0.07 0.03 0.00 0.00 0.00 0.01 0.03 0.05 0.05 0.00 0.00 0.00 0.00 0.00 0.00 0.00 0.00 0.00 0.00
0.15 0.24 0.25 0.20 0.16 0.15 0.28 0.22 0.21 0.20 0.23 0.25 0.25 0.22 0.19 0.17 0.13 0.10 0.09 0.07 0.12 0.09 0.05 0.02 0.01 0.00 0.00 0.01 0.06 0.08 0.07 0.08 0.03 0.00 0.01 0.00 0.00 0.00 0.00 0.00 0.00 0.00 0.00
0.29 0.25 0.27 0.37 0.45 0.53 0.50 0.36 0.28 0.20 0.19 0.17 0.15 0.13 0.09 0.04 0.02 0.02 0.04 0.09 0.04 0.01 0.00 0.00 0.00 0.00 0.02 0.03 0.07 0.13 0.05 0.02 0.01 0.00 0.00 0.01 0.00 0.00 0.00 0.00 0.00 0.00 0.00
0.68 0.77 0.64 0.55 0.66 0.74 0.61 0.47 0.30 0.22 0.18 0.13 0.07 0.02 0.00 0.00 0.01 0.02 0.04 0.02 0.00 0.00 0.00 0.00 0.01 0.01 0.01 0.01 0.00 0.01 0.02 0.04 0.03 0.00 0.00 0.00 0.00 0.00 0.00 0.00 0.00 0.00 0.00
0.68 0.66 0.70 0.57 0.52 0.48 0.34 0.27 0.19 0.12 0.06 0.01 0.00 0.00 0.00 0.01 0.01 0.04 0.03 0.01 0.00 0.00 0.03 0.02 0.00 0.00 0.00 0.00 0.00 0.00 0.01 0.12 0.09 0.11 0.00 0.10 0.04 0.03 0.15 0.01 0.00 0.00 0.00

GFSMA_prec_precacc_060.txt.gz
Total_Precipitation_Accumulation
0.00 0.00 0.01 0.02 0.01 0.00 0.00 0.00 0.00 0.00 0.00 0.00 0.00 0.00 0.00 0.00 0.00 0.00 0.00 0.00 0.00 0.00 0.00 0.00 0.00 0.00 0.00 0.00 0.00 0.00 0.00 0.00 0.00 0.00 0.00 0.00 0.00 0.00 0.00 0.00 0.00 0.00 0.00
0.00 0.00 0.00 0.01 0.01 0.00 0.00 0.00 0.00 0.00 0.00 0.00 0.00 0.00 0.00 0.00 0.00 0.00 0.00 0.00 0.00 0.00 0.00 0.00 0.00 0.00 0.00 0.01 0.00 0.00 0.00 0.00 0.00 0.00 0.00 0.00 0.00 0.00 0.00 0.00 0.00 0.00 0.00
0.00 0.00 0.00 0.00 0.00 0.00 0.00 0.00 0.00 0.00 0.00 0.00 0.00 0.00 0.00 0.00 0.00 0.00 0.00 0.00 0.00 0.00 0.00 0.00 0.00 0.00 0.00 0.00 0.01 0.02 0.01 0.00 0.00 0.00 0.00 0.00 0.00 0.00 0.00 0.00 0.00 0.00 0.00
0.00 0.00 0.00 0.00 0.00 0.00 0.00 0.00 0.00 0.00 0.00 0.00 0.00 0.00 0.00 0.00 0.00 0.00 0.00 0.00 0.00 0.00 0.00 0.00 0.00 0.00 0.00 0.00 0.01 0.04 0.07 0.03 0.00 0.00 0.00 0.00 0.00 0.00 0.00 0.00 0.00 0.00 0.00
0.01 0.01 0.00 0.00 0.00 0.00 0.00 0.00 0.00 0.00 0.00 0.01 0.01 0.00 0.01 0.01 0.00 0.00 0.00 0.02 0.01 0.00 0.00 0.00 0.00 0.00 0.00 0.00 0.00 0.01 0.05 0.10 0.06 0.01 0.00 0.00 0.00 0.00 0.00 0.00 0.00 0.00 0.00
0.12 0.08 0.02 0.01 0.01 0.01 0.00 0.01 0.02 0.03 0.01 0.01 0.02 0.00 0.02 0.01 0.00 0.00 0.01 0.01 0.01 0.01 0.00 0.00 0.00 0.00 0.00 0.00 0.00 0.00 0.01 0.06 0.13 0.11 0.05 0.02 0.00 0.00 0.00 0.00 0.00 0.00 0.00
0.19 0.22 0.17 0.10 0.02 0.01 0.01 0.04 0.07 0.13 0.14 0.19 0.15 0.01 0.01 0.00 0.00 0.00 0.00 0.00 0.00 0.00 0.00 0.00 0.00 0.00 0.00 0.00 0.00 0.00 0.02 0.04 0.10 0.18 0.19 0.17 0.10 0.02 0.01 0.00 0.00 0.00 0.00
0.14 0.17 0.19 0.20 0.17 0.08 0.07 0.14 0.16 0.17 0.12 0.18 0.19 0.06 0.00 0.00 0.00 0.00 0.00 0.00 0.00 0.00 0.00 0.00 0.00 0.00 0.00 0.00 0.00 0.00 0.01 0.03 0.07 0.20 0.31 0.27 0.28 0.32 0.31 0.21 0.04 0.00 0.01
0.14 0.20 0.33 0.26 0.14 0.15 0.13 0.20 0.21 0.24 0.19 0.14 0.12 0.10 0.02 0.00 0.00 0.00 0.00 0.00 0.00 0.00 0.00 0.01 0.01 0.00 0.00 0.00 0.00 0.00 0.01 0.02 0.02 0.06 0.21 0.45 0.58 0.56 0.41 0.23 0.06 0.02 0.02
0.21 0.21 0.31 0.35 0.27 0.15 0.14 0.15 0.20 0.19 0.16 0.12 0.12 0.08 0.09 0.04 0.03 0.02 0.01 0.01 0.01 0.00 0.01 0.01 0.01 0.00 0.00 0.00 0.01 0.02 0.03 0.04 0.06 0.10 0.14 0.30 0.66 0.72 0.52 0.33 0.21 0.12 0.08
0.21 0.22 0.23 0.23 0.26 0.21 0.25 0.25 0.20 0.17 0.18 0.18 0.15 0.15 0.14 0.12 0.06 0.07 0.07 0.05 0.04 0.03 0.02 0.01 0.01 0.01 0.01 0.02 0.03 0.05 0.08 0.07 0.09 0.13 0.17 0.20 0.35 0.63 0.86 0.83 0.62 0.42 0.27
0.15 0.16 0.18 0.19 0.26 0.31 0.31 0.31 0.34 0.30 0.27 0.23 0.18 0.18 0.19 0.19 0.15 0.12 0.14 0.11 0.11 0.10 0.08 0.07 0.05 0.04 0.03 0.05 0.11 0.17 0.22 0.23 0.29 0.36 0.41 0.41 0.43 0.52 0.62 0.63 0.67 0.73 0.73
0.08 0.09 0.16 0.18 0.19 0.24 0.27 0.32 0.31 0.31 0.32 0.29 0.24 0.21 0.24 0.26 0.26 0.27 0.23 0.19 0.14 0.10 0.08 0.07 0.06 0.06 0.06 0.07 0.11 0.21 0.26 0.29 0.30 0.34 0.44 0.54 0.62 0.57 0.57 0.81 1.24 1.26 1.22
0.11 0.15 0.15 0.17 0.19 0.21 0.21 0.23 0.25 0.25 0.25 0.26 0.28 0.25 0.24 0.23 0.28 0.32 0.32 0.28 0.23 0.14 0.11 0.14 0.13 0.13 0.14 0.16 0.22 0.29 0.30 0.37 0.44 0.54 0.65 0.74 0.80 0.77 0.70 0.78 0.80 0.62 0.55
0.12 0.15 0.15 0.15 0.18 0.20 0.22 0.24 0.24 0.22 0.22 0.24 0.23 0.21 0.15 0.14 0.17 0.17 0.18 0.22 0.36 0.42 0.33 0.28 0.29 0.29 0.28 0.34 0.42 0.46 0.50 0.64 0.78 0.86 0.88 0.92 0.78 0.78 0.67 0.60 0.59 0.40 0.38
0.10 0.10 0.10 0.12 0.15 0.18 0.19 0.20 0.22 0.19 0.22 0.22 0.24 0.27 0.28 0.26 0.23 0.22 0.23 0.28 0.36 0.56 0.74 0.68 0.65 0.64 0.63 0.63 0.66 0.64 0.71 0.80 0.75 0.74 0.77 0.61 0.53 0.46 0.38 0.36 0.35 0.34 0.33
0.07 0.07 0.08 0.09 0.09 0.09 0.10 0.13 0.17 0.27 0.36 0.42 0.46 0.47 0.48 0.45 0.48 0.54 0.63 0.75 0.88 0.99 1.09 1.00 0.90 0.84 0.80 0.78 0.74 0.61 0.50 0.40 0.38 0.44 0.38 0.34 0.27 0.21 0.19 0.17 0.16 0.16 0.17
0.05 0.05 0.05 0.04 0.04 0.06 0.09 0.10 0.11 0.13 0.17 0.23 0.29 0.35 0.40 0.41 0.42 0.42 0.47 0.56 0.72 0.90 1.05 1.03 0.94 0.85 0.73 0.59 0.44 0.31 0.26 0.25 0.23 0.27 0.22 0.14 0.12 0.12 0.12 0.13 0.13 0.12 0.11
0.06 0.05 0.04 0.03 0.02 0.02 0.03 0.05 0.08 0.12 0.17 0.25 0.29 0.31 0.34 0.36 0.39 0.39 0.43 0.49 0.58 0.65 0.66 0.55 0.44 0.38 0.35 0.33 0.34 0.31 0.26 0.19 0.14 0.14 0.10 0.08 0.08 0.08 0.08 0.07 0.06 0.06 0.06
0.05 0.04 0.05 0.05 0.06 0.06 0.07 0.09 0.08 0.08 0.07 0.07 0.08 0.11 0.17 0.26 0.37 0.51 0.69 0.77 0.68 0.52 0.41 0.32 0.27 0.21 0.17 0.12 0.09 0.08 0.07 0.04 0.02 0.01 0.00 0.00 0.00 0.00 0.00 0.00 0.00 0.00 0.00
0.04 0.04 0.08 0.14 0.16 0.16 0.19 0.18 0.17 0.17 0.18 0.21 0.23 0.27 0.32 0.40 0.44 0.42 0.34 0.28 0.24 0.21 0.18 0.20 0.17 0.11 0.06 0.03 0.03 0.02 0.02 0.01 0.00 0.00 0.00 0.00 0.00 0.00 0.00 0.00 0.00 0.00 0.00
0.10 0.10 0.13 0.14 0.17 0.21 0.36 0.30 0.25 0.26 0.28 0.29 0.31 0.33 0.36 0.40 0.34 0.30 0.22 0.14 0.11 0.17 0.16 0.11 0.07 0.03 0.00 0.00 0.00 0.01 0.03 0.05 0.05 0.00 0.00 0.00 0.00 0.00 0.00 0.00 0.00 0.00 0.00
0.15 0.24 0.25 0.20 0.16 0.15 0.28 0.23 0.22 0.20 0.23 0.25 0.25 0.22 0.19 0.17 0.13 0.10 0.09 0.07 0.12 0.09 0.05 0.02 0.01 0.00 0.00 0.01 0.06 0.08 0.07 0.08 0.03 0.00 0.01 0.00 0.00 0.00 0.00 0.00 0.00 0.00 0.00
0.29 0.25 0.27 0.37 0.45 0.53 0.50 0.36 0.28 0.20 0.19 0.17 0.15 0.13 0.09 0.04 0.02 0.02 0.04 0.09 0.04 0.01 0.00 0.00 0.00 0.00 0.02 0.03 0.07 0.13 0.05 0.02 0.01 0.00 0.00 0.01 0.00 0.00 0.00 0.00 0.00 0.00 0.00
0.68 0.77 0.64 0.55 0.66 0.74 0.61 0.47 0.30 0.22 0.18 0.13 0.07 0.02 0.00 0.00 0.01 0.02 0.04 0.02 0.00 0.00 0.00 0.00 0.01 0.01 0.01 0.01 0.00 0.01 0.02 0.04 0.03 0.00 0.00 0.00 0.00 0.00 0.00 0.00 0.00 0.00 0.00
0.68 0.66 0.70 0.57 0.52 0.48 0.34 0.27 0.19 0.12 0.06 0.01 0.00 0.00 0.00 0.01 0.01 0.04 0.03 0.01 0.00 0.00 0.03 0.02 0.00 0.00 0.00 0.00 0.00 0.00 0.01 0.12 0.09 0.11 0.00 0.10 0.04 0.03 0.15 0.01 0.00 0.00 0.00

GFSMA_prec_precacc_063.txt.gz
Total_Precipitation_Accumulation
0.00 0.00 0.01 0.02 0.01 0.00 0.00 0.00 0.00 0.00 0.00 0.00 0.00 0.00 0.00 0.00 0.00 0.00 0.00 0.00 0.00 0.00 0.00 0.00 0.00 0.00 0.00 0.00 0.00 0.00 0.00 0.00 0.00 0.00 0.00 0.00 0.00 0.00 0.00 0.00 0.00 0.00 0.00
0.00 0.00 0.00 0.01 0.01 0.00 0.00 0.00 0.00 0.00 0.00 0.00 0.00 0.00 0.00 0.00 0.00 0.00 0.00 0.00 0.00 0.00 0.00 0.00 0.00 0.00 0.01 0.02 0.03 0.02 0.00 0.00 0.00 0.00 0.00 0.00 0.00 0.00 0.00 0.00 0.00 0.00 0.00
0.00 0.00 0.00 0.00 0.00 0.00 0.00 0.00 0.00 0.00 0.00 0.00 0.00 0.00 0.00 0.00 0.00 0.00 0.00 0.00 0.00 0.00 0.00 0.00 0.00 0.00 0.00 0.00 0.01 0.06 0.07 0.02 0.00 0.00 0.00 0.00 0.00 0.00 0.00 0.00 0.00 0.00 0.00
0.00 0.00 0.00 0.00 0.00 0.00 0.00 0.00 0.00 0.00 0.00 0.00 0.00 0.00 0.00 0.00 0.00 0.00 0.00 0.00 0.00 0.00 0.00 0.00 0.00 0.00 0.00 0.00 0.01 0.06 0.14 0.13 0.03 0.00 0.00 0.00 0.00 0.00 0.00 0.00 0.00 0.00 0.00
0.01 0.01 0.00 0.00 0.00 0.00 0.00 0.00 0.00 0.00 0.00 0.01 0.01 0.00 0.01 0.01 0.00 0.00 0.00 0.02 0.01 0.00 0.00 0.00 0.00 0.00 0.00 0.00 0.00 0.01 0.07 0.15 0.12 0.09 0.03 0.00 0.00 0.00 0.00 0.00 0.00 0.00 0.00
0.12 0.08 0.02 0.01 0.01 0.01 0.00 0.01 0.02 0.03 0.01 0.01 0.02 0.00 0.02 0.01 0.00 0.00 0.01 0.01 0.01 0.01 0.00 0.00 0.00 0.00 0.00 0.00 0.00 0.00 0.01 0.07 0.16 0.18 0.16 0.13 0.05 0.00 0.00 0.00 0.00 0.00 0.00
0.19 0.22 0.17 0.10 0.02 0.01 0.01 0.04 0.07 0.13 0.14 0.19 0.16 0.02 0.01 0.00 0.00 0.00 0.00 0.00 0.00 0.00 0.00 0.00 0.00 0.00 0.00 0.00 0.00 0.00 0.02 0.04 0.10 0.20 0.23 0.23 0.23 0.13 0.07 0.03 0.00 0.00 0.00
0.14 0.18 0.19 0.20 0.17 0.08 0.07 0.14 0.17 0.17 0.12 0.18 0.20 0.06 0.01 0.00 0.00 0.00 0.00 0.00 0.00 0.00 0.00 0.00 0.00 0.00 0.00 0.00 0.00 0.00 0.01 0.03 0.07 0.20 0.31 0.27 0.30 0.40 0.46 0.40 0.11 0.01 0.01
0.15 0.20 0.33 0.26 0.14 0.15 0.13 0.20 0.21 0.24 0.20 0.15 0.13 0.11 0.03 0.00 0.00 0.00 0.00 0.00 0.00 0.00 0.00 0.01 0.01 0.00 0.00 0.00 0.00 0.00 0.01 0.02 0.02 0.06 0.21 0.45 0.58 0.57 0.43 0.31 0.14 0.04 0.02
0.21 0.21 0.31 0.35 0.27 0.15 0.14 0.15 0.20 0.19 0.16 0.12 0.12 0.08 0.09 0.05 0.04 0.02 0.01 0.01 0.01 0.00 0.01 0.01 0.01 0.00 0.00 0.00 0.01 0.02 0.03 0.04 0.06 0.10 0.14 0.30 0.66 0.72 0.52 0.37 0.35 0.26 0.12
0.21 0.22 0.23 0.23 0.26 0.21 0.25 0.25 0.20 0.17 0.18 0.18 0.15 0.15 0.14 0.12 0.07 0.07 0.07 0.05 0.04 0.03 0.02 0.01 0.01 0.01 0.01 0.02 0.03 0.05 0.08 0.07 0.09 0.13 0.17 0.20 0.35 0.63 0.87 0.84 0.67 0.59 0.45
0.15 0.16 0.18 0.19 0.26 0.31 0.31 0.31 0.34 0.30 0.27 0.23 0.18 0.18 0.19 0.19 0.15 0.12 0.15 0.12 0.11 0.10 0.08 0.07 0.05 0.04 0.03 0.05 0.11 0.17 0.22 0.23 0.29 0.36 0.41 0.41 0.43 0.52 0.62 0.63 0.67 0.75 0.85
0.08 0.09 0.16 0.18 0.19 0.24 0.27 0.32 0.31 0.31 0.32 0.29 0.24 0.21 0.24 0.27 0.26 0.27 0.23 0.19 0.15 0.11 0.08 0.07 0.06 0.06 0.06 0.07 0.11 0.21 0.26 0.29 0.31 0.36 0.45 0.55 0.62 0.58 0.57 0.81 1.24 1.26 1.23
0.11 0.15 0.15 0.17 0.19 0.21 0.21 0.23 0.25 0.25 0.25 0.26 0.28 0.26 0.25 0.24 0.28 0.32 0.33 0.29 0.24 0.14 0.11 0.14 0.13 0.13 0.14 0.16 0.22 0.29 0.30 0.37 0.44 0.55 0.66 0.75 0.81 0.78 0.70 0.78 0.82 0.63 0.56
0.12 0.15 0.15 0.15 0.18 0.20 0.22 0.24 0.24 0.22 0.22 0.24 0.23 0.21 0.15 0.14 0.17 0.19 0.20 0.24 0.37 0.42 0.33 0.28 0.29 0.29 0.28 0.34 0.42 0.46 0.50 0.64 0.78 0.87 0.89 0.92 0.78 0.78 0.68 0.63 0.64 0.41 0.39
0.10 0.10 0.10 0.12 0.15 0.18 0.19 0.20 0.22 0.19 0.22 0.22 0.24 0.27 0.28 0.26 0.23 0.22 0.24 0.28 0.36 0.56 0.74 0.68 0.65 0.64 0.63 0.63 0.66 0.64 0.71 0.80 0.75 0.74 0.77 0.61 0.53 0.46 0.39 0.38 0.36 0.35 0.34
0.07 0.07 0.08 0.09 0.09 0.09 0.10 0.13 0.17 0.27 0.36 0.42 0.46 0.47 0.48 0.45 0.48 0.54 0.63 0.75 0.88 0.99 1.09 1.00 0.90 0.84 0.80 0.78 0.74 0.61 0.50 0.40 0.38 0.44 0.38 0.34 0.27 0.21 0.19 0.17 0.16 0.16 0.17
0.05 0.05 0.05 0.04 0.04 0.06 0.09 0.10 0.11 0.13 0.17 0.23 0.29 0.35 0.40 0.41 0.42 0.42 0.47 0.56 0.72 0.90 1.05 1.03 0.94 0.85 0.73 0.59 0.44 0.31 0.26 0.25 0.23 0.27 0.22 0.14 0.12 0.12 0.12 0.13 0.13 0.12 0.11
0.06 0.05 0.04 0.03 0.02 0.02 0.03 0.05 0.08 0.12 0.17 0.25 0.29 0.31 0.34 0.36 0.39 0.39 0.43 0.49 0.58 0.65 0.66 0.55 0.44 0.38 0.35 0.33 0.34 0.31 0.26 0.19 0.14 0.14 0.10 0.08 0.08 0.08 0.08 0.07 0.06 0.06 0.06
0.05 0.04 0.05 0.05 0.06 0.06 0.07 0.09 0.08 0.08 0.07 0.07 0.08 0.11 0.17 0.26 0.37 0.51 0.69 0.77 0.68 0.52 0.41 0.32 0.27 0.21 0.17 0.12 0.09 0.08 0.07 0.04 0.02 0.01 0.00 0.00 0.00 0.00 0.00 0.00 0.00 0.00 0.00
0.04 0.04 0.08 0.14 0.16 0.16 0.19 0.18 0.17 0.17 0.18 0.21 0.23 0.27 0.32 0.40 0.44 0.42 0.34 0.28 0.24 0.21 0.18 0.20 0.17 0.11 0.06 0.03 0.03 0.02 0.02 0.01 0.00 0.00 0.00 0.00 0.00 0.00 0.00 0.00 0.00 0.00 0.00
0.10 0.10 0.13 0.14 0.17 0.21 0.37 0.31 0.25 0.26 0.28 0.29 0.31 0.33 0.36 0.40 0.34 0.30 0.22 0.14 0.11 0.17 0.16 0.11 0.07 0.03 0.00 0.00 0.00 0.01 0.03 0.05 0.05 0.00 0.00 0.00 0.00 0.00 0.00 0.00 0.00 0.00 0.00
0.15 0.24 0.25 0.20 0.16 0.15 0.29 0.23 0.22 0.20 0.23 0.25 0.25 0.22 0.19 0.17 0.13 0.10 0.09 0.07 0.12 0.09 0.05 0.02 0.01 0.00 0.00 0.01 0.06 0.08 0.07 0.08 0.03 0.00 0.01 0.00 0.00 0.00 0.00 0.00 0.00 0.00 0.00
0.29 0.25 0.27 0.37 0.45 0.53 0.51 0.36 0.28 0.20 0.19 0.17 0.15 0.13 0.09 0.04 0.02 0.02 0.04 0.09 0.04 0.01 0.00 0.00 0.00 0.00 0.02 0.03 0.07 0.13 0.05 0.02 0.01 0.00 0.00 0.01 0.00 0.00 0.00 0.00 0.00 0.00 0.00
0.68 0.77 0.64 0.55 0.66 0.74 0.61 0.47 0.30 0.22 0.18 0.13 0.07 0.02 0.00 0.00 0.01 0.02 0.04 0.02 0.00 0.00 0.00 0.00 0.01 0.01 0.01 0.01 0.00 0.01 0.02 0.04 0.03 0.00 0.00 0.00 0.00 0.00 0.00 0.00 0.00 0.00 0.00
0.68 0.66 0.70 0.57 0.52 0.48 0.34 0.27 0.19 0.12 0.06 0.01 0.00 0.00 0.00 0.01 0.01 0.04 0.03 0.01 0.00 0.00 0.03 0.02 0.00 0.00 0.00 0.00 0.00 0.00 0.01 0.12 0.09 0.11 0.00 0.10 0.04 0.03 0.15 0.01 0.00 0.00 0.00

GFSMA_prec_precacc_066.txt.gz
Total_Precipitation_Accumulation
0.00 0.00 0.01 0.02 0.01 0.00 0.00 0.00 0.00 0.00 0.00 0.00 0.00 0.00 0.00 0.00 0.00 0.00 0.00 0.00 0.00 0.00 0.00 0.00 0.01 0.01 0.01 0.01 0.00 0.00 0.00 0.00 0.00 0.00 0.00 0.00 0.00 0.00 0.00 0.00 0.00 0.00 0.00
0.00 0.00 0.00 0.01 0.01 0.00 0.00 0.00 0.00 0.00 0.00 0.00 0.00 0.00 0.00 0.00 0.00 0.00 0.00 0.00 0.00 0.00 0.00 0.00 0.00 0.00 0.01 0.04 0.06 0.06 0.02 0.00 0.00 0.00 0.00 0.00 0.00 0.00 0.00 0.00 0.00 0.00 0.00
0.00 0.00 0.00 0.00 0.00 0.00 0.00 0.00 0.00 0.00 0.00 0.00 0.00 0.00 0.00 0.00 0.00 0.00 0.00 0.00 0.00 0.00 0.00 0.00 0.00 0.00 0.00 0.00 0.02 0.08 0.15 0.11 0.02 0.00 0.00 0.00 0.00 0.00 0.00 0.00 0.00 0.00 0.00
0.00 0.00 0.00 0.00 0.00 0.00 0.00 0.00 0.00 0.00 0.00 0.00 0.00 0.00 0.00 0.00 0.00 0.00 0.00 0.00 0.00 0.00 0.00 0.00 0.00 0.00 0.00 0.00 0.01 0.06 0.17 0.23 0.12 0.05 0.02 0.00 0.00 0.00 0.00 0.00 0.00 0.00 0.00
0.01 0.01 0.00 0.00 0.00 0.00 0.00 0.00 0.00 0.00 0.00 0.01 0.01 0.00 0.01 0.01 0.00 0.00 0.00 0.02 0.01 0.00 0.00 0.00 0.00 0.00 0.00 0.00 0.00 0.01 0.07 0.16 0.16 0.16 0.14 0.07 0.01 0.00 0.00 0.00 0.00 0.00 0.00
0.12 0.08 0.02 0.01 0.01 0.01 0.00 0.01 0.02 0.03 0.01 0.02 0.02 0.01 0.02 0.01 0.00 0.00 0.01 0.01 0.01 0.01 0.00 0.00 0.00 0.00 0.00 0.00 0.00 0.00 0.01 0.07 0.16 0.21 0.21 0.25 0.20 0.05 0.01 0.00 0.00 0.00 0.00
0.19 0.22 0.17 0.10 0.02 0.01 0.01 0.04 0.07 0.13 0.15 0.19 0.16 0.02 0.01 0.00 0.00 0.00 0.00 0.00 0.00 0.00 0.00 0.00 0.00 0.00 0.00 0.00 0.00 0.00 0.02 0.04 0.10 0.20 0.23 0.24 0.28 0.22 0.19 0.12 0.02 0.01 0.00
0.15 0.18 0.20 0.21 0.17 0.08 0.07 0.15 0.17 0.18 0.12 0.19 0.20 0.07 0.01 0.00 0.00 0.00 0.00 0.00 0.00 0.00 0.00 0.00 0.00 0.00 0.00 0.00 0.00 0.00 0.01 0.03 0.07 0.20 0.31 0.27 0.30 0.40 0.50 0.55 0.31 0.05 0.01
0.15 0.21 0.34 0.26 0.14 0.15 0.13 0.20 0.21 0.25 0.20 0.15 0.13 0.12 0.03 0.00 0.00 0.00 0.00 0.00 0.00 0.00 0.00 0.01 0.01 0.00 0.00 0.00 0.00 0.00 0.01 0.02 0.02 0.06 0.21 0.45 0.58 0.57 0.43 0.32 0.19 0.13 0.05
0.24 0.23 0.31 0.35 0.27 0.15 0.14 0.15 0.20 0.19 0.16 0.12 0.12 0.08 0.09 0.05 0.05 0.02 0.01 0.01 0.01 0.00 0.01 0.01 0.01 0.00 0.00 0.00 0.01 0.02 0.03 0.04 0.06 0.10 0.14 0.30 0.66 0.72 0.53 0.38 0.37 0.33 0.24
0.36 0.31 0.28 0.24 0.26 0.21 0.25 0.25 0.20 0.17 0.18 0.18 0.15 0.15 0.14 0.12 0.07 0.07 0.07 0.05 0.04 0.03 0.02 0.01 0.01 0.01 0.01 0.02 0.03 0.05 0.08 0.07 0.09 0.13 0.17 0.20 0.35 0.63 0.88 0.84 0.67 0.60 0.56
0.20 0.20 0.20 0.19 0.26 0.31 0.31 0.31 0.34 0.30 0.27 0.23 0.18 0.18 0.19 0.19 0.15 0.12 0.15 0.12 0.11 0.10 0.08 0.07 0.05 0.04 0.03 0.05 0.11 0.17 0.22 0.23 0.30 0.37 0.41 0.42 0.44 0.53 0.63 0.63 0.67 0.75 0.86
0.09 0.10 0.16 0.18 0.19 0.24 0.27 0.32 0.31 0.31 0.32 0.29 0.24 0.21 0.24 0.27 0.26 0.27 0.23 0.20 0.15 0.11 0.08 0.07 0.06 0.06 0.06 0.07 0.11 0.21 0.26 0.29 0.31 0.37 0.47 0.57 0.64 0.59 0.59 0.81 1.24 1.27 1.23
0.11 0.15 0.15 0.17 0.19 0.21 0.21 0.23 0.25 0.25 0.25 0.26 0.28 0.26 0.25 0.24 0.28 0.32 0.33 0.30 0.25 0.14 0.12 0.14 0.13 0.13 0.14 0.16 0.22 0.29 0.30 0.37 0.45 0.56 0.67 0.76 0.82 0.79 0.72 0.81 0.83 0.64 0.57
0.12 0.15 0.15 0.15 0.18 0.20 0.22 0.24 0.24 0.22 0.22 0.24 0.23 0.21 0.15 0.14 0.17 0.19 0.21 0.24 0.38 0.44 0.34 0.29 0.29 0.29 0.28 0.34 0.42 0.46 0.50 0.64 0.78 0.88 0.89 0.92 0.78 0.79 0.70 0.65 0.65 0.42 0.39
0.10 0.10 0.10 0.12 0.15 0.18 0.19 0.20 0.22 0.19 0.22 0.22 0.24 0.27 0.28 0.26 0.23 0.22 0.24 0.29 0.37 0.57 0.74 0.68 0.65 0.64 0.63 0.63 0.66 0.64 0.71 0.80 0.75 0.74 0.77 0.61 0.53 0.46 0.39 0.38 0.37 0.35 0.34
0.07 0.07 0.08 0.09 0.09 0.09 0.10 0.13 0.17 0.27 0.36 0.42 0.46 0.47 0.48 0.45 0.48 0.54 0.63 0.75 0.88 0.99 1.09 1.00 0.90 0.84 0.80 0.78 0.74 0.61 0.50 0.40 0.38 0.44 0.38 0.34 0.27 0.21 0.19 0.17 0.16 0.16 0.17
0.05 0.05 0.05 0.04 0.04 0.06 0.09 0.10 0.11 0.13 0.17 0.23 0.29 0.36 0.40 0.41 0.42 0.42 0.47 0.56 0.72 0.90 1.05 1.03 0.94 0.85 0.73 0.59 0.44 0.31 0.26 0.25 0.23 0.27 0.22 0.14 0.12 0.12 0.12 0.13 0.13 0.12 0.11
0.06 0.05 0.04 0.03 0.02 0.02 0.03 0.05 0.08 0.12 0.17 0.25 0.29 0.31 0.34 0.36 0.39 0.39 0.43 0.49 0.58 0.65 0.66 0.55 0.44 0.38 0.35 0.33 0.34 0.31 0.26 0.19 0.14 0.14 0.10 0.08 0.08 0.08 0.08 0.07 0.06 0.06 0.06
0.05 0.04 0.05 0.05 0.06 0.06 0.07 0.09 0.08 0.08 0.07 0.07 0.08 0.11 0.17 0.26 0.37 0.51 0.69 0.77 0.68 0.52 0.41 0.32 0.27 0.21 0.17 0.12 0.09 0.08 0.07 0.04 0.02 0.01 0.00 0.00 0.00 0.00 0.00 0.00 0.00 0.00 0.00
0.04 0.04 0.08 0.14 0.16 0.16 0.19 0.18 0.17 0.17 0.18 0.21 0.23 0.27 0.32 0.40 0.45 0.42 0.34 0.28 0.24 0.21 0.18 0.20 0.17 0.11 0.06 0.03 0.03 0.02 0.02 0.01 0.00 0.00 0.00 0.00 0.00 0.00 0.00 0.00 0.00 0.00 0.00
0.10 0.10 0.13 0.14 0.17 0.21 0.37 0.31 0.25 0.26 0.28 0.29 0.31 0.33 0.36 0.40 0.34 0.30 0.22 0.14 0.11 0.17 0.16 0.11 0.07 0.03 0.00 0.00 0.00 0.01 0.03 0.05 0.05 0.00 0.00 0.00 0.00 0.00 0.00 0.00 0.00 0.00 0.00
0.15 0.24 0.25 0.20 0.16 0.15 0.29 0.24 0.22 0.20 0.23 0.25 0.25 0.22 0.19 0.17 0.13 0.10 0.09 0.07 0.12 0.09 0.05 0.02 0.01 0.00 0.00 0.01 0.06 0.08 0.07 0.08 0.03 0.00 0.01 0.00 0.00 0.00 0.00 0.00 0.00 0.00 0.00
0.29 0.25 0.27 0.37 0.45 0.54 0.51 0.36 0.28 0.20 0.19 0.17 0.15 0.13 0.09 0.04 0.02 0.02 0.04 0.09 0.04 0.01 0.00 0.00 0.00 0.00 0.02 0.03 0.07 0.13 0.05 0.02 0.01 0.00 0.00 0.01 0.00 0.00 0.00 0.00 0.00 0.00 0.00
0.68 0.77 0.64 0.55 0.66 0.74 0.61 0.47 0.30 0.22 0.18 0.13 0.07 0.02 0.00 0.00 0.01 0.02 0.04 0.02 0.00 0.00 0.00 0.00 0.01 0.01 0.01 0.01 0.00 0.01 0.02 0.04 0.03 0.00 0.00 0.00 0.00 0.00 0.00 0.00 0.00 0.00 0.00
0.68 0.66 0.70 0.57 0.52 0.48 0.35 0.27 0.19 0.12 0.06 0.01 0.00 0.00 0.00 0.01 0.01 0.04 0.03 0.01 0.00 0.00 0.03 0.02 0.00 0.00 0.00 0.00 0.00 0.00 0.01 0.12 0.09 0.11 0.00 0.10 0.04 0.03 0.15 0.01 0.00 0.00 0.00

GFSMA_prec_precacc_069.txt.gz
Total_Precipitation_Accumulation
0.00 0.00 0.01 0.02 0.01 0.00 0.00 0.00 0.00 0.00 0.00 0.00 0.00 0.00 0.00 0.00 0.00 0.00 0.00 0.00 0.00 0.00 0.00 0.00 0.01 0.02 0.03 0.02 0.02 0.01 0.00 0.00 0.00 0.00 0.00 0.00 0.00 0.00 0.00 0.00 0.00 0.00 0.00
0.00 0.00 0.00 0.01 0.01 0.00 0.00 0.00 0.00 0.00 0.00 0.00 0.00 0.00 0.00 0.00 0.00 0.00 0.00 0.00 0.00 0.00 0.00 0.00 0.00 0.00 0.02 0.05 0.09 0.11 0.07 0.02 0.00 0.00 0.00 0.00 0.00 0.00 0.00 0.00 0.00 0.00 0.00
0.00 0.00 0.00 0.00 0.00 0.00 0.00 0.00 0.00 0.00 0.00 0.00 0.00 0.00 0.00 0.00 0.00 0.00 0.00 0.00 0.00 0.00 0.00 0.00 0.00 0.00 0.00 0.00 0.02 0.10 0.20 0.17 0.08 0.05 0.01 0.00 0.00 0.00 0.00 0.00 0.00 0.00 0.00
0.00 0.00 0.00 0.00 0.00 0.00 0.00 0.00 0.00 0.00 0.00 0.00 0.00 0.00 0.00 0.00 0.00 0.00 0.00 0.00 0.00 0.00 0.00 0.00 0.00 0.00 0.00 0.00 0.01 0.06 0.17 0.24 0.15 0.11 0.11 0.03 0.00 0.00 0.00 0.00 0.00 0.00 0.00
0.01 0.01 0.00 0.00 0.00 0.00 0.00 0.00 0.00 0.00 0.00 0.01 0.01 0.00 0.01 0.01 0.00 0.00 0.00 0.02 0.01 0.00 0.00 0.00 0.00 0.00 0.00 0.00 0.00 0.01 0.07 0.16 0.16 0.16 0.18 0.16 0.08 0.01 0.00 0.00 0.00 0.00 0.00
0.12 0.08 0.02 0.01 0.01 0.01 0.00 0.01 0.02 0.03 0.01 0.02 0.03 0.01 0.02 0.01 0.00 0.00 0.01 0.01 0.01 0.01 0.00 0.00 0.00 0.00 0.00 0.00 0.00 0.00 0.01 0.07 0.16 0.21 0.22 0.27 0.30 0.17 0.08 0.01 0.00 0.00 0.00
0.19 0.22 0.17 0.10 0.02 0.01 0.01 0.04 0.07 0.13 0.15 0.19 0.16 0.02 0.01 0.00 0.00 0.00 0.00 0.00 0.00 0.00 0.00 0.00 0.00 0.00 0.00 0.00 0.00 0.00 0.02 0.04 0.10 0.20 0.23 0.24 0.28 0.24 0.29 0.27 0.10 0.02 0.01
0.15 0.18 0.20 0.21 0.17 0.08 0.07 0.15 0.17 0.18 0.12 0.19 0.21 0.07 0.01 0.00 0.00 0.00 0.00 0.00 0.00 0.00 0.00 0.00 0.00 0.00 0.00 0.00 0.00 0.00 0.01 0.03 0.07 0.20 0.32 0.28 0.30 0.40 0.50 0.58 0.41 0.18 0.06
0.18 0.24 0.36 0.28 0.17 0.17 0.13 0.20 0.21 0.25 0.20 0.15 0.13 0.12 0.03 0.00 0.00 0.00 0.00 0.00 0.00 0.00 0.00 0.01 0.01 0.00 0.00 0.00 0.00 0.00 0.01 0.02 0.02 0.06 0.21 0.45 0.58 0.57 0.43 0.33 0.20 0.18 0.16
0.40 0.39 0.45 0.46 0.34 0.19 0.15 0.15 0.20 0.19 0.16 0.12 0.12 0.08 0.09 0.05 0.05 0.02 0.01 0.01 0.01 0.00 0.01 0.01 0.01 0.00 0.00 0.00 0.01 0.02 0.03 0.04 0.06 0.10 0.14 0.30 0.66 0.72 0.53 0.39 0.38 0.34 0.30
0.55 0.52 0.48 0.36 0.32 0.24 0.27 0.25 0.20 0.17 0.18 0.18 0.15 0.15 0.14 0.12 0.07 0.08 0.07 0.05 0.04 0.03 0.02 0.01 0.01 0.01 0.01 0.02 0.03 0.05 0.08 0.07 0.09 0.14 0.17 0.20 0.35 0.63 0.88 0.84 0.68 0.60 0.58
0.28 0.26 0.24 0.20 0.27 0.31 0.31 0.31 0.34 0.30 0.27 0.23 0.18 0.18 0.19 0.19 0.15 0.12 0.15 0.12 0.11 0.10 0.08 0.07 0.05 0.04 0.03 0.05 0.11 0.17 0.22 0.23 0.30 0.38 0.43 0.43 0.45 0.54 0.64 0.64 0.68 0.75 0.86
0.13 0.11 0.17 0.18 0.19 0.24 0.27 0.32 0.31 0.31 0.32 0.29 0.24 0.21 0.24 0.27 0.26 0.27 0.23 0.20 0.15 0.11 0.09 0.08 0.06 0.06 0.06 0.07 0.11 0.21 0.26 0.29 0.31 0.38 0.48 0.58 0.64 0.60 0.61 0.82 1.24 1.27 1.23
0.13 0.17 0.16 0.17 0.19 0.21 0.21 0.23 0.25 0.25 0.25 0.26 0.28 0.26 0.25 0.24 0.28 0.32 0.34 0.31 0.26 0.15 0.13 0.15 0.13 0.14 0.15 0.16 0.22 0.29 0.30 0.37 0.45 0.56 0.67 0.76 0.82 0.80 0.75 0.84 0.84 0.66 0.58
0.13 0.15 0.15 0.15 0.18 0.20 0.22 0.24 0.24 0.22 0.22 0.24 0.23 0.21 0.15 0.14 0.17 0.19 0.21 0.26 0.41 0.45 0.35 0.29 0.30 0.29 0.29 0.34 0.42 0.46 0.50 0.64 0.78 0.88 0.89 0.92 0.78 0.79 0.71 0.66 0.65 0.43 0.40
0.10 0.10 0.10 0.12 0.15 0.18 0.19 0.20 0.22 0.19 0.22 0.22 0.24 0.27 0.28 0.26 0.23 0.22 0.24 0.29 0.37 0.59 0.77 0.69 0.67 0.65 0.64 0.63 0.66 0.64 0.71 0.80 0.75 0.74 0.77 0.61 0.53 0.46 0.39 0.38 0.37 0.35 0.34
0.07 0.07 0.08 0.09 0.09 0.09 0.10 0.13 0.17 0.27 0.36 0.42 0.46 0.47 0.48 0.45 0.48 0.54 0.63 0.75 0.88 0.99 1.09 1.00 0.90 0.84 0.80 0.78 0.74 0.61 0.50 0.40 0.38 0.44 0.38 0.34 0.27 0.21 0.19 0.17 0.16 0.16 0.18
0.05 0.05 0.05 0.04 0.04 0.06 0.09 0.10 0.11 0.13 0.17 0.23 0.29 0.36 0.40 0.41 0.42 0.42 0.47 0.56 0.72 0.90 1.05 1.03 0.94 0.85 0.73 0.59 0.44 0.31 0.26 0.25 0.23 0.27 0.22 0.14 0.12 0.12 0.12 0.13 0.13 0.12 0.11
0.06 0.05 0.04 0.03 0.02 0.02 0.03 0.05 0.08 0.12 0.17 0.25 0.29 0.31 0.34 0.36 0.39 0.40 0.43 0.49 0.58 0.65 0.66 0.55 0.44 0.38 0.35 0.33 0.34 0.31 0.26 0.19 0.14 0.14 0.10 0.08 0.08 0.08 0.08 0.07 0.06 0.06 0.06
0.05 0.04 0.05 0.05 0.06 0.06 0.07 0.09 0.08 0.08 0.07 0.07 0.08 0.11 0.17 0.26 0.37 0.51 0.69 0.77 0.68 0.52 0.41 0.32 0.27 0.21 0.17 0.12 0.09 0.08 0.07 0.04 0.02 0.01 0.00 0.00 0.00 0.00 0.00 0.00 0.00 0.00 0.00
0.04 0.04 0.08 0.14 0.16 0.16 0.19 0.18 0.17 0.17 0.18 0.21 0.23 0.27 0.32 0.40 0.45 0.42 0.34 0.28 0.24 0.21 0.18 0.20 0.17 0.11 0.06 0.03 0.03 0.02 0.02 0.01 0.00 0.00 0.00 0.00 0.00 0.00 0.00 0.00 0.00 0.00 0.00
0.10 0.10 0.13 0.14 0.17 0.21 0.37 0.31 0.25 0.26 0.28 0.29 0.31 0.34 0.37 0.41 0.34 0.30 0.22 0.14 0.11 0.17 0.16 0.11 0.07 0.03 0.00 0.00 0.00 0.01 0.03 0.05 0.05 0.00 0.00 0.00 0.00 0.00 0.00 0.00 0.00 0.00 0.00
0.15 0.24 0.25 0.20 0.16 0.15 0.29 0.24 0.22 0.20 0.23 0.25 0.25 0.22 0.19 0.17 0.13 0.10 0.09 0.07 0.12 0.09 0.05 0.02 0.01 0.00 0.00 0.01 0.06 0.08 0.07 0.08 0.03 0.00 0.01 0.00 0.00 0.00 0.00 0.00 0.00 0.00 0.00
0.29 0.25 0.27 0.37 0.45 0.54 0.51 0.36 0.28 0.20 0.19 0.17 0.15 0.13 0.09 0.04 0.02 0.02 0.04 0.09 0.04 0.01 0.00 0.00 0.00 0.00 0.02 0.03 0.07 0.13 0.05 0.02 0.01 0.00 0.00 0.01 0.00 0.00 0.00 0.00 0.00 0.00 0.00
0.68 0.77 0.64 0.55 0.66 0.74 0.61 0.47 0.30 0.22 0.18 0.13 0.07 0.02 0.00 0.00 0.01 0.02 0.04 0.02 0.00 0.00 0.00 0.00 0.01 0.01 0.01 0.01 0.00 0.01 0.02 0.04 0.03 0.00 0.00 0.00 0.00 0.00 0.00 0.00 0.00 0.00 0.00
0.68 0.66 0.70 0.57 0.52 0.48 0.35 0.27 0.19 0.12 0.06 0.01 0.00 0.00 0.00 0.01 0.01 0.04 0.03 0.01 0.00 0.00 0.03 0.02 0.00 0.00 0.00 0.00 0.00 0.00 0.01 0.12 0.09 0.11 0.00 0.10 0.04 0.03 0.15 0.01 0.00 0.00 0.00

GFSMA_prec_precacc_072.txt.gz
Total_Precipitation_Accumulation
0.00 0.00 0.01 0.02 0.01 0.00 0.00 0.00 0.00 0.00 0.00 0.00 0.00 0.00 0.00 0.00 0.00 0.00 0.00 0.00 0.00 0.00 0.00 0.00 0.01 0.03 0.05 0.04 0.04 0.03 0.02 0.01 0.00 0.00 0.00 0.00 0.00 0.00 0.00 0.00 0.00 0.00 0.00
0.00 0.00 0.00 0.01 0.01 0.00 0.00 0.00 0.00 0.00 0.00 0.00 0.00 0.00 0.00 0.00 0.00 0.00 0.00 0.00 0.00 0.00 0.00 0.00 0.00 0.00 0.02 0.06 0.10 0.13 0.10 0.06 0.03 0.01 0.00 0.00 0.00 0.00 0.00 0.00 0.00 0.00 0.00
0.00 0.00 0.00 0.00 0.00 0.00 0.00 0.00 0.00 0.00 0.00 0.00 0.00 0.00 0.00 0.00 0.00 0.00 0.00 0.00 0.00 0.00 0.00 0.00 0.00 0.00 0.00 0.01 0.02 0.10 0.21 0.17 0.10 0.11 0.06 0.00 0.00 0.00 0.00 0.00 0.00 0.00 0.00
0.00 0.00 0.00 0.00 0.00 0.00 0.00 0.00 0.00 0.00 0.00 0.00 0.00 0.00 0.00 0.00 0.00 0.00 0.00 0.00 0.00 0.00 0.00 0.00 0.00 0.00 0.00 0.00 0.01 0.06 0.18 0.24 0.15 0.12 0.15 0.11 0.01 0.00 0.00 0.00 0.00 0.00 0.00
0.01 0.01 0.00 0.00 0.00 0.00 0.00 0.00 0.00 0.00 0.00 0.01 0.01 0.00 0.01 0.01 0.00 0.00 0.00 0.02 0.01 0.00 0.00 0.00 0.00 0.00 0.00 0.00 0.00 0.01 0.07 0.16 0.16 0.16 0.18 0.18 0.13 0.05 0.01 0.00 0.00 0.00 0.00
0.13 0.08 0.02 0.01 0.01 0.01 0.00 0.01 0.02 0.03 0.01 0.02 0.03 0.01 0.02 0.01 0.00 0.00 0.01 0.01 0.01 0.01 0.00 0.00 0.00 0.00 0.00 0.00 0.00 0.00 0.01 0.07 0.16 0.21 0.22 0.27 0.30 0.20 0.17 0.10 0.02 0.00 0.00
0.21 0.22 0.17 0.10 0.02 0.01 0.01 0.04 0.07 0.13 0.15 0.19 0.16 0.02 0.01 0.00 0.00 0.00 0.00 0.00 0.00 0.00 0.00 0.00 0.00 0.00 0.00 0.00 0.00 0.00 0.02 0.04 0.10 0.20 0.23 0.24 0.28 0.24 0.29 0.33 0.21 0.08 0.02
0.16 0.19 0.20 0.21 0.17 0.08 0.08 0.15 0.17 0.18 0.13 0.19 0.21 0.07 0.01 0.00 0.00 0.00 0.00 0.00 0.00 0.00 0.00 0.00 0.00 0.00 0.00 0.00 0.00 0.00 0.01 0.03 0.07 0.20 0.32 0.28 0.30 0.40 0.50 0.58 0.42 0.23 0.16
0.21 0.29 0.40 0.32 0.20 0.25 0.23 0.26 0.23 0.25 0.20 0.15 0.13 0.12 0.03 0.00 0.00 0.00 0.00 0.00 0.00 0.00 0.00 0.01 0.01 0.00 0.00 0.00 0.00 0.00 0.01 0.02 0.02 0.06 0.21 0.45 0.58 0.57 0.43 0.33 0.20 0.19 0.21
0.42 0.50 0.63 0.70 0.59 0.45 0.31 0.23 0.22 0.19 0.16 0.12 0.12 0.08 0.09 0.05 0.05 0.02 0.01 0.01 0.01 0.00 0.01 0.01 0.01 0.00 0.00 0.00 0.01 0.02 0.03 0.04 0.06 0.10 0.14 0.30 0.66 0.72 0.54 0.40 0.38 0.36 0.31
0.68 0.67 0.68 0.60 0.49 0.31 0.30 0.28 0.22 0.18 0.18 0.18 0.15 0.15 0.14 0.12 0.07 0.08 0.07 0.05 0.04 0.03 0.02 0.01 0.01 0.01 0.01 0.02 0.03 0.05 0.08 0.07 0.09 0.14 0.17 0.21 0.36 0.64 0.89 0.85 0.68 0.61 0.58
0.37 0.38 0.35 0.28 0.30 0.33 0.32 0.32 0.34 0.30 0.27 0.23 0.18 0.18 0.19 0.19 0.15 0.12 0.15 0.12 0.11 0.10 0.08 0.07 0.05 0.04 0.03 0.05 0.11 0.17 0.22 0.23 0.30 0.38 0.44 0.44 0.46 0.56 0.67 0.65 0.68 0.75 0.86
0.24 0.24 0.27 0.23 0.21 0.25 0.28 0.32 0.31 0.31 0.32 0.29 0.24 0.21 0.24 0.27 0.26 0.27 0.23 0.20 0.15 0.11 0.09 0.08 0.06 0.06 0.06 0.07 0.11 0.21 0.26 0.29 0.31 0.38 0.48 0.59 0.65 0.61 0.63 0.84 1.26 1.28 1.24
0.30 0.41 0.45 0.32 0.21 0.21 0.21 0.23 0.25 0.25 0.25 0.26 0.28 0.26 0.25 0.24 0.28 0.32 0.34 0.31 0.26 0.15 0.13 0.15 0.13 0.14 0.15 0.16 0.23 0.30 0.30 0.37 0.45 0.56 0.67 0.76 0.82 0.80 0.76 0.85 0.85 0.66 0.60
0.21 0.22 0.19 0.17 0.18 0.20 0.22 0.24 0.24 0.22 0.22 0.24 0.23 0.21 0.15 0.14 0.17 0.19 0.22 0.27 0.43 0.47 0.36 0.30 0.30 0.30 0.29 0.35 0.44 0.46 0.50 0.64 0.78 0.88 0.89 0.92 0.78 0.79 0.71 0.67 0.66 0.43 0.40
0.11 0.11 0.10 0.12 0.15 0.18 0.19 0.20 0.22 0.19 0.22 0.22 0.24 0.27 0.28 0.26 0.23 0.22 0.24 0.30 0.38 0.61 0.78 0.71 0.68 0.66 0.65 0.65 0.69 0.65 0.71 0.80 0.75 0.74 0.77 0.61 0.53 0.46 0.39 0.38 0.37 0.35 0.35
0.07 0.07 0.08 0.09 0.09 0.09 0.10 0.13 0.17 0.27 0.36 0.42 0.46 0.47 0.48 0.45 0.48 0.54 0.63 0.76 0.89 1.00 1.11 1.01 0.92 0.85 0.81 0.78 0.75 0.61 0.50 0.40 0.38 0.44 0.38 0.34 0.27 0.21 0.19 0.17 0.16 0.16 0.18
0.05 0.05 0.05 0.04 0.04 0.06 0.09 0.10 0.11 0.13 0.17 0.23 0.29 0.36 0.40 0.41 0.42 0.42 0.47 0.56 0.73 0.90 1.05 1.04 0.94 0.85 0.74 0.59 0.44 0.31 0.26 0.25 0.23 0.27 0.22 0.14 0.12 0.12 0.12 0.13 0.13 0.12 0.11
0.06 0.05 0.04 0.03 0.02 0.02 0.03 0.05 0.08 0.12 0.17 0.25 0.29 0.31 0.34 0.36 0.40 0.40 0.43 0.50 0.59 0.65 0.66 0.55 0.44 0.38 0.35 0.33 0.34 0.31 0.26 0.19 0.14 0.14 0.10 0.08 0.08 0.08 0.08 0.07 0.06 0.06 0.06
0.05 0.04 0.05 0.05 0.06 0.06 0.07 0.09 0.08 0.08 0.07 0.07 0.08 0.11 0.17 0.26 0.37 0.52 0.70 0.78 0.68 0.52 0.42 0.33 0.28 0.21 0.17 0.12 0.09 0.08 0.07 0.04 0.02 0.01 0.00 0.00 0.00 0.00 0.00 0.00 0.00 0.00 0.00
0.04 0.04 0.08 0.14 0.16 0.16 0.19 0.18 0.17 0.17 0.18 0.21 0.23 0.27 0.32 0.41 0.46 0.43 0.34 0.28 0.24 0.21 0.18 0.20 0.17 0.11 0.06 0.03 0.03 0.02 0.02 0.01 0.00 0.00 0.00 0.00 0.00 0.00 0.00 0.00 0.00 0.00 0.00
0.10 0.10 0.13 0.14 0.17 0.21 0.37 0.31 0.25 0.26 0.28 0.29 0.31 0.34 0.37 0.42 0.35 0.31 0.22 0.15 0.11 0.17 0.16 0.11 0.07 0.03 0.00 0.00 0.00 0.01 0.03 0.05 0.05 0.00 0.00 0.00 0.00 0.00 0.00 0.00 0.00 0.00 0.00
0.15 0.24 0.25 0.20 0.16 0.15 0.29 0.24 0.22 0.20 0.23 0.25 0.25 0.22 0.19 0.18 0.15 0.10 0.09 0.07 0.12 0.09 0.05 0.02 0.01 0.00 0.00 0.01 0.06 0.08 0.07 0.08 0.03 0.00 0.01 0.00 0.00 0.00 0.00 0.00 0.00 0.00 0.00
0.29 0.25 0.27 0.37 0.45 0.54 0.51 0.36 0.28 0.20 0.19 0.17 0.15 0.13 0.09 0.04 0.02 0.03 0.04 0.09 0.04 0.01 0.00 0.00 0.00 0.00 0.02 0.03 0.07 0.13 0.05 0.02 0.01 0.00 0.00 0.01 0.00 0.00 0.00 0.00 0.00 0.00 0.00
0.68 0.77 0.64 0.55 0.66 0.74 0.61 0.47 0.30 0.22 0.18 0.13 0.07 0.02 0.01 0.00 0.01 0.02 0.04 0.02 0.00 0.00 0.00 0.00 0.01 0.01 0.01 0.01 0.00 0.01 0.02 0.04 0.03 0.00 0.00 0.00 0.00 0.00 0.00 0.00 0.00 0.00 0.00
0.68 0.66 0.70 0.57 0.52 0.48 0.35 0.27 0.19 0.12 0.06 0.01 0.00 0.00 0.01 0.01 0.01 0.04 0.03 0.01 0.00 0.00 0.03 0.02 0.00 0.00 0.00 0.00 0.00 0.00 0.01 0.12 0.09 0.11 0.00 0.10 0.04 0.03 0.15 0.01 0.00 0.00 0.00

GFSMA_prec_precacc_075.txt.gz
Total_Precipitation_Accumulation
0.00 0.00 0.01 0.02 0.01 0.00 0.00 0.00 0.00 0.00 0.00 0.00 0.00 0.00 0.00 0.00 0.00 0.00 0.00 0.00 0.00 0.00 0.00 0.00 0.01 0.03 0.08 0.06 0.09 0.05 0.03 0.03 0.01 0.00 0.00 0.00 0.00 0.00 0.00 0.00 0.00 0.00 0.00
0.00 0.00 0.00 0.01 0.01 0.00 0.00 0.00 0.00 0.00 0.00 0.00 0.00 0.00 0.00 0.00 0.00 0.00 0.00 0.00 0.00 0.00 0.00 0.00 0.00 0.00 0.02 0.07 0.12 0.14 0.11 0.07 0.05 0.03 0.00 0.00 0.00 0.00 0.00 0.00 0.00 0.00 0.00
0.00 0.00 0.00 0.00 0.00 0.00 0.00 0.00 0.00 0.00 0.00 0.00 0.00 0.00 0.00 0.00 0.00 0.00 0.00 0.00 0.00 0.00 0.00 0.00 0.00 0.00 0.00 0.01 0.03 0.10 0.21 0.17 0.10 0.12 0.10 0.03 0.00 0.00 0.00 0.00 0.00 0.00 0.00
0.00 0.00 0.00 0.00 0.00 0.00 0.00 0.00 0.00 0.00 0.00 0.00 0.00 0.00 0.00 0.00 0.00 0.00 0.00 0.00 0.00 0.00 0.00 0.00 0.00 0.00 0.00 0.00 0.01 0.06 0.18 0.24 0.15 0.12 0.16 0.13 0.04 0.00 0.00 0.00 0.00 0.00 0.00
0.01 0.01 0.00 0.00 0.00 0.00 0.00 0.00 0.00 0.00 0.00 0.01 0.01 0.00 0.01 0.01 0.00 0.00 0.00 0.02 0.01 0.00 0.00 0.00 0.00 0.00 0.00 0.00 0.00 0.01 0.07 0.16 0.16 0.16 0.18 0.18 0.14 0.10 0.08 0.02 0.00 0.00 0.00
0.15 0.08 0.02 0.01 0.01 0.01 0.00 0.01 0.02 0.03 0.01 0.02 0.03 0.01 0.02 0.01 0.00 0.00 0.01 0.01 0.01 0.01 0.00 0.00 0.00 0.00 0.00 0.00 0.00 0.00 0.01 0.07 0.16 0.21 0.22 0.27 0.30 0.20 0.19 0.18 0.08 0.00 0.00
0.31 0.25 0.17 0.10 0.02 0.01 0.01 0.04 0.07 0.13 0.15 0.19 0.16 0.02 0.01 0.00 0.00 0.00 0.00 0.00 0.00 0.00 0.00 0.00 0.00 0.00 0.00 0.00 0.00 0.00 0.02 0.04 0.10 0.20 0.23 0.24 0.28 0.24 0.29 0.33 0.26 0.17 0.06
0.35 0.24 0.21 0.22 0.17 0.08 0.08 0.15 0.18 0.18 0.13 0.19 0.21 0.07 0.01 0.00 0.00 0.00 0.00 0.00 0.00 0.00 0.00 0.00 0.00 0.00 0.00 0.00 0.00 0.00 0.01 0.03 0.07 0.20 0.32 0.28 0.30 0.40 0.50 0.58 0.42 0.24 0.21
0.37 0.39 0.47 0.39 0.24 0.29 0.29 0.36 0.33 0.34 0.24 0.15 0.13 0.12 0.03 0.00 0.00 0.00 0.00 0.00 0.00 0.00 0.00 0.01 0.01 0.00 0.00 0.00 0.00 0.00 0.01 0.02 0.02 0.06 0.21 0.45 0.58 0.57 0.44 0.33 0.21 0.19 0.21
0.72 0.76 0.88 0.94 0.83 0.68 0.51 0.37 0.33 0.28 0.22 0.14 0.12 0.08 0.09 0.05 0.05 0.02 0.01 0.01 0.01 0.00 0.01 0.01 0.01 0.00 0.00 0.00 0.01 0.02 0.03 0.04 0.06 0.10 0.15 0.30 0.66 0.72 0.54 0.40 0.38 0.36 0.32
0.92 0.96 1.00 0.90 0.75 0.51 0.41 0.32 0.23 0.18 0.18 0.19 0.15 0.15 0.14 0.12 0.07 0.08 0.07 0.05 0.04 0.03 0.02 0.01 0.01 0.01 0.01 0.02 0.03 0.05 0.08 0.07 0.09 0.14 0.18 0.22 0.36 0.65 0.90 0.86 0.68 0.61 0.58
0.44 0.47 0.49 0.48 0.48 0.46 0.39 0.35 0.35 0.31 0.27 0.23 0.18 0.18 0.19 0.19 0.15 0.12 0.15 0.12 0.11 0.10 0.08 0.07 0.05 0.04 0.03 0.05 0.11 0.17 0.22 0.23 0.30 0.38 0.44 0.45 0.46 0.57 0.69 0.68 0.69 0.75 0.86
0.31 0.32 0.37 0.37 0.37 0.38 0.35 0.35 0.32 0.32 0.32 0.29 0.24 0.21 0.24 0.27 0.26 0.27 0.23 0.20 0.15 0.11 0.09 0.08 0.06 0.06 0.06 0.07 0.11 0.21 0.26 0.29 0.31 0.38 0.48 0.59 0.65 0.61 0.64 0.87 1.28 1.30 1.25
0.37 0.51 0.62 0.60 0.50 0.47 0.42 0.29 0.26 0.25 0.25 0.26 0.28 0.26 0.25 0.24 0.28 0.32 0.34 0.32 0.27 0.15 0.13 0.15 0.13 0.14 0.15 0.16 0.24 0.31 0.30 0.38 0.45 0.56 0.67 0.77 0.82 0.81 0.76 0.85 0.85 0.67 0.61
0.27 0.30 0.27 0.25 0.26 0.26 0.27 0.26 0.24 0.22 0.22 0.24 0.23 0.21 0.15 0.14 0.17 0.19 0.22 0.27 0.44 0.48 0.36 0.30 0.31 0.30 0.30 0.35 0.44 0.46 0.50 0.65 0.78 0.88 0.89 0.92 0.78 0.79 0.71 0.67 0.66 0.43 0.40
0.12 0.12 0.11 0.13 0.16 0.18 0.19 0.20 0.22 0.19 0.22 0.22 0.24 0.27 0.28 0.26 0.23 0.22 0.24 0.30 0.39 0.62 0.80 0.71 0.68 0.66 0.65 0.65 0.72 0.67 0.72 0.82 0.75 0.74 0.77 0.61 0.53 0.46 0.39 0.38 0.37 0.35 0.35
0.07 0.07 0.08 0.09 0.09 0.09 0.10 0.13 0.17 0.27 0.36 0.42 0.46 0.47 0.48 0.45 0.48 0.54 0.63 0.76 0.89 1.00 1.12 1.02 0.92 0.85 0.81 0.79 0.76 0.62 0.50 0.40 0.38 0.44 0.38 0.34 0.27 0.21 0.19 0.17 0.16 0.16 0.18
0.05 0.05 0.05 0.04 0.04 0.06 0.09 0.10 0.11 0.13 0.17 0.23 0.29 0.36 0.40 0.41 0.42 0.42 0.47 0.56 0.73 0.90 1.05 1.05 0.95 0.86 0.74 0.59 0.44 0.31 0.26 0.25 0.23 0.27 0.22 0.14 0.12 0.12 0.12 0.13 0.13 0.12 0.11
0.06 0.05 0.04 0.03 0.02 0.02 0.03 0.05 0.08 0.12 0.17 0.25 0.29 0.31 0.34 0.36 0.40 0.40 0.43 0.50 0.59 0.65 0.66 0.56 0.45 0.38 0.35 0.33 0.35 0.31 0.26 0.19 0.14 0.14 0.10 0.08 0.08 0.08 0.08 0.07 0.06 0.06 0.06
0.05 0.04 0.05 0.05 0.06 0.06 0.07 0.09 0.08 0.08 0.07 0.07 0.08 0.11 0.17 0.26 0.37 0.52 0.70 0.78 0.68 0.52 0.42 0.33 0.28 0.21 0.17 0.12 0.09 0.08 0.07 0.04 0.02 0.01 0.00 0.00 0.00 0.00 0.00 0.00 0.00 0.00 0.00
0.04 0.04 0.08 0.14 0.16 0.16 0.19 0.18 0.17 0.17 0.18 0.21 0.23 0.27 0.32 0.41 0.46 0.43 0.35 0.28 0.24 0.21 0.19 0.21 0.18 0.11 0.06 0.03 0.03 0.02 0.02 0.01 0.00 0.00 0.00 0.00 0.00 0.00 0.00 0.00 0.00 0.00 0.00
0.10 0.10 0.13 0.14 0.17 0.21 0.37 0.31 0.25 0.26 0.28 0.29 0.31 0.34 0.37 0.42 0.35 0.31 0.23 0.15 0.11 0.17 0.16 0.11 0.08 0.03 0.00 0.00 0.00 0.01 0.03 0.05 0.05 0.00 0.00 0.00 0.00 0.00 0.00 0.00 0.00 0.00 0.00
0.15 0.24 0.25 0.20 0.16 0.15 0.29 0.24 0.22 0.20 0.23 0.25 0.25 0.22 0.19 0.18 0.15 0.10 0.10 0.07 0.13 0.09 0.05 0.02 0.01 0.00 0.00 0.01 0.06 0.08 0.07 0.08 0.03 0.00 0.01 0.00 0.00 0.00 0.00 0.00 0.00 0.00 0.00
0.29 0.25 0.27 0.37 0.45 0.54 0.51 0.36 0.28 0.20 0.19 0.17 0.15 0.13 0.09 0.04 0.03 0.03 0.04 0.09 0.04 0.01 0.00 0.00 0.00 0.00 0.02 0.03 0.07 0.13 0.05 0.02 0.01 0.00 0.00 0.01 0.00 0.00 0.00 0.00 0.00 0.00 0.00
0.68 0.77 0.64 0.55 0.66 0.74 0.61 0.47 0.30 0.22 0.18 0.13 0.07 0.02 0.01 0.00 0.02 0.02 0.04 0.02 0.00 0.00 0.00 0.00 0.01 0.01 0.01 0.01 0.00 0.01 0.02 0.04 0.03 0.00 0.00 0.00 0.00 0.00 0.00 0.00 0.00 0.00 0.00
0.68 0.66 0.70 0.57 0.52 0.48 0.35 0.27 0.20 0.12 0.06 0.01 0.00 0.00 0.01 0.01 0.02 0.04 0.03 0.01 0.00 0.00 0.03 0.02 0.00 0.00 0.00 0.00 0.00 0.00 0.01 0.12 0.09 0.11 0.00 0.10 0.04 0.03 0.15 0.01 0.00 0.00 0.00

GFSMA_prec_precacc_078.txt.gz
Total_Precipitation_Accumulation
0.00 0.00 0.01 0.02 0.01 0.00 0.00 0.00 0.00 0.00 0.00 0.00 0.00 0.00 0.00 0.00 0.00 0.00 0.00 0.00 0.00 0.00 0.00 0.00 0.01 0.03 0.09 0.07 0.10 0.06 0.04 0.03 0.01 0.00 0.00 0.00 0.00 0.00 0.00 0.00 0.00 0.00 0.00
0.00 0.00 0.00 0.01 0.01 0.00 0.00 0.00 0.00 0.00 0.00 0.00 0.00 0.00 0.00 0.00 0.00 0.00 0.00 0.00 0.00 0.00 0.00 0.00 0.00 0.00 0.03 0.07 0.13 0.14 0.11 0.07 0.05 0.04 0.02 0.00 0.00 0.00 0.00 0.00 0.00 0.00 0.00
0.00 0.00 0.00 0.00 0.00 0.00 0.00 0.00 0.00 0.00 0.00 0.00 0.00 0.00 0.00 0.00 0.00 0.00 0.00 0.00 0.00 0.00 0.00 0.00 0.01 0.01 0.01 0.01 0.03 0.10 0.21 0.17 0.10 0.13 0.11 0.05 0.00 0.00 0.00 0.00 0.00 0.00 0.00
0.00 0.00 0.00 0.00 0.00 0.00 0.00 0.00 0.00 0.00 0.00 0.00 0.00 0.00 0.00 0.00 0.00 0.00 0.00 0.00 0.00 0.00 0.00 0.00 0.00 0.01 0.01 0.01 0.01 0.06 0.18 0.24 0.15 0.12 0.16 0.13 0.04 0.02 0.01 0.00 0.00 0.00 0.00
0.02 0.01 0.00 0.00 0.00 0.00 0.00 0.00 0.00 0.00 0.00 0.01 0.01 0.00 0.01 0.01 0.00 0.00 0.00 0.02 0.01 0.00 0.00 0.00 0.00 0.00 0.00 0.00 0.01 0.01 0.07 0.16 0.16 0.16 0.18 0.18 0.14 0.10 0.13 0.09 0.01 0.00 0.00
0.16 0.09 0.03 0.01 0.01 0.01 0.00 0.01 0.02 0.03 0.01 0.02 0.03 0.01 0.02 0.01 0.00 0.00 0.01 0.01 0.01 0.01 0.00 0.00 0.00 0.00 0.00 0.00 0.00 0.00 0.01 0.07 0.16 0.21 0.22 0.27 0.30 0.20 0.19 0.20 0.14 0.03 0.00
0.36 0.34 0.24 0.11 0.02 0.01 0.01 0.04 0.07 0.13 0.15 0.20 0.18 0.02 0.01 0.00 0.00 0.00 0.00 0.00 0.00 0.00 0.00 0.00 0.00 0.00 0.00 0.00 0.00 0.00 0.02 0.04 0.10 0.20 0.23 0.24 0.28 0.24 0.29 0.33 0.27 0.22 0.12
0.39 0.37 0.34 0.34 0.23 0.09 0.08 0.15 0.18 0.21 0.15 0.22 0.22 0.07 0.01 0.00 0.00 0.00 0.00 0.00 0.00 0.00 0.00 0.00 0.00 0.00 0.00 0.00 0.00 0.00 0.01 0.03 0.07 0.20 0.32 0.28 0.30 0.40 0.50 0.58 0.42 0.25 0.24
0.42 0.60 0.74 0.62 0.45 0.40 0.35 0.42 0.42 0.44 0.34 0.21 0.14 0.13 0.03 0.00 0.00 0.00 0.00 0.00 0.00 0.00 0.00 0.01 0.01 0.00 0.00 0.00 0.00 0.00 0.01 0.02 0.02 0.06 0.21 0.45 0.59 0.57 0.44 0.33 0.21 0.20 0.21
0.94 1.18 1.45 1.55 1.33 0.92 0.68 0.54 0.50 0.39 0.32 0.24 0.18 0.11 0.11 0.05 0.05 0.02 0.01 0.01 0.01 0.00 0.01 0.01 0.01 0.00 0.00 0.00 0.01 0.02 0.03 0.04 0.06 0.10 0.15 0.31 0.66 0.73 0.54 0.40 0.39 0.36 0.32
1.12 1.15 1.32 1.30 1.09 0.84 0.89 0.78 0.42 0.24 0.21 0.21 0.16 0.16 0.14 0.12 0.07 0.08 0.07 0.05 0.04 0.03 0.02 0.01 0.01 0.01 0.01 0.02 0.03 0.05 0.08 0.07 0.09 0.14 0.18 0.22 0.36 0.65 0.91 0.89 0.68 0.61 0.58
0.62 0.69 0.69 0.66 0.69 0.63 0.58 0.64 0.65 0.46 0.31 0.24 0.19 0.19 0.19 0.19 0.15 0.12 0.15 0.12 0.11 0.10 0.08 0.07 0.05 0.04 0.03 0.05 0.11 0.17 0.22 0.23 0.30 0.38 0.44 0.45 0.46 0.57 0.70 0.72 0.72 0.76 0.86
0.37 0.39 0.44 0.45 0.45 0.49 0.49 0.51 0.50 0.50 0.44 0.33 0.25 0.21 0.24 0.27 0.26 0.27 0.23 0.20 0.15 0.11 0.09 0.08 0.06 0.06 0.06 0.07 0.11 0.21 0.26 0.29 0.31 0.38 0.48 0.59 0.65 0.62 0.64 0.88 1.29 1.31 1.27
0.40 0.54 0.65 0.63 0.56 0.54 0.56 0.53 0.42 0.34 0.32 0.32 0.30 0.26 0.25 0.24 0.28 0.32 0.34 0.32 0.27 0.15 0.13 0.15 0.13 0.14 0.15 0.16 0.24 0.31 0.30 0.38 0.45 0.56 0.67 0.77 0.82 0.81 0.76 0.86 0.85 0.67 0.62
0.29 0.33 0.29 0.27 0.28 0.28 0.29 0.32 0.31 0.28 0.26 0.26 0.23 0.21 0.15 0.14 0.17 0.19 0.22 0.28 0.44 0.48 0.36 0.30 0.31 0.30 0.30 0.35 0.45 0.46 0.50 0.65 0.79 0.88 0.89 0.92 0.78 0.79 0.71 0.67 0.66 0.43 0.40
0.12 0.12 0.11 0.13 0.16 0.18 0.19 0.20 0.22 0.19 0.22 0.22 0.24 0.27 0.28 0.26 0.23 0.22 0.24 0.30 0.39 0.62 0.81 0.71 0.68 0.66 0.65 0.65 0.72 0.67 0.72 0.83 0.76 0.75 0.77 0.61 0.53 0.46 0.39 0.38 0.37 0.35 0.35
0.07 0.08 0.08 0.09 0.09 0.09 0.10 0.13 0.17 0.27 0.36 0.42 0.46 0.47 0.48 0.45 0.48 0.54 0.63 0.76 0.89 1.00 1.12 1.02 0.92 0.85 0.81 0.79 0.76 0.62 0.50 0.40 0.38 0.44 0.38 0.34 0.27 0.21 0.19 0.17 0.16 0.16 0.18
0.05 0.05 0.06 0.05 0.04 0.06 0.09 0.10 0.11 0.13 0.17 0.23 0.29 0.36 0.40 0.41 0.42 0.42 0.47 0.56 0.73 0.90 1.06 1.05 0.95 0.86 0.75 0.60 0.45 0.31 0.26 0.25 0.23 0.27 0.22 0.14 0.12 0.12 0.12 0.13 0.13 0.12 0.11
0.06 0.05 0.04 0.03 0.02 0.02 0.03 0.05 0.08 0.12 0.17 0.25 0.29 0.31 0.34 0.36 0.40 0.40 0.43 0.50 0.59 0.65 0.66 0.56 0.45 0.38 0.35 0.34 0.35 0.31 0.27 0.19 0.14 0.14 0.10 0.08 0.08 0.08 0.08 0.07 0.06 0.06 0.06
0.05 0.04 0.05 0.05 0.06 0.06 0.07 0.09 0.08 0.08 0.07 0.07 0.08 0.11 0.17 0.26 0.37 0.52 0.70 0.78 0.68 0.52 0.42 0.33 0.29 0.22 0.17 0.13 0.10 0.09 0.07 0.04 0.02 0.01 0.00 0.00 0.00 0.00 0.00 0.00 0.00 0.00 0.00
0.04 0.04 0.08 0.14 0.16 0.16 0.19 0.18 0.17 0.17 0.18 0.21 0.23 0.27 0.32 0.41 0.46 0.43 0.35 0.28 0.24 0.21 0.19 0.21 0.18 0.12 0.07 0.04 0.04 0.02 0.03 0.01 0.00 0.00 0.00 0.00 0.00 0.00 0.00 0.00 0.00 0.00 0.00
0.10 0.10 0.13 0.14 0.17 0.21 0.37 0.31 0.25 0.26 0.28 0.29 0.31 0.34 0.37 0.42 0.35 0.31 0.23 0.16 0.11 0.17 0.16 0.11 0.08 0.03 0.01 0.00 0.00 0.01 0.03 0.05 0.05 0.00 0.00 0.00 0.00 0.00 0.00 0.00 0.00 0.00 0.00
0.15 0.24 0.25 0.20 0.16 0.15 0.29 0.24 0.22 0.20 0.23 0.25 0.25 0.22 0.19 0.18 0.15 0.10 0.10 0.08 0.13 0.09 0.05 0.02 0.01 0.00 0.00 0.01 0.06 0.08 0.07 0.08 0.03 0.00 0.01 0.00 0.00 0.00 0.00 0.00 0.00 0.00 0.00
0.29 0.25 0.27 0.37 0.45 0.54 0.51 0.36 0.28 0.20 0.19 0.17 0.15 0.13 0.09 0.04 0.03 0.03 0.04 0.09 0.04 0.01 0.00 0.00 0.00 0.00 0.02 0.03 0.07 0.13 0.05 0.02 0.01 0.00 0.00 0.01 0.00 0.00 0.00 0.00 0.00 0.00 0.00
0.68 0.77 0.64 0.55 0.66 0.74 0.61 0.47 0.30 0.22 0.18 0.13 0.07 0.02 0.01 0.00 0.02 0.02 0.04 0.02 0.00 0.00 0.00 0.00 0.01 0.01 0.01 0.01 0.00 0.01 0.02 0.04 0.03 0.00 0.00 0.00 0.00 0.00 0.00 0.00 0.00 0.00 0.00
0.68 0.66 0.70 0.57 0.52 0.48 0.35 0.27 0.20 0.12 0.06 0.01 0.00 0.00 0.01 0.01 0.02 0.04 0.03 0.01 0.00 0.00 0.03 0.02 0.00 0.00 0.00 0.00 0.00 0.00 0.01 0.12 0.09 0.11 0.00 0.10 0.04 0.03 0.15 0.01 0.00 0.00 0.00

GFSMA_prec_precacc_081.txt.gz
Total_Precipitation_Accumulation
0.00 0.00 0.01 0.02 0.01 0.00 0.00 0.00 0.00 0.00 0.00 0.00 0.00 0.00 0.00 0.00 0.00 0.00 0.00 0.00 0.00 0.00 0.00 0.00 0.01 0.04 0.09 0.09 0.11 0.06 0.04 0.03 0.01 0.00 0.00 0.00 0.00 0.00 0.00 0.00 0.00 0.00 0.00
0.00 0.00 0.00 0.01 0.01 0.00 0.00 0.00 0.00 0.00 0.00 0.00 0.00 0.00 0.00 0.00 0.00 0.00 0.00 0.00 0.00 0.00 0.00 0.00 0.01 0.02 0.04 0.08 0.14 0.15 0.11 0.07 0.05 0.04 0.02 0.01 0.00 0.00 0.00 0.00 0.00 0.00 0.00
0.00 0.00 0.00 0.00 0.00 0.00 0.00 0.00 0.00 0.00 0.00 0.00 0.00 0.00 0.00 0.00 0.00 0.00 0.00 0.00 0.00 0.00 0.00 0.00 0.01 0.02 0.03 0.03 0.05 0.10 0.21 0.17 0.10 0.13 0.11 0.05 0.01 0.01 0.00 0.00 0.00 0.00 0.00
0.00 0.00 0.00 0.00 0.00 0.00 0.00 0.00 0.00 0.00 0.00 0.00 0.00 0.00 0.00 0.00 0.00 0.00 0.00 0.00 0.00 0.00 0.00 0.00 0.00 0.01 0.02 0.02 0.02 0.07 0.19 0.24 0.15 0.12 0.16 0.13 0.04 0.03 0.03 0.01 0.00 0.00 0.00
0.02 0.01 0.00 0.00 0.00 0.00 0.00 0.00 0.00 0.00 0.00 0.01 0.01 0.00 0.01 0.01 0.00 0.00 0.00 0.02 0.01 0.00 0.00 0.00 0.00 0.00 0.01 0.00 0.02 0.03 0.08 0.16 0.16 0.16 0.18 0.18 0.14 0.10 0.14 0.16 0.07 0.01 0.00
0.16 0.09 0.03 0.01 0.01 0.01 0.00 0.01 0.02 0.03 0.01 0.02 0.03 0.01 0.02 0.01 0.00 0.00 0.01 0.01 0.01 0.01 0.00 0.00 0.00 0.00 0.00 0.00 0.01 0.00 0.01 0.07 0.16 0.21 0.22 0.27 0.30 0.20 0.19 0.20 0.16 0.10 0.03
0.42 0.37 0.26 0.15 0.03 0.01 0.01 0.04 0.07 0.13 0.15 0.20 0.18 0.02 0.01 0.00 0.00 0.00 0.00 0.00 0.00 0.00 0.00 0.00 0.00 0.00 0.00 0.00 0.00 0.00 0.02 0.04 0.10 0.20 0.23 0.24 0.28 0.24 0.29 0.33 0.27 0.23 0.20
0.44 0.42 0.38 0.37 0.28 0.12 0.10 0.17 0.18 0.21 0.16 0.23 0.23 0.08 0.01 0.00 0.00 0.00 0.00 0.00 0.00 0.00 0.00 0.00 0.00 0.00 0.00 0.00 0.00 0.00 0.01 0.03 0.07 0.20 0.32 0.28 0.30 0.40 0.50 0.58 0.42 0.25 0.25
0.42 0.60 0.75 0.63 0.49 0.55 0.57 0.60 0.51 0.51 0.40 0.30 0.22 0.16 0.04 0.00 0.00 0.00 0.00 0.00 0.00 0.00 0.00 0.01 0.01 0.00 0.00 0.00 0.00 0.00 0.01 0.02 0.02 0.06 0.21 0.45 0.59 0.57 0.44 0.33 0.21 0.20 0.22
0.94 1.19 1.47 1.57 1.46 1.20 0.92 0.92 0.88 0.64 0.49 0.36 0.29 0.16 0.13 0.06 0.05 0.02 0.01 0.01 0.01 0.00 0.01 0.01 0.01 0.00 0.00 0.00 0.01 0.02 0.03 0.04 0.06 0.10 0.15 0.31 0.66 0.73 0.54 0.40 0.39 0.36 0.33
1.25 1.22 1.35 1.35 1.21 1.07 1.19 1.16 1.06 1.03 0.74 0.39 0.26 0.19 0.15 0.13 0.07 0.08 0.07 0.05 0.04 0.03 0.02 0.01 0.01 0.01 0.01 0.02 0.03 0.05 0.08 0.07 0.09 0.14 0.18 0.22 0.36 0.65 0.91 0.90 0.70 0.62 0.59
0.76 0.83 0.81 0.78 0.80 0.77 0.78 0.93 1.08 0.99 0.80 0.49 0.31 0.27 0.21 0.19 0.15 0.12 0.15 0.12 0.11 0.10 0.08 0.07 0.05 0.04 0.03 0.05 0.11 0.17 0.22 0.23 0.30 0.38 0.44 0.45 0.46 0.57 0.70 0.74 0.75 0.78 0.87
0.39 0.41 0.48 0.52 0.57 0.60 0.60 0.63 0.64 0.68 0.70 0.61 0.44 0.35 0.33 0.31 0.28 0.27 0.23 0.20 0.15 0.11 0.09 0.08 0.06 0.06 0.06 0.07 0.11 0.21 0.26 0.29 0.31 0.38 0.48 0.59 0.65 0.62 0.64 0.89 1.30 1.31 1.28
0.40 0.55 0.66 0.66 0.59 0.59 0.60 0.58 0.55 0.51 0.47 0.45 0.46 0.39 0.36 0.31 0.30 0.32 0.34 0.32 0.27 0.15 0.13 0.15 0.13 0.14 0.15 0.16 0.24 0.31 0.30 0.38 0.45 0.56 0.67 0.77 0.82 0.81 0.76 0.86 0.85 0.67 0.62
0.31 0.38 0.34 0.32 0.32 0.30 0.32 0.35 0.35 0.31 0.29 0.28 0.25 0.22 0.16 0.14 0.17 0.19 0.22 0.28 0.44 0.48 0.36 0.30 0.31 0.30 0.30 0.35 0.45 0.46 0.50 0.65 0.79 0.88 0.90 0.92 0.78 0.79 0.71 0.67 0.66 0.43 0.40
0.12 0.13 0.12 0.14 0.16 0.18 0.20 0.22 0.23 0.20 0.22 0.22 0.24 0.27 0.28 0.26 0.23 0.22 0.24 0.30 0.40 0.63 0.81 0.71 0.68 0.66 0.65 0.65 0.72 0.67 0.72 0.83 0.77 0.75 0.77 0.62 0.53 0.46 0.39 0.38 0.37 0.35 0.35
0.07 0.08 0.08 0.09 0.10 0.10 0.11 0.13 0.17 0.27 0.36 0.42 0.46 0.47 0.48 0.45 0.48 0.54 0.63 0.76 0.89 1.00 1.13 1.03 0.92 0.85 0.81 0.79 0.76 0.62 0.50 0.40 0.39 0.46 0.39 0.34 0.27 0.21 0.19 0.17 0.16 0.16 0.18
0.05 0.05 0.06 0.06 0.06 0.08 0.10 0.10 0.11 0.13 0.17 0.23 0.29 0.36 0.40 0.41 0.42 0.42 0.47 0.56 0.73 0.90 1.06 1.05 0.95 0.86 0.75 0.60 0.45 0.32 0.27 0.25 0.23 0.29 0.22 0.14 0.12 0.12 0.12 0.13 0.13 0.12 0.11
0.06 0.05 0.04 0.05 0.06 0.04 0.04 0.05 0.08 0.12 0.17 0.25 0.29 0.31 0.34 0.36 0.40 0.40 0.43 0.50 0.59 0.65 0.66 0.56 0.45 0.38 0.35 0.34 0.35 0.31 0.27 0.20 0.14 0.15 0.10 0.08 0.08 0.08 0.08 0.07 0.06 0.06 0.06
0.05 0.04 0.05 0.05 0.07 0.08 0.08 0.09 0.09 0.08 0.07 0.07 0.08 0.11 0.17 0.26 0.37 0.52 0.70 0.78 0.68 0.52 0.42 0.33 0.29 0.22 0.17 0.13 0.10 0.10 0.07 0.04 0.02 0.01 0.01 0.00 0.00 0.00 0.00 0.00 0.00 0.00 0.00
0.04 0.04 0.08 0.14 0.16 0.16 0.19 0.18 0.17 0.17 0.18 0.21 0.23 0.27 0.32 0.41 0.46 0.43 0.35 0.28 0.24 0.21 0.19 0.21 0.18 0.12 0.07 0.04 0.04 0.03 0.03 0.02 0.00 0.00 0.00 0.00 0.00 0.00 0.00 0.00 0.00 0.00 0.00
0.10 0.10 0.13 0.14 0.17 0.21 0.37 0.31 0.25 0.26 0.28 0.29 0.31 0.34 0.37 0.42 0.35 0.31 0.23 0.16 0.11 0.17 0.16 0.11 0.08 0.03 0.01 0.00 0.00 0.01 0.03 0.06 0.05 0.00 0.00 0.00 0.00 0.00 0.00 0.00 0.00 0.00 0.00
0.15 0.24 0.25 0.20 0.16 0.15 0.29 0.24 0.22 0.20 0.23 0.25 0.25 0.22 0.19 0.18 0.15 0.10 0.10 0.08 0.13 0.09 0.05 0.02 0.01 0.00 0.00 0.01 0.06 0.08 0.07 0.08 0.03 0.00 0.01 0.00 0.00 0.00 0.00 0.00 0.00 0.00 0.00
0.29 0.25 0.27 0.37 0.45 0.54 0.51 0.36 0.28 0.20 0.19 0.17 0.15 0.13 0.09 0.04 0.03 0.03 0.04 0.09 0.04 0.01 0.00 0.00 0.00 0.00 0.02 0.03 0.07 0.13 0.05 0.02 0.01 0.00 0.00 0.01 0.00 0.00 0.00 0.00 0.00 0.00 0.00
0.68 0.77 0.64 0.55 0.66 0.74 0.61 0.47 0.30 0.22 0.18 0.13 0.07 0.02 0.01 0.00 0.02 0.02 0.04 0.02 0.00 0.00 0.00 0.00 0.01 0.01 0.01 0.01 0.00 0.01 0.02 0.04 0.03 0.00 0.00 0.00 0.00 0.00 0.00 0.00 0.00 0.00 0.00
0.68 0.66 0.70 0.57 0.52 0.48 0.35 0.27 0.20 0.12 0.06 0.01 0.00 0.00 0.01 0.01 0.02 0.04 0.03 0.01 0.00 0.00 0.03 0.02 0.00 0.00 0.00 0.00 0.00 0.00 0.01 0.12 0.09 0.11 0.00 0.10 0.04 0.03 0.15 0.01 0.00 0.00 0.00

GFSMA_prec_precacc_084.txt.gz
Total_Precipitation_Accumulation
0.00 0.00 0.01 0.02 0.01 0.00 0.00 0.00 0.00 0.00 0.00 0.00 0.00 0.00 0.00 0.00 0.00 0.00 0.00 0.00 0.00 0.00 0.00 0.00 0.01 0.05 0.10 0.12 0.15 0.09 0.06 0.04 0.01 0.00 0.01 0.00 0.00 0.00 0.00 0.00 0.00 0.00 0.00
0.00 0.00 0.00 0.01 0.01 0.00 0.00 0.00 0.00 0.00 0.00 0.00 0.00 0.00 0.00 0.00 0.00 0.00 0.00 0.00 0.00 0.00 0.00 0.00 0.01 0.03 0.06 0.10 0.15 0.16 0.11 0.07 0.05 0.04 0.02 0.01 0.01 0.00 0.00 0.00 0.00 0.00 0.00
0.00 0.00 0.00 0.00 0.00 0.00 0.00 0.00 0.00 0.00 0.00 0.00 0.00 0.00 0.00 0.00 0.00 0.00 0.00 0.00 0.00 0.00 0.00 0.00 0.01 0.02 0.03 0.04 0.06 0.11 0.21 0.17 0.10 0.13 0.11 0.05 0.01 0.02 0.01 0.00 0.00 0.00 0.00
0.00 0.00 0.00 0.00 0.00 0.00 0.00 0.00 0.00 0.00 0.00 0.00 0.00 0.00 0.00 0.00 0.00 0.00 0.00 0.00 0.00 0.00 0.00 0.00 0.00 0.01 0.02 0.02 0.02 0.08 0.19 0.24 0.15 0.12 0.16 0.13 0.04 0.03 0.04 0.04 0.02 0.00 0.00
0.02 0.01 0.00 0.00 0.00 0.00 0.00 0.00 0.00 0.00 0.00 0.01 0.01 0.00 0.01 0.01 0.00 0.00 0.00 0.02 0.01 0.00 0.00 0.00 0.00 0.00 0.01 0.00 0.02 0.04 0.08 0.16 0.16 0.16 0.18 0.18 0.14 0.10 0.14 0.16 0.11 0.05 0.01
0.18 0.10 0.03 0.01 0.01 0.01 0.00 0.01 0.02 0.03 0.01 0.02 0.03 0.01 0.02 0.01 0.00 0.00 0.01 0.01 0.01 0.01 0.00 0.00 0.00 0.00 0.00 0.00 0.01 0.00 0.01 0.07 0.16 0.21 0.22 0.27 0.30 0.20 0.19 0.20 0.16 0.11 0.09
0.48 0.39 0.27 0.15 0.04 0.01 0.01 0.04 0.07 0.13 0.15 0.20 0.18 0.03 0.01 0.00 0.00 0.00 0.00 0.00 0.00 0.00 0.00 0.00 0.00 0.00 0.00 0.00 0.00 0.00 0.02 0.04 0.10 0.20 0.23 0.24 0.28 0.24 0.29 0.33 0.27 0.23 0.21
0.47 0.43 0.41 0.41 0.30 0.18 0.12 0.17 0.19 0.21 0.16 0.23 0.24 0.10 0.02 0.00 0.00 0.00 0.00 0.00 0.00 0.00 0.00 0.00 0.00 0.00 0.00 0.00 0.00 0.00 0.01 0.03 0.07 0.20 0.32 0.28 0.30 0.40 0.50 0.58 0.42 0.25 0.25
0.48 0.61 0.75 0.63 0.50 0.60 0.66 0.67 0.60 0.59 0.46 0.35 0.28 0.21 0.05 0.01 0.00 0.00 0.00 0.00 0.00 0.00 0.00 0.01 0.01 0.00 0.00 0.00 0.00 0.00 0.01 0.02 0.02 0.06 0.21 0.45 0.59 0.57 0.44 0.34 0.21 0.20 0.22
0.94 1.19 1.47 1.57 1.46 1.20 0.93 0.94 0.94 0.78 0.77 0.66 0.59 0.35 0.24 0.12 0.05 0.02 0.01 0.01 0.01 0.00 0.01 0.01 0.01 0.00 0.00 0.00 0.01 0.02 0.03 0.04 0.06 0.10 0.15 0.31 0.66 0.73 0.54 0.41 0.41 0.37 0.33
1.26 1.23 1.35 1.35 1.21 1.07 1.19 1.17 1.07 1.09 1.07 0.88 0.76 0.61 0.41 0.24 0.12 0.08 0.07 0.05 0.04 0.03 0.02 0.01 0.01 0.01 0.01 0.02 0.03 0.05 0.08 0.07 0.09 0.14 0.18 0.22 0.36 0.65 0.91 0.91 0.72 0.64 0.59
0.77 0.84 0.81 0.78 0.82 0.78 0.78 0.94 1.09 1.06 0.96 0.94 0.91 0.82 0.62 0.43 0.30 0.20 0.22 0.16 0.13 0.10 0.08 0.07 0.05 0.04 0.03 0.05 0.11 0.17 0.22 0.23 0.30 0.38 0.44 0.45 0.46 0.57 0.70 0.75 0.76 0.79 0.88
0.40 0.41 0.48 0.53 0.57 0.63 0.63 0.70 0.70 0.73 0.76 0.73 0.66 0.66 0.71 0.66 0.59 0.52 0.37 0.25 0.16 0.11 0.09 0.08 0.06 0.06 0.06 0.07 0.11 0.21 0.26 0.29 0.31 0.38 0.48 0.59 0.65 0.62 0.64 0.89 1.31 1.32 1.28
0.40 0.56 0.67 0.66 0.60 0.59 0.62 0.61 0.64 0.60 0.56 0.54 0.55 0.49 0.47 0.43 0.41 0.38 0.36 0.32 0.27 0.15 0.13 0.15 0.13 0.14 0.15 0.16 0.24 0.31 0.30 0.38 0.45 0.56 0.68 0.77 0.82 0.81 0.76 0.86 0.85 0.68 0.62
0.33 0.41 0.47 0.39 0.35 0.33 0.35 0.39 0.38 0.34 0.30 0.29 0.27 0.25 0.18 0.16 0.18 0.19 0.22 0.28 0.44 0.48 0.36 0.30 0.31 0.30 0.30 0.35 0.45 0.46 0.50 0.65 0.79 0.89 0.90 0.93 0.79 0.79 0.71 0.67 0.66 0.44 0.40
0.14 0.15 0.15 0.14 0.16 0.19 0.21 0.23 0.25 0.23 0.24 0.27 0.27 0.27 0.28 0.26 0.23 0.22 0.24 0.30 0.40 0.63 0.81 0.71 0.68 0.66 0.65 0.65 0.72 0.67 0.72 0.83 0.77 0.75 0.77 0.62 0.53 0.46 0.39 0.38 0.37 0.35 0.35
0.07 0.08 0.08 0.09 0.10 0.10 0.11 0.14 0.19 0.29 0.38 0.44 0.46 0.47 0.48 0.45 0.48 0.54 0.63 0.76 0.89 1.00 1.13 1.03 0.92 0.85 0.81 0.79 0.76 0.62 0.50 0.40 0.39 0.46 0.39 0.34 0.27 0.21 0.19 0.17 0.16 0.16 0.18
0.05 0.05 0.06 0.06 0.06 0.10 0.13 0.13 0.13 0.15 0.19 0.23 0.29 0.36 0.40 0.41 0.42 0.42 0.47 0.56 0.73 0.90 1.06 1.05 0.95 0.87 0.75 0.60 0.45 0.32 0.27 0.25 0.23 0.30 0.23 0.14 0.12 0.12 0.12 0.13 0.13 0.12 0.11
0.06 0.05 0.04 0.05 0.06 0.05 0.06 0.08 0.10 0.13 0.17 0.25 0.29 0.31 0.34 0.36 0.40 0.40 0.43 0.50 0.59 0.65 0.66 0.56 0.45 0.38 0.35 0.34 0.35 0.31 0.27 0.20 0.14 0.16 0.10 0.08 0.08 0.08 0.08 0.07 0.06 0.06 0.06
0.05 0.04 0.05 0.05 0.07 0.08 0.10 0.11 0.10 0.09 0.07 0.07 0.08 0.11 0.17 0.26 0.37 0.52 0.70 0.78 0.68 0.52 0.42 0.33 0.29 0.22 0.17 0.13 0.10 0.10 0.07 0.04 0.02 0.01 0.01 0.00 0.00 0.00 0.00 0.00 0.00 0.00 0.00
0.04 0.04 0.08 0.14 0.16 0.17 0.20 0.19 0.19 0.19 0.19 0.22 0.24 0.27 0.32 0.41 0.46 0.43 0.35 0.28 0.24 0.21 0.19 0.21 0.18 0.12 0.07 0.04 0.04 0.03 0.03 0.02 0.00 0.00 0.00 0.00 0.00 0.00 0.00 0.00 0.00 0.00 0.00
0.10 0.10 0.13 0.14 0.17 0.21 0.37 0.31 0.25 0.26 0.28 0.29 0.31 0.34 0.37 0.42 0.35 0.31 0.23 0.16 0.11 0.17 0.16 0.11 0.08 0.03 0.01 0.00 0.00 0.01 0.03 0.06 0.05 0.00 0.00 0.00 0.00 0.00 0.00 0.00 0.00 0.00 0.00
0.15 0.24 0.25 0.20 0.16 0.15 0.29 0.24 0.22 0.20 0.23 0.25 0.25 0.22 0.19 0.18 0.15 0.10 0.10 0.08 0.13 0.09 0.05 0.02 0.01 0.00 0.00 0.01 0.06 0.08 0.07 0.09 0.04 0.00 0.01 0.00 0.00 0.00 0.00 0.00 0.00 0.00 0.00
0.29 0.25 0.27 0.37 0.45 0.54 0.51 0.36 0.28 0.20 0.19 0.17 0.15 0.13 0.09 0.04 0.03 0.03 0.04 0.09 0.04 0.01 0.00 0.00 0.00 0.00 0.02 0.03 0.07 0.13 0.05 0.03 0.01 0.00 0.00 0.01 0.00 0.00 0.00 0.00 0.00 0.00 0.00
0.68 0.77 0.64 0.55 0.66 0.74 0.61 0.47 0.30 0.22 0.18 0.13 0.07 0.02 0.01 0.00 0.02 0.03 0.04 0.02 0.00 0.00 0.00 0.00 0.01 0.01 0.01 0.01 0.00 0.01 0.02 0.04 0.03 0.00 0.00 0.00 0.00 0.00 0.00 0.00 0.00 0.00 0.00
0.68 0.66 0.70 0.57 0.52 0.48 0.35 0.27 0.20 0.12 0.06 0.01 0.00 0.00 0.01 0.01 0.02 0.05 0.03 0.01 0.00 0.00 0.03 0.02 0.00 0.00 0.00 0.00 0.00 0.00 0.01 0.12 0.09 0.11 0.00 0.10 0.04 0.03 0.15 0.01 0.00 0.00 0.00

GFSMA_prec_precacc_087.txt.gz
Total_Precipitation_Accumulation
0.00 0.00 0.01 0.02 0.01 0.00 0.00 0.00 0.00 0.00 0.00 0.00 0.00 0.00 0.00 0.00 0.00 0.00 0.00 0.00 0.00 0.00 0.00 0.00 0.01 0.05 0.10 0.12 0.17 0.10 0.06 0.04 0.01 0.00 0.01 0.00 0.00 0.00 0.00 0.00 0.00 0.00 0.00
0.00 0.00 0.00 0.01 0.01 0.00 0.00 0.00 0.00 0.00 0.00 0.00 0.00 0.00 0.00 0.00 0.00 0.00 0.00 0.00 0.00 0.00 0.00 0.00 0.01 0.03 0.06 0.10 0.16 0.17 0.11 0.07 0.05 0.04 0.02 0.01 0.01 0.00 0.00 0.00 0.00 0.00 0.00
0.00 0.00 0.00 0.00 0.00 0.00 0.00 0.00 0.00 0.00 0.00 0.00 0.00 0.00 0.00 0.00 0.00 0.00 0.00 0.00 0.00 0.00 0.00 0.00 0.01 0.02 0.03 0.04 0.06 0.11 0.21 0.17 0.10 0.13 0.11 0.05 0.01 0.02 0.02 0.01 0.00 0.00 0.00
0.00 0.00 0.00 0.00 0.00 0.00 0.00 0.00 0.00 0.00 0.00 0.00 0.00 0.00 0.00 0.00 0.00 0.00 0.00 0.00 0.00 0.00 0.00 0.00 0.00 0.01 0.02 0.02 0.02 0.08 0.19 0.24 0.15 0.12 0.16 0.13 0.04 0.03 0.04 0.05 0.05 0.01 0.00
0.02 0.01 0.00 0.00 0.00 0.00 0.00 0.00 0.00 0.00 0.00 0.01 0.01 0.00 0.01 0.01 0.00 0.00 0.00 0.02 0.01 0.00 0.00 0.00 0.00 0.00 0.01 0.00 0.03 0.05 0.08 0.16 0.16 0.16 0.18 0.18 0.14 0.10 0.14 0.16 0.11 0.07 0.05
0.18 0.10 0.03 0.01 0.01 0.01 0.00 0.01 0.02 0.03 0.01 0.02 0.03 0.01 0.02 0.01 0.00 0.00 0.01 0.01 0.01 0.01 0.00 0.00 0.00 0.00 0.00 0.00 0.01 0.01 0.01 0.07 0.16 0.21 0.22 0.27 0.30 0.20 0.19 0.20 0.16 0.11 0.10
0.52 0.42 0.27 0.15 0.04 0.01 0.01 0.04 0.07 0.13 0.15 0.20 0.18 0.03 0.01 0.00 0.00 0.00 0.00 0.00 0.00 0.00 0.00 0.00 0.00 0.00 0.00 0.00 0.00 0.00 0.02 0.04 0.10 0.20 0.23 0.24 0.28 0.24 0.29 0.33 0.27 0.23 0.21
0.58 0.50 0.44 0.41 0.30 0.21 0.13 0.18 0.19 0.21 0.16 0.23 0.24 0.10 0.02 0.00 0.00 0.00 0.00 0.00 0.00 0.00 0.00 0.00 0.00 0.00 0.00 0.00 0.00 0.00 0.01 0.03 0.07 0.20 0.32 0.28 0.30 0.40 0.50 0.58 0.42 0.25 0.25
0.65 0.77 0.86 0.69 0.52 0.67 0.78 0.80 0.69 0.63 0.48 0.36 0.30 0.24 0.08 0.01 0.00 0.00 0.00 0.00 0.00 0.00 0.00 0.01 0.01 0.00 0.00 0.00 0.00 0.00 0.01 0.02 0.02 0.06 0.21 0.45 0.59 0.57 0.44 0.34 0.21 0.20 0.23
1.10 1.28 1.55 1.65 1.50 1.21 0.94 0.95 0.98 0.84 0.82 0.76 0.69 0.45 0.36 0.24 0.16 0.07 0.02 0.01 0.01 0.00 0.01 0.01 0.01 0.00 0.00 0.00 0.01 0.02 0.03 0.04 0.06 0.10 0.16 0.31 0.66 0.73 0.54 0.41 0.41 0.38 0.33
1.34 1.27 1.36 1.39 1.27 1.10 1.20 1.17 1.07 1.09 1.07 0.88 0.78 0.65 0.53 0.47 0.46 0.38 0.18 0.06 0.04 0.03 0.02 0.01 0.01 0.01 0.01 0.02 0.03 0.05 0.08 0.07 0.09 0.14 0.18 0.22 0.36 0.65 0.91 0.91 0.73 0.64 0.60
0.79 0.85 0.82 0.80 0.83 0.79 0.78 0.94 1.09 1.06 0.96 0.94 0.91 0.83 0.70 0.63 0.58 0.60 0.51 0.30 0.19 0.13 0.10 0.07 0.05 0.04 0.03 0.05 0.11 0.17 0.22 0.23 0.30 0.38 0.44 0.45 0.46 0.57 0.70 0.75 0.76 0.79 0.89
0.40 0.41 0.48 0.53 0.58 0.64 0.64 0.70 0.70 0.73 0.78 0.75 0.67 0.67 0.73 0.76 0.78 0.81 0.73 0.53 0.27 0.14 0.10 0.08 0.06 0.06 0.06 0.07 0.11 0.21 0.26 0.29 0.31 0.38 0.49 0.59 0.65 0.62 0.64 0.89 1.31 1.32 1.28
0.43 0.56 0.67 0.67 0.60 0.60 0.62 0.62 0.66 0.65 0.65 0.69 0.70 0.59 0.53 0.51 0.54 0.54 0.50 0.43 0.32 0.16 0.13 0.15 0.13 0.14 0.15 0.16 0.24 0.31 0.30 0.38 0.45 0.56 0.68 0.77 0.82 0.81 0.76 0.86 0.85 0.68 0.62
0.39 0.43 0.56 0.55 0.42 0.37 0.37 0.40 0.40 0.36 0.34 0.33 0.31 0.28 0.21 0.18 0.21 0.22 0.24 0.28 0.45 0.48 0.36 0.30 0.31 0.30 0.30 0.35 0.45 0.46 0.50 0.65 0.79 0.89 0.90 0.93 0.79 0.79 0.71 0.67 0.66 0.44 0.41
0.23 0.21 0.24 0.27 0.25 0.22 0.23 0.25 0.26 0.26 0.27 0.29 0.32 0.39 0.36 0.28 0.24 0.23 0.24 0.30 0.40 0.63 0.81 0.71 0.68 0.66 0.65 0.65 0.72 0.67 0.72 0.83 0.77 0.75 0.77 0.62 0.53 0.46 0.39 0.38 0.37 0.36 0.35
0.07 0.08 0.08 0.09 0.10 0.11 0.12 0.15 0.19 0.30 0.40 0.45 0.51 0.58 0.62 0.47 0.48 0.54 0.63 0.76 0.89 1.00 1.13 1.03 0.92 0.85 0.81 0.79 0.76 0.62 0.50 0.40 0.39 0.46 0.39 0.34 0.27 0.21 0.19 0.17 0.16 0.16 0.18
0.05 0.05 0.06 0.06 0.06 0.10 0.13 0.14 0.14 0.16 0.21 0.26 0.32 0.41 0.43 0.41 0.42 0.42 0.47 0.56 0.73 0.90 1.06 1.05 0.95 0.87 0.75 0.60 0.45 0.32 0.27 0.25 0.23 0.30 0.23 0.14 0.12 0.12 0.12 0.13 0.13 0.12 0.11
0.06 0.05 0.04 0.05 0.06 0.05 0.06 0.08 0.10 0.14 0.19 0.28 0.33 0.35 0.35 0.36 0.40 0.40 0.43 0.50 0.59 0.65 0.66 0.56 0.45 0.38 0.35 0.34 0.35 0.31 0.27 0.20 0.14 0.16 0.10 0.08 0.08 0.08 0.08 0.07 0.06 0.06 0.06
0.05 0.04 0.05 0.05 0.07 0.08 0.10 0.11 0.11 0.10 0.09 0.09 0.10 0.11 0.17 0.26 0.37 0.52 0.70 0.78 0.68 0.52 0.42 0.33 0.29 0.22 0.17 0.13 0.10 0.10 0.07 0.04 0.02 0.01 0.01 0.00 0.00 0.00 0.00 0.00 0.00 0.00 0.00
0.04 0.04 0.08 0.14 0.16 0.17 0.20 0.19 0.19 0.19 0.20 0.24 0.25 0.28 0.33 0.42 0.47 0.43 0.35 0.28 0.24 0.21 0.19 0.21 0.18 0.12 0.07 0.04 0.04 0.03 0.03 0.02 0.00 0.00 0.00 0.00 0.00 0.00 0.00 0.00 0.00 0.00 0.00
0.10 0.10 0.13 0.14 0.17 0.21 0.37 0.31 0.25 0.26 0.29 0.31 0.33 0.35 0.38 0.43 0.35 0.31 0.23 0.16 0.11 0.17 0.16 0.11 0.08 0.03 0.01 0.00 0.00 0.01 0.03 0.06 0.05 0.00 0.00 0.00 0.00 0.00 0.00 0.00 0.00 0.00 0.00
0.15 0.24 0.25 0.20 0.16 0.15 0.29 0.24 0.22 0.20 0.23 0.25 0.25 0.23 0.20 0.18 0.15 0.10 0.10 0.08 0.13 0.09 0.05 0.02 0.01 0.00 0.00 0.01 0.06 0.08 0.07 0.09 0.04 0.00 0.01 0.00 0.00 0.00 0.00 0.00 0.00 0.00 0.00
0.29 0.25 0.27 0.37 0.45 0.54 0.51 0.36 0.28 0.20 0.19 0.17 0.15 0.13 0.09 0.04 0.03 0.03 0.04 0.09 0.04 0.01 0.00 0.00 0.00 0.00 0.02 0.03 0.07 0.13 0.05 0.03 0.01 0.00 0.00 0.01 0.00 0.00 0.00 0.00 0.00 0.00 0.00
0.68 0.77 0.64 0.55 0.66 0.74 0.61 0.47 0.30 0.22 0.18 0.13 0.07 0.02 0.01 0.00 0.02 0.03 0.04 0.02 0.00 0.00 0.00 0.00 0.01 0.01 0.01 0.01 0.00 0.01 0.02 0.04 0.03 0.00 0.00 0.00 0.00 0.00 0.00 0.00 0.00 0.00 0.00
0.68 0.66 0.70 0.57 0.52 0.48 0.35 0.27 0.20 0.12 0.06 0.01 0.00 0.00 0.01 0.01 0.02 0.05 0.03 0.01 0.00 0.00 0.03 0.02 0.00 0.00 0.00 0.00 0.00 0.00 0.01 0.12 0.09 0.11 0.00 0.10 0.04 0.03 0.15 0.01 0.00 0.00 0.00

GFSMA_prec_precacc_090.txt.gz
Total_Precipitation_Accumulation
0.12 0.04 0.01 0.02 0.01 0.00 0.00 0.00 0.00 0.00 0.00 0.00 0.00 0.00 0.00 0.00 0.00 0.00 0.00 0.00 0.00 0.00 0.00 0.00 0.01 0.05 0.10 0.12 0.19 0.11 0.07 0.04 0.01 0.00 0.01 0.00 0.00 0.00 0.00 0.00 0.00 0.00 0.00
0.11 0.08 0.01 0.01 0.01 0.00 0.00 0.00 0.00 0.00 0.00 0.00 0.00 0.00 0.00 0.00 0.00 0.00 0.00 0.00 0.00 0.00 0.00 0.00 0.01 0.03 0.06 0.10 0.16 0.19 0.13 0.07 0.05 0.04 0.02 0.01 0.01 0.01 0.01 0.00 0.00 0.00 0.00
0.13 0.01 0.00 0.00 0.00 0.00 0.00 0.00 0.00 0.00 0.00 0.00 0.00 0.00 0.00 0.00 0.00 0.00 0.00 0.00 0.00 0.00 0.00 0.00 0.01 0.02 0.03 0.04 0.06 0.11 0.22 0.17 0.10 0.13 0.11 0.05 0.01 0.02 0.02 0.02 0.01 0.00 0.00
0.02 0.02 0.00 0.00 0.00 0.00 0.00 0.00 0.00 0.00 0.00 0.00 0.00 0.00 0.00 0.00 0.00 0.00 0.00 0.00 0.00 0.00 0.00 0.00 0.00 0.01 0.02 0.02 0.02 0.08 0.19 0.24 0.15 0.12 0.16 0.13 0.04 0.03 0.04 0.05 0.05 0.03 0.01
0.02 0.03 0.02 0.00 0.00 0.00 0.00 0.00 0.00 0.00 0.00 0.01 0.01 0.00 0.01 0.01 0.00 0.00 0.00 0.02 0.01 0.00 0.00 0.00 0.00 0.00 0.01 0.00 0.03 0.06 0.08 0.16 0.16 0.16 0.18 0.18 0.14 0.10 0.14 0.16 0.11 0.08 0.08
0.19 0.10 0.04 0.01 0.01 0.01 0.00 0.01 0.02 0.03 0.01 0.02 0.03 0.01 0.02 0.01 0.00 0.00 0.01 0.01 0.01 0.01 0.00 0.00 0.00 0.00 0.00 0.00 0.02 0.02 0.01 0.07 0.16 0.21 0.22 0.27 0.30 0.20 0.19 0.20 0.16 0.11 0.10
0.53 0.42 0.27 0.15 0.04 0.01 0.01 0.04 0.07 0.13 0.15 0.20 0.18 0.03 0.01 0.00 0.00 0.00 0.00 0.00 0.00 0.00 0.00 0.00 0.00 0.00 0.00 0.00 0.01 0.01 0.02 0.04 0.10 0.20 0.23 0.24 0.28 0.24 0.29 0.33 0.27 0.23 0.21
0.60 0.51 0.44 0.41 0.30 0.21 0.13 0.18 0.20 0.21 0.16 0.23 0.24 0.10 0.02 0.00 0.00 0.00 0.00 0.00 0.00 0.00 0.00 0.00 0.00 0.00 0.00 0.00 0.00 0.00 0.01 0.03 0.07 0.20 0.32 0.28 0.30 0.40 0.50 0.58 0.42 0.25 0.25
0.97 0.96 0.97 0.74 0.54 0.68 0.81 0.83 0.75 0.70 0.57 0.41 0.31 0.25 0.08 0.01 0.01 0.00 0.00 0.00 0.00 0.00 0.00 0.01 0.01 0.00 0.00 0.00 0.00 0.00 0.01 0.02 0.02 0.06 0.21 0.45 0.59 0.57 0.44 0.34 0.22 0.22 0.23
1.41 1.57 1.83 1.89 1.72 1.40 1.10 1.09 1.09 0.94 0.94 0.87 0.80 0.51 0.40 0.26 0.17 0.08 0.03 0.02 0.01 0.01 0.01 0.01 0.01 0.00 0.00 0.00 0.01 0.02 0.03 0.04 0.06 0.10 0.16 0.32 0.66 0.73 0.54 0.41 0.41 0.39 0.34
1.60 1.55 1.56 1.54 1.40 1.25 1.35 1.30 1.16 1.16 1.10 0.90 0.78 0.67 0.58 0.50 0.49 0.41 0.23 0.12 0.09 0.06 0.03 0.01 0.01 0.01 0.01 0.02 0.03 0.05 0.08 0.07 0.09 0.14 0.20 0.23 0.36 0.65 0.91 0.91 0.73 0.64 0.60
0.99 1.07 0.98 0.90 0.94 0.94 0.92 1.06 1.22 1.13 0.99 0.95 0.91 0.83 0.70 0.63 0.58 0.62 0.56 0.37 0.28 0.20 0.14 0.10 0.07 0.05 0.03 0.05 0.11 0.17 0.22 0.23 0.30 0.38 0.44 0.45 0.46 0.57 0.70 0.75 0.76 0.79 0.89
0.51 0.50 0.56 0.60 0.63 0.70 0.72 0.77 0.76 0.79 0.83 0.77 0.68 0.69 0.75 0.78 0.79 0.81 0.74 0.56 0.34 0.21 0.15 0.10 0.08 0.06 0.06 0.07 0.11 0.21 0.26 0.29 0.31 0.38 0.49 0.61 0.65 0.62 0.64 0.89 1.31 1.32 1.28
0.47 0.60 0.69 0.68 0.62 0.62 0.64 0.64 0.67 0.67 0.67 0.69 0.73 0.64 0.60 0.56 0.58 0.57 0.56 0.53 0.43 0.26 0.17 0.16 0.14 0.14 0.15 0.16 0.24 0.31 0.30 0.38 0.45 0.56 0.68 0.77 0.82 0.81 0.76 0.86 0.85 0.68 0.62
0.50 0.55 0.63 0.61 0.51 0.44 0.40 0.42 0.41 0.39 0.36 0.34 0.33 0.31 0.27 0.30 0.33 0.25 0.26 0.34 0.58 0.56 0.39 0.31 0.31 0.30 0.30 0.35 0.45 0.46 0.50 0.65 0.79 0.89 0.90 0.93 0.79 0.79 0.71 0.67 0.66 0.44 0.41
0.31 0.27 0.32 0.38 0.38 0.35 0.31 0.31 0.31 0.32 0.31 0.31 0.35 0.42 0.42 0.38 0.35 0.29 0.32 0.39 0.41 0.63 0.81 0.71 0.68 0.66 0.65 0.65 0.72 0.67 0.72 0.83 0.77 0.75 0.77 0.62 0.53 0.46 0.39 0.38 0.37 0.36 0.35
0.07 0.08 0.09 0.09 0.11 0.11 0.12 0.15 0.20 0.31 0.41 0.47 0.53 0.60 0.67 0.67 0.75 0.67 0.71 0.82 0.91 1.01 1.13 1.03 0.92 0.85 0.81 0.79 0.76 0.62 0.50 0.40 0.39 0.47 0.39 0.34 0.27 0.21 0.19 0.17 0.16 0.16 0.18
0.05 0.05 0.06 0.06 0.06 0.10 0.13 0.14 0.15 0.17 0.22 0.28 0.36 0.44 0.45 0.47 0.56 0.59 0.51 0.57 0.73 0.90 1.06 1.05 0.95 0.87 0.75 0.60 0.45 0.32 0.27 0.25 0.23 0.30 0.23 0.14 0.12 0.12 0.12 0.13 0.13 0.12 0.11
0.06 0.05 0.04 0.05 0.06 0.05 0.06 0.08 0.11 0.14 0.19 0.29 0.35 0.39 0.41 0.41 0.45 0.44 0.45 0.50 0.59 0.65 0.66 0.56 0.45 0.38 0.35 0.34 0.35 0.31 0.27 0.20 0.14 0.16 0.11 0.09 0.08 0.08 0.08 0.07 0.06 0.06 0.06
0.05 0.04 0.05 0.05 0.07 0.08 0.10 0.11 0.11 0.11 0.09 0.10 0.13 0.15 0.22 0.30 0.41 0.58 0.72 0.78 0.68 0.52 0.42 0.33 0.29 0.22 0.17 0.13 0.10 0.10 0.07 0.04 0.02 0.01 0.01 0.00 0.00 0.00 0.00 0.00 0.00 0.00 0.00
0.04 0.04 0.08 0.14 0.16 0.17 0.20 0.19 0.19 0.20 0.21 0.24 0.26 0.30 0.36 0.46 0.51 0.48 0.36 0.28 0.24 0.21 0.19 0.21 0.18 0.12 0.07 0.04 0.04 0.03 0.03 0.02 0.00 0.00 0.00 0.00 0.00 0.00 0.00 0.00 0.00 0.00 0.00
0.10 0.10 0.13 0.14 0.17 0.21 0.37 0.31 0.25 0.26 0.29 0.31 0.34 0.37 0.41 0.48 0.38 0.33 0.24 0.16 0.11 0.17 0.16 0.11 0.08 0.03 0.01 0.00 0.00 0.01 0.03 0.06 0.05 0.00 0.00 0.00 0.00 0.00 0.00 0.00 0.00 0.00 0.00
0.15 0.24 0.25 0.20 0.16 0.15 0.29 0.24 0.22 0.20 0.23 0.25 0.25 0.23 0.20 0.18 0.16 0.12 0.13 0.11 0.15 0.10 0.05 0.02 0.01 0.00 0.00 0.01 0.06 0.08 0.07 0.09 0.04 0.00 0.01 0.00 0.00 0.00 0.00 0.00 0.00 0.00 0.00
0.29 0.25 0.27 0.37 0.45 0.54 0.51 0.36 0.28 0.20 0.19 0.17 0.15 0.13 0.09 0.04 0.03 0.03 0.05 0.10 0.05 0.02 0.00 0.00 0.00 0.00 0.02 0.03 0.07 0.13 0.05 0.03 0.01 0.00 0.00 0.01 0.00 0.00 0.00 0.00 0.00 0.00 0.00
0.68 0.77 0.64 0.55 0.66 0.74 0.61 0.47 0.30 0.22 0.18 0.13 0.07 0.02 0.01 0.00 0.02 0.03 0.04 0.02 0.00 0.00 0.00 0.00 0.01 0.01 0.01 0.01 0.00 0.01 0.02 0.04 0.03 0.00 0.00 0.00 0.00 0.00 0.00 0.00 0.00 0.00 0.00
0.68 0.66 0.70 0.57 0.52 0.48 0.35 0.27 0.20 0.12 0.06 0.01 0.00 0.00 0.01 0.01 0.02 0.05 0.03 0.01 0.00 0.00 0.03 0.02 0.00 0.00 0.00 0.00 0.00 0.00 0.01 0.12 0.09 0.11 0.00 0.10 0.04 0.03 0.15 0.01 0.00 0.00 0.00

GFSMA_prec_precacc_096.txt.gz
Total_Precipitation_Accumulation
0.23 0.20 0.25 0.08 0.02 0.01 0.00 0.00 0.00 0.00 0.00 0.00 0.00 0.00 0.00 0.00 0.00 0.00 0.00 0.00 0.00 0.00 0.00 0.00 0.02 0.05 0.10 0.12 0.20 0.16 0.09 0.04 0.01 0.00 0.01 0.00 0.00 0.00 0.00 0.00 0.00 0.00 0.00
0.33 0.40 0.26 0.18 0.10 0.03 0.02 0.00 0.00 0.00 0.00 0.00 0.00 0.00 0.00 0.00 0.00 0.00 0.00 0.00 0.00 0.00 0.00 0.01 0.02 0.03 0.06 0.10 0.16 0.21 0.16 0.07 0.05 0.04 0.02 0.01 0.01 0.01 0.01 0.01 0.01 0.00 0.00
0.35 0.33 0.67 0.45 0.14 0.09 0.06 0.02 0.00 0.00 0.00 0.00 0.00 0.00 0.00 0.00 0.00 0.00 0.00 0.00 0.00 0.00 0.00 0.00 0.01 0.03 0.04 0.04 0.06 0.11 0.22 0.17 0.10 0.13 0.11 0.05 0.01 0.02 0.02 0.03 0.02 0.01 0.01
0.05 0.25 0.28 0.58 0.54 0.36 0.22 0.07 0.04 0.01 0.00 0.00 0.00 0.00 0.00 0.00 0.00 0.00 0.00 0.00 0.00 0.00 0.00 0.00 0.00 0.01 0.03 0.03 0.02 0.09 0.20 0.24 0.15 0.12 0.16 0.13 0.04 0.03 0.04 0.05 0.05 0.03 0.02
0.03 0.06 0.14 0.16 0.28 0.30 0.25 0.13 0.06 0.01 0.00 0.01 0.01 0.00 0.01 0.01 0.00 0.00 0.00 0.02 0.01 0.00 0.00 0.00 0.00 0.00 0.01 0.01 0.03 0.08 0.10 0.16 0.16 0.16 0.18 0.18 0.14 0.10 0.14 0.16 0.11 0.08 0.08
0.20 0.14 0.11 0.13 0.10 0.12 0.14 0.10 0.06 0.04 0.02 0.02 0.03 0.01 0.02 0.01 0.00 0.00 0.01 0.01 0.01 0.01 0.00 0.00 0.00 0.00 0.00 0.00 0.02 0.03 0.05 0.07 0.16 0.21 0.22 0.27 0.30 0.20 0.19 0.20 0.16 0.11 0.10
0.55 0.46 0.35 0.24 0.15 0.06 0.05 0.10 0.12 0.15 0.15 0.20 0.18 0.03 0.01 0.00 0.00 0.00 0.00 0.00 0.00 0.00 0.00 0.00 0.00 0.00 0.00 0.00 0.01 0.02 0.05 0.05 0.10 0.20 0.23 0.24 0.28 0.24 0.29 0.33 0.27 0.23 0.21
0.86 0.63 0.54 0.49 0.36 0.26 0.15 0.19 0.22 0.23 0.16 0.23 0.24 0.10 0.02 0.00 0.00 0.00 0.00 0.00 0.00 0.00 0.00 0.00 0.00 0.00 0.00 0.00 0.00 0.01 0.03 0.05 0.07 0.20 0.32 0.28 0.30 0.40 0.50 0.58 0.42 0.25 0.26
1.18 1.33 1.31 0.98 0.67 0.74 0.85 0.85 0.77 0.71 0.57 0.42 0.31 0.25 0.08 0.01 0.01 0.01 0.01 0.00 0.00 0.00 0.00 0.01 0.01 0.00 0.00 0.00 0.00 0.00 0.01 0.03 0.03 0.06 0.21 0.45 0.59 0.57 0.44 0.34 0.22 0.23 0.24
1.52 1.75 2.05 2.27 2.10 1.64 1.22 1.18 1.17 1.01 1.01 0.94 0.86 0.56 0.42 0.28 0.18 0.09 0.03 0.02 0.02 0.01 0.02 0.02 0.01 0.00 0.00 0.00 0.01 0.02 0.03 0.04 0.06 0.10 0.16 0.33 0.67 0.73 0.54 0.41 0.41 0.40 0.34
1.86 1.78 1.84 1.87 1.80 1.64 1.74 1.61 1.39 1.37 1.31 1.08 0.93 0.76 0.63 0.55 0.52 0.42 0.23 0.13 0.09 0.06 0.04 0.02 0.01 0.01 0.01 0.02 0.03 0.05 0.08 0.07 0.09 0.14 0.20 0.27 0.40 0.65 0.91 0.91 0.73 0.64 0.60
1.61 1.54 1.39 1.26 1.29 1.28 1.29 1.47 1.55 1.37 1.24 1.20 1.14 1.01 0.83 0.74 0.64 0.67 0.58 0.37 0.28 0.20 0.15 0.12 0.09 0.06 0.04 0.06 0.11 0.18 0.22 0.23 0.30 0.38 0.44 0.47 0.49 0.58 0.70 0.75 0.76 0.79 0.89
1.46 1.30 1.18 1.11 1.05 1.05 1.04 1.06 1.05 1.03 1.05 0.97 0.88 0.88 0.93 0.92 0.88 0.88 0.80 0.59 0.35 0.21 0.15 0.10 0.08 0.07 0.06 0.07 0.12 0.22 0.26 0.29 0.31 0.38 0.49 0.62 0.68 0.62 0.64 0.89 1.31 1.32 1.28
1.36 1.34 1.24 1.12 0.97 0.94 0.95 0.94 0.93 0.94 0.94 0.95 0.95 0.85 0.79 0.72 0.72 0.69 0.66 0.63 0.54 0.33 0.24 0.21 0.17 0.17 0.18 0.21 0.28 0.35 0.31 0.39 0.45 0.56 0.68 0.78 0.82 0.81 0.76 0.86 0.85 0.68 0.62
1.08 1.12 1.12 1.02 0.84 0.72 0.63 0.64 0.62 0.56 0.58 0.62 0.53 0.46 0.41 0.39 0.45 0.43 0.43 0.55 0.87 0.94 0.73 0.60 0.52 0.48 0.47 0.53 0.63 0.60 0.56 0.69 0.80 0.89 0.90 0.93 0.79 0.80 0.72 0.67 0.66 0.44 0.41
0.50 0.55 0.62 0.65 0.66 0.71 0.78 0.73 0.62 0.58 0.54 0.51 0.52 0.58 0.57 0.51 0.49 0.48 0.51 0.58 0.60 0.82 0.98 0.80 0.76 0.77 0.84 0.91 0.99 0.86 0.82 0.87 0.78 0.75 0.77 0.62 0.53 0.46 0.39 0.38 0.37 0.36 0.35
0.08 0.09 0.11 0.14 0.16 0.19 0.31 0.45 0.55 0.63 0.69 0.72 0.80 0.90 0.95 0.95 1.02 1.01 1.03 1.14 1.26 1.26 1.28 1.08 0.95 0.86 0.83 0.86 0.85 0.69 0.55 0.43 0.40 0.47 0.39 0.34 0.27 0.21 0.19 0.17 0.16 0.16 0.18
0.05 0.05 0.06 0.06 0.06 0.10 0.13 0.14 0.16 0.18 0.24 0.30 0.40 0.50 0.54 0.58 0.66 0.71 0.77 0.81 1.00 1.31 1.48 1.27 1.08 0.92 0.76 0.61 0.46 0.32 0.27 0.25 0.23 0.30 0.23 0.14 0.12 0.12 0.12 0.13 0.13 0.12 0.11
0.06 0.05 0.04 0.05 0.06 0.05 0.06 0.08 0.11 0.14 0.20 0.29 0.36 0.40 0.42 0.43 0.47 0.48 0.53 0.65 0.75 0.81 0.90 0.81 0.67 0.57 0.47 0.42 0.38 0.32 0.27 0.20 0.14 0.16 0.11 0.09 0.08 0.08 0.08 0.07 0.06 0.06 0.06
0.05 0.04 0.05 0.05 0.07 0.08 0.10 0.11 0.11 0.11 0.10 0.10 0.13 0.15 0.22 0.31 0.43 0.62 0.85 0.95 0.89 0.74 0.62 0.51 0.48 0.38 0.30 0.23 0.16 0.10 0.08 0.04 0.02 0.01 0.01 0.00 0.00 0.00 0.00 0.00 0.00 0.00 0.00
0.04 0.04 0.08 0.14 0.16 0.17 0.20 0.19 0.19 0.20 0.21 0.25 0.26 0.31 0.37 0.49 0.56 0.53 0.44 0.36 0.36 0.38 0.39 0.43 0.37 0.26 0.17 0.08 0.05 0.03 0.03 0.02 0.00 0.00 0.00 0.00 0.00 0.00 0.00 0.00 0.00 0.00 0.00
0.10 0.10 0.13 0.14 0.17 0.21 0.37 0.31 0.25 0.26 0.29 0.31 0.34 0.37 0.41 0.50 0.40 0.39 0.30 0.24 0.19 0.24 0.22 0.16 0.12 0.08 0.07 0.07 0.03 0.02 0.03 0.06 0.05 0.00 0.00 0.00 0.00 0.00 0.00 0.00 0.00 0.00 0.00
0.15 0.24 0.25 0.20 0.16 0.15 0.29 0.24 0.22 0.20 0.23 0.25 0.25 0.23 0.20 0.19 0.17 0.13 0.19 0.20 0.24 0.20 0.13 0.06 0.05 0.02 0.01 0.02 0.07 0.09 0.07 0.09 0.04 0.00 0.01 0.00 0.00 0.00 0.00 0.00 0.00 0.00 0.00
0.29 0.25 0.27 0.37 0.45 0.54 0.51 0.36 0.28 0.20 0.19 0.17 0.15 0.13 0.09 0.04 0.03 0.03 0.05 0.11 0.08 0.10 0.13 0.12 0.11 0.10 0.09 0.08 0.09 0.14 0.06 0.03 0.01 0.00 0.00 0.01 0.00 0.00 0.00 0.00 0.00 0.00 0.00
0.68 0.77 0.64 0.55 0.66 0.74 0.61 0.47 0.30 0.22 0.18 0.13 0.07 0.02 0.01 0.00 0.03 0.03 0.04 0.02 0.00 0.01 0.05 0.09 0.13 0.18 0.22 0.22 0.16 0.14 0.12 0.10 0.05 0.00 0.00 0.00 0.00 0.00 0.00 0.00 0.00 0.00 0.00
0.68 0.66 0.70 0.57 0.52 0.48 0.35 0.27 0.20 0.12 0.06 0.02 0.00 0.00 0.02 0.01 0.02 0.05 0.04 0.01 0.00 0.00 0.04 0.04 0.02 0.04 0.06 0.07 0.06 0.03 0.05 0.17 0.11 0.11 0.00 0.10 0.04 0.03 0.15 0.01 0.00 0.00 0.00

GFSMA_prec_precacc_099.txt.gz
Total_Precipitation_Accumulation
0.23 0.20 0.25 0.09 0.02 0.01 0.01 0.02 0.00 0.00 0.00 0.00 0.00 0.00 0.00 0.00 0.00 0.00 0.00 0.00 0.00 0.00 0.01 0.02 0.02 0.05 0.10 0.12 0.20 0.17 0.10 0.04 0.01 0.00 0.01 0.00 0.00 0.00 0.00 0.00 0.00 0.00 0.00
0.33 0.40 0.26 0.18 0.12 0.03 0.03 0.02 0.03 0.02 0.00 0.00 0.00 0.00 0.00 0.00 0.00 0.00 0.00 0.00 0.00 0.00 0.00 0.03 0.06 0.05 0.07 0.10 0.16 0.22 0.18 0.08 0.05 0.04 0.02 0.01 0.01 0.01 0.01 0.01 0.01 0.00 0.00
0.35 0.33 0.67 0.45 0.14 0.11 0.08 0.05 0.05 0.04 0.02 0.00 0.00 0.00 0.00 0.00 0.00 0.00 0.00 0.00 0.00 0.00 0.00 0.00 0.02 0.05 0.05 0.05 0.07 0.11 0.22 0.18 0.10 0.13 0.11 0.05 0.01 0.02 0.02 0.03 0.02 0.01 0.01
0.05 0.25 0.29 0.59 0.54 0.37 0.25 0.17 0.14 0.13 0.07 0.01 0.00 0.00 0.00 0.00 0.00 0.00 0.00 0.00 0.00 0.00 0.00 0.00 0.00 0.02 0.04 0.03 0.02 0.09 0.21 0.25 0.15 0.12 0.16 0.13 0.04 0.03 0.04 0.05 0.05 0.03 0.02
0.03 0.06 0.14 0.17 0.29 0.31 0.29 0.29 0.22 0.15 0.11 0.06 0.02 0.00 0.01 0.01 0.00 0.00 0.00 0.02 0.01 0.00 0.00 0.00 0.00 0.00 0.01 0.01 0.03 0.08 0.10 0.17 0.16 0.16 0.18 0.18 0.14 0.10 0.14 0.16 0.11 0.08 0.08
0.20 0.14 0.11 0.13 0.12 0.14 0.15 0.12 0.13 0.15 0.09 0.04 0.05 0.02 0.02 0.01 0.00 0.00 0.01 0.01 0.01 0.01 0.00 0.00 0.00 0.00 0.00 0.01 0.03 0.03 0.05 0.07 0.16 0.21 0.22 0.27 0.30 0.20 0.19 0.20 0.16 0.11 0.10
0.55 0.47 0.35 0.25 0.18 0.08 0.07 0.11 0.14 0.17 0.17 0.22 0.21 0.05 0.01 0.00 0.00 0.00 0.00 0.00 0.00 0.00 0.00 0.00 0.00 0.00 0.00 0.00 0.01 0.03 0.05 0.06 0.10 0.20 0.23 0.24 0.28 0.24 0.29 0.33 0.27 0.23 0.21
0.86 0.64 0.54 0.51 0.38 0.28 0.16 0.21 0.25 0.26 0.17 0.24 0.24 0.10 0.03 0.00 0.00 0.00 0.00 0.00 0.00 0.00 0.00 0.00 0.00 0.00 0.00 0.00 0.00 0.01 0.03 0.05 0.08 0.20 0.32 0.28 0.30 0.40 0.50 0.58 0.42 0.25 0.26
1.18 1.34 1.48 1.14 0.71 0.75 0.85 0.86 0.79 0.74 0.59 0.43 0.32 0.25 0.09 0.02 0.01 0.01 0.01 0.00 0.00 0.00 0.00 0.01 0.01 0.00 0.00 0.00 0.00 0.00 0.01 0.04 0.03 0.06 0.21 0.45 0.59 0.57 0.44 0.34 0.22 0.23 0.24
1.52 1.75 2.07 2.44 2.62 2.21 1.51 1.24 1.20 1.05 1.05 0.97 0.87 0.57 0.44 0.29 0.19 0.09 0.03 0.02 0.02 0.01 0.02 0.02 0.02 0.02 0.01 0.01 0.01 0.02 0.04 0.07 0.07 0.10 0.16 0.33 0.67 0.73 0.54 0.41 0.41 0.40 0.34
1.87 1.78 1.85 1.89 1.86 1.98 2.34 1.99 1.57 1.49 1.38 1.11 0.95 0.77 0.65 0.59 0.56 0.44 0.24 0.13 0.09 0.07 0.06 0.05 0.05 0.04 0.03 0.03 0.03 0.05 0.09 0.09 0.10 0.15 0.21 0.27 0.41 0.66 0.91 0.91 0.73 0.64 0.60
1.63 1.58 1.45 1.33 1.36 1.39 1.49 1.84 1.83 1.50 1.33 1.29 1.21 1.07 0.88 0.80 0.68 0.73 0.62 0.42 0.33 0.24 0.17 0.13 0.11 0.07 0.05 0.07 0.12 0.18 0.23 0.24 0.31 0.41 0.47 0.49 0.52 0.62 0.72 0.75 0.76 0.79 0.89
1.69 1.58 1.36 1.33 1.21 1.19 1.22 1.32 1.47 1.40 1.22 1.08 0.98 0.98 1.04 1.03 0.99 0.99 0.92 0.66 0.39 0.25 0.17 0.11 0.08 0.07 0.07 0.08 0.12 0.23 0.27 0.29 0.32 0.39 0.50 0.64 0.71 0.65 0.65 0.89 1.31 1.32 1.28
1.49 1.79 1.59 1.38 1.29 1.24 1.16 1.10 1.10 1.18 1.17 1.14 1.13 1.01 0.94 0.87 0.89 0.88 0.87 0.83 0.69 0.38 0.25 0.22 0.17 0.18 0.19 0.21 0.31 0.42 0.35 0.43 0.47 0.57 0.69 0.79 0.84 0.81 0.76 0.86 0.85 0.68 0.62
1.17 1.26 1.30 1.19 1.06 0.98 0.89 0.84 0.78 0.70 0.76 0.82 0.79 0.74 0.68 0.62 0.64 0.62 0.64 0.78 1.11 1.08 0.77 0.60 0.52 0.49 0.48 0.57 0.73 0.69 0.62 0.80 0.88 0.92 0.92 0.93 0.79 0.80 0.72 0.67 0.66 0.44 0.41
0.55 0.66 0.72 0.72 0.78 0.83 0.90 0.89 0.81 0.82 0.82 0.72 0.71 0.78 0.78 0.71 0.70 0.65 0.65 0.72 0.76 0.98 1.10 0.84 0.78 0.78 0.85 0.93 1.11 1.05 1.02 1.07 0.88 0.81 0.80 0.63 0.53 0.46 0.39 0.38 0.37 0.36 0.35
0.08 0.10 0.12 0.15 0.17 0.22 0.38 0.54 0.65 0.81 0.92 0.98 1.11 1.18 1.21 1.25 1.31 1.25 1.26 1.39 1.50 1.53 1.58 1.23 1.00 0.91 0.86 0.87 0.89 0.77 0.74 0.55 0.47 0.52 0.43 0.36 0.27 0.21 0.19 0.17 0.16 0.16 0.18
0.05 0.05 0.06 0.06 0.06 0.10 0.13 0.15 0.17 0.21 0.28 0.36 0.47 0.59 0.64 0.73 0.85 0.91 0.98 0.99 1.17 1.49 1.78 1.52 1.22 1.04 0.85 0.67 0.51 0.38 0.33 0.31 0.27 0.33 0.25 0.15 0.13 0.12 0.12 0.13 0.13 0.12 0.11
0.06 0.05 0.04 0.05 0.06 0.05 0.06 0.08 0.11 0.14 0.20 0.29 0.36 0.41 0.44 0.46 0.50 0.51 0.56 0.68 0.78 0.88 1.02 0.99 0.84 0.73 0.63 0.59 0.57 0.49 0.39 0.26 0.16 0.17 0.11 0.09 0.08 0.08 0.08 0.07 0.06 0.06 0.06
0.05 0.04 0.05 0.05 0.07 0.08 0.10 0.11 0.11 0.11 0.10 0.10 0.13 0.15 0.22 0.31 0.43 0.62 0.85 0.96 0.91 0.78 0.66 0.56 0.52 0.44 0.37 0.35 0.35 0.32 0.27 0.14 0.04 0.02 0.01 0.00 0.00 0.00 0.00 0.00 0.00 0.00 0.00
0.04 0.04 0.08 0.14 0.16 0.17 0.20 0.19 0.19 0.20 0.21 0.25 0.26 0.31 0.37 0.49 0.57 0.53 0.45 0.36 0.36 0.40 0.42 0.46 0.40 0.30 0.25 0.21 0.21 0.20 0.19 0.13 0.06 0.01 0.00 0.00 0.00 0.00 0.00 0.00 0.00 0.00 0.00
0.10 0.10 0.13 0.14 0.17 0.21 0.37 0.31 0.25 0.26 0.29 0.31 0.34 0.37 0.41 0.50 0.40 0.39 0.30 0.26 0.21 0.26 0.24 0.19 0.15 0.10 0.08 0.10 0.13 0.16 0.21 0.21 0.13 0.02 0.01 0.00 0.00 0.00 0.00 0.00 0.00 0.00 0.00
0.15 0.24 0.25 0.20 0.16 0.15 0.29 0.24 0.22 0.20 0.23 0.25 0.25 0.23 0.20 0.19 0.17 0.13 0.19 0.21 0.25 0.23 0.16 0.09 0.06 0.04 0.05 0.06 0.13 0.17 0.14 0.14 0.08 0.02 0.02 0.00 0.00 0.00 0.00 0.00 0.00 0.00 0.00
0.29 0.25 0.27 0.37 0.45 0.54 0.51 0.36 0.28 0.20 0.19 0.17 0.15 0.13 0.09 0.04 0.03 0.03 0.05 0.11 0.08 0.11 0.16 0.17 0.14 0.13 0.16 0.17 0.21 0.23 0.08 0.04 0.03 0.01 0.00 0.01 0.00 0.00 0.00 0.00 0.00 0.00 0.00
0.68 0.77 0.64 0.55 0.66 0.74 0.61 0.47 0.30 0.22 0.18 0.13 0.07 0.02 0.01 0.00 0.03 0.03 0.04 0.02 0.00 0.01 0.09 0.17 0.24 0.30 0.34 0.35 0.26 0.21 0.22 0.19 0.12 0.02 0.01 0.01 0.00 0.00 0.00 0.00 0.00 0.00 0.00
0.68 0.66 0.70 0.57 0.52 0.48 0.35 0.27 0.20 0.12 0.06 0.02 0.00 0.00 0.02 0.01 0.03 0.05 0.04 0.01 0.00 0.00 0.04 0.05 0.08 0.13 0.19 0.21 0.20 0.12 0.11 0.24 0.22 0.26 0.12 0.18 0.06 0.03 0.15 0.01 0.00 0.00 0.00

GFSMA_prec_precacc_102.txt.gz
Total_Precipitation_Accumulation
0.23 0.20 0.25 0.09 0.04 0.03 0.01 0.02 0.00 0.00 0.00 0.00 0.00 0.00 0.00 0.00 0.00 0.00 0.00 0.00 0.00 0.00 0.02 0.05 0.03 0.05 0.10 0.12 0.20 0.17 0.11 0.04 0.01 0.00 0.01 0.00 0.00 0.00 0.00 0.00 0.00 0.00 0.00
0.33 0.40 0.26 0.18 0.12 0.04 0.03 0.02 0.03 0.02 0.00 0.00 0.00 0.00 0.00 0.00 0.00 0.00 0.00 0.00 0.00 0.00 0.00 0.06 0.11 0.08 0.08 0.11 0.16 0.22 0.19 0.10 0.05 0.04 0.02 0.01 0.01 0.01 0.01 0.01 0.01 0.01 0.00
0.35 0.33 0.67 0.45 0.14 0.12 0.12 0.08 0.07 0.06 0.05 0.02 0.00 0.00 0.00 0.00 0.00 0.00 0.00 0.00 0.00 0.00 0.00 0.00 0.03 0.09 0.09 0.08 0.08 0.11 0.23 0.18 0.10 0.13 0.11 0.05 0.01 0.02 0.02 0.03 0.02 0.01 0.01
0.05 0.25 0.29 0.59 0.54 0.37 0.28 0.20 0.16 0.15 0.14 0.09 0.04 0.01 0.00 0.00 0.00 0.00 0.00 0.00 0.00 0.00 0.00 0.00 0.00 0.02 0.06 0.05 0.04 0.09 0.21 0.25 0.15 0.12 0.16 0.13 0.04 0.03 0.04 0.05 0.05 0.03 0.02
0.03 0.06 0.14 0.17 0.29 0.32 0.30 0.31 0.25 0.18 0.16 0.11 0.05 0.02 0.01 0.01 0.00 0.00 0.00 0.02 0.01 0.00 0.00 0.00 0.00 0.00 0.01 0.02 0.05 0.10 0.11 0.17 0.16 0.16 0.18 0.18 0.14 0.10 0.14 0.16 0.11 0.08 0.08
0.20 0.14 0.11 0.13 0.12 0.16 0.16 0.14 0.16 0.17 0.11 0.07 0.08 0.04 0.03 0.02 0.01 0.00 0.01 0.01 0.01 0.01 0.00 0.00 0.00 0.00 0.00 0.01 0.04 0.07 0.07 0.08 0.17 0.21 0.22 0.27 0.30 0.20 0.19 0.20 0.16 0.11 0.10
0.55 0.47 0.35 0.26 0.18 0.09 0.07 0.12 0.15 0.18 0.19 0.24 0.23 0.06 0.02 0.01 0.00 0.00 0.00 0.00 0.00 0.00 0.00 0.00 0.00 0.00 0.00 0.00 0.01 0.06 0.09 0.06 0.11 0.20 0.23 0.24 0.28 0.24 0.29 0.33 0.27 0.23 0.21
0.86 0.64 0.55 0.51 0.38 0.29 0.17 0.22 0.26 0.28 0.20 0.26 0.25 0.11 0.03 0.01 0.01 0.00 0.00 0.00 0.00 0.00 0.00 0.00 0.00 0.00 0.00 0.00 0.00 0.02 0.06 0.07 0.08 0.21 0.32 0.28 0.30 0.40 0.50 0.58 0.42 0.25 0.26
1.18 1.35 1.48 1.15 0.73 0.77 0.87 0.86 0.80 0.75 0.61 0.45 0.34 0.27 0.09 0.02 0.01 0.01 0.01 0.00 0.00 0.00 0.00 0.01 0.01 0.00 0.00 0.00 0.00 0.00 0.01 0.06 0.06 0.10 0.22 0.45 0.59 0.57 0.44 0.34 0.22 0.23 0.24
1.52 1.75 2.08 2.45 2.64 2.25 1.55 1.30 1.24 1.08 1.08 1.00 0.89 0.59 0.44 0.29 0.20 0.10 0.04 0.02 0.02 0.01 0.02 0.02 0.02 0.03 0.07 0.08 0.06 0.03 0.04 0.08 0.10 0.14 0.21 0.33 0.67 0.73 0.54 0.41 0.41 0.40 0.34
1.87 1.79 1.86 1.91 1.88 2.01 2.36 2.06 1.68 1.64 1.52 1.20 0.97 0.78 0.67 0.60 0.58 0.49 0.28 0.16 0.11 0.09 0.08 0.08 0.10 0.12 0.12 0.12 0.09 0.10 0.12 0.11 0.14 0.18 0.27 0.30 0.41 0.67 0.92 0.91 0.73 0.65 0.61
1.64 1.58 1.46 1.35 1.38 1.41 1.50 1.86 1.88 1.58 1.47 1.49 1.40 1.22 0.98 0.87 0.72 0.77 0.68 0.47 0.40 0.31 0.24 0.22 0.17 0.13 0.11 0.11 0.15 0.22 0.27 0.27 0.36 0.46 0.54 0.57 0.57 0.66 0.75 0.76 0.77 0.79 0.89
1.70 1.62 1.51 1.50 1.34 1.32 1.34 1.44 1.60 1.50 1.29 1.15 1.06 1.08 1.14 1.11 1.06 1.09 1.04 0.77 0.49 0.30 0.21 0.13 0.09 0.08 0.08 0.09 0.13 0.24 0.28 0.31 0.35 0.43 0.54 0.68 0.76 0.71 0.73 0.92 1.31 1.32 1.28
1.50 1.83 1.72 1.67 1.57 1.44 1.35 1.30 1.29 1.37 1.33 1.25 1.19 1.06 1.00 0.93 0.95 0.97 0.98 0.98 0.87 0.53 0.33 0.25 0.19 0.22 0.24 0.25 0.33 0.43 0.35 0.44 0.48 0.61 0.74 0.84 0.89 0.85 0.79 0.88 0.86 0.68 0.62
1.18 1.31 1.40 1.29 1.21 1.12 1.04 1.03 0.98 0.92 1.00 0.98 0.88 0.83 0.78 0.71 0.75 0.75 0.78 0.95 1.34 1.38 0.97 0.66 0.56 0.53 0.55 0.62 0.75 0.70 0.63 0.81 0.89 0.93 0.94 0.96 0.82 0.82 0.73 0.68 0.66 0.44 0.41
0.55 0.68 0.78 0.79 0.84 0.89 0.98 1.01 0.94 0.94 1.01 0.96 0.92 0.94 0.91 0.83 0.83 0.82 0.83 0.88 0.93 1.19 1.27 0.87 0.79 0.82 0.94 1.00 1.15 1.06 1.04 1.18 0.97 0.88 0.87 0.67 0.57 0.48 0.40 0.38 0.37 0.36 0.35
0.08 0.10 0.12 0.15 0.17 0.24 0.40 0.59 0.73 0.89 1.05 1.14 1.36 1.57 1.62 1.64 1.69 1.59 1.55 1.64 1.73 1.76 1.85 1.41 1.13 1.03 0.99 0.97 0.94 0.80 0.78 0.62 0.58 0.68 0.52 0.41 0.30 0.22 0.19 0.17 0.16 0.16 0.18
0.05 0.05 0.06 0.06 0.06 0.10 0.13 0.15 0.17 0.22 0.30 0.40 0.53 0.69 0.76 0.88 1.06 1.20 1.35 1.37 1.52 1.83 2.11 1.71 1.27 1.09 0.90 0.71 0.56 0.42 0.38 0.41 0.44 0.56 0.39 0.21 0.15 0.13 0.13 0.13 0.13 0.12 0.11
0.06 0.05 0.04 0.05 0.06 0.05 0.06 0.08 0.11 0.14 0.20 0.29 0.36 0.41 0.44 0.47 0.52 0.55 0.63 0.77 0.86 0.95 1.10 1.06 0.87 0.76 0.68 0.67 0.69 0.61 0.48 0.36 0.31 0.38 0.22 0.13 0.10 0.08 0.09 0.07 0.06 0.06 0.06
0.05 0.04 0.05 0.05 0.07 0.08 0.10 0.11 0.11 0.11 0.10 0.10 0.13 0.15 0.22 0.31 0.43 0.62 0.86 0.96 0.91 0.79 0.69 0.59 0.53 0.46 0.39 0.38 0.42 0.42 0.39 0.29 0.21 0.18 0.12 0.04 0.02 0.01 0.00 0.00 0.00 0.00 0.00
0.04 0.04 0.08 0.14 0.16 0.17 0.20 0.19 0.19 0.20 0.21 0.25 0.26 0.31 0.37 0.49 0.57 0.53 0.45 0.36 0.37 0.41 0.43 0.47 0.41 0.31 0.27 0.24 0.24 0.23 0.23 0.23 0.24 0.19 0.12 0.04 0.01 0.00 0.00 0.00 0.00 0.00 0.00
0.10 0.10 0.13 0.14 0.17 0.21 0.37 0.31 0.25 0.26 0.29 0.31 0.34 0.37 0.41 0.50 0.40 0.39 0.30 0.26 0.22 0.26 0.25 0.20 0.16 0.11 0.09 0.11 0.15 0.22 0.31 0.39 0.36 0.18 0.14 0.11 0.05 0.01 0.00 0.00 0.00 0.00 0.00
0.15 0.24 0.25 0.20 0.16 0.15 0.29 0.24 0.22 0.20 0.23 0.25 0.25 0.23 0.20 0.19 0.17 0.13 0.19 0.21 0.25 0.23 0.17 0.11 0.08 0.06 0.06 0.06 0.14 0.18 0.16 0.17 0.12 0.07 0.13 0.16 0.13 0.09 0.02 0.00 0.00 0.00 0.00
0.29 0.25 0.27 0.37 0.45 0.54 0.51 0.36 0.28 0.20 0.19 0.17 0.15 0.13 0.09 0.04 0.03 0.03 0.05 0.11 0.08 0.11 0.16 0.18 0.16 0.16 0.18 0.20 0.23 0.26 0.12 0.09 0.08 0.07 0.08 0.09 0.05 0.06 0.04 0.01 0.00 0.00 0.00
0.68 0.77 0.64 0.55 0.66 0.74 0.61 0.47 0.30 0.22 0.18 0.13 0.07 0.02 0.01 0.00 0.03 0.03 0.04 0.02 0.00 0.01 0.09 0.17 0.26 0.36 0.42 0.43 0.32 0.27 0.30 0.29 0.22 0.08 0.04 0.02 0.02 0.03 0.01 0.00 0.00 0.00 0.00
0.68 0.66 0.70 0.57 0.52 0.48 0.35 0.27 0.20 0.12 0.06 0.02 0.00 0.00 0.02 0.01 0.03 0.05 0.04 0.01 0.00 0.01 0.05 0.05 0.08 0.16 0.26 0.32 0.36 0.21 0.16 0.28 0.28 0.33 0.20 0.25 0.11 0.08 0.17 0.01 0.00 0.00 0.00

GFSMA_prec_precacc_105.txt.gz
Total_Precipitation_Accumulation
0.23 0.20 0.25 0.12 0.10 0.10 0.04 0.06 0.02 0.00 0.01 0.00 0.00 0.00 0.00 0.00 0.00 0.00 0.00 0.00 0.00 0.00 0.02 0.06 0.05 0.05 0.10 0.12 0.20 0.17 0.11 0.04 0.01 0.00 0.01 0.00 0.00 0.00 0.00 0.00 0.00 0.00 0.00
0.33 0.40 0.26 0.18 0.13 0.08 0.06 0.03 0.03 0.02 0.01 0.01 0.00 0.00 0.00 0.00 0.00 0.00 0.00 0.00 0.00 0.00 0.00 0.07 0.13 0.12 0.10 0.11 0.16 0.22 0.19 0.10 0.05 0.04 0.02 0.01 0.01 0.01 0.01 0.01 0.01 0.01 0.00
0.35 0.33 0.67 0.45 0.14 0.12 0.15 0.14 0.10 0.10 0.10 0.06 0.01 0.00 0.00 0.00 0.00 0.00 0.00 0.00 0.00 0.00 0.00 0.00 0.03 0.12 0.16 0.16 0.12 0.14 0.24 0.18 0.10 0.13 0.11 0.05 0.01 0.02 0.02 0.03 0.02 0.01 0.01
0.05 0.25 0.29 0.59 0.54 0.37 0.29 0.22 0.20 0.21 0.20 0.17 0.11 0.04 0.00 0.00 0.00 0.00 0.00 0.00 0.00 0.00 0.00 0.00 0.00 0.02 0.08 0.08 0.07 0.12 0.24 0.26 0.15 0.12 0.16 0.13 0.04 0.03 0.04 0.05 0.05 0.03 0.02
0.03 0.06 0.14 0.17 0.29 0.32 0.31 0.31 0.28 0.22 0.19 0.13 0.08 0.05 0.03 0.02 0.00 0.00 0.00 0.02 0.01 0.00 0.00 0.00 0.00 0.00 0.01 0.03 0.06 0.14 0.16 0.20 0.17 0.16 0.18 0.18 0.14 0.10 0.14 0.16 0.11 0.08 0.08
0.20 0.14 0.11 0.13 0.12 0.16 0.17 0.14 0.17 0.19 0.15 0.10 0.10 0.07 0.06 0.04 0.02 0.00 0.01 0.01 0.01 0.01 0.00 0.00 0.00 0.00 0.00 0.01 0.04 0.07 0.12 0.11 0.21 0.23 0.22 0.27 0.30 0.20 0.19 0.20 0.16 0.11 0.10
0.55 0.47 0.35 0.26 0.18 0.09 0.07 0.12 0.16 0.20 0.21 0.26 0.29 0.11 0.04 0.02 0.01 0.00 0.00 0.00 0.00 0.00 0.00 0.00 0.00 0.00 0.00 0.00 0.01 0.06 0.10 0.09 0.16 0.24 0.24 0.24 0.28 0.24 0.29 0.33 0.27 0.23 0.21
0.86 0.64 0.55 0.51 0.38 0.29 0.17 0.22 0.27 0.30 0.22 0.28 0.29 0.15 0.05 0.03 0.02 0.00 0.00 0.00 0.00 0.00 0.00 0.00 0.00 0.00 0.00 0.00 0.00 0.02 0.06 0.09 0.12 0.25 0.34 0.28 0.30 0.40 0.50 0.58 0.42 0.25 0.26
1.18 1.35 1.48 1.15 0.73 0.78 0.87 0.88 0.83 0.78 0.63 0.47 0.38 0.30 0.11 0.03 0.01 0.01 0.01 0.00 0.00 0.00 0.00 0.01 0.01 0.00 0.00 0.00 0.00 0.01 0.02 0.08 0.13 0.18 0.29 0.46 0.59 0.57 0.44 0.34 0.22 0.23 0.24
1.52 1.75 2.08 2.46 2.66 2.26 1.57 1.33 1.28 1.13 1.12 1.03 0.92 0.62 0.48 0.32 0.22 0.10 0.04 0.02 0.02 0.01 0.02 0.02 0.02 0.03 0.07 0.08 0.06 0.07 0.09 0.14 0.12 0.17 0.30 0.41 0.69 0.73 0.54 0.41 0.41 0.40 0.35
1.87 1.79 1.87 1.92 1.91 2.06 2.42 2.12 1.72 1.68 1.56 1.26 1.05 0.81 0.69 0.64 0.62 0.50 0.29 0.16 0.11 0.09 0.08 0.08 0.10 0.12 0.14 0.16 0.17 0.18 0.29 0.31 0.18 0.33 0.39 0.45 0.53 0.70 0.92 0.91 0.73 0.65 0.61
1.64 1.59 1.46 1.36 1.41 1.46 1.56 1.90 1.92 1.62 1.49 1.51 1.44 1.26 1.01 0.91 0.78 0.82 0.73 0.50 0.43 0.33 0.26 0.23 0.19 0.16 0.17 0.18 0.21 0.26 0.29 0.33 0.42 0.53 0.61 0.68 0.71 0.74 0.78 0.77 0.77 0.79 0.89
1.72 1.64 1.53 1.52 1.38 1.39 1.41 1.50 1.66 1.55 1.34 1.18 1.10 1.13 1.20 1.19 1.16 1.20 1.14 0.83 0.55 0.35 0.28 0.16 0.11 0.10 0.09 0.10 0.14 0.26 0.32 0.35 0.39 0.47 0.57 0.74 0.88 0.82 0.79 0.97 1.35 1.33 1.28
1.53 1.86 1.76 1.72 1.73 1.68 1.63 1.59 1.60 1.64 1.55 1.43 1.37 1.19 1.09 1.01 1.05 1.08 1.09 1.09 0.98 0.62 0.39 0.30 0.20 0.23 0.25 0.27 0.36 0.47 0.39 0.47 0.50 0.63 0.78 0.91 1.02 0.98 0.90 0.98 0.99 0.77 0.63
1.18 1.31 1.42 1.33 1.31 1.31 1.25 1.28 1.25 1.17 1.18 1.21 1.12 1.04 0.93 0.78 0.79 0.80 0.86 1.06 1.49 1.52 1.04 0.67 0.58 0.54 0.56 0.63 0.77 0.73 0.65 0.83 0.91 0.95 0.96 1.00 0.89 0.90 0.81 0.76 0.76 0.57 0.45
0.55 0.68 0.79 0.81 0.88 0.92 1.06 1.13 1.09 1.10 1.16 1.17 1.17 1.15 1.09 0.98 0.94 0.89 0.90 0.97 1.06 1.34 1.38 0.89 0.80 0.83 0.97 1.04 1.18 1.09 1.06 1.20 0.98 0.89 0.87 0.69 0.60 0.52 0.46 0.44 0.41 0.40 0.38
0.08 0.10 0.12 0.15 0.17 0.24 0.42 0.63 0.78 0.94 1.11 1.23 1.47 1.69 1.75 1.82 1.93 1.84 1.80 1.86 1.91 1.90 2.01 1.45 1.14 1.06 1.03 1.03 1.02 0.88 0.82 0.64 0.58 0.69 0.55 0.45 0.34 0.28 0.27 0.26 0.24 0.20 0.19
0.05 0.05 0.06 0.06 0.06 0.10 0.13 0.15 0.17 0.22 0.30 0.40 0.55 0.71 0.78 0.94 1.18 1.37 1.56 1.64 1.88 2.23 2.60 2.04 1.44 1.19 1.00 0.78 0.62 0.47 0.41 0.43 0.45 0.60 0.47 0.36 0.29 0.21 0.20 0.20 0.16 0.13 0.12
0.06 0.05 0.04 0.05 0.06 0.05 0.06 0.08 0.11 0.14 0.20 0.29 0.36 0.41 0.44 0.47 0.54 0.58 0.68 0.85 0.98 1.09 1.28 1.22 0.94 0.80 0.71 0.69 0.72 0.65 0.52 0.39 0.33 0.44 0.33 0.30 0.33 0.34 0.26 0.14 0.08 0.07 0.06
0.05 0.04 0.05 0.05 0.07 0.08 0.10 0.11 0.11 0.11 0.10 0.10 0.13 0.15 0.22 0.31 0.43 0.62 0.86 0.96 0.91 0.79 0.70 0.62 0.56 0.46 0.39 0.38 0.42 0.43 0.40 0.31 0.23 0.21 0.20 0.14 0.13 0.10 0.08 0.05 0.01 0.00 0.00
0.04 0.04 0.08 0.14 0.16 0.17 0.20 0.19 0.19 0.20 0.21 0.25 0.26 0.31 0.37 0.49 0.57 0.53 0.45 0.36 0.37 0.41 0.43 0.47 0.42 0.33 0.28 0.25 0.24 0.23 0.24 0.25 0.28 0.22 0.16 0.11 0.07 0.04 0.01 0.01 0.00 0.00 0.00
0.10 0.10 0.13 0.14 0.17 0.21 0.37 0.31 0.25 0.26 0.29 0.31 0.34 0.37 0.41 0.50 0.40 0.39 0.30 0.26 0.22 0.26 0.25 0.20 0.16 0.11 0.09 0.11 0.15 0.22 0.32 0.42 0.41 0.22 0.17 0.16 0.10 0.04 0.01 0.00 0.00 0.00 0.00
0.15 0.24 0.25 0.20 0.16 0.15 0.29 0.24 0.22 0.20 0.23 0.25 0.25 0.23 0.20 0.19 0.17 0.13 0.19 0.21 0.25 0.23 0.18 0.12 0.08 0.06 0.06 0.07 0.14 0.18 0.17 0.18 0.13 0.09 0.20 0.25 0.19 0.14 0.06 0.02 0.00 0.00 0.00
0.29 0.25 0.27 0.37 0.45 0.54 0.51 0.36 0.28 0.20 0.19 0.17 0.15 0.13 0.09 0.04 0.03 0.03 0.05 0.11 0.08 0.11 0.16 0.18 0.16 0.16 0.19 0.21 0.24 0.27 0.14 0.10 0.09 0.08 0.13 0.19 0.13 0.13 0.08 0.06 0.04 0.01 0.00
0.68 0.77 0.64 0.55 0.66 0.74 0.61 0.47 0.30 0.22 0.18 0.13 0.07 0.02 0.01 0.00 0.03 0.03 0.04 0.02 0.00 0.01 0.09 0.17 0.26 0.36 0.43 0.43 0.33 0.29 0.34 0.34 0.26 0.12 0.08 0.08 0.07 0.12 0.10 0.06 0.03 0.01 0.00
0.68 0.66 0.70 0.57 0.52 0.48 0.35 0.27 0.20 0.12 0.06 0.02 0.00 0.00 0.02 0.01 0.03 0.05 0.04 0.01 0.00 0.01 0.05 0.05 0.08 0.16 0.26 0.32 0.36 0.23 0.16 0.31 0.32 0.38 0.26 0.32 0.17 0.13 0.26 0.09 0.06 0.03 0.01

GFSMA_prec_precacc_111.txt.gz
Total_Precipitation_Accumulation
0.23 0.20 0.25 0.13 0.12 0.13 0.09 0.11 0.06 0.03 0.04 0.01 0.00 0.00 0.00 0.00 0.00 0.00 0.00 0.00 0.00 0.00 0.02 0.06 0.07 0.06 0.10 0.12 0.20 0.17 0.11 0.04 0.01 0.00 0.01 0.00 0.00 0.00 0.00 0.00 0.00 0.00 0.00
0.33 0.40 0.26 0.19 0.14 0.09 0.11 0.20 0.17 0.11 0.08 0.10 0.07 0.05 0.01 0.00 0.00 0.00 0.00 0.00 0.00 0.00 0.00 0.07 0.13 0.14 0.12 0.12 0.17 0.22 0.20 0.10 0.05 0.04 0.02 0.01 0.01 0.01 0.01 0.01 0.01 0.01 0.00
0.35 0.33 0.67 0.45 0.14 0.12 0.16 0.18 0.19 0.21 0.20 0.16 0.08 0.09 0.14 0.09 0.02 0.00 0.00 0.00 0.00 0.00 0.00 0.00 0.03 0.12 0.18 0.19 0.16 0.14 0.26 0.21 0.12 0.14 0.12 0.05 0.01 0.02 0.02 0.03 0.02 0.01 0.01
0.07 0.25 0.29 0.59 0.54 0.37 0.29 0.22 0.21 0.23 0.22 0.22 0.20 0.14 0.13 0.14 0.11 0.05 0.02 0.00 0.00 0.00 0.00 0.00 0.00 0.02 0.09 0.09 0.13 0.19 0.33 0.37 0.21 0.16 0.19 0.14 0.04 0.03 0.04 0.05 0.05 0.03 0.02
0.06 0.07 0.14 0.18 0.30 0.32 0.31 0.31 0.29 0.23 0.21 0.17 0.12 0.11 0.14 0.15 0.08 0.06 0.03 0.04 0.02 0.00 0.00 0.00 0.00 0.00 0.01 0.03 0.06 0.15 0.20 0.28 0.27 0.23 0.22 0.20 0.14 0.10 0.14 0.16 0.11 0.08 0.08
0.35 0.22 0.17 0.21 0.15 0.16 0.17 0.14 0.17 0.19 0.15 0.11 0.11 0.08 0.07 0.06 0.05 0.04 0.03 0.03 0.02 0.01 0.00 0.00 0.00 0.00 0.00 0.01 0.04 0.07 0.12 0.16 0.28 0.28 0.25 0.30 0.31 0.20 0.19 0.20 0.16 0.11 0.10
0.75 0.62 0.42 0.28 0.18 0.09 0.07 0.12 0.16 0.20 0.21 0.26 0.31 0.12 0.05 0.03 0.02 0.01 0.01 0.01 0.01 0.00 0.00 0.00 0.00 0.00 0.00 0.00 0.01 0.06 0.10 0.09 0.19 0.29 0.31 0.30 0.31 0.24 0.29 0.33 0.27 0.23 0.21
1.07 0.78 0.61 0.55 0.42 0.31 0.18 0.22 0.27 0.30 0.22 0.30 0.31 0.19 0.09 0.04 0.03 0.01 0.00 0.00 0.00 0.00 0.00 0.00 0.00 0.00 0.00 0.00 0.00 0.02 0.06 0.09 0.14 0.34 0.43 0.33 0.34 0.41 0.50 0.58 0.42 0.25 0.26
1.37 1.42 1.53 1.19 0.75 0.79 0.88 0.88 0.83 0.79 0.64 0.48 0.43 0.40 0.16 0.05 0.02 0.01 0.01 0.00 0.00 0.00 0.00 0.01 0.01 0.00 0.00 0.00 0.00 0.01 0.02 0.08 0.15 0.28 0.46 0.55 0.66 0.59 0.44 0.34 0.22 0.23 0.24
1.62 1.79 2.10 2.46 2.66 2.27 1.58 1.35 1.31 1.19 1.23 1.06 0.99 0.69 0.54 0.36 0.26 0.12 0.04 0.03 0.02 0.01 0.02 0.02 0.02 0.03 0.07 0.08 0.06 0.07 0.09 0.15 0.13 0.21 0.50 0.67 0.92 0.90 0.63 0.43 0.42 0.40 0.35
1.98 1.84 1.88 1.93 1.91 2.07 2.44 2.16 1.75 1.73 1.64 1.35 1.11 0.89 0.78 0.72 0.73 0.63 0.35 0.18 0.13 0.09 0.08 0.08 0.10 0.12 0.14 0.16 0.18 0.19 0.33 0.38 0.23 0.45 0.68 0.85 0.90 1.08 1.27 1.19 0.85 0.67 0.61
1.68 1.60 1.47 1.36 1.41 1.46 1.56 1.92 1.95 1.67 1.57 1.61 1.53 1.35 1.11 1.01 0.85 0.96 0.88 0.58 0.50 0.36 0.26 0.23 0.19 0.16 0.17 0.20 0.24 0.30 0.34 0.38 0.45 0.60 0.72 0.89 1.00 1.12 1.25 1.30 1.23 1.01 0.93
1.72 1.65 1.53 1.53 1.41 1.42 1.46 1.55 1.71 1.64 1.46 1.31 1.26 1.28 1.38 1.38 1.33 1.32 1.26 0.94 0.65 0.43 0.33 0.18 0.11 0.10 0.09 0.10 0.15 0.28 0.34 0.37 0.41 0.55 0.70 0.86 1.03 1.04 1.11 1.45 2.09 2.30 2.03
1.55 1.87 1.77 1.74 1.78 1.73 1.71 1.72 1.76 1.81 1.71 1.62 1.63 1.55 1.49 1.44 1.54 1.64 1.72 1.70 1.52 0.93 0.56 0.41 0.26 0.27 0.28 0.29 0.38 0.51 0.41 0.48 0.51 0.65 0.84 0.99 1.15 1.19 1.21 1.32 1.39 1.39 1.58
1.18 1.31 1.42 1.33 1.32 1.32 1.29 1.37 1.38 1.37 1.49 1.53 1.42 1.35 1.29 1.17 1.25 1.29 1.42 1.65 2.12 2.00 1.24 0.74 0.64 0.60 0.62 0.67 0.81 0.78 0.69 0.86 0.94 0.97 0.99 1.04 0.93 0.95 0.91 0.95 1.05 0.96 1.11
0.55 0.68 0.79 0.81 0.88 0.93 1.07 1.17 1.21 1.29 1.39 1.40 1.42 1.46 1.47 1.40 1.33 1.24 1.18 1.25 1.38 1.71 1.63 0.94 0.82 0.85 1.03 1.19 1.35 1.23 1.10 1.24 1.01 0.90 0.89 0.71 0.61 0.53 0.49 0.50 0.54 0.56 0.64
0.08 0.10 0.12 0.15 0.17 0.24 0.42 0.63 0.79 0.97 1.17 1.32 1.59 1.84 1.95 2.06 2.24 2.19 2.21 2.32 2.42 2.47 2.44 1.60 1.23 1.12 1.09 1.10 1.09 0.99 0.90 0.69 0.61 0.73 0.59 0.47 0.35 0.29 0.29 0.31 0.35 0.36 0.39
0.05 0.05 0.06 0.06 0.06 0.10 0.13 0.15 0.17 0.22 0.30 0.40 0.55 0.71 0.79 0.95 1.21 1.42 1.65 1.81 2.14 2.56 2.96 2.32 1.63 1.43 1.30 1.12 0.94 0.71 0.60 0.59 0.56 0.68 0.58 0.43 0.32 0.22 0.22 0.26 0.26 0.28 0.30
0.06 0.05 0.04 0.05 0.06 0.05 0.06 0.08 0.11 0.14 0.20 0.29 0.36 0.41 0.44 0.47 0.54 0.58 0.69 0.87 1.03 1.18 1.41 1.37 1.07 0.96 0.96 1.07 1.16 1.06 0.89 0.72 0.61 0.72 0.51 0.39 0.36 0.37 0.33 0.23 0.20 0.19 0.19
0.05 0.04 0.05 0.05 0.07 0.08 0.10 0.11 0.11 0.11 0.10 0.10 0.13 0.15 0.22 0.31 0.43 0.62 0.86 0.96 0.92 0.80 0.72 0.65 0.60 0.52 0.49 0.52 0.61 0.62 0.58 0.47 0.37 0.31 0.27 0.18 0.16 0.14 0.16 0.21 0.17 0.13 0.13
0.04 0.04 0.08 0.14 0.16 0.17 0.20 0.19 0.19 0.20 0.21 0.25 0.26 0.31 0.37 0.49 0.57 0.53 0.45 0.36 0.37 0.41 0.43 0.47 0.42 0.33 0.28 0.25 0.26 0.27 0.29 0.32 0.34 0.29 0.20 0.13 0.09 0.07 0.07 0.11 0.14 0.13 0.13
0.10 0.10 0.13 0.14 0.17 0.21 0.37 0.31 0.25 0.26 0.29 0.31 0.34 0.37 0.41 0.50 0.40 0.39 0.30 0.26 0.22 0.26 0.25 0.21 0.16 0.12 0.09 0.11 0.15 0.22 0.32 0.43 0.42 0.26 0.23 0.19 0.13 0.08 0.02 0.02 0.05 0.09 0.11
0.15 0.24 0.25 0.20 0.16 0.15 0.29 0.24 0.22 0.20 0.23 0.25 0.25 0.23 0.20 0.19 0.17 0.13 0.19 0.21 0.25 0.23 0.18 0.12 0.08 0.06 0.07 0.07 0.15 0.19 0.17 0.19 0.14 0.10 0.21 0.28 0.25 0.22 0.12 0.09 0.09 0.06 0.10
0.29 0.25 0.27 0.37 0.45 0.54 0.51 0.36 0.28 0.20 0.19 0.17 0.15 0.13 0.09 0.04 0.03 0.03 0.05 0.11 0.08 0.11 0.16 0.18 0.16 0.16 0.19 0.21 0.24 0.28 0.14 0.11 0.10 0.08 0.14 0.22 0.16 0.21 0.18 0.19 0.24 0.16 0.16
0.68 0.77 0.64 0.55 0.66 0.74 0.61 0.47 0.30 0.22 0.18 0.13 0.07 0.02 0.01 0.00 0.03 0.03 0.04 0.02 0.00 0.01 0.09 0.17 0.26 0.36 0.43 0.43 0.33 0.29 0.34 0.34 0.26 0.13 0.09 0.09 0.09 0.14 0.16 0.16 0.19 0.26 0.26
0.68 0.66 0.70 0.57 0.52 0.48 0.35 0.27 0.20 0.12 0.06 0.02 0.00 0.00 0.02 0.01 0.03 0.05 0.04 0.01 0.01 0.01 0.05 0.05 0.08 0.16 0.26 0.32 0.36 0.23 0.17 0.31 0.33 0.40 0.27 0.33 0.18 0.13 0.27 0.13 0.15 0.21 0.23

GFSMA_prec_precacc_114.txt.gz
Total_Precipitation_Accumulation
0.23 0.21 0.26 0.13 0.12 0.13 0.11 0.15 0.13 0.09 0.04 0.02 0.00 0.00 0.00 0.00 0.00 0.00 0.00 0.00 0.00 0.00 0.02 0.06 0.07 0.06 0.10 0.12 0.20 0.17 0.11 0.04 0.01 0.00 0.01 0.00 0.00 0.00 0.00 0.00 0.00 0.00 0.00
0.33 0.40 0.26 0.19 0.14 0.09 0.14 0.28 0.29 0.27 0.22 0.21 0.13 0.09 0.02 0.01 0.01 0.00 0.00 0.00 0.00 0.00 0.00 0.07 0.14 0.14 0.12 0.12 0.17 0.22 0.20 0.10 0.05 0.04 0.02 0.01 0.01 0.01 0.01 0.01 0.01 0.01 0.01
0.36 0.33 0.67 0.45 0.14 0.13 0.16 0.19 0.21 0.24 0.25 0.28 0.16 0.17 0.21 0.14 0.06 0.03 0.03 0.00 0.00 0.00 0.00 0.01 0.05 0.14 0.19 0.20 0.16 0.15 0.26 0.21 0.12 0.14 0.12 0.05 0.01 0.02 0.02 0.03 0.02 0.01 0.01
0.09 0.27 0.30 0.59 0.54 0.37 0.29 0.22 0.21 0.23 0.22 0.22 0.21 0.15 0.15 0.20 0.16 0.10 0.06 0.03 0.01 0.00 0.00 0.01 0.02 0.04 0.10 0.10 0.13 0.20 0.35 0.38 0.22 0.16 0.19 0.14 0.04 0.03 0.04 0.05 0.05 0.03 0.02
0.12 0.12 0.17 0.24 0.39 0.39 0.32 0.32 0.29 0.23 0.21 0.17 0.13 0.12 0.15 0.15 0.09 0.07 0.05 0.07 0.03 0.00 0.00 0.00 0.00 0.01 0.03 0.03 0.06 0.16 0.22 0.30 0.28 0.24 0.22 0.20 0.14 0.11 0.14 0.16 0.11 0.08 0.08
0.44 0.33 0.26 0.33 0.26 0.23 0.20 0.16 0.18 0.19 0.15 0.11 0.11 0.08 0.07 0.06 0.05 0.04 0.03 0.04 0.03 0.01 0.00 0.00 0.00 0.00 0.00 0.01 0.05 0.07 0.13 0.17 0.31 0.29 0.27 0.31 0.32 0.21 0.20 0.20 0.16 0.11 0.10
0.81 0.73 0.53 0.39 0.29 0.15 0.10 0.14 0.16 0.20 0.21 0.26 0.31 0.13 0.05 0.03 0.02 0.01 0.01 0.01 0.01 0.01 0.00 0.00 0.00 0.00 0.00 0.00 0.02 0.07 0.10 0.10 0.21 0.30 0.32 0.31 0.32 0.26 0.30 0.34 0.27 0.23 0.21
1.13 0.85 0.71 0.68 0.54 0.43 0.28 0.30 0.31 0.31 0.23 0.30 0.32 0.20 0.09 0.04 0.03 0.01 0.00 0.00 0.00 0.00 0.00 0.00 0.00 0.00 0.00 0.00 0.00 0.02 0.07 0.10 0.14 0.35 0.45 0.37 0.38 0.45 0.52 0.58 0.42 0.25 0.26
1.43 1.56 1.84 1.49 0.96 0.96 0.95 0.90 0.84 0.79 0.64 0.48 0.43 0.41 0.17 0.05 0.02 0.01 0.01 0.01 0.00 0.00 0.00 0.01 0.01 0.00 0.00 0.00 0.00 0.01 0.02 0.08 0.15 0.30 0.48 0.57 0.69 0.63 0.47 0.35 0.22 0.24 0.24
1.68 1.85 2.15 2.68 2.96 2.49 1.74 1.41 1.33 1.19 1.23 1.06 0.99 0.70 0.55 0.37 0.27 0.13 0.04 0.03 0.02 0.01 0.02 0.02 0.02 0.03 0.07 0.08 0.06 0.07 0.09 0.15 0.13 0.22 0.53 0.71 0.95 0.92 0.66 0.47 0.44 0.41 0.35
2.02 1.86 1.89 1.96 1.96 2.11 2.49 2.21 1.77 1.73 1.64 1.35 1.11 0.90 0.79 0.74 0.76 0.68 0.36 0.18 0.13 0.09 0.08 0.08 0.10 0.12 0.14 0.16 0.18 0.19 0.33 0.39 0.23 0.47 0.72 0.91 0.95 1.12 1.32 1.27 0.95 0.73 0.63
1.80 1.69 1.51 1.38 1.41 1.46 1.56 1.92 1.95 1.67 1.57 1.61 1.53 1.36 1.14 1.08 0.91 1.02 0.93 0.59 0.51 0.37 0.27 0.23 0.19 0.16 0.17 0.20 0.24 0.30 0.34 0.39 0.46 0.63 0.78 0.96 1.07 1.16 1.28 1.35 1.33 1.18 1.08
1.72 1.65 1.53 1.53 1.41 1.42 1.46 1.55 1.71 1.64 1.46 1.31 1.26 1.29 1.40 1.42 1.39 1.41 1.34 0.99 0.68 0.44 0.33 0.18 0.11 0.10 0.09 0.11 0.16 0.29 0.34 0.38 0.42 0.59 0.75 0.92 1.14 1.15 1.19 1.51 2.16 2.44 2.51
1.55 1.87 1.77 1.74 1.78 1.73 1.71 1.72 1.76 1.81 1.71 1.62 1.63 1.56 1.50 1.46 1.59 1.73 1.84 1.84 1.71 1.12 0.69 0.46 0.29 0.28 0.28 0.29 0.39 0.53 0.42 0.49 0.52 0.66 0.88 1.05 1.26 1.31 1.33 1.43 1.50 1.47 1.71
1.18 1.31 1.42 1.33 1.32 1.32 1.29 1.37 1.38 1.37 1.49 1.53 1.42 1.35 1.29 1.17 1.28 1.40 1.56 1.86 2.35 2.21 1.42 0.89 0.81 0.77 0.73 0.72 0.85 0.80 0.71 0.89 0.97 0.98 1.00 1.06 0.95 0.99 0.96 1.00 1.11 1.03 1.21
0.55 0.68 0.79 0.81 0.88 0.93 1.07 1.17 1.21 1.29 1.39 1.40 1.42 1.46 1.47 1.41 1.38 1.31 1.28 1.39 1.57 1.91 1.76 1.02 0.90 0.94 1.09 1.27 1.56 1.51 1.38 1.46 1.13 0.95 0.90 0.71 0.62 0.55 0.51 0.53 0.57 0.60 0.69
0.08 0.10 0.12 0.15 0.17 0.24 0.42 0.63 0.79 0.97 1.17 1.32 1.59 1.84 1.95 2.06 2.26 2.24 2.29 2.45 2.58 2.67 2.63 1.71 1.32 1.21 1.18 1.19 1.16 1.04 1.04 0.94 0.89 0.99 0.75 0.55 0.40 0.32 0.31 0.32 0.36 0.37 0.40
0.05 0.05 0.06 0.06 0.06 0.10 0.13 0.15 0.17 0.22 0.30 0.40 0.55 0.71 0.79 0.95 1.21 1.42 1.66 1.82 2.16 2.62 3.04 2.41 1.76 1.58 1.44 1.27 1.06 0.80 0.69 0.70 0.68 0.82 0.72 0.58 0.41 0.27 0.26 0.29 0.28 0.29 0.30
0.06 0.05 0.04 0.05 0.06 0.05 0.06 0.08 0.11 0.14 0.20 0.29 0.36 0.41 0.44 0.47 0.54 0.58 0.69 0.87 1.03 1.18 1.42 1.38 1.09 0.99 1.01 1.14 1.23 1.13 0.97 0.85 0.78 0.95 0.75 0.61 0.53 0.48 0.39 0.27 0.23 0.22 0.21
0.05 0.04 0.05 0.05 0.07 0.08 0.10 0.11 0.11 0.11 0.10 0.10 0.13 0.15 0.22 0.31 0.43 0.62 0.86 0.96 0.92 0.80 0.72 0.65 0.60 0.53 0.50 0.53 0.63 0.66 0.63 0.54 0.46 0.42 0.42 0.35 0.35 0.30 0.29 0.29 0.22 0.15 0.15
0.04 0.04 0.08 0.14 0.16 0.17 0.20 0.19 0.19 0.20 0.21 0.25 0.26 0.31 0.37 0.49 0.57 0.53 0.45 0.36 0.37 0.41 0.43 0.47 0.42 0.33 0.28 0.25 0.26 0.28 0.31 0.36 0.41 0.42 0.36 0.28 0.20 0.14 0.12 0.16 0.19 0.17 0.16
0.10 0.10 0.13 0.14 0.17 0.21 0.37 0.31 0.25 0.26 0.29 0.31 0.34 0.37 0.41 0.50 0.40 0.39 0.30 0.26 0.22 0.26 0.25 0.21 0.16 0.12 0.09 0.11 0.15 0.22 0.32 0.43 0.43 0.31 0.30 0.27 0.20 0.14 0.08 0.05 0.08 0.14 0.15
0.15 0.24 0.25 0.20 0.16 0.15 0.29 0.24 0.22 0.20 0.23 0.25 0.25 0.23 0.20 0.19 0.17 0.13 0.19 0.21 0.25 0.23 0.18 0.12 0.08 0.06 0.07 0.07 0.15 0.19 0.17 0.19 0.14 0.10 0.22 0.30 0.28 0.26 0.15 0.12 0.12 0.09 0.14
0.29 0.25 0.27 0.37 0.45 0.54 0.51 0.36 0.28 0.20 0.19 0.17 0.15 0.13 0.09 0.04 0.03 0.03 0.05 0.11 0.08 0.11 0.16 0.18 0.16 0.16 0.19 0.21 0.24 0.28 0.14 0.11 0.10 0.08 0.14 0.22 0.16 0.22 0.19 0.19 0.24 0.17 0.19
0.68 0.77 0.64 0.55 0.66 0.74 0.61 0.47 0.30 0.22 0.18 0.13 0.07 0.02 0.01 0.00 0.03 0.03 0.04 0.02 0.00 0.01 0.09 0.17 0.26 0.36 0.43 0.43 0.33 0.29 0.34 0.34 0.26 0.13 0.09 0.09 0.09 0.14 0.16 0.16 0.19 0.26 0.26
0.68 0.66 0.70 0.57 0.52 0.48 0.35 0.27 0.20 0.12 0.06 0.02 0.00 0.00 0.02 0.01 0.03 0.06 0.05 0.02 0.01 0.01 0.05 0.05 0.08 0.16 0.26 0.32 0.36 0.23 0.17 0.31 0.33 0.40 0.27 0.33 0.18 0.13 0.27 0.13 0.15 0.21 0.23

GFSMA_prec_precacc_117.txt.gz
Total_Precipitation_Accumulation
0.24 0.21 0.26 0.14 0.13 0.17 0.13 0.16 0.15 0.17 0.12 0.05 0.00 0.00 0.00 0.00 0.00 0.00 0.00 0.00 0.00 0.00 0.02 0.07 0.08 0.07 0.11 0.12 0.20 0.17 0.11 0.04 0.01 0.00 0.01 0.00 0.00 0.00 0.00 0.00 0.00 0.00 0.00
0.33 0.40 0.26 0.19 0.14 0.10 0.17 0.31 0.34 0.36 0.29 0.24 0.16 0.13 0.05 0.05 0.05 0.04 0.02 0.00 0.00 0.00 0.01 0.09 0.16 0.17 0.14 0.12 0.17 0.22 0.20 0.10 0.05 0.04 0.02 0.01 0.01 0.01 0.01 0.01 0.01 0.01 0.01
0.37 0.34 0.67 0.45 0.14 0.13 0.17 0.22 0.25 0.30 0.29 0.34 0.18 0.21 0.25 0.19 0.10 0.08 0.09 0.05 0.02 0.01 0.00 0.04 0.10 0.17 0.21 0.21 0.17 0.15 0.26 0.21 0.12 0.14 0.12 0.05 0.02 0.02 0.02 0.03 0.02 0.01 0.01
0.09 0.28 0.30 0.60 0.57 0.38 0.29 0.23 0.25 0.30 0.25 0.26 0.22 0.15 0.15 0.20 0.16 0.10 0.06 0.03 0.02 0.01 0.01 0.01 0.05 0.08 0.14 0.12 0.14 0.22 0.37 0.38 0.22 0.16 0.19 0.14 0.04 0.03 0.04 0.05 0.05 0.03 0.02
0.12 0.13 0.18 0.26 0.43 0.45 0.38 0.36 0.30 0.24 0.22 0.18 0.13 0.12 0.15 0.15 0.09 0.07 0.05 0.07 0.03 0.00 0.00 0.00 0.00 0.02 0.05 0.06 0.07 0.16 0.24 0.31 0.29 0.24 0.22 0.20 0.15 0.12 0.15 0.16 0.11 0.08 0.08
0.45 0.34 0.28 0.39 0.33 0.29 0.28 0.21 0.20 0.21 0.16 0.11 0.11 0.08 0.07 0.06 0.05 0.04 0.03 0.04 0.03 0.01 0.00 0.00 0.00 0.00 0.00 0.02 0.07 0.09 0.14 0.19 0.32 0.30 0.27 0.31 0.32 0.22 0.21 0.22 0.16 0.11 0.10
0.81 0.73 0.54 0.43 0.35 0.24 0.18 0.19 0.20 0.24 0.25 0.30 0.32 0.13 0.05 0.03 0.02 0.01 0.01 0.01 0.01 0.01 0.00 0.00 0.00 0.00 0.00 0.00 0.02 0.08 0.12 0.13 0.23 0.32 0.33 0.32 0.33 0.27 0.31 0.36 0.29 0.23 0.21
1.13 0.85 0.71 0.69 0.57 0.53 0.44 0.46 0.41 0.40 0.31 0.32 0.32 0.20 0.09 0.04 0.03 0.01 0.00 0.00 0.00 0.00 0.00 0.00 0.00 0.00 0.00 0.00 0.00 0.02 0.07 0.12 0.16 0.38 0.47 0.39 0.39 0.46 0.53 0.60 0.44 0.26 0.27
1.43 1.56 1.85 1.55 1.00 1.02 1.14 1.21 1.23 1.12 0.86 0.56 0.44 0.42 0.18 0.05 0.02 0.01 0.01 0.01 0.00 0.00 0.00 0.01 0.01 0.00 0.00 0.00 0.00 0.01 0.02 0.09 0.17 0.32 0.50 0.59 0.72 0.65 0.48 0.36 0.24 0.27 0.27
1.69 1.86 2.15 2.74 3.21 2.75 1.92 1.61 1.53 1.37 1.41 1.21 1.07 0.74 0.57 0.38 0.28 0.13 0.04 0.03 0.02 0.02 0.03 0.02 0.02 0.03 0.07 0.08 0.06 0.07 0.09 0.15 0.13 0.25 0.56 0.74 0.99 0.95 0.69 0.50 0.46 0.44 0.38
2.02 1.86 1.89 1.96 1.98 2.17 2.62 2.35 1.90 1.82 1.70 1.40 1.16 0.93 0.80 0.74 0.76 0.69 0.37 0.19 0.14 0.09 0.09 0.09 0.10 0.12 0.14 0.16 0.18 0.19 0.33 0.39 0.23 0.48 0.75 0.95 0.99 1.17 1.38 1.33 0.98 0.75 0.65
1.80 1.70 1.52 1.38 1.41 1.46 1.56 1.92 1.95 1.68 1.57 1.61 1.53 1.36 1.14 1.08 0.92 1.03 0.94 0.59 0.51 0.37 0.27 0.24 0.20 0.16 0.17 0.20 0.24 0.30 0.34 0.39 0.47 0.64 0.79 0.99 1.11 1.21 1.34 1.42 1.39 1.22 1.12
1.72 1.65 1.53 1.53 1.41 1.42 1.46 1.55 1.71 1.64 1.46 1.31 1.26 1.29 1.40 1.42 1.39 1.42 1.36 1.00 0.68 0.44 0.33 0.19 0.12 0.13 0.15 0.14 0.17 0.30 0.34 0.38 0.42 0.59 0.75 0.93 1.17 1.20 1.25 1.58 2.24 2.51 2.57
1.55 1.87 1.77 1.74 1.78 1.73 1.71 1.72 1.76 1.81 1.71 1.62 1.63 1.56 1.50 1.46 1.59 1.75 1.86 1.86 1.72 1.12 0.69 0.47 0.32 0.37 0.39 0.37 0.46 0.59 0.43 0.50 0.52 0.66 0.88 1.07 1.28 1.33 1.36 1.48 1.58 1.61 1.88
1.18 1.31 1.42 1.33 1.32 1.32 1.29 1.37 1.38 1.37 1.49 1.53 1.42 1.35 1.29 1.17 1.28 1.40 1.57 1.88 2.39 2.23 1.42 0.92 0.89 0.88 0.88 0.89 1.03 0.92 0.77 0.93 0.98 0.98 1.01 1.07 0.96 1.00 0.98 1.02 1.14 1.08 1.29
0.55 0.68 0.79 0.81 0.88 0.93 1.07 1.17 1.21 1.29 1.39 1.40 1.42 1.46 1.47 1.41 1.38 1.31 1.28 1.40 1.59 1.96 1.82 1.04 0.94 0.99 1.14 1.32 1.68 1.65 1.57 1.69 1.25 1.05 1.00 0.79 0.68 0.59 0.54 0.56 0.59 0.62 0.72
0.08 0.10 0.12 0.15 0.17 0.24 0.42 0.63 0.79 0.97 1.17 1.32 1.59 1.84 1.95 2.06 2.26 2.24 2.29 2.45 2.58 2.68 2.66 1.72 1.37 1.27 1.25 1.24 1.20 1.08 1.12 1.10 1.15 1.27 0.98 0.75 0.56 0.43 0.38 0.37 0.39 0.39 0.41
0.05 0.05 0.06 0.06 0.06 0.10 0.13 0.15 0.17 0.22 0.30 0.40 0.55 0.71 0.79 0.95 1.21 1.42 1.66 1.82 2.16 2.62 3.05 2.42 1.77 1.61 1.48 1.33 1.12 0.86 0.75 0.78 0.81 1.09 1.01 0.83 0.74 0.60 0.47 0.36 0.31 0.30 0.31
0.06 0.05 0.04 0.05 0.06 0.05 0.06 0.08 0.11 0.14 0.20 0.29 0.36 0.41 0.44 0.47 0.54 0.58 0.69 0.87 1.03 1.18 1.42 1.38 1.09 1.00 1.02 1.15 1.25 1.17 1.03 0.93 0.84 1.06 0.88 0.79 0.81 0.76 0.65 0.47 0.34 0.28 0.25
0.05 0.04 0.05 0.05 0.07 0.08 0.10 0.11 0.11 0.11 0.10 0.10 0.13 0.15 0.22 0.31 0.43 0.62 0.86 0.96 0.92 0.80 0.72 0.65 0.60 0.53 0.50 0.54 0.64 0.68 0.65 0.57 0.48 0.48 0.52 0.47 0.50 0.47 0.47 0.46 0.35 0.25 0.22
0.04 0.04 0.08 0.14 0.16 0.17 0.20 0.19 0.19 0.20 0.21 0.25 0.26 0.31 0.37 0.49 0.57 0.53 0.45 0.36 0.37 0.41 0.43 0.47 0.42 0.33 0.28 0.25 0.26 0.29 0.32 0.38 0.43 0.48 0.39 0.31 0.24 0.18 0.19 0.27 0.32 0.35 0.33
0.10 0.10 0.13 0.14 0.17 0.21 0.37 0.31 0.25 0.26 0.29 0.31 0.34 0.37 0.41 0.50 0.40 0.39 0.30 0.26 0.22 0.26 0.25 0.21 0.16 0.12 0.09 0.11 0.15 0.22 0.32 0.43 0.44 0.31 0.31 0.28 0.23 0.18 0.12 0.10 0.18 0.26 0.28
0.15 0.24 0.25 0.20 0.16 0.15 0.29 0.24 0.22 0.20 0.23 0.25 0.25 0.23 0.20 0.19 0.17 0.13 0.19 0.21 0.25 0.23 0.18 0.12 0.08 0.06 0.07 0.07 0.15 0.19 0.17 0.19 0.14 0.10 0.22 0.30 0.29 0.27 0.20 0.21 0.21 0.14 0.21
0.29 0.25 0.27 0.37 0.45 0.54 0.51 0.36 0.28 0.20 0.19 0.17 0.15 0.13 0.09 0.04 0.03 0.03 0.05 0.11 0.08 0.11 0.16 0.18 0.16 0.16 0.19 0.21 0.25 0.28 0.14 0.11 0.10 0.08 0.14 0.22 0.16 0.22 0.19 0.22 0.30 0.25 0.26
0.68 0.77 0.64 0.55 0.66 0.74 0.61 0.47 0.30 0.22 0.18 0.13 0.07 0.02 0.01 0.00 0.03 0.03 0.04 0.02 0.00 0.01 0.09 0.17 0.26 0.36 0.43 0.43 0.33 0.30 0.34 0.34 0.26 0.13 0.09 0.09 0.09 0.14 0.16 0.16 0.19 0.28 0.31
0.68 0.66 0.70 0.57 0.52 0.48 0.35 0.27 0.20 0.12 0.06 0.02 0.00 0.00 0.02 0.01 0.03 0.06 0.05 0.02 0.01 0.01 0.05 0.05 0.08 0.16 0.26 0.32 0.36 0.23 0.17 0.31 0.33 0.40 0.27 0.33 0.18 0.13 0.27 0.13 0.15 0.22 0.24

GFSMA_prec_precacc_120.txt.gz
Total_Precipitation_Accumulation
0.24 0.21 0.26 0.14 0.13 0.18 0.16 0.21 0.18 0.20 0.17 0.17 0.12 0.04 0.01 0.01 0.00 0.00 0.00 0.00 0.00 0.00 0.02 0.07 0.09 0.09 0.14 0.13 0.21 0.17 0.11 0.04 0.01 0.00 0.01 0.00 0.00 0.00 0.00 0.00 0.00 0.00 0.00
0.33 0.40 0.26 0.19 0.14 0.10 0.18 0.37 0.40 0.40 0.36 0.32 0.20 0.17 0.08 0.08 0.08 0.08 0.04 0.02 0.01 0.00 0.01 0.09 0.16 0.18 0.17 0.15 0.19 0.24 0.20 0.11 0.05 0.04 0.03 0.02 0.01 0.01 0.01 0.01 0.01 0.01 0.01
0.37 0.34 0.67 0.45 0.14 0.13 0.17 0.23 0.29 0.35 0.33 0.42 0.25 0.29 0.35 0.28 0.19 0.13 0.11 0.07 0.06 0.03 0.01 0.04 0.10 0.21 0.26 0.23 0.20 0.18 0.29 0.22 0.12 0.14 0.12 0.05 0.02 0.02 0.03 0.03 0.02 0.01 0.01
0.09 0.28 0.30 0.60 0.57 0.38 0.30 0.23 0.26 0.31 0.28 0.32 0.29 0.22 0.20 0.22 0.17 0.10 0.06 0.04 0.02 0.02 0.02 0.02 0.06 0.10 0.17 0.14 0.16 0.25 0.41 0.39 0.22 0.16 0.19 0.14 0.04 0.03 0.05 0.05 0.05 0.03 0.02
0.12 0.13 0.18 0.26 0.43 0.45 0.39 0.37 0.32 0.26 0.23 0.20 0.15 0.13 0.15 0.15 0.09 0.07 0.05 0.07 0.03 0.00 0.00 0.00 0.00 0.02 0.05 0.07 0.09 0.18 0.27 0.34 0.31 0.25 0.22 0.20 0.15 0.12 0.15 0.17 0.12 0.08 0.08
0.45 0.34 0.28 0.39 0.33 0.30 0.31 0.26 0.26 0.28 0.22 0.14 0.13 0.09 0.08 0.06 0.05 0.04 0.03 0.04 0.03 0.01 0.00 0.00 0.00 0.00 0.00 0.02 0.08 0.10 0.17 0.22 0.36 0.33 0.29 0.31 0.33 0.22 0.21 0.22 0.18 0.13 0.11
0.81 0.73 0.54 0.43 0.35 0.25 0.22 0.22 0.25 0.32 0.37 0.43 0.40 0.16 0.07 0.04 0.03 0.01 0.01 0.01 0.01 0.01 0.00 0.00 0.00 0.00 0.00 0.00 0.02 0.08 0.13 0.15 0.26 0.36 0.38 0.34 0.34 0.29 0.33 0.37 0.30 0.25 0.24
1.13 0.85 0.71 0.69 0.58 0.54 0.45 0.49 0.49 0.48 0.45 0.59 0.52 0.29 0.11 0.05 0.03 0.01 0.00 0.00 0.00 0.00 0.00 0.00 0.00 0.00 0.00 0.00 0.00 0.02 0.08 0.14 0.18 0.40 0.51 0.43 0.43 0.48 0.55 0.62 0.46 0.29 0.29
1.43 1.56 1.86 1.55 1.01 1.02 1.15 1.22 1.28 1.27 1.06 0.82 0.72 0.69 0.38 0.15 0.05 0.01 0.01 0.01 0.00 0.00 0.00 0.01 0.01 0.00 0.00 0.00 0.00 0.01 0.02 0.10 0.18 0.34 0.52 0.62 0.75 0.69 0.52 0.40 0.27 0.30 0.29
1.69 1.86 2.15 2.74 3.21 2.75 1.93 1.63 1.54 1.38 1.43 1.29 1.25 0.97 0.79 0.54 0.35 0.15 0.04 0.03 0.02 0.02 0.03 0.03 0.02 0.03 0.07 0.08 0.06 0.07 0.09 0.15 0.13 0.26 0.58 0.76 1.02 0.99 0.74 0.55 0.51 0.48 0.41
2.02 1.86 1.89 1.96 1.98 2.17 2.63 2.40 1.95 1.84 1.71 1.41 1.16 0.94 0.84 0.80 0.81 0.70 0.37 0.19 0.14 0.09 0.09 0.09 0.10 0.13 0.15 0.18 0.20 0.21 0.34 0.39 0.23 0.48 0.75 1.00 1.02 1.21 1.42 1.39 1.05 0.80 0.69
1.80 1.70 1.52 1.38 1.41 1.46 1.56 1.92 1.95 1.68 1.57 1.61 1.53 1.36 1.14 1.08 0.92 1.03 0.94 0.59 0.51 0.37 0.27 0.24 0.20 0.17 0.20 0.23 0.26 0.33 0.35 0.39 0.47 0.64 0.80 1.03 1.17 1.25 1.39 1.48 1.45 1.28 1.17
1.72 1.65 1.53 1.53 1.41 1.42 1.46 1.55 1.71 1.64 1.46 1.31 1.26 1.29 1.40 1.42 1.39 1.42 1.36 1.00 0.68 0.44 0.33 0.19 0.12 0.14 0.16 0.15 0.19 0.35 0.36 0.38 0.43 0.60 0.76 0.95 1.22 1.27 1.31 1.63 2.31 2.60 2.65
1.55 1.87 1.77 1.74 1.78 1.73 1.71 1.72 1.76 1.81 1.71 1.62 1.63 1.56 1.50 1.46 1.59 1.75 1.86 1.86 1.72 1.12 0.69 0.47 0.32 0.37 0.39 0.38 0.48 0.62 0.45 0.53 0.55 0.68 0.89 1.08 1.30 1.36 1.41 1.53 1.62 1.67 1.99
1.18 1.31 1.42 1.33 1.32 1.32 1.29 1.37 1.38 1.37 1.49 1.53 1.42 1.35 1.29 1.17 1.28 1.40 1.57 1.88 2.40 2.23 1.42 0.92 0.89 0.88 0.88 0.90 1.06 0.95 0.78 0.99 1.04 1.02 1.03 1.08 0.96 1.01 0.99 1.05 1.18 1.12 1.35
0.55 0.68 0.79 0.81 0.88 0.93 1.07 1.17 1.21 1.29 1.39 1.40 1.42 1.46 1.47 1.41 1.38 1.31 1.28 1.40 1.59 1.96 1.82 1.04 0.94 0.99 1.15 1.34 1.72 1.70 1.61 1.81 1.42 1.20 1.12 0.90 0.74 0.62 0.56 0.58 0.62 0.64 0.76
0.08 0.10 0.12 0.15 0.17 0.24 0.42 0.63 0.79 0.97 1.17 1.32 1.59 1.84 1.95 2.06 2.26 2.24 2.29 2.45 2.58 2.69 2.66 1.72 1.37 1.27 1.25 1.25 1.24 1.14 1.19 1.17 1.24 1.43 1.18 0.96 0.75 0.60 0.48 0.45 0.44 0.43 0.45
0.05 0.05 0.06 0.06 0.06 0.10 0.13 0.15 0.17 0.22 0.30 0.40 0.55 0.71 0.79 0.95 1.21 1.42 1.66 1.82 2.16 2.62 3.05 2.42 1.77 1.61 1.48 1.33 1.12 0.87 0.80 0.85 0.88 1.19 1.16 1.05 0.96 0.81 0.70 0.66 0.56 0.48 0.41
0.06 0.05 0.04 0.05 0.06 0.05 0.06 0.08 0.11 0.14 0.20 0.29 0.36 0.41 0.44 0.47 0.54 0.58 0.69 0.87 1.03 1.18 1.42 1.38 1.09 1.00 1.02 1.15 1.25 1.17 1.04 0.95 0.88 1.14 1.05 1.01 1.04 0.97 0.88 0.81 0.79 0.77 0.62
0.05 0.04 0.05 0.05 0.07 0.08 0.10 0.11 0.11 0.11 0.10 0.10 0.13 0.15 0.22 0.31 0.43 0.62 0.86 0.96 0.92 0.80 0.72 0.65 0.60 0.53 0.50 0.54 0.64 0.68 0.65 0.57 0.49 0.50 0.57 0.57 0.64 0.65 0.69 0.72 0.63 0.57 0.59
0.04 0.04 0.08 0.14 0.16 0.17 0.20 0.19 0.19 0.20 0.21 0.25 0.26 0.31 0.37 0.49 0.57 0.53 0.45 0.36 0.37 0.41 0.43 0.47 0.42 0.33 0.28 0.25 0.26 0.29 0.32 0.38 0.44 0.49 0.41 0.33 0.27 0.23 0.28 0.40 0.52 0.60 0.56
0.10 0.10 0.13 0.14 0.17 0.21 0.37 0.31 0.25 0.26 0.29 0.31 0.34 0.37 0.41 0.50 0.40 0.39 0.30 0.26 0.22 0.26 0.25 0.21 0.16 0.12 0.09 0.11 0.15 0.22 0.32 0.43 0.44 0.32 0.32 0.30 0.26 0.21 0.15 0.15 0.27 0.39 0.46
0.15 0.24 0.25 0.20 0.16 0.15 0.29 0.24 0.22 0.20 0.23 0.25 0.25 0.23 0.20 0.19 0.17 0.13 0.19 0.21 0.25 0.23 0.18 0.12 0.08 0.06 0.07 0.07 0.15 0.19 0.17 0.19 0.14 0.10 0.22 0.30 0.29 0.30 0.22 0.23 0.24 0.18 0.29
0.29 0.25 0.27 0.37 0.45 0.54 0.51 0.36 0.28 0.20 0.19 0.17 0.15 0.13 0.09 0.04 0.03 0.03 0.05 0.11 0.08 0.11 0.16 0.18 0.16 0.16 0.19 0.21 0.25 0.29 0.15 0.11 0.10 0.08 0.14 0.22 0.16 0.22 0.20 0.22 0.31 0.27 0.30
0.68 0.77 0.64 0.55 0.66 0.74 0.61 0.47 0.30 0.22 0.18 0.13 0.07 0.02 0.01 0.00 0.03 0.03 0.04 0.02 0.00 0.01 0.09 0.17 0.26 0.36 0.43 0.44 0.34 0.30 0.34 0.34 0.27 0.13 0.09 0.10 0.09 0.14 0.16 0.17 0.20 0.29 0.31
0.68 0.66 0.70 0.57 0.52 0.48 0.35 0.27 0.20 0.12 0.06 0.02 0.00 0.00 0.02 0.01 0.03 0.06 0.05 0.02 0.01 0.01 0.05 0.05 0.08 0.16 0.26 0.32 0.36 0.23 0.17 0.31 0.33 0.40 0.27 0.33 0.18 0.13 0.28 0.13 0.15 0.22 0.24

GFSMA_prec_precacc_123.txt.gz
Total_Precipitation_Accumulation
0.24 0.21 0.26 0.14 0.13 0.18 0.16 0.21 0.19 0.20 0.18 0.20 0.17 0.13 0.10 0.09 0.06 0.02 0.00 0.00 0.00 0.00 0.02 0.07 0.09 0.09 0.15 0.17 0.24 0.20 0.12 0.05 0.01 0.00 0.01 0.00 0.00 0.00 0.00 0.00 0.00 0.00 0.00
0.33 0.40 0.26 0.19 0.14 0.10 0.18 0.37 0.40 0.41 0.37 0.32 0.22 0.22 0.15 0.14 0.15 0.15 0.09 0.05 0.02 0.00 0.01 0.09 0.16 0.18 0.17 0.16 0.22 0.28 0.23 0.12 0.06 0.05 0.03 0.02 0.01 0.01 0.01 0.01 0.01 0.01 0.01
0.37 0.34 0.67 0.45 0.14 0.13 0.17 0.23 0.29 0.35 0.33 0.43 0.27 0.31 0.37 0.33 0.27 0.19 0.15 0.07 0.08 0.06 0.03 0.05 0.11 0.22 0.32 0.31 0.25 0.23 0.33 0.25 0.15 0.15 0.12 0.05 0.02 0.03 0.03 0.03 0.02 0.01 0.01
0.09 0.28 0.30 0.60 0.57 0.38 0.30 0.24 0.26 0.32 0.28 0.33 0.31 0.24 0.22 0.26 0.20 0.12 0.08 0.05 0.04 0.05 0.03 0.03 0.06 0.10 0.18 0.17 0.18 0.29 0.46 0.46 0.30 0.21 0.21 0.15 0.05 0.03 0.05 0.06 0.06 0.03 0.03
0.12 0.13 0.18 0.26 0.43 0.45 0.40 0.38 0.33 0.28 0.26 0.27 0.20 0.19 0.20 0.18 0.11 0.09 0.05 0.08 0.03 0.00 0.00 0.00 0.00 0.02 0.05 0.07 0.09 0.19 0.29 0.39 0.40 0.36 0.31 0.26 0.18 0.13 0.15 0.17 0.12 0.08 0.08
0.45 0.34 0.28 0.39 0.33 0.30 0.31 0.27 0.26 0.30 0.25 0.19 0.16 0.13 0.13 0.12 0.09 0.08 0.06 0.05 0.03 0.01 0.00 0.00 0.00 0.00 0.00 0.02 0.08 0.10 0.18 0.25 0.40 0.41 0.38 0.40 0.40 0.26 0.22 0.23 0.18 0.13 0.12
0.81 0.73 0.54 0.43 0.35 0.25 0.22 0.22 0.25 0.32 0.39 0.46 0.45 0.23 0.15 0.14 0.10 0.07 0.04 0.02 0.01 0.01 0.00 0.00 0.00 0.00 0.00 0.00 0.02 0.08 0.13 0.15 0.28 0.40 0.42 0.40 0.41 0.35 0.38 0.40 0.31 0.26 0.24
1.13 0.85 0.71 0.69 0.58 0.54 0.45 0.50 0.49 0.48 0.46 0.60 0.56 0.37 0.19 0.13 0.11 0.06 0.02 0.02 0.00 0.00 0.00 0.00 0.00 0.00 0.00 0.00 0.00 0.02 0.08 0.14 0.19 0.42 0.53 0.46 0.47 0.52 0.60 0.66 0.48 0.30 0.30
1.43 1.56 1.86 1.55 1.01 1.02 1.15 1.22 1.28 1.27 1.06 0.82 0.73 0.71 0.41 0.19 0.09 0.03 0.04 0.04 0.02 0.01 0.00 0.01 0.01 0.00 0.00 0.00 0.00 0.01 0.03 0.10 0.18 0.35 0.53 0.64 0.78 0.72 0.57 0.45 0.32 0.34 0.32
1.69 1.86 2.15 2.74 3.21 2.75 1.93 1.63 1.54 1.38 1.43 1.29 1.25 0.98 0.82 0.58 0.38 0.16 0.05 0.06 0.06 0.05 0.06 0.06 0.03 0.04 0.07 0.09 0.07 0.09 0.10 0.16 0.14 0.26 0.60 0.78 1.04 1.01 0.77 0.59 0.57 0.54 0.45
2.02 1.86 1.89 1.96 1.98 2.17 2.63 2.40 1.95 1.84 1.71 1.41 1.16 0.94 0.84 0.80 0.81 0.70 0.37 0.19 0.14 0.09 0.09 0.09 0.10 0.13 0.15 0.18 0.20 0.22 0.35 0.39 0.23 0.49 0.77 1.02 1.06 1.25 1.47 1.43 1.10 0.86 0.75
1.80 1.70 1.52 1.38 1.41 1.46 1.56 1.92 1.95 1.68 1.57 1.61 1.53 1.36 1.14 1.08 0.92 1.03 0.94 0.59 0.51 0.37 0.27 0.24 0.20 0.17 0.20 0.23 0.26 0.33 0.35 0.39 0.47 0.64 0.81 1.05 1.20 1.29 1.44 1.54 1.51 1.35 1.25
1.72 1.65 1.53 1.53 1.41 1.42 1.46 1.55 1.71 1.64 1.46 1.31 1.26 1.29 1.40 1.42 1.39 1.42 1.36 1.00 0.68 0.44 0.33 0.19 0.12 0.14 0.16 0.15 0.19 0.35 0.36 0.39 0.43 0.60 0.76 0.97 1.25 1.30 1.36 1.68 2.36 2.66 2.73
1.55 1.87 1.77 1.74 1.78 1.73 1.71 1.72 1.76 1.81 1.71 1.62 1.63 1.56 1.50 1.46 1.59 1.75 1.86 1.86 1.72 1.12 0.69 0.47 0.32 0.37 0.39 0.38 0.48 0.62 0.45 0.54 0.55 0.69 0.89 1.09 1.31 1.37 1.42 1.55 1.66 1.72 2.05
1.18 1.31 1.42 1.33 1.32 1.32 1.29 1.37 1.38 1.37 1.49 1.53 1.42 1.35 1.29 1.17 1.28 1.40 1.57 1.88 2.40 2.23 1.42 0.92 0.89 0.88 0.88 0.90 1.06 0.95 0.78 0.99 1.05 1.03 1.04 1.10 0.98 1.02 1.00 1.06 1.19 1.13 1.36
0.55 0.68 0.79 0.81 0.88 0.93 1.07 1.17 1.21 1.29 1.39 1.40 1.42 1.46 1.47 1.41 1.38 1.31 1.28 1.40 1.59 1.96 1.82 1.04 0.94 0.99 1.15 1.34 1.72 1.70 1.61 1.81 1.43 1.21 1.14 0.93 0.79 0.66 0.59 0.61 0.65 0.66 0.76
0.08 0.10 0.12 0.15 0.17 0.24 0.42 0.63 0.79 0.97 1.17 1.32 1.59 1.84 1.95 2.06 2.26 2.24 2.29 2.45 2.58 2.69 2.66 1.72 1.37 1.27 1.25 1.25 1.24 1.14 1.19 1.17 1.25 1.45 1.23 1.09 0.87 0.70 0.63 0.57 0.53 0.49 0.48
0.05 0.05 0.06 0.06 0.06 0.10 0.13 0.15 0.17 0.22 0.30 0.40 0.55 0.71 0.79 0.95 1.21 1.42 1.66 1.82 2.16 2.62 3.05 2.42 1.77 1.61 1.48 1.33 1.12 0.87 0.80 0.85 0.89 1.20 1.20 1.13 1.04 0.94 0.92 0.92 0.79 0.66 0.55
0.06 0.05 0.04 0.05 0.06 0.05 0.06 0.08 0.11 0.14 0.20 0.29 0.36 0.41 0.44 0.47 0.54 0.58 0.69 0.87 1.03 1.18 1.42 1.38 1.09 1.00 1.02 1.15 1.25 1.17 1.04 0.95 0.88 1.15 1.06 1.04 1.08 1.05 0.96 0.90 0.91 0.93 0.90
0.05 0.04 0.05 0.05 0.07 0.08 0.10 0.11 0.11 0.11 0.10 0.10 0.13 0.15 0.22 0.31 0.43 0.62 0.86 0.96 0.92 0.80 0.72 0.65 0.60 0.53 0.50 0.54 0.64 0.68 0.65 0.57 0.49 0.50 0.57 0.57 0.65 0.69 0.78 0.81 0.73 0.69 0.74
0.04 0.04 0.08 0.14 0.16 0.17 0.20 0.19 0.19 0.20 0.21 0.25 0.26 0.31 0.37 0.49 0.57 0.53 0.45 0.36 0.37 0.41 0.43 0.47 0.42 0.33 0.28 0.25 0.26 0.29 0.32 0.38 0.44 0.49 0.41 0.33 0.27 0.23 0.28 0.43 0.58 0.71 0.72
0.10 0.10 0.13 0.14 0.17 0.21 0.37 0.31 0.25 0.26 0.29 0.31 0.34 0.37 0.41 0.50 0.40 0.39 0.30 0.26 0.22 0.26 0.25 0.21 0.16 0.12 0.09 0.11 0.15 0.22 0.32 0.44 0.44 0.32 0.32 0.30 0.26 0.21 0.16 0.16 0.28 0.41 0.53
0.15 0.24 0.25 0.20 0.16 0.15 0.29 0.24 0.22 0.20 0.23 0.25 0.25 0.23 0.20 0.19 0.17 0.13 0.19 0.21 0.25 0.23 0.18 0.12 0.08 0.06 0.07 0.07 0.15 0.20 0.18 0.20 0.15 0.10 0.22 0.30 0.29 0.30 0.22 0.24 0.25 0.23 0.33
0.29 0.25 0.27 0.37 0.45 0.54 0.51 0.36 0.28 0.20 0.19 0.17 0.15 0.13 0.09 0.04 0.03 0.03 0.05 0.11 0.08 0.11 0.16 0.18 0.16 0.16 0.19 0.21 0.26 0.30 0.16 0.12 0.10 0.08 0.14 0.22 0.16 0.22 0.20 0.22 0.32 0.30 0.33
0.68 0.77 0.64 0.55 0.66 0.74 0.61 0.47 0.30 0.22 0.18 0.13 0.07 0.02 0.01 0.00 0.03 0.03 0.04 0.02 0.00 0.01 0.09 0.17 0.26 0.36 0.43 0.44 0.34 0.30 0.34 0.35 0.27 0.13 0.09 0.10 0.09 0.14 0.16 0.17 0.20 0.29 0.32
0.68 0.66 0.70 0.57 0.52 0.48 0.35 0.27 0.20 0.12 0.06 0.02 0.00 0.00 0.02 0.01 0.03 0.06 0.05 0.02 0.02 0.01 0.05 0.05 0.08 0.16 0.26 0.32 0.36 0.23 0.17 0.32 0.34 0.41 0.27 0.33 0.18 0.13 0.28 0.13 0.15 0.22 0.24

GFSMA_prec_precacc_126.txt.gz
Total_Precipitation_Accumulation
0.24 0.21 0.26 0.14 0.13 0.18 0.16 0.21 0.19 0.20 0.18 0.21 0.20 0.17 0.17 0.18 0.16 0.11 0.06 0.04 0.02 0.00 0.02 0.07 0.09 0.09 0.15 0.17 0.26 0.23 0.14 0.06 0.02 0.01 0.01 0.00 0.00 0.00 0.00 0.00 0.00 0.00 0.00
0.33 0.40 0.26 0.19 0.14 0.10 0.18 0.37 0.40 0.41 0.37 0.32 0.23 0.23 0.16 0.18 0.24 0.26 0.16 0.11 0.15 0.03 0.01 0.12 0.16 0.20 0.18 0.17 0.24 0.32 0.27 0.17 0.11 0.07 0.04 0.02 0.02 0.01 0.01 0.01 0.01 0.01 0.01
0.37 0.34 0.67 0.45 0.14 0.13 0.17 0.23 0.29 0.35 0.34 0.43 0.27 0.32 0.39 0.36 0.30 0.22 0.20 0.11 0.12 0.13 0.12 0.10 0.17 0.42 0.49 0.45 0.38 0.35 0.43 0.35 0.24 0.25 0.19 0.08 0.02 0.03 0.03 0.03 0.02 0.02 0.02
0.09 0.28 0.30 0.60 0.57 0.38 0.30 0.24 0.26 0.32 0.29 0.34 0.32 0.26 0.24 0.29 0.25 0.16 0.12 0.09 0.09 0.10 0.12 0.13 0.09 0.22 0.31 0.24 0.22 0.32 0.49 0.53 0.40 0.34 0.34 0.26 0.11 0.05 0.05 0.06 0.06 0.04 0.03
0.12 0.13 0.18 0.26 0.43 0.46 0.40 0.38 0.34 0.29 0.27 0.28 0.21 0.20 0.21 0.20 0.13 0.15 0.12 0.16 0.10 0.08 0.02 0.04 0.02 0.02 0.06 0.08 0.11 0.21 0.31 0.43 0.46 0.44 0.43 0.40 0.33 0.25 0.21 0.20 0.13 0.09 0.09
0.45 0.34 0.28 0.39 0.33 0.30 0.31 0.27 0.26 0.31 0.26 0.19 0.17 0.15 0.14 0.14 0.13 0.12 0.13 0.14 0.09 0.06 0.03 0.02 0.00 0.00 0.00 0.02 0.08 0.10 0.18 0.26 0.43 0.46 0.44 0.47 0.50 0.39 0.36 0.34 0.26 0.17 0.14
0.81 0.73 0.54 0.43 0.35 0.25 0.22 0.22 0.25 0.33 0.40 0.46 0.46 0.26 0.18 0.14 0.11 0.12 0.12 0.11 0.08 0.05 0.03 0.02 0.02 0.00 0.00 0.00 0.02 0.08 0.13 0.16 0.28 0.41 0.45 0.45 0.47 0.42 0.45 0.49 0.46 0.45 0.38
1.13 0.85 0.71 0.69 0.58 0.54 0.45 0.50 0.49 0.48 0.46 0.60 0.57 0.37 0.21 0.13 0.12 0.08 0.09 0.11 0.12 0.13 0.12 0.05 0.02 0.00 0.00 0.00 0.00 0.02 0.08 0.14 0.19 0.42 0.54 0.47 0.49 0.56 0.66 0.72 0.55 0.37 0.35
1.43 1.56 1.86 1.55 1.01 1.02 1.15 1.22 1.28 1.27 1.06 0.82 0.73 0.71 0.42 0.21 0.09 0.03 0.06 0.08 0.09 0.10 0.12 0.13 0.09 0.04 0.03 0.01 0.01 0.02 0.03 0.10 0.19 0.35 0.54 0.65 0.79 0.74 0.59 0.50 0.38 0.41 0.38
1.69 1.86 2.15 2.74 3.21 2.75 1.93 1.63 1.54 1.38 1.43 1.29 1.25 0.98 0.82 0.58 0.38 0.16 0.06 0.06 0.06 0.05 0.06 0.07 0.06 0.07 0.09 0.10 0.08 0.09 0.10 0.16 0.14 0.27 0.60 0.80 1.06 1.03 0.79 0.63 0.62 0.60 0.53
2.02 1.86 1.89 1.96 1.98 2.17 2.63 2.40 1.95 1.84 1.71 1.41 1.16 0.94 0.84 0.80 0.81 0.70 0.37 0.19 0.14 0.09 0.09 0.09 0.10 0.13 0.16 0.18 0.20 0.22 0.35 0.39 0.23 0.49 0.77 1.05 1.09 1.26 1.49 1.47 1.15 0.92 0.82
1.80 1.70 1.52 1.38 1.41 1.46 1.56 1.92 1.95 1.68 1.57 1.61 1.53 1.36 1.14 1.08 0.92 1.03 0.94 0.59 0.51 0.37 0.27 0.24 0.20 0.17 0.20 0.23 0.26 0.33 0.35 0.39 0.47 0.64 0.82 1.07 1.21 1.30 1.45 1.56 1.53 1.38 1.29
1.72 1.65 1.53 1.53 1.41 1.42 1.46 1.55 1.71 1.64 1.46 1.31 1.26 1.29 1.40 1.42 1.39 1.42 1.36 1.00 0.68 0.44 0.33 0.19 0.12 0.14 0.16 0.15 0.19 0.35 0.36 0.39 0.43 0.60 0.77 0.97 1.25 1.31 1.37 1.68 2.36 2.68 2.77
1.55 1.87 1.77 1.74 1.78 1.73 1.71 1.72 1.76 1.81 1.71 1.62 1.63 1.56 1.50 1.46 1.59 1.75 1.86 1.86 1.72 1.12 0.69 0.47 0.32 0.37 0.39 0.38 0.48 0.62 0.45 0.54 0.55 0.69 0.90 1.09 1.31 1.38 1.43 1.56 1.67 1.72 2.07
1.18 1.31 1.42 1.33 1.32 1.32 1.29 1.37 1.38 1.37 1.49 1.53 1.42 1.35 1.29 1.17 1.28 1.40 1.57 1.88 2.40 2.23 1.42 0.92 0.89 0.88 0.88 0.90 1.06 0.95 0.78 0.99 1.05 1.03 1.04 1.10 0.99 1.03 1.00 1.06 1.19 1.13 1.37
0.55 0.68 0.79 0.81 0.88 0.93 1.07 1.17 1.21 1.29 1.39 1.40 1.42 1.46 1.47 1.41 1.38 1.31 1.28 1.40 1.59 1.96 1.82 1.04 0.94 0.99 1.15 1.34 1.72 1.70 1.61 1.81 1.43 1.21 1.14 0.93 0.80 0.66 0.59 0.61 0.65 0.66 0.77
0.08 0.10 0.12 0.15 0.17 0.24 0.42 0.63 0.79 0.97 1.17 1.32 1.59 1.84 1.95 2.06 2.26 2.24 2.29 2.45 2.58 2.69 2.66 1.72 1.37 1.27 1.25 1.25 1.24 1.14 1.19 1.17 1.25 1.45 1.23 1.09 0.87 0.70 0.63 0.57 0.53 0.50 0.50
0.05 0.05 0.06 0.06 0.06 0.10 0.13 0.15 0.17 0.22 0.30 0.40 0.55 0.71 0.79 0.95 1.21 1.42 1.66 1.82 2.16 2.62 3.05 2.42 1.77 1.61 1.48 1.33 1.12 0.87 0.80 0.85 0.89 1.20 1.20 1.13 1.04 0.94 0.92 0.92 0.81 0.68 0.57
0.06 0.05 0.04 0.05 0.06 0.05 0.06 0.08 0.11 0.14 0.20 0.29 0.36 0.41 0.44 0.47 0.54 0.58 0.69 0.87 1.03 1.18 1.42 1.39 1.09 1.00 1.02 1.15 1.25 1.17 1.04 0.95 0.88 1.15 1.06 1.04 1.08 1.05 0.96 0.90 0.92 0.98 0.96
0.05 0.04 0.05 0.05 0.07 0.08 0.10 0.11 0.11 0.11 0.10 0.10 0.13 0.15 0.22 0.31 0.43 0.62 0.86 0.96 0.92 0.80 0.72 0.65 0.60 0.53 0.50 0.54 0.64 0.68 0.65 0.57 0.49 0.50 0.57 0.57 0.65 0.69 0.78 0.81 0.73 0.70 0.78
0.04 0.04 0.08 0.14 0.16 0.17 0.20 0.19 0.19 0.20 0.21 0.25 0.26 0.31 0.37 0.49 0.57 0.53 0.45 0.36 0.37 0.41 0.43 0.47 0.43 0.33 0.28 0.25 0.26 0.29 0.33 0.39 0.44 0.49 0.41 0.33 0.27 0.23 0.28 0.43 0.59 0.72 0.73
0.10 0.10 0.13 0.14 0.17 0.21 0.37 0.31 0.25 0.26 0.29 0.31 0.34 0.37 0.41 0.50 0.40 0.39 0.30 0.26 0.22 0.26 0.25 0.21 0.17 0.12 0.09 0.11 0.15 0.23 0.32 0.44 0.44 0.32 0.32 0.30 0.26 0.21 0.16 0.16 0.28 0.41 0.54
0.15 0.24 0.25 0.20 0.16 0.15 0.29 0.24 0.22 0.20 0.23 0.25 0.25 0.23 0.20 0.19 0.17 0.13 0.19 0.21 0.25 0.23 0.18 0.12 0.08 0.06 0.07 0.07 0.16 0.20 0.18 0.20 0.15 0.10 0.22 0.30 0.29 0.30 0.22 0.24 0.25 0.23 0.33
0.29 0.25 0.27 0.37 0.45 0.54 0.51 0.36 0.28 0.20 0.19 0.17 0.15 0.13 0.09 0.04 0.03 0.03 0.05 0.11 0.08 0.11 0.16 0.18 0.16 0.16 0.20 0.22 0.26 0.30 0.16 0.12 0.10 0.08 0.14 0.22 0.16 0.22 0.20 0.22 0.32 0.30 0.33
0.68 0.77 0.64 0.55 0.66 0.74 0.61 0.47 0.30 0.22 0.18 0.13 0.07 0.02 0.01 0.00 0.03 0.03 0.05 0.02 0.00 0.01 0.09 0.17 0.26 0.37 0.44 0.44 0.34 0.30 0.35 0.35 0.27 0.13 0.09 0.10 0.09 0.14 0.16 0.17 0.20 0.29 0.32
0.68 0.66 0.70 0.57 0.52 0.48 0.35 0.27 0.20 0.12 0.06 0.02 0.00 0.00 0.02 0.01 0.03 0.06 0.05 0.03 0.03 0.01 0.05 0.06 0.08 0.16 0.26 0.32 0.36 0.23 0.17 0.32 0.34 0.41 0.27 0.33 0.18 0.14 0.29 0.13 0.15 0.22 0.24

GFSMA_prec_precacc_129.txt.gz
Total_Precipitation_Accumulation
0.24 0.21 0.26 0.14 0.13 0.18 0.16 0.21 0.19 0.20 0.18 0.21 0.20 0.18 0.19 0.23 0.23 0.19 0.14 0.16 0.09 0.03 0.03 0.08 0.10 0.09 0.15 0.17 0.26 0.26 0.18 0.10 0.05 0.02 0.02 0.01 0.00 0.00 0.00 0.00 0.00 0.00 0.00
0.33 0.40 0.26 0.19 0.14 0.10 0.18 0.37 0.40 0.41 0.37 0.33 0.23 0.24 0.16 0.18 0.25 0.31 0.25 0.22 0.32 0.19 0.10 0.25 0.30 0.27 0.24 0.25 0.28 0.36 0.31 0.26 0.19 0.15 0.08 0.06 0.04 0.02 0.01 0.01 0.01 0.01 0.01
0.37 0.34 0.67 0.45 0.14 0.13 0.17 0.23 0.29 0.35 0.34 0.43 0.28 0.33 0.41 0.37 0.31 0.22 0.22 0.17 0.24 0.29 0.24 0.15 0.31 0.57 0.67 0.63 0.49 0.44 0.53 0.46 0.38 0.39 0.32 0.19 0.10 0.07 0.05 0.04 0.03 0.02 0.02
0.09 0.28 0.30 0.60 0.57 0.38 0.30 0.24 0.26 0.32 0.29 0.34 0.33 0.27 0.26 0.31 0.26 0.16 0.15 0.14 0.24 0.34 0.49 0.44 0.16 0.37 0.51 0.57 0.63 0.65 0.73 0.64 0.44 0.40 0.45 0.41 0.27 0.18 0.12 0.12 0.10 0.05 0.04
0.12 0.13 0.18 0.26 0.43 0.46 0.40 0.38 0.34 0.29 0.27 0.29 0.21 0.20 0.22 0.21 0.16 0.17 0.16 0.25 0.25 0.30 0.29 0.49 0.47 0.22 0.14 0.12 0.18 0.30 0.43 0.50 0.54 0.52 0.50 0.47 0.43 0.41 0.41 0.39 0.34 0.20 0.14
0.45 0.34 0.28 0.39 0.33 0.30 0.31 0.27 0.26 0.31 0.28 0.19 0.17 0.16 0.17 0.16 0.15 0.18 0.22 0.28 0.19 0.13 0.12 0.13 0.12 0.06 0.05 0.04 0.08 0.11 0.19 0.26 0.44 0.47 0.47 0.52 0.55 0.44 0.43 0.47 0.46 0.36 0.27
0.81 0.73 0.54 0.43 0.35 0.25 0.22 0.22 0.25 0.33 0.40 0.46 0.46 0.26 0.18 0.14 0.16 0.17 0.18 0.17 0.16 0.12 0.08 0.07 0.05 0.04 0.07 0.05 0.03 0.08 0.13 0.16 0.29 0.42 0.46 0.46 0.49 0.47 0.55 0.60 0.57 0.58 0.62
1.13 0.85 0.71 0.69 0.58 0.54 0.45 0.50 0.49 0.48 0.46 0.60 0.57 0.37 0.21 0.16 0.18 0.10 0.09 0.11 0.12 0.14 0.14 0.13 0.09 0.05 0.03 0.03 0.02 0.02 0.08 0.14 0.19 0.43 0.55 0.47 0.50 0.57 0.67 0.76 0.62 0.46 0.45
1.43 1.56 1.86 1.55 1.01 1.02 1.15 1.22 1.28 1.27 1.06 0.82 0.73 0.72 0.43 0.21 0.09 0.08 0.07 0.08 0.09 0.10 0.12 0.14 0.13 0.09 0.05 0.03 0.01 0.02 0.03 0.10 0.19 0.35 0.55 0.66 0.79 0.75 0.61 0.51 0.40 0.44 0.43
1.69 1.86 2.15 2.74 3.21 2.75 1.93 1.63 1.54 1.38 1.43 1.29 1.25 0.98 0.82 0.59 0.39 0.16 0.06 0.06 0.06 0.05 0.06 0.07 0.06 0.07 0.09 0.10 0.08 0.09 0.10 0.16 0.14 0.27 0.60 0.80 1.08 1.05 0.80 0.64 0.62 0.61 0.54
2.02 1.86 1.89 1.96 1.98 2.17 2.63 2.40 1.95 1.84 1.71 1.41 1.16 0.94 0.84 0.80 0.81 0.70 0.37 0.19 0.14 0.09 0.09 0.09 0.10 0.13 0.16 0.18 0.20 0.22 0.35 0.39 0.23 0.49 0.77 1.06 1.11 1.27 1.49 1.47 1.16 0.92 0.82
1.80 1.70 1.52 1.38 1.41 1.46 1.56 1.92 1.95 1.68 1.57 1.61 1.53 1.36 1.14 1.08 0.92 1.03 0.94 0.59 0.51 0.37 0.27 0.24 0.20 0.17 0.20 0.23 0.26 0.33 0.35 0.39 0.47 0.64 0.82 1.07 1.22 1.31 1.45 1.57 1.55 1.39 1.30
1.72 1.65 1.53 1.53 1.41 1.42 1.46 1.55 1.71 1.64 1.46 1.31 1.26 1.29 1.40 1.42 1.39 1.42 1.36 1.00 0.68 0.44 0.33 0.19 0.12 0.14 0.16 0.15 0.19 0.35 0.36 0.39 0.43 0.60 0.77 0.97 1.25 1.31 1.37 1.70 2.38 2.70 2.78
1.55 1.87 1.77 1.74 1.78 1.73 1.71 1.72 1.76 1.81 1.71 1.62 1.63 1.56 1.50 1.46 1.59 1.75 1.86 1.86 1.72 1.12 0.69 0.47 0.32 0.37 0.39 0.38 0.48 0.62 0.45 0.54 0.55 0.69 0.90 1.09 1.31 1.38 1.44 1.56 1.67 1.73 2.08
1.18 1.31 1.42 1.33 1.32 1.32 1.29 1.37 1.38 1.37 1.49 1.53 1.42 1.35 1.29 1.17 1.28 1.40 1.57 1.88 2.40 2.23 1.42 0.92 0.89 0.88 0.88 0.90 1.06 0.95 0.78 0.99 1.05 1.03 1.04 1.10 0.99 1.03 1.00 1.06 1.19 1.13 1.37
0.55 0.68 0.79 0.81 0.88 0.93 1.07 1.17 1.21 1.29 1.39 1.40 1.42 1.46 1.47 1.41 1.38 1.31 1.28 1.40 1.59 1.96 1.82 1.04 0.94 0.99 1.15 1.34 1.72 1.70 1.61 1.81 1.43 1.21 1.14 0.93 0.80 0.66 0.59 0.61 0.65 0.66 0.77
0.08 0.10 0.12 0.15 0.17 0.24 0.42 0.63 0.79 0.97 1.17 1.32 1.59 1.84 1.95 2.06 2.26 2.24 2.29 2.45 2.58 2.69 2.66 1.72 1.37 1.27 1.25 1.25 1.24 1.14 1.19 1.17 1.25 1.45 1.23 1.09 0.87 0.70 0.63 0.57 0.53 0.50 0.50
0.05 0.05 0.06 0.06 0.06 0.10 0.13 0.15 0.17 0.22 0.30 0.40 0.55 0.71 0.79 0.95 1.21 1.42 1.66 1.82 2.16 2.62 3.05 2.42 1.77 1.61 1.48 1.33 1.12 0.87 0.80 0.85 0.89 1.20 1.20 1.13 1.04 0.94 0.92 0.92 0.81 0.68 0.57
0.06 0.05 0.04 0.05 0.06 0.05 0.06 0.08 0.11 0.14 0.20 0.29 0.36 0.41 0.44 0.47 0.54 0.58 0.69 0.87 1.03 1.18 1.42 1.39 1.09 1.00 1.02 1.15 1.25 1.17 1.04 0.95 0.88 1.15 1.06 1.04 1.08 1.05 0.96 0.90 0.92 0.98 0.96
0.05 0.04 0.05 0.05 0.07 0.08 0.10 0.11 0.11 0.11 0.10 0.10 0.13 0.15 0.22 0.31 0.43 0.62 0.86 0.96 0.92 0.80 0.72 0.65 0.60 0.53 0.50 0.54 0.64 0.68 0.65 0.57 0.49 0.50 0.57 0.57 0.65 0.69 0.78 0.81 0.73 0.70 0.78
0.04 0.04 0.08 0.14 0.16 0.17 0.20 0.19 0.19 0.20 0.21 0.25 0.26 0.31 0.37 0.49 0.57 0.53 0.45 0.36 0.37 0.41 0.43 0.47 0.43 0.33 0.28 0.25 0.26 0.29 0.33 0.39 0.44 0.49 0.41 0.33 0.27 0.23 0.28 0.43 0.59 0.72 0.73
0.10 0.10 0.13 0.14 0.17 0.21 0.37 0.31 0.25 0.26 0.29 0.31 0.34 0.37 0.41 0.50 0.40 0.39 0.30 0.26 0.22 0.26 0.25 0.21 0.17 0.12 0.09 0.11 0.15 0.23 0.32 0.44 0.44 0.32 0.32 0.30 0.26 0.21 0.16 0.16 0.28 0.41 0.54
0.15 0.24 0.25 0.20 0.16 0.15 0.29 0.24 0.22 0.20 0.23 0.25 0.25 0.23 0.20 0.19 0.17 0.13 0.19 0.21 0.25 0.23 0.18 0.12 0.08 0.06 0.07 0.07 0.16 0.20 0.19 0.21 0.15 0.10 0.22 0.30 0.29 0.30 0.22 0.24 0.25 0.23 0.33
0.29 0.25 0.27 0.37 0.45 0.54 0.51 0.36 0.28 0.20 0.19 0.17 0.15 0.13 0.09 0.04 0.03 0.03 0.05 0.11 0.08 0.11 0.16 0.18 0.16 0.16 0.20 0.22 0.27 0.31 0.17 0.12 0.10 0.08 0.14 0.22 0.16 0.22 0.20 0.22 0.32 0.30 0.33
0.68 0.77 0.64 0.55 0.66 0.74 0.61 0.47 0.30 0.22 0.18 0.13 0.07 0.02 0.01 0.00 0.03 0.03 0.05 0.02 0.00 0.01 0.09 0.17 0.26 0.37 0.44 0.44 0.34 0.30 0.35 0.35 0.27 0.13 0.09 0.10 0.09 0.14 0.16 0.17 0.20 0.29 0.32
0.68 0.66 0.70 0.57 0.52 0.48 0.35 0.27 0.20 0.12 0.06 0.02 0.00 0.00 0.02 0.01 0.03 0.06 0.05 0.03 0.04 0.01 0.05 0.06 0.08 0.16 0.26 0.32 0.36 0.23 0.17 0.32 0.35 0.42 0.27 0.34 0.18 0.14 0.29 0.13 0.15 0.22 0.24

GFSMA_prec_precacc_132.txt.gz
Total_Precipitation_Accumulation
0.24 0.21 0.26 0.14 0.13 0.18 0.16 0.21 0.19 0.20 0.18 0.21 0.20 0.18 0.20 0.24 0.25 0.21 0.18 0.23 0.18 0.09 0.10 0.17 0.16 0.12 0.16 0.18 0.27 0.27 0.19 0.14 0.09 0.06 0.05 0.03 0.02 0.01 0.00 0.00 0.00 0.00 0.00
0.33 0.40 0.26 0.19 0.14 0.10 0.18 0.37 0.40 0.41 0.37 0.33 0.23 0.24 0.17 0.19 0.26 0.32 0.27 0.25 0.44 0.35 0.21 0.39 0.45 0.41 0.34 0.35 0.39 0.47 0.38 0.32 0.25 0.20 0.15 0.15 0.12 0.06 0.03 0.01 0.01 0.01 0.01
0.37 0.34 0.67 0.45 0.14 0.13 0.17 0.23 0.29 0.35 0.34 0.43 0.28 0.33 0.41 0.38 0.31 0.22 0.23 0.20 0.29 0.40 0.38 0.26 0.39 0.71 0.85 0.83 0.71 0.66 0.72 0.58 0.46 0.47 0.41 0.29 0.19 0.14 0.10 0.07 0.05 0.03 0.02
0.09 0.28 0.30 0.60 0.57 0.38 0.30 0.24 0.26 0.32 0.29 0.34 0.33 0.27 0.26 0.31 0.26 0.16 0.16 0.16 0.28 0.41 0.60 0.64 0.53 0.77 1.00 0.98 0.99 0.99 1.20 1.03 0.62 0.49 0.51 0.47 0.40 0.45 0.44 0.38 0.31 0.14 0.09
0.12 0.13 0.18 0.26 0.43 0.46 0.40 0.38 0.34 0.29 0.28 0.29 0.21 0.20 0.23 0.22 0.16 0.19 0.22 0.28 0.29 0.34 0.35 0.63 0.90 0.93 0.86 0.74 0.60 0.78 0.75 0.88 0.90 0.84 0.77 0.70 0.58 0.48 0.50 0.59 0.63 0.42 0.24
0.45 0.34 0.28 0.39 0.33 0.30 0.31 0.27 0.26 0.31 0.28 0.19 0.17 0.16 0.17 0.17 0.16 0.20 0.25 0.30 0.21 0.16 0.14 0.17 0.21 0.24 0.37 0.37 0.34 0.37 0.36 0.37 0.52 0.56 0.54 0.56 0.60 0.49 0.47 0.52 0.52 0.55 0.54
0.81 0.73 0.54 0.43 0.35 0.25 0.22 0.22 0.25 0.33 0.40 0.46 0.46 0.26 0.18 0.15 0.16 0.17 0.18 0.17 0.16 0.12 0.08 0.07 0.06 0.09 0.13 0.12 0.07 0.12 0.17 0.19 0.30 0.42 0.46 0.46 0.49 0.47 0.55 0.62 0.62 0.67 0.74
1.13 0.85 0.71 0.69 0.58 0.54 0.45 0.50 0.49 0.48 0.46 0.60 0.57 0.37 0.21 0.16 0.18 0.11 0.09 0.11 0.12 0.14 0.14 0.13 0.09 0.05 0.03 0.03 0.03 0.03 0.08 0.14 0.19 0.43 0.55 0.48 0.50 0.57 0.68 0.77 0.63 0.47 0.48
1.43 1.56 1.86 1.55 1.01 1.02 1.15 1.22 1.28 1.27 1.06 0.82 0.73 0.72 0.43 0.22 0.09 0.08 0.07 0.08 0.09 0.10 0.12 0.14 0.13 0.09 0.05 0.03 0.02 0.02 0.03 0.10 0.19 0.35 0.55 0.66 0.80 0.76 0.61 0.51 0.40 0.44 0.43
1.69 1.86 2.15 2.74 3.21 2.75 1.93 1.63 1.54 1.38 1.43 1.29 1.25 0.98 0.83 0.59 0.39 0.16 0.06 0.06 0.06 0.05 0.06 0.07 0.06 0.07 0.09 0.10 0.08 0.09 0.10 0.16 0.14 0.27 0.60 0.80 1.09 1.07 0.81 0.65 0.63 0.61 0.54
2.02 1.86 1.89 1.96 1.98 2.17 2.63 2.40 1.95 1.84 1.71 1.41 1.16 0.94 0.84 0.80 0.81 0.70 0.37 0.19 0.14 0.09 0.09 0.09 0.10 0.13 0.16 0.18 0.20 0.22 0.35 0.39 0.23 0.49 0.77 1.06 1.11 1.28 1.50 1.48 1.16 0.93 0.83
1.80 1.70 1.52 1.38 1.41 1.46 1.56 1.92 1.95 1.68 1.57 1.61 1.53 1.36 1.14 1.08 0.92 1.03 0.94 0.59 0.51 0.37 0.27 0.24 0.20 0.17 0.20 0.23 0.26 0.33 0.35 0.39 0.47 0.64 0.82 1.07 1.22 1.31 1.45 1.57 1.56 1.40 1.31
1.72 1.65 1.53 1.53 1.41 1.42 1.46 1.55 1.71 1.64 1.46 1.31 1.26 1.29 1.40 1.42 1.39 1.42 1.36 1.00 0.68 0.44 0.33 0.19 0.12 0.14 0.16 0.15 0.19 0.35 0.36 0.39 0.43 0.60 0.77 0.97 1.25 1.31 1.37 1.70 2.38 2.70 2.78
1.55 1.87 1.77 1.74 1.78 1.73 1.71 1.72 1.76 1.81 1.71 1.62 1.63 1.56 1.50 1.46 1.59 1.75 1.86 1.86 1.72 1.12 0.69 0.47 0.32 0.37 0.39 0.38 0.48 0.62 0.45 0.54 0.55 0.69 0.90 1.09 1.31 1.38 1.44 1.56 1.67 1.73 2.08
1.18 1.31 1.42 1.33 1.32 1.32 1.29 1.37 1.38 1.37 1.49 1.53 1.42 1.35 1.29 1.17 1.28 1.40 1.57 1.88 2.40 2.23 1.42 0.92 0.89 0.88 0.88 0.90 1.06 0.95 0.78 0.99 1.05 1.03 1.04 1.10 0.99 1.03 1.00 1.06 1.19 1.13 1.37
0.55 0.68 0.79 0.81 0.88 0.93 1.07 1.17 1.21 1.29 1.39 1.40 1.42 1.46 1.47 1.41 1.38 1.31 1.28 1.40 1.59 1.96 1.82 1.04 0.94 0.99 1.15 1.34 1.72 1.70 1.61 1.81 1.43 1.21 1.14 0.93 0.80 0.66 0.59 0.61 0.65 0.66 0.77
0.08 0.10 0.12 0.15 0.17 0.24 0.42 0.63 0.79 0.97 1.17 1.32 1.59 1.84 1.95 2.06 2.26 2.24 2.29 2.45 2.58 2.69 2.66 1.72 1.37 1.27 1.25 1.25 1.24 1.14 1.19 1.17 1.25 1.45 1.23 1.09 0.87 0.70 0.63 0.57 0.53 0.50 0.50
0.05 0.05 0.06 0.06 0.06 0.10 0.13 0.15 0.17 0.22 0.30 0.40 0.55 0.71 0.79 0.95 1.21 1.42 1.66 1.82 2.16 2.62 3.05 2.42 1.77 1.61 1.48 1.33 1.12 0.87 0.80 0.85 0.89 1.20 1.20 1.13 1.04 0.94 0.92 0.92 0.81 0.68 0.57
0.06 0.05 0.04 0.05 0.06 0.05 0.06 0.08 0.11 0.14 0.20 0.29 0.36 0.41 0.44 0.47 0.54 0.58 0.69 0.87 1.03 1.18 1.42 1.39 1.09 1.00 1.02 1.15 1.25 1.17 1.04 0.95 0.88 1.15 1.06 1.04 1.08 1.05 0.96 0.90 0.92 0.98 0.96
0.05 0.04 0.05 0.05 0.07 0.08 0.10 0.11 0.11 0.11 0.10 0.10 0.13 0.15 0.22 0.31 0.43 0.62 0.86 0.96 0.92 0.80 0.72 0.65 0.60 0.53 0.50 0.54 0.64 0.68 0.65 0.57 0.49 0.50 0.57 0.57 0.65 0.69 0.78 0.81 0.73 0.70 0.78
0.04 0.04 0.08 0.14 0.16 0.17 0.20 0.19 0.19 0.20 0.21 0.25 0.26 0.31 0.37 0.49 0.57 0.53 0.45 0.36 0.37 0.41 0.43 0.47 0.43 0.33 0.28 0.25 0.26 0.29 0.33 0.39 0.44 0.49 0.41 0.33 0.27 0.23 0.28 0.43 0.59 0.72 0.73
0.10 0.10 0.13 0.14 0.17 0.21 0.37 0.31 0.25 0.26 0.29 0.31 0.34 0.37 0.41 0.50 0.40 0.39 0.30 0.26 0.22 0.26 0.25 0.21 0.17 0.12 0.09 0.11 0.15 0.23 0.32 0.44 0.44 0.32 0.32 0.30 0.26 0.21 0.16 0.16 0.28 0.41 0.54
0.15 0.24 0.25 0.20 0.16 0.15 0.29 0.24 0.22 0.20 0.23 0.25 0.25 0.23 0.20 0.19 0.17 0.13 0.19 0.21 0.25 0.23 0.18 0.12 0.09 0.06 0.07 0.07 0.16 0.20 0.19 0.21 0.15 0.10 0.22 0.30 0.29 0.30 0.22 0.24 0.25 0.23 0.33
0.29 0.25 0.27 0.37 0.45 0.54 0.51 0.36 0.28 0.20 0.19 0.17 0.15 0.13 0.09 0.04 0.03 0.03 0.05 0.11 0.08 0.11 0.16 0.18 0.16 0.16 0.20 0.22 0.27 0.31 0.17 0.12 0.10 0.08 0.14 0.22 0.16 0.22 0.20 0.22 0.32 0.30 0.33
0.68 0.77 0.64 0.55 0.66 0.74 0.61 0.47 0.30 0.22 0.18 0.13 0.07 0.02 0.01 0.00 0.03 0.03 0.05 0.02 0.00 0.01 0.09 0.17 0.26 0.37 0.44 0.44 0.34 0.30 0.35 0.35 0.27 0.13 0.09 0.10 0.09 0.14 0.16 0.17 0.20 0.29 0.32
0.68 0.66 0.70 0.57 0.52 0.48 0.35 0.27 0.20 0.12 0.06 0.02 0.00 0.00 0.02 0.01 0.03 0.06 0.05 0.03 0.04 0.01 0.05 0.06 0.08 0.16 0.26 0.32 0.36 0.23 0.17 0.32 0.35 0.42 0.27 0.34 0.18 0.14 0.30 0.13 0.15 0.22 0.24

GFSMA_prec_precacc_138.txt.gz
Total_Precipitation_Accumulation
0.24 0.21 0.26 0.14 0.13 0.18 0.16 0.21 0.19 0.20 0.18 0.21 0.20 0.18 0.20 0.24 0.25 0.21 0.18 0.23 0.19 0.13 0.16 0.24 0.24 0.23 0.29 0.29 0.38 0.39 0.37 0.27 0.18 0.14 0.14 0.15 0.12 0.05 0.01 0.00 0.00 0.00 0.01
0.33 0.40 0.26 0.19 0.14 0.10 0.18 0.37 0.40 0.41 0.37 0.33 0.23 0.24 0.17 0.19 0.26 0.32 0.27 0.25 0.45 0.37 0.24 0.43 0.49 0.50 0.50 0.57 0.68 0.86 1.03 0.78 0.71 0.64 0.45 0.33 0.28 0.23 0.12 0.07 0.07 0.05 0.02
0.37 0.34 0.67 0.45 0.14 0.13 0.17 0.23 0.29 0.35 0.34 0.43 0.28 0.33 0.41 0.38 0.31 0.22 0.23 0.20 0.29 0.40 0.39 0.27 0.40 0.76 1.04 1.25 1.41 1.81 2.29 2.22 2.05 1.89 1.28 0.76 0.62 0.44 0.29 0.23 0.20 0.18 0.13
0.09 0.28 0.30 0.60 0.57 0.38 0.30 0.24 0.26 0.32 0.29 0.34 0.33 0.27 0.26 0.31 0.26 0.17 0.17 0.16 0.29 0.41 0.61 0.65 0.54 0.78 1.04 1.10 1.16 1.27 1.78 2.16 2.20 2.17 2.34 2.53 2.10 1.52 1.14 0.94 0.66 0.44 0.32
0.12 0.13 0.18 0.26 0.43 0.46 0.40 0.38 0.34 0.29 0.28 0.29 0.21 0.20 0.23 0.22 0.16 0.20 0.22 0.28 0.29 0.34 0.35 0.64 0.91 0.94 0.90 0.80 0.70 0.96 1.13 1.31 1.50 1.66 1.69 1.72 1.63 1.52 1.50 1.56 1.52 1.14 0.70
0.45 0.34 0.28 0.39 0.33 0.30 0.31 0.27 0.26 0.31 0.28 0.19 0.17 0.16 0.17 0.17 0.16 0.20 0.25 0.30 0.21 0.16 0.15 0.17 0.22 0.26 0.38 0.45 0.52 0.58 0.58 0.67 0.90 0.88 0.84 0.87 0.96 0.91 0.93 1.05 1.15 1.25 1.12
0.81 0.73 0.54 0.43 0.35 0.25 0.22 0.22 0.25 0.33 0.40 0.46 0.46 0.26 0.18 0.15 0.16 0.17 0.18 0.17 0.16 0.12 0.08 0.07 0.06 0.09 0.13 0.13 0.10 0.18 0.25 0.29 0.41 0.53 0.59 0.59 0.61 0.59 0.69 0.76 0.80 0.92 1.05
1.13 0.85 0.71 0.69 0.58 0.54 0.45 0.50 0.49 0.48 0.46 0.60 0.57 0.37 0.21 0.16 0.18 0.11 0.09 0.11 0.12 0.14 0.14 0.13 0.09 0.05 0.03 0.03 0.03 0.03 0.08 0.15 0.21 0.45 0.56 0.49 0.52 0.61 0.74 0.84 0.67 0.48 0.50
1.43 1.56 1.86 1.55 1.01 1.02 1.15 1.22 1.28 1.27 1.06 0.82 0.73 0.72 0.43 0.22 0.09 0.08 0.07 0.08 0.09 0.10 0.12 0.14 0.13 0.09 0.05 0.03 0.02 0.02 0.03 0.10 0.19 0.35 0.55 0.66 0.82 0.82 0.66 0.54 0.42 0.46 0.45
1.69 1.86 2.15 2.74 3.21 2.75 1.93 1.63 1.54 1.38 1.43 1.29 1.25 0.98 0.83 0.59 0.39 0.16 0.06 0.06 0.06 0.05 0.06 0.07 0.06 0.07 0.09 0.10 0.08 0.09 0.10 0.16 0.14 0.27 0.60 0.80 1.09 1.07 0.82 0.65 0.63 0.63 0.58
2.02 1.86 1.89 1.96 1.98 2.17 2.63 2.40 1.95 1.84 1.71 1.41 1.16 0.94 0.84 0.80 0.81 0.70 0.37 0.19 0.14 0.09 0.09 0.09 0.10 0.13 0.16 0.18 0.20 0.22 0.35 0.39 0.23 0.49 0.77 1.06 1.11 1.28 1.50 1.48 1.17 0.94 0.84
1.80 1.70 1.52 1.38 1.41 1.46 1.56 1.92 1.95 1.68 1.57 1.61 1.53 1.36 1.14 1.08 0.92 1.03 0.94 0.59 0.51 0.37 0.27 0.24 0.20 0.17 0.20 0.23 0.26 0.33 0.35 0.39 0.47 0.64 0.82 1.07 1.22 1.31 1.45 1.57 1.56 1.40 1.31
1.72 1.65 1.53 1.53 1.41 1.42 1.46 1.55 1.71 1.64 1.46 1.31 1.26 1.29 1.40 1.42 1.39 1.42 1.36 1.00 0.68 0.44 0.33 0.19 0.12 0.14 0.16 0.15 0.19 0.35 0.36 0.39 0.43 0.60 0.77 0.97 1.25 1.31 1.37 1.70 2.38 2.70 2.78
1.55 1.87 1.77 1.74 1.78 1.73 1.71 1.72 1.76 1.81 1.71 1.62 1.63 1.56 1.50 1.46 1.59 1.75 1.86 1.86 1.72 1.12 0.69 0.47 0.32 0.37 0.39 0.38 0.48 0.62 0.45 0.54 0.55 0.69 0.90 1.09 1.31 1.38 1.44 1.56 1.67 1.73 2.08
1.18 1.31 1.42 1.33 1.32 1.32 1.29 1.37 1.38 1.37 1.49 1.53 1.42 1.35 1.29 1.17 1.28 1.40 1.57 1.88 2.40 2.23 1.42 0.92 0.89 0.88 0.88 0.90 1.06 0.95 0.78 0.99 1.05 1.03 1.04 1.10 0.99 1.03 1.00 1.06 1.19 1.13 1.37
0.55 0.68 0.79 0.81 0.88 0.93 1.07 1.17 1.21 1.29 1.39 1.40 1.42 1.46 1.47 1.41 1.38 1.31 1.28 1.40 1.59 1.96 1.82 1.04 0.94 0.99 1.15 1.34 1.72 1.70 1.61 1.81 1.43 1.21 1.14 0.93 0.80 0.66 0.59 0.61 0.65 0.66 0.77
0.08 0.10 0.12 0.15 0.17 0.24 0.42 0.63 0.79 0.97 1.17 1.32 1.59 1.84 1.95 2.06 2.26 2.24 2.29 2.45 2.58 2.69 2.66 1.72 1.37 1.27 1.25 1.25 1.24 1.14 1.19 1.17 1.25 1.45 1.23 1.09 0.87 0.70 0.63 0.57 0.53 0.50 0.50
0.05 0.05 0.06 0.06 0.06 0.10 0.13 0.15 0.17 0.22 0.30 0.40 0.55 0.71 0.79 0.95 1.21 1.42 1.66 1.82 2.16 2.62 3.05 2.42 1.77 1.61 1.48 1.33 1.12 0.87 0.80 0.85 0.89 1.20 1.20 1.13 1.04 0.94 0.92 0.92 0.81 0.68 0.57
0.06 0.05 0.04 0.05 0.06 0.05 0.06 0.08 0.11 0.14 0.20 0.29 0.36 0.41 0.44 0.47 0.54 0.58 0.69 0.87 1.03 1.18 1.42 1.39 1.09 1.00 1.02 1.15 1.25 1.17 1.04 0.95 0.88 1.15 1.06 1.04 1.08 1.05 0.96 0.90 0.92 0.98 0.96
0.05 0.04 0.05 0.05 0.07 0.08 0.10 0.11 0.11 0.11 0.10 0.10 0.13 0.15 0.22 0.31 0.43 0.62 0.86 0.96 0.92 0.80 0.72 0.65 0.60 0.53 0.50 0.54 0.64 0.68 0.65 0.57 0.49 0.50 0.57 0.57 0.65 0.69 0.78 0.81 0.73 0.70 0.78
0.04 0.04 0.08 0.14 0.16 0.17 0.20 0.19 0.19 0.20 0.21 0.25 0.26 0.31 0.37 0.49 0.57 0.53 0.45 0.36 0.37 0.41 0.43 0.47 0.43 0.33 0.28 0.25 0.26 0.29 0.33 0.39 0.44 0.49 0.41 0.33 0.27 0.23 0.28 0.43 0.59 0.72 0.73
0.10 0.10 0.13 0.14 0.17 0.21 0.37 0.31 0.25 0.26 0.29 0.31 0.34 0.37 0.41 0.50 0.40 0.39 0.30 0.26 0.22 0.26 0.25 0.21 0.17 0.12 0.09 0.11 0.15 0.23 0.32 0.44 0.44 0.32 0.32 0.30 0.26 0.21 0.16 0.16 0.28 0.41 0.54
0.15 0.24 0.25 0.20 0.16 0.15 0.29 0.24 0.22 0.20 0.23 0.25 0.25 0.23 0.20 0.19 0.17 0.13 0.19 0.21 0.25 0.23 0.18 0.12 0.09 0.06 0.07 0.07 0.16 0.20 0.19 0.21 0.15 0.10 0.22 0.30 0.29 0.30 0.22 0.24 0.25 0.23 0.33
0.29 0.25 0.27 0.37 0.45 0.54 0.51 0.36 0.28 0.20 0.19 0.17 0.15 0.13 0.09 0.04 0.03 0.03 0.05 0.11 0.08 0.11 0.16 0.18 0.16 0.16 0.20 0.22 0.27 0.31 0.18 0.14 0.10 0.08 0.14 0.22 0.16 0.22 0.20 0.22 0.32 0.30 0.33
0.68 0.77 0.64 0.55 0.66 0.74 0.61 0.47 0.30 0.22 0.18 0.13 0.07 0.02 0.02 0.01 0.03 0.03 0.05 0.02 0.00 0.01 0.09 0.17 0.26 0.37 0.44 0.45 0.35 0.31 0.36 0.36 0.27 0.13 0.09 0.10 0.09 0.14 0.16 0.17 0.20 0.29 0.32
0.68 0.66 0.70 0.57 0.52 0.48 0.35 0.27 0.20 0.13 0.07 0.03 0.02 0.02 0.03 0.02 0.03 0.06 0.05 0.03 0.04 0.01 0.05 0.06 0.08 0.16 0.26 0.32 0.36 0.23 0.17 0.32 0.35 0.42 0.27 0.34 0.18 0.15 0.31 0.13 0.15 0.22 0.24

GFSMA_prec_precacc_141.txt.gz
Total_Precipitation_Accumulation
0.24 0.21 0.26 0.14 0.13 0.18 0.16 0.21 0.19 0.20 0.18 0.21 0.20 0.18 0.20 0.24 0.25 0.21 0.18 0.23 0.19 0.13 0.16 0.24 0.25 0.23 0.29 0.29 0.39 0.43 0.45 0.36 0.30 0.37 0.58 0.72 0.27 0.17 0.10 0.04 0.02 0.00 0.01
0.33 0.40 0.26 0.19 0.14 0.10 0.18 0.37 0.40 0.41 0.37 0.33 0.23 0.24 0.17 0.19 0.26 0.32 0.27 0.25 0.45 0.37 0.24 0.43 0.50 0.51 0.51 0.58 0.70 0.87 1.04 0.78 0.72 0.80 0.99 0.65 0.44 0.37 0.22 0.14 0.11 0.07 0.03
0.37 0.34 0.67 0.45 0.14 0.13 0.17 0.23 0.29 0.35 0.34 0.43 0.28 0.33 0.41 0.38 0.31 0.22 0.23 0.20 0.29 0.40 0.39 0.27 0.41 0.76 1.05 1.26 1.43 1.84 2.31 2.23 2.05 1.89 1.30 0.82 0.81 0.84 0.59 0.56 0.55 0.35 0.20
0.09 0.28 0.30 0.60 0.57 0.38 0.30 0.24 0.26 0.32 0.29 0.34 0.33 0.27 0.26 0.31 0.26 0.17 0.17 0.16 0.29 0.41 0.61 0.66 0.54 0.78 1.04 1.10 1.16 1.28 1.80 2.18 2.23 2.19 2.34 2.54 2.18 1.85 1.80 1.76 1.53 1.35 1.10
0.12 0.13 0.18 0.26 0.43 0.46 0.40 0.38 0.34 0.29 0.28 0.29 0.21 0.20 0.23 0.22 0.16 0.20 0.22 0.28 0.29 0.34 0.35 0.64 0.91 0.94 0.90 0.80 0.70 0.96 1.13 1.32 1.51 1.69 1.71 1.73 1.66 1.63 1.73 1.88 1.97 1.75 1.47
0.45 0.34 0.28 0.39 0.33 0.30 0.31 0.27 0.26 0.31 0.28 0.19 0.17 0.16 0.17 0.17 0.16 0.20 0.25 0.30 0.21 0.16 0.15 0.17 0.22 0.26 0.38 0.45 0.52 0.58 0.58 0.67 0.90 0.88 0.84 0.89 0.98 0.93 0.98 1.17 1.28 1.42 1.46
0.81 0.73 0.54 0.43 0.35 0.25 0.22 0.22 0.25 0.33 0.40 0.46 0.46 0.26 0.18 0.15 0.16 0.17 0.18 0.17 0.16 0.12 0.08 0.07 0.06 0.09 0.13 0.13 0.10 0.18 0.25 0.29 0.41 0.53 0.59 0.60 0.62 0.60 0.72 0.83 0.92 1.07 1.25
1.13 0.85 0.71 0.69 0.58 0.54 0.45 0.50 0.49 0.48 0.46 0.60 0.57 0.37 0.21 0.16 0.18 0.11 0.09 0.11 0.12 0.14 0.14 0.13 0.09 0.05 0.03 0.03 0.03 0.03 0.08 0.15 0.21 0.45 0.56 0.49 0.53 0.61 0.74 0.88 0.73 0.55 0.54
1.43 1.56 1.86 1.55 1.01 1.02 1.15 1.22 1.28 1.27 1.06 0.82 0.73 0.72 0.43 0.22 0.09 0.08 0.07 0.08 0.09 0.10 0.12 0.14 0.13 0.09 0.05 0.03 0.02 0.02 0.03 0.10 0.19 0.35 0.55 0.66 0.82 0.82 0.66 0.54 0.43 0.48 0.48
1.69 1.86 2.15 2.74 3.21 2.75 1.93 1.63 1.54 1.38 1.43 1.29 1.25 0.98 0.83 0.59 0.39 0.16 0.06 0.06 0.06 0.05 0.06 0.07 0.06 0.07 0.09 0.10 0.08 0.09 0.10 0.16 0.14 0.27 0.60 0.80 1.09 1.07 0.82 0.65 0.64 0.63 0.58
2.02 1.86 1.89 1.96 1.98 2.17 2.63 2.40 1.95 1.84 1.71 1.41 1.16 0.94 0.84 0.80 0.81 0.70 0.37 0.19 0.14 0.09 0.09 0.09 0.10 0.13 0.16 0.18 0.20 0.22 0.35 0.39 0.23 0.49 0.77 1.06 1.11 1.28 1.50 1.48 1.17 0.94 0.84
1.80 1.70 1.52 1.38 1.41 1.46 1.56 1.92 1.95 1.68 1.57 1.61 1.53 1.36 1.14 1.08 0.92 1.03 0.94 0.59 0.51 0.37 0.27 0.24 0.20 0.17 0.20 0.23 0.26 0.33 0.35 0.39 0.47 0.64 0.82 1.07 1.22 1.31 1.45 1.57 1.56 1.40 1.31
1.72 1.65 1.53 1.53 1.41 1.42 1.46 1.55 1.71 1.64 1.46 1.31 1.26 1.29 1.40 1.42 1.39 1.42 1.36 1.00 0.68 0.44 0.33 0.19 0.12 0.14 0.16 0.15 0.19 0.35 0.36 0.39 0.43 0.60 0.77 0.97 1.25 1.31 1.37 1.70 2.38 2.70 2.78
1.55 1.87 1.77 1.74 1.78 1.73 1.71 1.72 1.76 1.81 1.71 1.62 1.63 1.56 1.50 1.46 1.59 1.75 1.86 1.86 1.72 1.12 0.69 0.47 0.32 0.37 0.39 0.38 0.48 0.62 0.45 0.54 0.55 0.69 0.90 1.09 1.31 1.38 1.44 1.56 1.67 1.73 2.08
1.18 1.31 1.42 1.33 1.32 1.32 1.29 1.37 1.38 1.37 1.49 1.53 1.42 1.35 1.29 1.17 1.28 1.40 1.57 1.88 2.40 2.23 1.42 0.92 0.89 0.88 0.88 0.90 1.06 0.95 0.78 0.99 1.05 1.03 1.04 1.10 0.99 1.03 1.00 1.06 1.19 1.13 1.37
0.55 0.68 0.79 0.81 0.88 0.93 1.07 1.17 1.21 1.29 1.39 1.40 1.42 1.46 1.47 1.41 1.38 1.31 1.28 1.40 1.59 1.96 1.82 1.04 0.94 0.99 1.15 1.34 1.72 1.70 1.61 1.81 1.43 1.21 1.14 0.93 0.80 0.66 0.59 0.61 0.65 0.66 0.77
0.08 0.10 0.12 0.15 0.17 0.24 0.42 0.63 0.79 0.97 1.17 1.32 1.59 1.84 1.95 2.06 2.26 2.24 2.29 2.45 2.58 2.69 2.66 1.72 1.37 1.27 1.25 1.25 1.24 1.14 1.19 1.17 1.25 1.45 1.23 1.09 0.87 0.70 0.63 0.57 0.53 0.50 0.50
0.05 0.05 0.06 0.06 0.06 0.10 0.13 0.15 0.17 0.22 0.30 0.40 0.55 0.71 0.79 0.95 1.21 1.42 1.66 1.82 2.16 2.62 3.05 2.42 1.77 1.61 1.48 1.33 1.12 0.87 0.80 0.85 0.89 1.20 1.20 1.13 1.04 0.94 0.92 0.92 0.81 0.68 0.57
0.06 0.05 0.04 0.05 0.06 0.05 0.06 0.08 0.11 0.14 0.20 0.29 0.36 0.41 0.44 0.47 0.54 0.58 0.69 0.87 1.03 1.18 1.42 1.39 1.09 1.00 1.02 1.15 1.25 1.17 1.04 0.95 0.88 1.15 1.06 1.04 1.08 1.05 0.96 0.90 0.92 0.98 0.96
0.05 0.04 0.05 0.05 0.07 0.08 0.10 0.11 0.11 0.11 0.10 0.10 0.13 0.15 0.22 0.31 0.43 0.62 0.86 0.96 0.92 0.80 0.72 0.65 0.60 0.53 0.50 0.54 0.64 0.68 0.65 0.57 0.49 0.50 0.57 0.57 0.65 0.69 0.78 0.81 0.73 0.70 0.78
0.04 0.04 0.08 0.14 0.16 0.17 0.20 0.19 0.19 0.20 0.21 0.25 0.26 0.31 0.37 0.49 0.57 0.53 0.45 0.36 0.37 0.41 0.43 0.47 0.43 0.33 0.28 0.25 0.26 0.29 0.33 0.39 0.44 0.49 0.41 0.33 0.27 0.23 0.28 0.43 0.59 0.72 0.73
0.10 0.10 0.13 0.14 0.17 0.21 0.37 0.31 0.25 0.26 0.29 0.31 0.34 0.37 0.41 0.50 0.40 0.39 0.30 0.26 0.22 0.26 0.25 0.21 0.17 0.12 0.09 0.11 0.15 0.23 0.32 0.44 0.44 0.32 0.32 0.30 0.26 0.21 0.16 0.16 0.28 0.41 0.54
0.15 0.24 0.25 0.20 0.16 0.15 0.29 0.24 0.22 0.20 0.23 0.25 0.25 0.23 0.20 0.19 0.17 0.13 0.19 0.21 0.25 0.23 0.18 0.12 0.09 0.06 0.07 0.07 0.16 0.20 0.19 0.21 0.15 0.10 0.22 0.30 0.29 0.30 0.22 0.24 0.25 0.23 0.33
0.29 0.25 0.27 0.37 0.45 0.54 0.51 0.36 0.28 0.20 0.19 0.17 0.15 0.13 0.09 0.04 0.03 0.03 0.05 0.11 0.08 0.11 0.16 0.18 0.16 0.16 0.20 0.22 0.27 0.31 0.18 0.14 0.10 0.08 0.14 0.22 0.16 0.22 0.20 0.22 0.32 0.30 0.33
0.68 0.77 0.64 0.55 0.66 0.74 0.61 0.47 0.30 0.22 0.18 0.13 0.07 0.02 0.02 0.01 0.03 0.04 0.05 0.02 0.00 0.01 0.09 0.17 0.26 0.37 0.44 0.45 0.35 0.33 0.38 0.37 0.28 0.13 0.09 0.10 0.09 0.14 0.16 0.17 0.20 0.29 0.32
0.68 0.66 0.70 0.57 0.52 0.48 0.35 0.27 0.20 0.13 0.07 0.03 0.02 0.02 0.03 0.02 0.03 0.07 0.06 0.03 0.04 0.01 0.05 0.06 0.08 0.16 0.26 0.32 0.36 0.23 0.17 0.34 0.35 0.42 0.27 0.34 0.18 0.15 0.31 0.13 0.15 0.22 0.24

GFSMA_prec_precacc_147.txt.gz
Total_Precipitation_Accumulation
0.24 0.21 0.26 0.14 0.13 0.18 0.16 0.21 0.19 0.20 0.18 0.21 0.20 0.18 0.20 0.24 0.25 0.22 0.18 0.24 0.19 0.13 0.16 0.25 0.27 0.26 0.32 0.33 0.43 0.45 0.48 0.37 0.30 0.37 0.59 0.81 0.47 0.28 0.14 0.07 0.04 0.03 0.05
0.33 0.40 0.26 0.19 0.14 0.10 0.18 0.37 0.40 0.41 0.37 0.33 0.23 0.24 0.17 0.19 0.26 0.32 0.28 0.26 0.46 0.37 0.25 0.45 0.52 0.53 0.53 0.61 0.74 0.91 1.06 0.80 0.74 0.82 1.00 0.66 0.44 0.37 0.22 0.14 0.13 0.17 0.15
0.37 0.34 0.67 0.45 0.14 0.13 0.17 0.23 0.29 0.35 0.34 0.43 0.28 0.33 0.41 0.38 0.31 0.22 0.23 0.20 0.30 0.41 0.40 0.28 0.42 0.77 1.05 1.27 1.46 1.87 2.33 2.24 2.07 1.91 1.32 0.84 0.82 0.84 0.59 0.56 0.63 0.56 0.28
0.09 0.28 0.30 0.60 0.57 0.38 0.30 0.24 0.26 0.32 0.29 0.34 0.33 0.28 0.26 0.31 0.26 0.17 0.17 0.16 0.29 0.41 0.62 0.66 0.54 0.78 1.04 1.10 1.16 1.28 1.81 2.18 2.24 2.20 2.36 2.56 2.21 1.87 1.82 1.77 1.55 1.45 1.40
0.12 0.13 0.18 0.26 0.43 0.46 0.40 0.38 0.34 0.29 0.28 0.29 0.22 0.21 0.23 0.22 0.16 0.20 0.22 0.28 0.29 0.34 0.35 0.64 0.91 0.94 0.90 0.80 0.70 0.96 1.13 1.32 1.52 1.69 1.72 1.74 1.68 1.65 1.76 1.91 2.01 1.80 1.56
0.45 0.34 0.28 0.39 0.33 0.30 0.31 0.27 0.26 0.31 0.28 0.19 0.17 0.16 0.17 0.17 0.16 0.20 0.25 0.30 0.21 0.16 0.15 0.17 0.22 0.26 0.38 0.45 0.52 0.58 0.58 0.67 0.90 0.88 0.84 0.90 0.99 0.94 1.00 1.22 1.34 1.52 1.60
0.81 0.73 0.54 0.43 0.35 0.25 0.22 0.22 0.25 0.33 0.40 0.46 0.46 0.26 0.18 0.15 0.16 0.17 0.18 0.17 0.16 0.12 0.08 0.07 0.06 0.09 0.13 0.13 0.10 0.18 0.25 0.29 0.41 0.53 0.59 0.60 0.62 0.61 0.73 0.88 0.98 1.17 1.40
1.13 0.85 0.71 0.69 0.58 0.54 0.45 0.50 0.49 0.48 0.46 0.60 0.57 0.37 0.21 0.16 0.18 0.11 0.09 0.11 0.12 0.14 0.14 0.13 0.09 0.05 0.03 0.03 0.03 0.03 0.08 0.15 0.21 0.45 0.56 0.49 0.53 0.61 0.75 0.92 0.78 0.60 0.58
1.43 1.56 1.86 1.55 1.01 1.02 1.15 1.22 1.28 1.27 1.06 0.82 0.73 0.72 0.43 0.22 0.09 0.08 0.07 0.08 0.09 0.10 0.12 0.14 0.13 0.09 0.05 0.03 0.02 0.02 0.03 0.10 0.19 0.35 0.55 0.66 0.82 0.82 0.66 0.55 0.45 0.50 0.51
1.69 1.86 2.15 2.74 3.21 2.75 1.93 1.63 1.54 1.38 1.43 1.29 1.25 0.98 0.83 0.59 0.39 0.16 0.06 0.06 0.06 0.05 0.06 0.07 0.06 0.07 0.09 0.10 0.08 0.09 0.10 0.16 0.14 0.27 0.60 0.80 1.09 1.07 0.82 0.65 0.64 0.64 0.59
2.02 1.86 1.89 1.96 1.98 2.17 2.63 2.40 1.95 1.84 1.71 1.41 1.16 0.94 0.84 0.80 0.81 0.70 0.37 0.19 0.14 0.09 0.09 0.09 0.10 0.13 0.16 0.18 0.20 0.22 0.35 0.39 0.23 0.49 0.77 1.06 1.11 1.28 1.50 1.48 1.17 0.94 0.84
1.80 1.70 1.52 1.38 1.41 1.46 1.56 1.92 1.95 1.68 1.57 1.61 1.53 1.36 1.14 1.08 0.92 1.03 0.94 0.59 0.51 0.37 0.27 0.24 0.20 0.17 0.20 0.23 0.26 0.33 0.35 0.39 0.47 0.64 0.82 1.07 1.22 1.31 1.45 1.57 1.56 1.40 1.31
1.72 1.65 1.53 1.53 1.41 1.42 1.46 1.55 1.71 1.64 1.46 1.31 1.26 1.29 1.40 1.42 1.39 1.42 1.36 1.00 0.68 0.44 0.33 0.19 0.12 0.14 0.16 0.15 0.19 0.35 0.36 0.39 0.43 0.60 0.77 0.97 1.25 1.31 1.37 1.70 2.38 2.70 2.78
1.55 1.87 1.77 1.74 1.78 1.73 1.71 1.72 1.76 1.81 1.71 1.62 1.63 1.56 1.50 1.46 1.59 1.75 1.86 1.86 1.72 1.12 0.69 0.47 0.32 0.37 0.39 0.38 0.48 0.62 0.45 0.54 0.55 0.69 0.90 1.09 1.31 1.38 1.44 1.56 1.67 1.73 2.08
1.18 1.31 1.42 1.33 1.32 1.32 1.29 1.37 1.38 1.37 1.49 1.53 1.42 1.35 1.29 1.17 1.28 1.40 1.57 1.88 2.40 2.23 1.42 0.92 0.89 0.88 0.88 0.90 1.06 0.95 0.78 0.99 1.05 1.03 1.04 1.10 0.99 1.03 1.00 1.06 1.19 1.13 1.37
0.55 0.68 0.79 0.81 0.88 0.93 1.07 1.17 1.21 1.29 1.39 1.40 1.42 1.46 1.47 1.41 1.38 1.31 1.28 1.40 1.59 1.96 1.82 1.04 0.94 0.99 1.15 1.34 1.72 1.70 1.61 1.81 1.43 1.21 1.14 0.93 0.80 0.66 0.59 0.61 0.65 0.66 0.77
0.08 0.10 0.12 0.15 0.17 0.24 0.42 0.63 0.79 0.97 1.17 1.32 1.59 1.84 1.95 2.06 2.26 2.24 2.29 2.45 2.58 2.69 2.66 1.72 1.37 1.27 1.25 1.25 1.24 1.14 1.19 1.17 1.25 1.45 1.23 1.09 0.87 0.70 0.63 0.57 0.53 0.50 0.50
0.05 0.05 0.06 0.06 0.06 0.10 0.13 0.15 0.17 0.22 0.30 0.40 0.55 0.71 0.79 0.95 1.21 1.42 1.66 1.82 2.16 2.62 3.05 2.42 1.77 1.61 1.48 1.33 1.12 0.87 0.80 0.85 0.89 1.20 1.20 1.13 1.04 0.94 0.92 0.92 0.81 0.68 0.57
0.06 0.05 0.04 0.05 0.06 0.05 0.06 0.08 0.11 0.14 0.20 0.29 0.36 0.41 0.44 0.47 0.54 0.58 0.69 0.87 1.03 1.18 1.42 1.39 1.09 1.00 1.02 1.15 1.25 1.17 1.04 0.95 0.88 1.15 1.06 1.04 1.08 1.05 0.96 0.90 0.92 0.98 0.96
0.05 0.04 0.05 0.05 0.07 0.08 0.10 0.11 0.11 0.11 0.10 0.10 0.13 0.15 0.22 0.31 0.43 0.62 0.86 0.96 0.92 0.80 0.72 0.65 0.60 0.53 0.50 0.54 0.64 0.68 0.65 0.57 0.49 0.50 0.57 0.57 0.65 0.69 0.78 0.81 0.73 0.70 0.78
0.04 0.04 0.08 0.14 0.16 0.17 0.20 0.19 0.19 0.20 0.21 0.25 0.26 0.31 0.37 0.49 0.57 0.53 0.45 0.36 0.37 0.41 0.43 0.47 0.43 0.33 0.28 0.25 0.26 0.29 0.33 0.39 0.44 0.49 0.41 0.33 0.27 0.23 0.28 0.43 0.59 0.72 0.73
0.10 0.10 0.13 0.14 0.17 0.21 0.37 0.31 0.25 0.26 0.29 0.31 0.34 0.37 0.41 0.50 0.40 0.39 0.30 0.26 0.22 0.26 0.25 0.21 0.17 0.12 0.09 0.11 0.15 0.23 0.32 0.44 0.44 0.32 0.32 0.30 0.26 0.21 0.16 0.16 0.28 0.41 0.54
0.15 0.24 0.25 0.20 0.16 0.15 0.29 0.24 0.22 0.20 0.23 0.25 0.25 0.23 0.20 0.19 0.17 0.13 0.19 0.21 0.25 0.23 0.19 0.12 0.09 0.06 0.07 0.07 0.16 0.20 0.19 0.21 0.15 0.10 0.22 0.31 0.29 0.30 0.22 0.24 0.25 0.23 0.33
0.29 0.25 0.27 0.37 0.45 0.54 0.51 0.36 0.28 0.20 0.19 0.17 0.15 0.13 0.09 0.04 0.03 0.03 0.05 0.11 0.08 0.11 0.16 0.19 0.17 0.17 0.20 0.22 0.27 0.31 0.18 0.14 0.10 0.08 0.14 0.23 0.16 0.22 0.20 0.22 0.32 0.30 0.33
0.68 0.77 0.64 0.55 0.66 0.74 0.61 0.47 0.30 0.22 0.18 0.13 0.07 0.02 0.02 0.01 0.03 0.04 0.05 0.02 0.00 0.01 0.09 0.18 0.27 0.37 0.44 0.45 0.35 0.33 0.39 0.38 0.28 0.13 0.09 0.10 0.09 0.14 0.16 0.17 0.20 0.29 0.32
0.68 0.66 0.70 0.57 0.52 0.48 0.35 0.27 0.20 0.13 0.07 0.03 0.02 0.02 0.03 0.02 0.03 0.07 0.06 0.03 0.04 0.01 0.05 0.07 0.09 0.16 0.26 0.32 0.36 0.24 0.18 0.35 0.36 0.43 0.27 0.34 0.18 0.15 0.31 0.13 0.15 0.22 0.24

GFSMA_prec_precacc_150.txt.gz
Total_Precipitation_Accumulation
0.24 0.21 0.26 0.14 0.13 0.18 0.16 0.21 0.19 0.20 0.18 0.21 0.20 0.18 0.20 0.24 0.25 0.22 0.19 0.25 0.19 0.13 0.17 0.26 0.28 0.27 0.33 0.34 0.44 0.46 0.49 0.38 0.31 0.38 0.60 0.81 0.47 0.28 0.14 0.07 0.04 0.03 0.05
0.33 0.40 0.26 0.19 0.14 0.10 0.18 0.37 0.40 0.41 0.37 0.33 0.23 0.24 0.17 0.19 0.26 0.32 0.28 0.26 0.46 0.37 0.25 0.45 0.52 0.53 0.53 0.62 0.76 0.91 1.06 0.80 0.74 0.83 1.01 0.67 0.44 0.37 0.23 0.14 0.13 0.17 0.15
0.37 0.34 0.67 0.45 0.14 0.13 0.17 0.23 0.29 0.35 0.34 0.43 0.28 0.33 0.41 0.38 0.31 0.22 0.23 0.20 0.30 0.41 0.40 0.28 0.42 0.77 1.05 1.27 1.46 1.87 2.33 2.25 2.07 1.91 1.32 0.84 0.82 0.85 0.60 0.57 0.63 0.56 0.28
0.09 0.28 0.30 0.60 0.57 0.38 0.30 0.24 0.26 0.32 0.29 0.34 0.33 0.28 0.26 0.31 0.26 0.17 0.17 0.16 0.29 0.41 0.62 0.66 0.54 0.78 1.04 1.10 1.16 1.28 1.81 2.18 2.24 2.20 2.36 2.57 2.21 1.87 1.82 1.77 1.55 1.45 1.40
0.12 0.13 0.18 0.26 0.43 0.46 0.40 0.38 0.34 0.29 0.28 0.29 0.22 0.21 0.23 0.22 0.16 0.20 0.22 0.28 0.29 0.34 0.35 0.64 0.91 0.94 0.90 0.80 0.70 0.96 1.13 1.32 1.52 1.69 1.72 1.74 1.68 1.66 1.76 1.93 2.01 1.80 1.57
0.45 0.34 0.28 0.39 0.33 0.30 0.31 0.27 0.26 0.31 0.28 0.19 0.18 0.16 0.17 0.17 0.16 0.20 0.25 0.30 0.21 0.16 0.15 0.17 0.22 0.26 0.38 0.45 0.52 0.58 0.58 0.67 0.90 0.88 0.84 0.90 0.99 0.94 1.01 1.24 1.35 1.52 1.61
0.81 0.73 0.54 0.43 0.35 0.25 0.22 0.22 0.25 0.33 0.40 0.46 0.46 0.26 0.18 0.15 0.16 0.17 0.18 0.17 0.16 0.12 0.08 0.07 0.06 0.09 0.13 0.13 0.10 0.18 0.25 0.29 0.41 0.53 0.59 0.60 0.62 0.61 0.73 0.89 0.99 1.17 1.41
1.13 0.85 0.71 0.69 0.58 0.54 0.45 0.50 0.49 0.48 0.46 0.60 0.57 0.37 0.21 0.16 0.18 0.11 0.09 0.11 0.12 0.14 0.14 0.13 0.09 0.05 0.03 0.03 0.03 0.03 0.08 0.15 0.21 0.45 0.56 0.49 0.53 0.61 0.75 0.92 0.79 0.61 0.58
1.43 1.56 1.86 1.55 1.01 1.02 1.15 1.22 1.28 1.27 1.06 0.82 0.73 0.72 0.43 0.22 0.09 0.08 0.07 0.08 0.09 0.10 0.12 0.14 0.13 0.09 0.05 0.03 0.02 0.02 0.03 0.10 0.19 0.35 0.55 0.66 0.82 0.82 0.66 0.55 0.45 0.50 0.51
1.69 1.86 2.15 2.74 3.21 2.75 1.93 1.63 1.54 1.38 1.43 1.29 1.25 0.98 0.83 0.59 0.39 0.16 0.06 0.06 0.06 0.05 0.06 0.07 0.06 0.07 0.09 0.10 0.08 0.09 0.10 0.16 0.14 0.27 0.60 0.80 1.09 1.07 0.82 0.65 0.64 0.64 0.59
2.02 1.86 1.89 1.96 1.98 2.17 2.63 2.40 1.95 1.84 1.71 1.41 1.16 0.94 0.84 0.80 0.81 0.70 0.37 0.19 0.14 0.09 0.09 0.09 0.10 0.13 0.16 0.18 0.20 0.22 0.35 0.39 0.23 0.49 0.77 1.06 1.11 1.28 1.50 1.48 1.17 0.94 0.84
1.80 1.70 1.52 1.38 1.41 1.46 1.56 1.92 1.95 1.68 1.57 1.61 1.53 1.36 1.14 1.08 0.92 1.03 0.94 0.59 0.51 0.37 0.27 0.24 0.20 0.17 0.20 0.23 0.26 0.33 0.35 0.39 0.47 0.64 0.82 1.07 1.22 1.31 1.45 1.57 1.56 1.40 1.31
1.72 1.65 1.53 1.53 1.41 1.42 1.46 1.55 1.71 1.64 1.46 1.31 1.26 1.29 1.40 1.42 1.39 1.42 1.36 1.00 0.68 0.44 0.33 0.19 0.12 0.14 0.16 0.15 0.19 0.35 0.36 0.39 0.43 0.60 0.77 0.97 1.25 1.31 1.37 1.70 2.38 2.70 2.78
1.55 1.87 1.77 1.74 1.78 1.73 1.71 1.72 1.76 1.81 1.71 1.62 1.63 1.56 1.50 1.46 1.59 1.75 1.86 1.86 1.72 1.12 0.69 0.47 0.32 0.37 0.39 0.38 0.48 0.62 0.45 0.54 0.55 0.69 0.90 1.09 1.31 1.38 1.44 1.56 1.67 1.73 2.08
1.18 1.31 1.42 1.33 1.32 1.32 1.29 1.37 1.38 1.37 1.49 1.53 1.42 1.35 1.29 1.17 1.28 1.40 1.57 1.88 2.40 2.23 1.42 0.92 0.89 0.88 0.88 0.90 1.06 0.95 0.78 0.99 1.05 1.03 1.04 1.10 0.99 1.03 1.00 1.06 1.19 1.13 1.37
0.55 0.68 0.79 0.81 0.88 0.93 1.07 1.17 1.21 1.29 1.39 1.40 1.42 1.46 1.47 1.41 1.38 1.31 1.28 1.40 1.59 1.96 1.82 1.04 0.94 0.99 1.15 1.34 1.72 1.70 1.61 1.81 1.43 1.21 1.14 0.93 0.80 0.66 0.59 0.61 0.65 0.66 0.77
0.08 0.10 0.12 0.15 0.17 0.24 0.42 0.63 0.79 0.97 1.17 1.32 1.59 1.84 1.95 2.06 2.26 2.24 2.29 2.45 2.58 2.69 2.66 1.72 1.37 1.27 1.25 1.25 1.24 1.14 1.19 1.17 1.25 1.45 1.23 1.09 0.87 0.70 0.63 0.57 0.53 0.50 0.50
0.05 0.05 0.06 0.06 0.06 0.10 0.13 0.15 0.17 0.22 0.30 0.40 0.55 0.71 0.79 0.95 1.21 1.42 1.66 1.82 2.16 2.62 3.05 2.42 1.77 1.61 1.48 1.33 1.12 0.87 0.80 0.85 0.89 1.20 1.20 1.13 1.04 0.94 0.92 0.92 0.81 0.68 0.57
0.06 0.05 0.04 0.05 0.06 0.05 0.06 0.08 0.11 0.14 0.20 0.29 0.36 0.41 0.44 0.47 0.54 0.58 0.69 0.87 1.03 1.18 1.42 1.39 1.09 1.00 1.02 1.15 1.25 1.17 1.04 0.95 0.88 1.15 1.06 1.04 1.08 1.05 0.96 0.90 0.92 0.98 0.96
0.05 0.04 0.05 0.05 0.07 0.08 0.10 0.11 0.11 0.11 0.10 0.10 0.13 0.15 0.22 0.31 0.43 0.62 0.86 0.96 0.92 0.80 0.72 0.65 0.60 0.53 0.50 0.54 0.64 0.68 0.65 0.57 0.49 0.50 0.57 0.57 0.65 0.69 0.78 0.81 0.73 0.70 0.78
0.04 0.04 0.08 0.14 0.16 0.17 0.20 0.19 0.19 0.20 0.21 0.25 0.26 0.31 0.37 0.49 0.57 0.53 0.45 0.36 0.37 0.41 0.43 0.47 0.43 0.33 0.28 0.25 0.26 0.29 0.33 0.39 0.44 0.49 0.41 0.33 0.27 0.23 0.28 0.43 0.59 0.72 0.73
0.10 0.10 0.13 0.14 0.17 0.21 0.37 0.31 0.25 0.26 0.29 0.31 0.34 0.37 0.41 0.50 0.40 0.39 0.30 0.26 0.22 0.26 0.25 0.21 0.17 0.12 0.09 0.11 0.15 0.23 0.32 0.44 0.44 0.32 0.32 0.30 0.26 0.21 0.16 0.16 0.28 0.41 0.54
0.15 0.24 0.25 0.20 0.16 0.15 0.29 0.24 0.22 0.20 0.23 0.25 0.25 0.23 0.20 0.19 0.17 0.13 0.19 0.21 0.25 0.23 0.19 0.12 0.09 0.06 0.07 0.07 0.16 0.20 0.19 0.21 0.15 0.10 0.22 0.31 0.29 0.30 0.22 0.24 0.25 0.23 0.33
0.29 0.25 0.27 0.37 0.45 0.54 0.51 0.36 0.28 0.20 0.19 0.17 0.15 0.13 0.09 0.04 0.03 0.03 0.05 0.11 0.08 0.11 0.16 0.19 0.17 0.17 0.20 0.22 0.27 0.31 0.18 0.14 0.10 0.08 0.14 0.23 0.16 0.22 0.20 0.22 0.32 0.30 0.33
0.68 0.77 0.64 0.55 0.66 0.74 0.61 0.47 0.30 0.22 0.18 0.13 0.07 0.02 0.02 0.01 0.03 0.04 0.05 0.02 0.00 0.01 0.09 0.18 0.27 0.37 0.44 0.45 0.35 0.34 0.40 0.39 0.29 0.13 0.09 0.11 0.09 0.14 0.16 0.17 0.20 0.29 0.32
0.68 0.66 0.70 0.57 0.52 0.48 0.35 0.27 0.20 0.13 0.07 0.03 0.02 0.02 0.03 0.02 0.03 0.07 0.06 0.03 0.04 0.01 0.05 0.07 0.09 0.16 0.26 0.33 0.37 0.25 0.19 0.36 0.36 0.43 0.27 0.34 0.18 0.15 0.31 0.13 0.15 0.22 0.24